<?xml version="1.0" encoding="UTF-8" standalone="no" ?>
<gpx xmlns="http://www.topografix.com/GPX/1/1" xmlns:xsi="http://www.w3.org/2001/XMLSchema-instance" xsi:schemaLocation="http://www.topografix.com/GPX/1/1 http://www.topografix.com/GPX/1/1/gpx.xsd" version="1.1" creator="VisuGPX - https://www.visugpx.com">
  <metadata>
    <name>Nancy E8</name>
    <desc><![CDATA[Rando Aulnay Nancy Allemagne juin 2014
hub03grall]]></desc>
  </metadata>
  <trk>
    <name><![CDATA[Nancy E8_1]]></name>
    <trkseg>
      <trkpt lat="48.71157" lon="6.25788">
        <ele>209</ele>
        <time>2014-06-05T07:22:47Z</time>
      </trkpt>
      <trkpt lat="48.7113" lon="6.25804">
        <ele>215</ele>
        <time>2014-06-05T07:23:04Z</time>
      </trkpt>
      <trkpt lat="48.71125" lon="6.25805">
        <ele>215</ele>
        <time>2014-06-05T07:23:09Z</time>
      </trkpt>
      <trkpt lat="48.7112" lon="6.25796">
        <ele>213</ele>
        <time>2014-06-05T07:23:14Z</time>
      </trkpt>
      <trkpt lat="48.71113" lon="6.25777">
        <ele>211</ele>
        <time>2014-06-05T07:23:19Z</time>
      </trkpt>
      <trkpt lat="48.71104" lon="6.25752">
        <ele>211</ele>
        <time>2014-06-05T07:23:24Z</time>
      </trkpt>
      <trkpt lat="48.71094" lon="6.25724">
        <ele>211</ele>
        <time>2014-06-05T07:23:29Z</time>
      </trkpt>
      <trkpt lat="48.71085" lon="6.25691">
        <ele>211</ele>
        <time>2014-06-05T07:23:34Z</time>
      </trkpt>
      <trkpt lat="48.71074" lon="6.25656">
        <ele>211</ele>
        <time>2014-06-05T07:23:39Z</time>
      </trkpt>
      <trkpt lat="48.71063" lon="6.2562">
        <ele>212</ele>
        <time>2014-06-05T07:23:44Z</time>
      </trkpt>
      <trkpt lat="48.71052" lon="6.25585">
        <ele>212</ele>
        <time>2014-06-05T07:23:49Z</time>
      </trkpt>
      <trkpt lat="48.71043" lon="6.25552">
        <ele>213</ele>
        <time>2014-06-05T07:23:54Z</time>
      </trkpt>
      <trkpt lat="48.71033" lon="6.25522">
        <ele>215</ele>
        <time>2014-06-05T07:23:59Z</time>
      </trkpt>
      <trkpt lat="48.71031" lon="6.25494">
        <ele>216</ele>
        <time>2014-06-05T07:24:04Z</time>
      </trkpt>
      <trkpt lat="48.71044" lon="6.2547">
        <ele>216</ele>
        <time>2014-06-05T07:24:09Z</time>
      </trkpt>
      <trkpt lat="48.71062" lon="6.25458">
        <ele>216</ele>
        <time>2014-06-05T07:24:14Z</time>
      </trkpt>
      <trkpt lat="48.71082" lon="6.25442">
        <ele>216</ele>
        <time>2014-06-05T07:24:19Z</time>
      </trkpt>
      <trkpt lat="48.71097" lon="6.25432">
        <ele>214</ele>
        <time>2014-06-05T07:24:24Z</time>
      </trkpt>
      <trkpt lat="48.71099" lon="6.25418">
        <ele>213</ele>
        <time>2014-06-05T07:24:29Z</time>
      </trkpt>
      <trkpt lat="48.71089" lon="6.25393">
        <ele>212</ele>
        <time>2014-06-05T07:24:34Z</time>
      </trkpt>
      <trkpt lat="48.71079" lon="6.25367">
        <ele>212</ele>
        <time>2014-06-05T07:24:39Z</time>
      </trkpt>
      <trkpt lat="48.71094" lon="6.25346">
        <ele>212</ele>
        <time>2014-06-05T07:24:44Z</time>
      </trkpt>
      <trkpt lat="48.71116" lon="6.2533">
        <ele>212</ele>
        <time>2014-06-05T07:24:49Z</time>
      </trkpt>
      <trkpt lat="48.71137" lon="6.25316">
        <ele>212</ele>
        <time>2014-06-05T07:24:54Z</time>
      </trkpt>
      <trkpt lat="48.71154" lon="6.25306">
        <ele>212</ele>
        <time>2014-06-05T07:24:59Z</time>
      </trkpt>
      <trkpt lat="48.71172" lon="6.25302">
        <ele>212</ele>
        <time>2014-06-05T07:25:04Z</time>
      </trkpt>
      <trkpt lat="48.71183" lon="6.25288">
        <ele>212</ele>
        <time>2014-06-05T07:25:09Z</time>
      </trkpt>
      <trkpt lat="48.71173" lon="6.2527">
        <ele>212</ele>
        <time>2014-06-05T07:25:14Z</time>
      </trkpt>
      <trkpt lat="48.71159" lon="6.25253">
        <ele>211</ele>
        <time>2014-06-05T07:25:19Z</time>
      </trkpt>
      <trkpt lat="48.71148" lon="6.25231">
        <ele>211</ele>
        <time>2014-06-05T07:25:24Z</time>
      </trkpt>
      <trkpt lat="48.71145" lon="6.2522">
        <ele>211</ele>
        <time>2014-06-05T07:25:29Z</time>
      </trkpt>
      <trkpt lat="48.71144" lon="6.25216">
        <ele>211</ele>
        <time>2014-06-05T07:25:39Z</time>
      </trkpt>
      <trkpt lat="48.71136" lon="6.25196">
        <ele>211</ele>
        <time>2014-06-05T07:25:44Z</time>
      </trkpt>
      <trkpt lat="48.71126" lon="6.25164">
        <ele>211</ele>
        <time>2014-06-05T07:25:49Z</time>
      </trkpt>
      <trkpt lat="48.71115" lon="6.25126">
        <ele>211</ele>
        <time>2014-06-05T07:25:54Z</time>
      </trkpt>
      <trkpt lat="48.71105" lon="6.25084">
        <ele>211</ele>
        <time>2014-06-05T07:25:59Z</time>
      </trkpt>
      <trkpt lat="48.71095" lon="6.25044">
        <ele>211</ele>
        <time>2014-06-05T07:26:04Z</time>
      </trkpt>
      <trkpt lat="48.71085" lon="6.25004">
        <ele>211</ele>
        <time>2014-06-05T07:26:09Z</time>
      </trkpt>
      <trkpt lat="48.71064" lon="6.24986">
        <ele>211</ele>
        <time>2014-06-05T07:26:14Z</time>
      </trkpt>
      <trkpt lat="48.71031" lon="6.24995">
        <ele>211</ele>
        <time>2014-06-05T07:26:20Z</time>
      </trkpt>
      <trkpt lat="48.71002" lon="6.24995">
        <ele>211</ele>
        <time>2014-06-05T07:26:25Z</time>
      </trkpt>
      <trkpt lat="48.70977" lon="6.24981">
        <ele>211</ele>
        <time>2014-06-05T07:26:30Z</time>
      </trkpt>
      <trkpt lat="48.70955" lon="6.24962">
        <ele>211</ele>
        <time>2014-06-05T07:26:35Z</time>
      </trkpt>
      <trkpt lat="48.70937" lon="6.24941">
        <ele>211</ele>
        <time>2014-06-05T07:26:40Z</time>
      </trkpt>
      <trkpt lat="48.70922" lon="6.24922">
        <ele>211</ele>
        <time>2014-06-05T07:26:45Z</time>
      </trkpt>
      <trkpt lat="48.70901" lon="6.2491">
        <ele>211</ele>
        <time>2014-06-05T07:26:50Z</time>
      </trkpt>
      <trkpt lat="48.70881" lon="6.24889">
        <ele>211</ele>
        <time>2014-06-05T07:26:55Z</time>
      </trkpt>
      <trkpt lat="48.7086" lon="6.24865">
        <ele>211</ele>
        <time>2014-06-05T07:27:00Z</time>
      </trkpt>
      <trkpt lat="48.7084" lon="6.24835">
        <ele>210</ele>
        <time>2014-06-05T07:27:05Z</time>
      </trkpt>
      <trkpt lat="48.70824" lon="6.24802">
        <ele>209</ele>
        <time>2014-06-05T07:27:10Z</time>
      </trkpt>
      <trkpt lat="48.70811" lon="6.24765">
        <ele>208</ele>
        <time>2014-06-05T07:27:15Z</time>
      </trkpt>
      <trkpt lat="48.70798" lon="6.2473">
        <ele>208</ele>
        <time>2014-06-05T07:27:20Z</time>
      </trkpt>
      <trkpt lat="48.70786" lon="6.24694">
        <ele>208</ele>
        <time>2014-06-05T07:27:25Z</time>
      </trkpt>
      <trkpt lat="48.70772" lon="6.24656">
        <ele>207</ele>
        <time>2014-06-05T07:27:30Z</time>
      </trkpt>
      <trkpt lat="48.7076" lon="6.24622">
        <ele>207</ele>
        <time>2014-06-05T07:27:35Z</time>
      </trkpt>
      <trkpt lat="48.70742" lon="6.24607">
        <ele>207</ele>
        <time>2014-06-05T07:27:40Z</time>
      </trkpt>
      <trkpt lat="48.70723" lon="6.24621">
        <ele>207</ele>
        <time>2014-06-05T07:27:45Z</time>
      </trkpt>
      <trkpt lat="48.70706" lon="6.24639">
        <ele>207</ele>
        <time>2014-06-05T07:27:50Z</time>
      </trkpt>
      <trkpt lat="48.70689" lon="6.24659">
        <ele>207</ele>
        <time>2014-06-05T07:27:55Z</time>
      </trkpt>
      <trkpt lat="48.7067" lon="6.24677">
        <ele>207</ele>
        <time>2014-06-05T07:28:00Z</time>
      </trkpt>
      <trkpt lat="48.70649" lon="6.24661">
        <ele>207</ele>
        <time>2014-06-05T07:28:05Z</time>
      </trkpt>
      <trkpt lat="48.70644" lon="6.24622">
        <ele>206</ele>
        <time>2014-06-05T07:28:10Z</time>
      </trkpt>
      <trkpt lat="48.70639" lon="6.24585">
        <ele>206</ele>
        <time>2014-06-05T07:28:15Z</time>
      </trkpt>
      <trkpt lat="48.70636" lon="6.24552">
        <ele>206</ele>
        <time>2014-06-05T07:28:20Z</time>
      </trkpt>
      <trkpt lat="48.70643" lon="6.24525">
        <ele>206</ele>
        <time>2014-06-05T07:28:25Z</time>
      </trkpt>
      <trkpt lat="48.70658" lon="6.2452">
        <ele>206</ele>
        <time>2014-06-05T07:28:30Z</time>
      </trkpt>
      <trkpt lat="48.70679" lon="6.24511">
        <ele>206</ele>
        <time>2014-06-05T07:28:35Z</time>
      </trkpt>
      <trkpt lat="48.70702" lon="6.245">
        <ele>206</ele>
        <time>2014-06-05T07:28:40Z</time>
      </trkpt>
      <trkpt lat="48.70728" lon="6.24489">
        <ele>206</ele>
        <time>2014-06-05T07:28:45Z</time>
      </trkpt>
      <trkpt lat="48.70753" lon="6.24478">
        <ele>206</ele>
        <time>2014-06-05T07:28:50Z</time>
      </trkpt>
      <trkpt lat="48.70777" lon="6.24465">
        <ele>206</ele>
        <time>2014-06-05T07:28:55Z</time>
      </trkpt>
      <trkpt lat="48.70798" lon="6.2445">
        <ele>206</ele>
        <time>2014-06-05T07:29:00Z</time>
      </trkpt>
      <trkpt lat="48.70815" lon="6.24452">
        <ele>206</ele>
        <time>2014-06-05T07:29:05Z</time>
      </trkpt>
      <trkpt lat="48.70827" lon="6.24445">
        <ele>206</ele>
        <time>2014-06-05T07:29:10Z</time>
      </trkpt>
      <trkpt lat="48.70838" lon="6.24438">
        <ele>206</ele>
        <time>2014-06-05T07:29:15Z</time>
      </trkpt>
      <trkpt lat="48.70847" lon="6.24428">
        <ele>206</ele>
        <time>2014-06-05T07:29:20Z</time>
      </trkpt>
      <trkpt lat="48.7085" lon="6.24406">
        <ele>206</ele>
        <time>2014-06-05T07:29:25Z</time>
      </trkpt>
      <trkpt lat="48.70849" lon="6.24379">
        <ele>205</ele>
        <time>2014-06-05T07:29:30Z</time>
      </trkpt>
      <trkpt lat="48.70841" lon="6.24351">
        <ele>204</ele>
        <time>2014-06-05T07:29:35Z</time>
      </trkpt>
      <trkpt lat="48.70824" lon="6.24332">
        <ele>203</ele>
        <time>2014-06-05T07:29:40Z</time>
      </trkpt>
      <trkpt lat="48.70812" lon="6.24303">
        <ele>201</ele>
        <time>2014-06-05T07:29:45Z</time>
      </trkpt>
      <trkpt lat="48.70804" lon="6.2427">
        <ele>200</ele>
        <time>2014-06-05T07:29:50Z</time>
      </trkpt>
      <trkpt lat="48.70797" lon="6.2424">
        <ele>200</ele>
        <time>2014-06-05T07:29:55Z</time>
      </trkpt>
      <trkpt lat="48.70791" lon="6.24214">
        <ele>200</ele>
        <time>2014-06-05T07:30:00Z</time>
      </trkpt>
      <trkpt lat="48.70783" lon="6.24183">
        <ele>200</ele>
        <time>2014-06-05T07:30:05Z</time>
      </trkpt>
      <trkpt lat="48.70773" lon="6.24146">
        <ele>200</ele>
        <time>2014-06-05T07:30:10Z</time>
      </trkpt>
      <trkpt lat="48.70764" lon="6.24106">
        <ele>199</ele>
        <time>2014-06-05T07:30:15Z</time>
      </trkpt>
      <trkpt lat="48.70754" lon="6.24068">
        <ele>199</ele>
        <time>2014-06-05T07:30:20Z</time>
      </trkpt>
      <trkpt lat="48.70745" lon="6.24032">
        <ele>199</ele>
        <time>2014-06-05T07:30:25Z</time>
      </trkpt>
      <trkpt lat="48.70736" lon="6.23999">
        <ele>199</ele>
        <time>2014-06-05T07:30:30Z</time>
      </trkpt>
      <trkpt lat="48.70731" lon="6.23974">
        <ele>199</ele>
        <time>2014-06-05T07:30:35Z</time>
      </trkpt>
      <trkpt lat="48.70722" lon="6.23944">
        <ele>199</ele>
        <time>2014-06-05T07:30:40Z</time>
      </trkpt>
      <trkpt lat="48.70712" lon="6.23909">
        <ele>199</ele>
        <time>2014-06-05T07:30:45Z</time>
      </trkpt>
      <trkpt lat="48.707" lon="6.23872">
        <ele>199</ele>
        <time>2014-06-05T07:30:50Z</time>
      </trkpt>
      <trkpt lat="48.70686" lon="6.23836">
        <ele>199</ele>
        <time>2014-06-05T07:30:55Z</time>
      </trkpt>
      <trkpt lat="48.70672" lon="6.238">
        <ele>199</ele>
        <time>2014-06-05T07:31:00Z</time>
      </trkpt>
      <trkpt lat="48.70657" lon="6.23766">
        <ele>199</ele>
        <time>2014-06-05T07:31:05Z</time>
      </trkpt>
      <trkpt lat="48.70641" lon="6.23736">
        <ele>199</ele>
        <time>2014-06-05T07:31:10Z</time>
      </trkpt>
      <trkpt lat="48.70625" lon="6.23703">
        <ele>199</ele>
        <time>2014-06-05T07:31:15Z</time>
      </trkpt>
      <trkpt lat="48.70608" lon="6.2367">
        <ele>199</ele>
        <time>2014-06-05T07:31:20Z</time>
      </trkpt>
      <trkpt lat="48.70593" lon="6.23635">
        <ele>199</ele>
        <time>2014-06-05T07:31:25Z</time>
      </trkpt>
      <trkpt lat="48.70579" lon="6.23599">
        <ele>199</ele>
        <time>2014-06-05T07:31:30Z</time>
      </trkpt>
      <trkpt lat="48.70566" lon="6.23564">
        <ele>198</ele>
        <time>2014-06-05T07:31:35Z</time>
      </trkpt>
      <trkpt lat="48.70554" lon="6.2353">
        <ele>198</ele>
        <time>2014-06-05T07:31:40Z</time>
      </trkpt>
      <trkpt lat="48.70541" lon="6.23496">
        <ele>198</ele>
        <time>2014-06-05T07:31:45Z</time>
      </trkpt>
      <trkpt lat="48.70528" lon="6.23461">
        <ele>197</ele>
        <time>2014-06-05T07:31:50Z</time>
      </trkpt>
      <trkpt lat="48.70515" lon="6.23426">
        <ele>197</ele>
        <time>2014-06-05T07:31:55Z</time>
      </trkpt>
      <trkpt lat="48.70504" lon="6.23396">
        <ele>197</ele>
        <time>2014-06-05T07:32:00Z</time>
      </trkpt>
      <trkpt lat="48.70495" lon="6.23372">
        <ele>197</ele>
        <time>2014-06-05T07:32:05Z</time>
      </trkpt>
      <trkpt lat="48.70488" lon="6.23351">
        <ele>197</ele>
        <time>2014-06-05T07:32:10Z</time>
      </trkpt>
      <trkpt lat="48.7048" lon="6.2334">
        <ele>197</ele>
        <time>2014-06-05T07:32:20Z</time>
      </trkpt>
      <trkpt lat="48.70478" lon="6.23327">
        <ele>192</ele>
        <time>2014-06-05T07:32:26Z</time>
      </trkpt>
      <trkpt lat="48.70472" lon="6.23313">
        <ele>192</ele>
        <time>2014-06-05T07:32:31Z</time>
      </trkpt>
      <trkpt lat="48.70465" lon="6.23299">
        <ele>192</ele>
        <time>2014-06-05T07:32:36Z</time>
      </trkpt>
      <trkpt lat="48.7046" lon="6.23282">
        <ele>192</ele>
        <time>2014-06-05T07:32:41Z</time>
      </trkpt>
      <trkpt lat="48.70454" lon="6.23263">
        <ele>193</ele>
        <time>2014-06-05T07:32:46Z</time>
      </trkpt>
      <trkpt lat="48.70446" lon="6.23238">
        <ele>194</ele>
        <time>2014-06-05T07:32:51Z</time>
      </trkpt>
      <trkpt lat="48.70435" lon="6.23209">
        <ele>195</ele>
        <time>2014-06-05T07:32:56Z</time>
      </trkpt>
      <trkpt lat="48.70425" lon="6.23181">
        <ele>195</ele>
        <time>2014-06-05T07:33:01Z</time>
      </trkpt>
      <trkpt lat="48.70415" lon="6.23152">
        <ele>195</ele>
        <time>2014-06-05T07:33:06Z</time>
      </trkpt>
      <trkpt lat="48.70406" lon="6.23126">
        <ele>195</ele>
        <time>2014-06-05T07:33:11Z</time>
      </trkpt>
      <trkpt lat="48.704" lon="6.23097">
        <ele>195</ele>
        <time>2014-06-05T07:33:17Z</time>
      </trkpt>
      <trkpt lat="48.70387" lon="6.23071">
        <ele>195</ele>
        <time>2014-06-05T07:33:23Z</time>
      </trkpt>
      <trkpt lat="48.7038" lon="6.23042">
        <ele>195</ele>
        <time>2014-06-05T07:33:28Z</time>
      </trkpt>
      <trkpt lat="48.70367" lon="6.23003">
        <ele>195</ele>
        <time>2014-06-05T07:33:34Z</time>
      </trkpt>
      <trkpt lat="48.70354" lon="6.22959">
        <ele>195</ele>
        <time>2014-06-05T07:33:40Z</time>
      </trkpt>
      <trkpt lat="48.70343" lon="6.22922">
        <ele>195</ele>
        <time>2014-06-05T07:33:45Z</time>
      </trkpt>
      <trkpt lat="48.70333" lon="6.22883">
        <ele>195</ele>
        <time>2014-06-05T07:33:50Z</time>
      </trkpt>
      <trkpt lat="48.70322" lon="6.22844">
        <ele>195</ele>
        <time>2014-06-05T07:33:55Z</time>
      </trkpt>
      <trkpt lat="48.70311" lon="6.22806">
        <ele>195</ele>
        <time>2014-06-05T07:34:00Z</time>
      </trkpt>
      <trkpt lat="48.70301" lon="6.22769">
        <ele>195</ele>
        <time>2014-06-05T07:34:05Z</time>
      </trkpt>
      <trkpt lat="48.7029" lon="6.22736">
        <ele>195</ele>
        <time>2014-06-05T07:34:10Z</time>
      </trkpt>
      <trkpt lat="48.70278" lon="6.22704">
        <ele>195</ele>
        <time>2014-06-05T07:34:15Z</time>
      </trkpt>
      <trkpt lat="48.70263" lon="6.22672">
        <ele>195</ele>
        <time>2014-06-05T07:34:20Z</time>
      </trkpt>
      <trkpt lat="48.7024" lon="6.22637">
        <ele>195</ele>
        <time>2014-06-05T07:34:26Z</time>
      </trkpt>
      <trkpt lat="48.7022" lon="6.22609">
        <ele>195</ele>
        <time>2014-06-05T07:34:31Z</time>
      </trkpt>
      <trkpt lat="48.70193" lon="6.22579">
        <ele>195</ele>
        <time>2014-06-05T07:34:37Z</time>
      </trkpt>
      <trkpt lat="48.7017" lon="6.22555">
        <ele>195</ele>
        <time>2014-06-05T07:34:42Z</time>
      </trkpt>
      <trkpt lat="48.70147" lon="6.22533">
        <ele>195</ele>
        <time>2014-06-05T07:34:47Z</time>
      </trkpt>
      <trkpt lat="48.7012" lon="6.22507">
        <ele>195</ele>
        <time>2014-06-05T07:34:53Z</time>
      </trkpt>
      <trkpt lat="48.701" lon="6.2248">
        <ele>195</ele>
        <time>2014-06-05T07:34:58Z</time>
      </trkpt>
      <trkpt lat="48.70082" lon="6.22454">
        <ele>195</ele>
        <time>2014-06-05T07:35:03Z</time>
      </trkpt>
      <trkpt lat="48.70063" lon="6.22427">
        <ele>195</ele>
        <time>2014-06-05T07:35:09Z</time>
      </trkpt>
      <trkpt lat="48.70044" lon="6.22404">
        <ele>195</ele>
        <time>2014-06-05T07:35:14Z</time>
      </trkpt>
      <trkpt lat="48.70022" lon="6.22383">
        <ele>195</ele>
        <time>2014-06-05T07:35:19Z</time>
      </trkpt>
      <trkpt lat="48.70002" lon="6.2236">
        <ele>195</ele>
        <time>2014-06-05T07:35:24Z</time>
      </trkpt>
      <trkpt lat="48.69981" lon="6.22337">
        <ele>195</ele>
        <time>2014-06-05T07:35:29Z</time>
      </trkpt>
      <trkpt lat="48.69961" lon="6.22315">
        <ele>195</ele>
        <time>2014-06-05T07:35:34Z</time>
      </trkpt>
      <trkpt lat="48.69941" lon="6.22292">
        <ele>195</ele>
        <time>2014-06-05T07:35:39Z</time>
      </trkpt>
      <trkpt lat="48.69918" lon="6.2227">
        <ele>195</ele>
        <time>2014-06-05T07:35:44Z</time>
      </trkpt>
      <trkpt lat="48.69896" lon="6.22248">
        <ele>195</ele>
        <time>2014-06-05T07:35:49Z</time>
      </trkpt>
      <trkpt lat="48.69874" lon="6.22224">
        <ele>195</ele>
        <time>2014-06-05T07:35:54Z</time>
      </trkpt>
      <trkpt lat="48.69854" lon="6.22196">
        <ele>195</ele>
        <time>2014-06-05T07:35:59Z</time>
      </trkpt>
      <trkpt lat="48.69831" lon="6.22173">
        <ele>195</ele>
        <time>2014-06-05T07:36:04Z</time>
      </trkpt>
      <trkpt lat="48.69809" lon="6.22151">
        <ele>195</ele>
        <time>2014-06-05T07:36:09Z</time>
      </trkpt>
      <trkpt lat="48.69787" lon="6.22128">
        <ele>195</ele>
        <time>2014-06-05T07:36:14Z</time>
      </trkpt>
      <trkpt lat="48.69765" lon="6.22104">
        <ele>195</ele>
        <time>2014-06-05T07:36:19Z</time>
      </trkpt>
      <trkpt lat="48.69743" lon="6.22081">
        <ele>195</ele>
        <time>2014-06-05T07:36:24Z</time>
      </trkpt>
      <trkpt lat="48.6972" lon="6.22058">
        <ele>195</ele>
        <time>2014-06-05T07:36:29Z</time>
      </trkpt>
      <trkpt lat="48.69699" lon="6.22033">
        <ele>195</ele>
        <time>2014-06-05T07:36:34Z</time>
      </trkpt>
      <trkpt lat="48.6968" lon="6.22007">
        <ele>196</ele>
        <time>2014-06-05T07:36:39Z</time>
      </trkpt>
      <trkpt lat="48.69661" lon="6.2198">
        <ele>198</ele>
        <time>2014-06-05T07:36:44Z</time>
      </trkpt>
      <trkpt lat="48.69641" lon="6.21951">
        <ele>198</ele>
        <time>2014-06-05T07:36:49Z</time>
      </trkpt>
      <trkpt lat="48.69621" lon="6.21919">
        <ele>198</ele>
        <time>2014-06-05T07:36:54Z</time>
      </trkpt>
      <trkpt lat="48.69603" lon="6.21886">
        <ele>198</ele>
        <time>2014-06-05T07:36:59Z</time>
      </trkpt>
      <trkpt lat="48.69585" lon="6.21855">
        <ele>198</ele>
        <time>2014-06-05T07:37:04Z</time>
      </trkpt>
      <trkpt lat="48.69568" lon="6.2182">
        <ele>198</ele>
        <time>2014-06-05T07:37:09Z</time>
      </trkpt>
      <trkpt lat="48.69553" lon="6.21785">
        <ele>198</ele>
        <time>2014-06-05T07:37:14Z</time>
      </trkpt>
      <trkpt lat="48.6954" lon="6.21749">
        <ele>198</ele>
        <time>2014-06-05T07:37:19Z</time>
      </trkpt>
      <trkpt lat="48.69528" lon="6.21711">
        <ele>198</ele>
        <time>2014-06-05T07:37:24Z</time>
      </trkpt>
      <trkpt lat="48.69515" lon="6.21674">
        <ele>198</ele>
        <time>2014-06-05T07:37:29Z</time>
      </trkpt>
      <trkpt lat="48.69503" lon="6.2164">
        <ele>198</ele>
        <time>2014-06-05T07:37:34Z</time>
      </trkpt>
      <trkpt lat="48.69493" lon="6.21605">
        <ele>198</ele>
        <time>2014-06-05T07:37:39Z</time>
      </trkpt>
      <trkpt lat="48.69483" lon="6.21569">
        <ele>197</ele>
        <time>2014-06-05T07:37:44Z</time>
      </trkpt>
      <trkpt lat="48.69469" lon="6.21535">
        <ele>195</ele>
        <time>2014-06-05T07:37:49Z</time>
      </trkpt>
      <trkpt lat="48.69457" lon="6.21499">
        <ele>193</ele>
        <time>2014-06-05T07:37:54Z</time>
      </trkpt>
      <trkpt lat="48.69445" lon="6.21452">
        <ele>191</ele>
        <time>2014-06-05T07:37:59Z</time>
      </trkpt>
      <trkpt lat="48.69426" lon="6.21409">
        <ele>190</ele>
        <time>2014-06-05T07:38:04Z</time>
      </trkpt>
      <trkpt lat="48.69416" lon="6.21377">
        <ele>190</ele>
        <time>2014-06-05T07:38:09Z</time>
      </trkpt>
      <trkpt lat="48.69406" lon="6.21343">
        <ele>190</ele>
        <time>2014-06-05T07:38:14Z</time>
      </trkpt>
      <trkpt lat="48.69394" lon="6.21312">
        <ele>190</ele>
        <time>2014-06-05T07:38:19Z</time>
      </trkpt>
      <trkpt lat="48.6938" lon="6.21282">
        <ele>190</ele>
        <time>2014-06-05T07:38:24Z</time>
      </trkpt>
      <trkpt lat="48.6937" lon="6.21252">
        <ele>190</ele>
        <time>2014-06-05T07:38:29Z</time>
      </trkpt>
      <trkpt lat="48.69361" lon="6.21219">
        <ele>190</ele>
        <time>2014-06-05T07:38:34Z</time>
      </trkpt>
      <trkpt lat="48.69354" lon="6.21192">
        <ele>190</ele>
        <time>2014-06-05T07:38:39Z</time>
      </trkpt>
      <trkpt lat="48.69346" lon="6.21176">
        <ele>190</ele>
        <time>2014-06-05T07:38:44Z</time>
      </trkpt>
      <trkpt lat="48.69339" lon="6.21158">
        <ele>190</ele>
        <time>2014-06-05T07:38:49Z</time>
      </trkpt>
      <trkpt lat="48.69335" lon="6.21138">
        <ele>190</ele>
        <time>2014-06-05T07:38:54Z</time>
      </trkpt>
      <trkpt lat="48.69328" lon="6.21114">
        <ele>190</ele>
        <time>2014-06-05T07:38:59Z</time>
      </trkpt>
      <trkpt lat="48.69318" lon="6.21086">
        <ele>190</ele>
        <time>2014-06-05T07:39:04Z</time>
      </trkpt>
      <trkpt lat="48.6931" lon="6.21054">
        <ele>190</ele>
        <time>2014-06-05T07:39:09Z</time>
      </trkpt>
      <trkpt lat="48.69307" lon="6.21014">
        <ele>190</ele>
        <time>2014-06-05T07:39:14Z</time>
      </trkpt>
      <trkpt lat="48.69296" lon="6.20972">
        <ele>190</ele>
        <time>2014-06-05T07:39:19Z</time>
      </trkpt>
      <trkpt lat="48.69283" lon="6.20933">
        <ele>190</ele>
        <time>2014-06-05T07:39:24Z</time>
      </trkpt>
      <trkpt lat="48.6927" lon="6.20897">
        <ele>190</ele>
        <time>2014-06-05T07:39:29Z</time>
      </trkpt>
      <trkpt lat="48.69259" lon="6.20862">
        <ele>190</ele>
        <time>2014-06-05T07:39:34Z</time>
      </trkpt>
      <trkpt lat="48.69247" lon="6.20828">
        <ele>190</ele>
        <time>2014-06-05T07:39:39Z</time>
      </trkpt>
      <trkpt lat="48.69233" lon="6.20822">
        <ele>190</ele>
        <time>2014-06-05T07:39:44Z</time>
      </trkpt>
      <trkpt lat="48.69221" lon="6.20802">
        <ele>190</ele>
        <time>2014-06-05T07:39:49Z</time>
      </trkpt>
      <trkpt lat="48.6921" lon="6.20781">
        <ele>190</ele>
        <time>2014-06-05T07:39:54Z</time>
      </trkpt>
      <trkpt lat="48.69199" lon="6.20759">
        <ele>190</ele>
        <time>2014-06-05T07:39:59Z</time>
      </trkpt>
      <trkpt lat="48.69191" lon="6.20737">
        <ele>190</ele>
        <time>2014-06-05T07:40:04Z</time>
      </trkpt>
      <trkpt lat="48.69183" lon="6.20715">
        <ele>190</ele>
        <time>2014-06-05T07:40:09Z</time>
      </trkpt>
      <trkpt lat="48.69176" lon="6.20695">
        <ele>190</ele>
        <time>2014-06-05T07:40:14Z</time>
      </trkpt>
      <trkpt lat="48.69168" lon="6.20674">
        <ele>190</ele>
        <time>2014-06-05T07:40:19Z</time>
      </trkpt>
      <trkpt lat="48.69159" lon="6.20652">
        <ele>190</ele>
        <time>2014-06-05T07:40:24Z</time>
      </trkpt>
      <trkpt lat="48.6915" lon="6.20628">
        <ele>190</ele>
        <time>2014-06-05T07:40:29Z</time>
      </trkpt>
      <trkpt lat="48.6914" lon="6.20603">
        <ele>190</ele>
        <time>2014-06-05T07:40:34Z</time>
      </trkpt>
      <trkpt lat="48.69129" lon="6.20575">
        <ele>190</ele>
        <time>2014-06-05T07:40:39Z</time>
      </trkpt>
      <trkpt lat="48.69116" lon="6.20543">
        <ele>190</ele>
        <time>2014-06-05T07:40:44Z</time>
      </trkpt>
      <trkpt lat="48.69102" lon="6.20509">
        <ele>190</ele>
        <time>2014-06-05T07:40:49Z</time>
      </trkpt>
      <trkpt lat="48.69088" lon="6.20474">
        <ele>190</ele>
        <time>2014-06-05T07:40:54Z</time>
      </trkpt>
      <trkpt lat="48.69075" lon="6.20438">
        <ele>190</ele>
        <time>2014-06-05T07:40:59Z</time>
      </trkpt>
      <trkpt lat="48.6906" lon="6.20404">
        <ele>190</ele>
        <time>2014-06-05T07:41:04Z</time>
      </trkpt>
      <trkpt lat="48.6905" lon="6.20369">
        <ele>190</ele>
        <time>2014-06-05T07:41:09Z</time>
      </trkpt>
      <trkpt lat="48.69039" lon="6.20344">
        <ele>190</ele>
        <time>2014-06-05T07:41:14Z</time>
      </trkpt>
      <trkpt lat="48.69027" lon="6.20316">
        <ele>190</ele>
        <time>2014-06-05T07:41:19Z</time>
      </trkpt>
      <trkpt lat="48.69014" lon="6.20292">
        <ele>190</ele>
        <time>2014-06-05T07:41:24Z</time>
      </trkpt>
      <trkpt lat="48.69001" lon="6.20273">
        <ele>190</ele>
        <time>2014-06-05T07:41:29Z</time>
      </trkpt>
      <trkpt lat="48.68988" lon="6.20253">
        <ele>190</ele>
        <time>2014-06-05T07:41:34Z</time>
      </trkpt>
      <trkpt lat="48.68974" lon="6.2023">
        <ele>190</ele>
        <time>2014-06-05T07:41:39Z</time>
      </trkpt>
      <trkpt lat="48.6896" lon="6.20203">
        <ele>190</ele>
        <time>2014-06-05T07:41:44Z</time>
      </trkpt>
      <trkpt lat="48.68944" lon="6.20176">
        <ele>190</ele>
        <time>2014-06-05T07:41:49Z</time>
      </trkpt>
      <trkpt lat="48.68929" lon="6.20148">
        <ele>190</ele>
        <time>2014-06-05T07:41:54Z</time>
      </trkpt>
      <trkpt lat="48.68914" lon="6.20122">
        <ele>190</ele>
        <time>2014-06-05T07:41:59Z</time>
      </trkpt>
      <trkpt lat="48.68899" lon="6.20096">
        <ele>190</ele>
        <time>2014-06-05T07:42:04Z</time>
      </trkpt>
      <trkpt lat="48.68884" lon="6.2007">
        <ele>190</ele>
        <time>2014-06-05T07:42:09Z</time>
      </trkpt>
      <trkpt lat="48.68869" lon="6.20044">
        <ele>190</ele>
        <time>2014-06-05T07:42:14Z</time>
      </trkpt>
      <trkpt lat="48.68854" lon="6.20018">
        <ele>190</ele>
        <time>2014-06-05T07:42:19Z</time>
      </trkpt>
      <trkpt lat="48.68842" lon="6.19996">
        <ele>190</ele>
        <time>2014-06-05T07:42:24Z</time>
      </trkpt>
      <trkpt lat="48.68828" lon="6.19971">
        <ele>190</ele>
        <time>2014-06-05T07:42:29Z</time>
      </trkpt>
      <trkpt lat="48.68814" lon="6.19946">
        <ele>190</ele>
        <time>2014-06-05T07:42:34Z</time>
      </trkpt>
      <trkpt lat="48.68802" lon="6.19923">
        <ele>190</ele>
        <time>2014-06-05T07:42:39Z</time>
      </trkpt>
      <trkpt lat="48.68791" lon="6.19901">
        <ele>190</ele>
        <time>2014-06-05T07:42:44Z</time>
      </trkpt>
      <trkpt lat="48.68784" lon="6.19875">
        <ele>190</ele>
        <time>2014-06-05T07:42:49Z</time>
      </trkpt>
      <trkpt lat="48.68778" lon="6.19846">
        <ele>190</ele>
        <time>2014-06-05T07:42:54Z</time>
      </trkpt>
      <trkpt lat="48.68771" lon="6.19816">
        <ele>190</ele>
        <time>2014-06-05T07:42:59Z</time>
      </trkpt>
      <trkpt lat="48.68764" lon="6.19787">
        <ele>190</ele>
        <time>2014-06-05T07:43:04Z</time>
      </trkpt>
      <trkpt lat="48.68758" lon="6.1976">
        <ele>190</ele>
        <time>2014-06-05T07:43:09Z</time>
      </trkpt>
      <trkpt lat="48.68751" lon="6.19731">
        <ele>194</ele>
        <time>2014-06-05T07:43:14Z</time>
      </trkpt>
      <trkpt lat="48.68744" lon="6.19703">
        <ele>197</ele>
        <time>2014-06-05T07:43:19Z</time>
      </trkpt>
      <trkpt lat="48.68737" lon="6.19674">
        <ele>198</ele>
        <time>2014-06-05T07:43:24Z</time>
      </trkpt>
      <trkpt lat="48.6873" lon="6.19645">
        <ele>198</ele>
        <time>2014-06-05T07:43:29Z</time>
      </trkpt>
      <trkpt lat="48.68722" lon="6.1961">
        <ele>198</ele>
        <time>2014-06-05T07:43:34Z</time>
      </trkpt>
      <trkpt lat="48.68713" lon="6.19566">
        <ele>199</ele>
        <time>2014-06-05T07:43:39Z</time>
      </trkpt>
      <trkpt lat="48.68707" lon="6.19532">
        <ele>199</ele>
        <time>2014-06-05T07:43:44Z</time>
      </trkpt>
      <trkpt lat="48.68705" lon="6.19523">
        <ele>199</ele>
        <time>2014-06-05T07:43:49Z</time>
      </trkpt>
      <trkpt lat="48.68709" lon="6.19517">
        <ele>199</ele>
        <time>2014-06-05T07:43:54Z</time>
      </trkpt>
      <trkpt lat="48.68725" lon="6.19508">
        <ele>199</ele>
        <time>2014-06-05T07:43:59Z</time>
      </trkpt>
      <trkpt lat="48.6874" lon="6.19496">
        <ele>199</ele>
        <time>2014-06-05T07:44:04Z</time>
      </trkpt>
      <trkpt lat="48.68755" lon="6.19487">
        <ele>199</ele>
        <time>2014-06-05T07:44:09Z</time>
      </trkpt>
      <trkpt lat="48.68768" lon="6.19477">
        <ele>199</ele>
        <time>2014-06-05T07:44:14Z</time>
      </trkpt>
      <trkpt lat="48.68782" lon="6.19461">
        <ele>199</ele>
        <time>2014-06-05T07:44:19Z</time>
      </trkpt>
      <trkpt lat="48.68794" lon="6.19449">
        <ele>200</ele>
        <time>2014-06-05T07:44:24Z</time>
      </trkpt>
      <trkpt lat="48.68803" lon="6.19434">
        <ele>203</ele>
        <time>2014-06-05T07:44:29Z</time>
      </trkpt>
      <trkpt lat="48.6881" lon="6.19426">
        <ele>204</ele>
        <time>2014-06-05T07:44:34Z</time>
      </trkpt>
      <trkpt lat="48.68809" lon="6.19424">
        <ele>204</ele>
        <time>2014-06-05T07:44:39Z</time>
      </trkpt>
      <trkpt lat="48.68818" lon="6.19412">
        <ele>200</ele>
        <time>2014-06-05T07:44:44Z</time>
      </trkpt>
      <trkpt lat="48.68839" lon="6.19405">
        <ele>200</ele>
        <time>2014-06-05T07:44:49Z</time>
      </trkpt>
      <trkpt lat="48.68864" lon="6.19404">
        <ele>201</ele>
        <time>2014-06-05T07:44:54Z</time>
      </trkpt>
      <trkpt lat="48.68888" lon="6.19399">
        <ele>206</ele>
        <time>2014-06-05T07:44:59Z</time>
      </trkpt>
      <trkpt lat="48.68908" lon="6.19391">
        <ele>210</ele>
        <time>2014-06-05T07:45:04Z</time>
      </trkpt>
      <trkpt lat="48.68923" lon="6.19386">
        <ele>212</ele>
        <time>2014-06-05T07:45:09Z</time>
      </trkpt>
      <trkpt lat="48.68943" lon="6.19379">
        <ele>216</ele>
        <time>2014-06-05T07:45:14Z</time>
      </trkpt>
      <trkpt lat="48.68966" lon="6.19367">
        <ele>219</ele>
        <time>2014-06-05T07:45:19Z</time>
      </trkpt>
      <trkpt lat="48.6899" lon="6.19355">
        <ele>219</ele>
        <time>2014-06-05T07:45:24Z</time>
      </trkpt>
      <trkpt lat="48.69015" lon="6.19341">
        <ele>217</ele>
        <time>2014-06-05T07:45:29Z</time>
      </trkpt>
      <trkpt lat="48.69042" lon="6.19326">
        <ele>215</ele>
        <time>2014-06-05T07:45:34Z</time>
      </trkpt>
      <trkpt lat="48.69068" lon="6.19311">
        <ele>211</ele>
        <time>2014-06-05T07:45:39Z</time>
      </trkpt>
      <trkpt lat="48.69096" lon="6.193">
        <ele>208</ele>
        <time>2014-06-05T07:45:44Z</time>
      </trkpt>
      <trkpt lat="48.69124" lon="6.19291">
        <ele>208</ele>
        <time>2014-06-05T07:45:49Z</time>
      </trkpt>
      <trkpt lat="48.69152" lon="6.1928">
        <ele>208</ele>
        <time>2014-06-05T07:45:54Z</time>
      </trkpt>
      <trkpt lat="48.69181" lon="6.19281">
        <ele>205</ele>
        <time>2014-06-05T07:45:59Z</time>
      </trkpt>
      <trkpt lat="48.69212" lon="6.1929">
        <ele>204</ele>
        <time>2014-06-05T07:46:04Z</time>
      </trkpt>
      <trkpt lat="48.69241" lon="6.19283">
        <ele>204</ele>
        <time>2014-06-05T07:46:09Z</time>
      </trkpt>
      <trkpt lat="48.69267" lon="6.19266">
        <ele>204</ele>
        <time>2014-06-05T07:46:14Z</time>
      </trkpt>
      <trkpt lat="48.69291" lon="6.19251">
        <ele>204</ele>
        <time>2014-06-05T07:46:19Z</time>
      </trkpt>
      <trkpt lat="48.69314" lon="6.19237">
        <ele>204</ele>
        <time>2014-06-05T07:46:24Z</time>
      </trkpt>
      <trkpt lat="48.69337" lon="6.19223">
        <ele>204</ele>
        <time>2014-06-05T07:46:29Z</time>
      </trkpt>
      <trkpt lat="48.69359" lon="6.19208">
        <ele>204</ele>
        <time>2014-06-05T07:46:34Z</time>
      </trkpt>
      <trkpt lat="48.69381" lon="6.19195">
        <ele>204</ele>
        <time>2014-06-05T07:46:39Z</time>
      </trkpt>
      <trkpt lat="48.694" lon="6.19181">
        <ele>205</ele>
        <time>2014-06-05T07:46:44Z</time>
      </trkpt>
      <trkpt lat="48.69418" lon="6.19168">
        <ele>207</ele>
        <time>2014-06-05T07:46:49Z</time>
      </trkpt>
      <trkpt lat="48.69436" lon="6.19157">
        <ele>210</ele>
        <time>2014-06-05T07:46:54Z</time>
      </trkpt>
      <trkpt lat="48.69448" lon="6.19151">
        <ele>210</ele>
        <time>2014-06-05T07:46:59Z</time>
      </trkpt>
      <trkpt lat="48.69458" lon="6.19139">
        <ele>210</ele>
        <time>2014-06-05T07:47:04Z</time>
      </trkpt>
      <trkpt lat="48.6948" lon="6.19125">
        <ele>210</ele>
        <time>2014-06-05T07:47:09Z</time>
      </trkpt>
      <trkpt lat="48.695" lon="6.19109">
        <ele>205</ele>
        <time>2014-06-05T07:47:14Z</time>
      </trkpt>
      <trkpt lat="48.69513" lon="6.1909">
        <ele>204</ele>
        <time>2014-06-05T07:47:19Z</time>
      </trkpt>
      <trkpt lat="48.69523" lon="6.19071">
        <ele>202</ele>
        <time>2014-06-05T07:47:24Z</time>
      </trkpt>
      <trkpt lat="48.69535" lon="6.19048">
        <ele>200</ele>
        <time>2014-06-05T07:47:29Z</time>
      </trkpt>
      <trkpt lat="48.69543" lon="6.19043">
        <ele>194</ele>
        <time>2014-06-05T07:47:40Z</time>
      </trkpt>
      <trkpt lat="48.69545" lon="6.19028">
        <ele>190</ele>
        <time>2014-06-05T07:47:45Z</time>
      </trkpt>
      <trkpt lat="48.69551" lon="6.18998">
        <ele>190</ele>
        <time>2014-06-05T07:47:50Z</time>
      </trkpt>
      <trkpt lat="48.69549" lon="6.18963">
        <ele>190</ele>
        <time>2014-06-05T07:47:55Z</time>
      </trkpt>
      <trkpt lat="48.6954" lon="6.18933">
        <ele>190</ele>
        <time>2014-06-05T07:48:00Z</time>
      </trkpt>
      <trkpt lat="48.69526" lon="6.18903">
        <ele>190</ele>
        <time>2014-06-05T07:48:05Z</time>
      </trkpt>
      <trkpt lat="48.69518" lon="6.18874">
        <ele>190</ele>
        <time>2014-06-05T07:48:10Z</time>
      </trkpt>
      <trkpt lat="48.69509" lon="6.18842">
        <ele>189</ele>
        <time>2014-06-05T07:48:15Z</time>
      </trkpt>
      <trkpt lat="48.695" lon="6.18812">
        <ele>189</ele>
        <time>2014-06-05T07:48:20Z</time>
      </trkpt>
      <trkpt lat="48.69498" lon="6.18806">
        <ele>188</ele>
        <time>2014-06-05T07:48:30Z</time>
      </trkpt>
      <trkpt lat="48.69497" lon="6.18806">
        <ele>186</ele>
        <time>2014-06-05T07:48:36Z</time>
      </trkpt>
      <trkpt lat="48.69493" lon="6.18787">
        <ele>186</ele>
        <time>2014-06-05T07:48:41Z</time>
      </trkpt>
      <trkpt lat="48.69483" lon="6.18762">
        <ele>187</ele>
        <time>2014-06-05T07:48:46Z</time>
      </trkpt>
      <trkpt lat="48.69474" lon="6.18733">
        <ele>192</ele>
        <time>2014-06-05T07:48:51Z</time>
      </trkpt>
      <trkpt lat="48.69468" lon="6.18707">
        <ele>197</ele>
        <time>2014-06-05T07:48:56Z</time>
      </trkpt>
      <trkpt lat="48.69461" lon="6.18679">
        <ele>198</ele>
        <time>2014-06-05T07:49:01Z</time>
      </trkpt>
      <trkpt lat="48.6945" lon="6.18651">
        <ele>198</ele>
        <time>2014-06-05T07:49:06Z</time>
      </trkpt>
      <trkpt lat="48.69442" lon="6.18624">
        <ele>198</ele>
        <time>2014-06-05T07:49:11Z</time>
      </trkpt>
      <trkpt lat="48.69432" lon="6.186">
        <ele>198</ele>
        <time>2014-06-05T07:49:16Z</time>
      </trkpt>
      <trkpt lat="48.69428" lon="6.1858">
        <ele>198</ele>
        <time>2014-06-05T07:49:21Z</time>
      </trkpt>
      <trkpt lat="48.69423" lon="6.18565">
        <ele>199</ele>
        <time>2014-06-05T07:49:26Z</time>
      </trkpt>
      <trkpt lat="48.69418" lon="6.18552">
        <ele>199</ele>
        <time>2014-06-05T07:49:31Z</time>
      </trkpt>
      <trkpt lat="48.6941" lon="6.18534">
        <ele>199</ele>
        <time>2014-06-05T07:49:36Z</time>
      </trkpt>
      <trkpt lat="48.69405" lon="6.1851">
        <ele>201</ele>
        <time>2014-06-05T07:49:41Z</time>
      </trkpt>
      <trkpt lat="48.694" lon="6.18486">
        <ele>202</ele>
        <time>2014-06-05T07:49:46Z</time>
      </trkpt>
      <trkpt lat="48.69397" lon="6.18463">
        <ele>202</ele>
        <time>2014-06-05T07:49:51Z</time>
      </trkpt>
      <trkpt lat="48.69395" lon="6.1844">
        <ele>202</ele>
        <time>2014-06-05T07:49:56Z</time>
      </trkpt>
      <trkpt lat="48.69388" lon="6.18419">
        <ele>202</ele>
        <time>2014-06-05T07:50:01Z</time>
      </trkpt>
      <trkpt lat="48.69381" lon="6.18403">
        <ele>202</ele>
        <time>2014-06-05T07:50:06Z</time>
      </trkpt>
      <trkpt lat="48.69375" lon="6.18396">
        <ele>200</ele>
        <time>2014-06-05T07:50:11Z</time>
      </trkpt>
      <trkpt lat="48.69368" lon="6.18393">
        <ele>196</ele>
        <time>2014-06-05T07:50:23Z</time>
      </trkpt>
      <trkpt lat="48.69374" lon="6.1837">
        <ele>192</ele>
        <time>2014-06-05T07:50:28Z</time>
      </trkpt>
      <trkpt lat="48.69375" lon="6.18353">
        <ele>191</ele>
        <time>2014-06-05T07:50:33Z</time>
      </trkpt>
      <trkpt lat="48.69373" lon="6.18335">
        <ele>190</ele>
        <time>2014-06-05T07:50:38Z</time>
      </trkpt>
      <trkpt lat="48.69369" lon="6.18319">
        <ele>188</ele>
        <time>2014-06-05T07:50:43Z</time>
      </trkpt>
      <trkpt lat="48.69366" lon="6.18304">
        <ele>186</ele>
        <time>2014-06-05T07:50:48Z</time>
      </trkpt>
      <trkpt lat="48.6936" lon="6.18294">
        <ele>186</ele>
        <time>2014-06-05T07:50:53Z</time>
      </trkpt>
      <trkpt lat="48.6935" lon="6.18293">
        <ele>186</ele>
        <time>2014-06-05T07:50:58Z</time>
      </trkpt>
      <trkpt lat="48.69341" lon="6.18297">
        <ele>186</ele>
        <time>2014-06-05T07:51:03Z</time>
      </trkpt>
      <trkpt lat="48.69334" lon="6.18302">
        <ele>186</ele>
        <time>2014-06-05T07:51:08Z</time>
      </trkpt>
      <trkpt lat="48.69329" lon="6.18312">
        <ele>186</ele>
        <time>2014-06-05T07:51:13Z</time>
      </trkpt>
      <trkpt lat="48.69329" lon="6.18326">
        <ele>186</ele>
        <time>2014-06-05T07:51:18Z</time>
      </trkpt>
      <trkpt lat="48.69334" lon="6.18338">
        <ele>186</ele>
        <time>2014-06-05T07:51:23Z</time>
      </trkpt>
      <trkpt lat="48.69338" lon="6.18347">
        <ele>186</ele>
        <time>2014-06-05T07:51:28Z</time>
      </trkpt>
      <trkpt lat="48.69343" lon="6.18359">
        <ele>187</ele>
        <time>2014-06-05T07:51:33Z</time>
      </trkpt>
      <trkpt lat="48.69351" lon="6.18371">
        <ele>188</ele>
        <time>2014-06-05T07:51:38Z</time>
      </trkpt>
      <trkpt lat="48.6936" lon="6.18377">
        <ele>188</ele>
        <time>2014-06-05T07:51:43Z</time>
      </trkpt>
      <trkpt lat="48.69369" lon="6.1838">
        <ele>189</ele>
        <time>2014-06-05T07:51:48Z</time>
      </trkpt>
      <trkpt lat="48.69379" lon="6.18378">
        <ele>189</ele>
        <time>2014-06-05T07:51:53Z</time>
      </trkpt>
      <trkpt lat="48.69388" lon="6.18368">
        <ele>190</ele>
        <time>2014-06-05T07:51:58Z</time>
      </trkpt>
      <trkpt lat="48.69389" lon="6.18351">
        <ele>191</ele>
        <time>2014-06-05T07:52:03Z</time>
      </trkpt>
      <trkpt lat="48.69384" lon="6.18334">
        <ele>192</ele>
        <time>2014-06-05T07:52:08Z</time>
      </trkpt>
      <trkpt lat="48.69387" lon="6.18317">
        <ele>192</ele>
        <time>2014-06-05T07:52:13Z</time>
      </trkpt>
      <trkpt lat="48.69392" lon="6.18304">
        <ele>192</ele>
        <time>2014-06-05T07:52:18Z</time>
      </trkpt>
      <trkpt lat="48.694" lon="6.18298">
        <ele>193</ele>
        <time>2014-06-05T07:52:23Z</time>
      </trkpt>
      <trkpt lat="48.69403" lon="6.18295">
        <ele>196</ele>
        <time>2014-06-05T07:52:31Z</time>
      </trkpt>
      <trkpt lat="48.69404" lon="6.18296">
        <ele>206</ele>
        <time>2014-06-05T07:52:38Z</time>
      </trkpt>
      <trkpt lat="48.69408" lon="6.1829">
        <ele>207</ele>
        <time>2014-06-05T07:52:44Z</time>
      </trkpt>
      <trkpt lat="48.69399" lon="6.18295">
        <ele>207</ele>
        <time>2014-06-05T07:52:49Z</time>
      </trkpt>
      <trkpt lat="48.69387" lon="6.18302">
        <ele>204</ele>
        <time>2014-06-05T07:52:54Z</time>
      </trkpt>
      <trkpt lat="48.69376" lon="6.18304">
        <ele>200</ele>
        <time>2014-06-05T07:52:59Z</time>
      </trkpt>
      <trkpt lat="48.69361" lon="6.18298">
        <ele>198</ele>
        <time>2014-06-05T07:53:04Z</time>
      </trkpt>
      <trkpt lat="48.69348" lon="6.18292">
        <ele>197</ele>
        <time>2014-06-05T07:53:09Z</time>
      </trkpt>
      <trkpt lat="48.69337" lon="6.18278">
        <ele>196</ele>
        <time>2014-06-05T07:53:14Z</time>
      </trkpt>
      <trkpt lat="48.69329" lon="6.18269">
        <ele>196</ele>
        <time>2014-06-05T07:53:19Z</time>
      </trkpt>
      <trkpt lat="48.69322" lon="6.18271">
        <ele>196</ele>
        <time>2014-06-05T07:53:24Z</time>
      </trkpt>
      <trkpt lat="48.69312" lon="6.18279">
        <ele>201</ele>
        <time>2014-06-05T07:53:31Z</time>
      </trkpt>
      <trkpt lat="48.69305" lon="6.18286">
        <ele>201</ele>
        <time>2014-06-05T07:53:37Z</time>
      </trkpt>
      <trkpt lat="48.69308" lon="6.18297">
        <ele>198</ele>
        <time>2014-06-05T07:53:42Z</time>
      </trkpt>
      <trkpt lat="48.69315" lon="6.18318">
        <ele>197</ele>
        <time>2014-06-05T07:53:47Z</time>
      </trkpt>
      <trkpt lat="48.69327" lon="6.18336">
        <ele>197</ele>
        <time>2014-06-05T07:53:52Z</time>
      </trkpt>
      <trkpt lat="48.69341" lon="6.18354">
        <ele>197</ele>
        <time>2014-06-05T07:53:57Z</time>
      </trkpt>
      <trkpt lat="48.69354" lon="6.18367">
        <ele>197</ele>
        <time>2014-06-05T07:54:02Z</time>
      </trkpt>
      <trkpt lat="48.69366" lon="6.18378">
        <ele>197</ele>
        <time>2014-06-05T07:54:07Z</time>
      </trkpt>
      <trkpt lat="48.69376" lon="6.18383">
        <ele>197</ele>
        <time>2014-06-05T07:54:12Z</time>
      </trkpt>
      <trkpt lat="48.69372" lon="6.18383">
        <ele>192</ele>
        <time>2014-06-05T07:54:19Z</time>
      </trkpt>
      <trkpt lat="48.69385" lon="6.18371">
        <ele>189</ele>
        <time>2014-06-05T07:54:24Z</time>
      </trkpt>
      <trkpt lat="48.69398" lon="6.18364">
        <ele>189</ele>
        <time>2014-06-05T07:54:29Z</time>
      </trkpt>
      <trkpt lat="48.69403" lon="6.18355">
        <ele>189</ele>
        <time>2014-06-05T07:54:34Z</time>
      </trkpt>
      <trkpt lat="48.69402" lon="6.18369">
        <ele>202</ele>
        <time>2014-06-05T07:54:42Z</time>
      </trkpt>
      <trkpt lat="48.69389" lon="6.18372">
        <ele>207</ele>
        <time>2014-06-05T07:54:51Z</time>
      </trkpt>
      <trkpt lat="48.69385" lon="6.18379">
        <ele>208</ele>
        <time>2014-06-05T07:54:57Z</time>
      </trkpt>
      <trkpt lat="48.69387" lon="6.18382">
        <ele>208</ele>
        <time>2014-06-05T07:55:06Z</time>
      </trkpt>
      <trkpt lat="48.69389" lon="6.18384">
        <ele>208</ele>
        <time>2014-06-05T07:55:12Z</time>
      </trkpt>
      <trkpt lat="48.6939" lon="6.18385">
        <ele>208</ele>
        <time>2014-06-05T07:55:17Z</time>
      </trkpt>
      <trkpt lat="48.6939" lon="6.18387">
        <ele>205</ele>
        <time>2014-06-05T07:55:24Z</time>
      </trkpt>
      <trkpt lat="48.69388" lon="6.18377">
        <ele>202</ele>
        <time>2014-06-05T07:55:29Z</time>
      </trkpt>
      <trkpt lat="48.69387" lon="6.18366">
        <ele>199</ele>
        <time>2014-06-05T07:55:34Z</time>
      </trkpt>
      <trkpt lat="48.69385" lon="6.18358">
        <ele>194</ele>
        <time>2014-06-05T07:55:39Z</time>
      </trkpt>
      <trkpt lat="48.69386" lon="6.18348">
        <ele>189</ele>
        <time>2014-06-05T07:55:44Z</time>
      </trkpt>
      <trkpt lat="48.69387" lon="6.18337">
        <ele>185</ele>
        <time>2014-06-05T07:55:50Z</time>
      </trkpt>
      <trkpt lat="48.69393" lon="6.18331">
        <ele>185</ele>
        <time>2014-06-05T07:55:55Z</time>
      </trkpt>
      <trkpt lat="48.69398" lon="6.18326">
        <ele>188</ele>
        <time>2014-06-05T07:56:02Z</time>
      </trkpt>
      <trkpt lat="48.694" lon="6.18322">
        <ele>194</ele>
        <time>2014-06-05T07:56:08Z</time>
      </trkpt>
      <trkpt lat="48.69401" lon="6.1832">
        <ele>196</ele>
        <time>2014-06-05T07:56:13Z</time>
      </trkpt>
      <trkpt lat="48.69401" lon="6.18316">
        <ele>197</ele>
        <time>2014-06-05T07:56:20Z</time>
      </trkpt>
      <trkpt lat="48.694" lon="6.1831">
        <ele>198</ele>
        <time>2014-06-05T07:56:26Z</time>
      </trkpt>
      <trkpt lat="48.69405" lon="6.18309">
        <ele>198</ele>
        <time>2014-06-05T07:56:31Z</time>
      </trkpt>
      <trkpt lat="48.69403" lon="6.18318">
        <ele>201</ele>
        <time>2014-06-05T07:56:37Z</time>
      </trkpt>
      <trkpt lat="48.69395" lon="6.18316">
        <ele>186</ele>
        <time>2014-06-05T07:56:46Z</time>
      </trkpt>
      <trkpt lat="48.69394" lon="6.18318">
        <ele>186</ele>
        <time>2014-06-05T07:56:51Z</time>
      </trkpt>
      <trkpt lat="48.69393" lon="6.1832">
        <ele>187</ele>
        <time>2014-06-05T07:56:56Z</time>
      </trkpt>
      <trkpt lat="48.6939" lon="6.18313">
        <ele>196</ele>
        <time>2014-06-05T07:57:01Z</time>
      </trkpt>
      <trkpt lat="48.6939" lon="6.18308">
        <ele>196</ele>
        <time>2014-06-05T07:57:06Z</time>
      </trkpt>
      <trkpt lat="48.69393" lon="6.18305">
        <ele>196</ele>
        <time>2014-06-05T07:57:11Z</time>
      </trkpt>
      <trkpt lat="48.69395" lon="6.18298">
        <ele>201</ele>
        <time>2014-06-05T07:57:16Z</time>
      </trkpt>
      <trkpt lat="48.69396" lon="6.18294">
        <ele>205</ele>
        <time>2014-06-05T07:57:22Z</time>
      </trkpt>
      <trkpt lat="48.694" lon="6.1829">
        <ele>205</ele>
        <time>2014-06-05T07:57:27Z</time>
      </trkpt>
      <trkpt lat="48.69407" lon="6.18283">
        <ele>208</ele>
        <time>2014-06-05T07:57:33Z</time>
      </trkpt>
      <trkpt lat="48.69412" lon="6.18277">
        <ele>209</ele>
        <time>2014-06-05T07:57:39Z</time>
      </trkpt>
      <trkpt lat="48.69415" lon="6.18274">
        <ele>210</ele>
        <time>2014-06-05T07:57:45Z</time>
      </trkpt>
      <trkpt lat="48.69417" lon="6.18285">
        <ele>210</ele>
        <time>2014-06-05T07:57:50Z</time>
      </trkpt>
      <trkpt lat="48.69418" lon="6.18288">
        <ele>211</ele>
        <time>2014-06-05T07:57:56Z</time>
      </trkpt>
      <trkpt lat="48.69421" lon="6.18292">
        <ele>211</ele>
        <time>2014-06-05T07:58:03Z</time>
      </trkpt>
      <trkpt lat="48.69424" lon="6.18295">
        <ele>211</ele>
        <time>2014-06-05T07:58:09Z</time>
      </trkpt>
      <trkpt lat="48.69425" lon="6.18299">
        <ele>212</ele>
        <time>2014-06-05T07:58:17Z</time>
      </trkpt>
      <trkpt lat="48.6943" lon="6.18286">
        <ele>217</ele>
        <time>2014-06-05T07:58:22Z</time>
      </trkpt>
      <trkpt lat="48.69432" lon="6.18279">
        <ele>217</ele>
        <time>2014-06-05T07:58:29Z</time>
      </trkpt>
      <trkpt lat="48.69433" lon="6.18276">
        <ele>216</ele>
        <time>2014-06-05T07:58:35Z</time>
      </trkpt>
      <trkpt lat="48.69427" lon="6.18275">
        <ele>215</ele>
        <time>2014-06-05T07:58:40Z</time>
      </trkpt>
      <trkpt lat="48.69428" lon="6.18273">
        <ele>215</ele>
        <time>2014-06-05T07:58:45Z</time>
      </trkpt>
      <trkpt lat="48.69432" lon="6.18261">
        <ele>211</ele>
        <time>2014-06-05T07:58:50Z</time>
      </trkpt>
      <trkpt lat="48.69436" lon="6.18249">
        <ele>210</ele>
        <time>2014-06-05T07:58:55Z</time>
      </trkpt>
      <trkpt lat="48.69445" lon="6.18246">
        <ele>205</ele>
        <time>2014-06-05T07:59:00Z</time>
      </trkpt>
      <trkpt lat="48.69452" lon="6.18242">
        <ele>202</ele>
        <time>2014-06-05T07:59:05Z</time>
      </trkpt>
      <trkpt lat="48.69461" lon="6.18243">
        <ele>200</ele>
        <time>2014-06-05T07:59:10Z</time>
      </trkpt>
      <trkpt lat="48.69469" lon="6.18241">
        <ele>198</ele>
        <time>2014-06-05T07:59:16Z</time>
      </trkpt>
      <trkpt lat="48.69472" lon="6.18241">
        <ele>198</ele>
        <time>2014-06-05T07:59:21Z</time>
      </trkpt>
      <trkpt lat="48.69476" lon="6.18239">
        <ele>198</ele>
        <time>2014-06-05T07:59:27Z</time>
      </trkpt>
      <trkpt lat="48.6948" lon="6.18236">
        <ele>198</ele>
        <time>2014-06-05T07:59:32Z</time>
      </trkpt>
      <trkpt lat="48.69482" lon="6.18237">
        <ele>200</ele>
        <time>2014-06-05T07:59:37Z</time>
      </trkpt>
      <trkpt lat="48.6949" lon="6.18234">
        <ele>203</ele>
        <time>2014-06-05T07:59:43Z</time>
      </trkpt>
      <trkpt lat="48.69495" lon="6.18228">
        <ele>203</ele>
        <time>2014-06-05T07:59:48Z</time>
      </trkpt>
      <trkpt lat="48.695" lon="6.18224">
        <ele>203</ele>
        <time>2014-06-05T07:59:53Z</time>
      </trkpt>
      <trkpt lat="48.69503" lon="6.18225">
        <ele>200</ele>
        <time>2014-06-05T07:59:58Z</time>
      </trkpt>
      <trkpt lat="48.69509" lon="6.18223">
        <ele>185</ele>
        <time>2014-06-05T08:00:04Z</time>
      </trkpt>
      <trkpt lat="48.69513" lon="6.18227">
        <ele>185</ele>
        <time>2014-06-05T08:00:13Z</time>
      </trkpt>
      <trkpt lat="48.69511" lon="6.18219">
        <ele>190</ele>
        <time>2014-06-05T08:00:19Z</time>
      </trkpt>
      <trkpt lat="48.69518" lon="6.18224">
        <ele>184</ele>
        <time>2014-06-05T08:00:30Z</time>
      </trkpt>
      <trkpt lat="48.69516" lon="6.18228">
        <ele>182</ele>
        <time>2014-06-05T08:00:38Z</time>
      </trkpt>
      <trkpt lat="48.69517" lon="6.18223">
        <ele>185</ele>
        <time>2014-06-05T08:00:45Z</time>
      </trkpt>
      <trkpt lat="48.69506" lon="6.18229">
        <ele>191</ele>
        <time>2014-06-05T08:00:50Z</time>
      </trkpt>
      <trkpt lat="48.69501" lon="6.18233">
        <ele>192</ele>
        <time>2014-06-05T08:00:56Z</time>
      </trkpt>
      <trkpt lat="48.69498" lon="6.18237">
        <ele>192</ele>
        <time>2014-06-05T08:01:01Z</time>
      </trkpt>
      <trkpt lat="48.69494" lon="6.18242">
        <ele>193</ele>
        <time>2014-06-05T08:01:07Z</time>
      </trkpt>
      <trkpt lat="48.69489" lon="6.18245">
        <ele>194</ele>
        <time>2014-06-05T08:01:13Z</time>
      </trkpt>
      <trkpt lat="48.69483" lon="6.18249">
        <ele>195</ele>
        <time>2014-06-05T08:01:19Z</time>
      </trkpt>
      <trkpt lat="48.69477" lon="6.18254">
        <ele>195</ele>
        <time>2014-06-05T08:01:25Z</time>
      </trkpt>
      <trkpt lat="48.69473" lon="6.18258">
        <ele>195</ele>
        <time>2014-06-05T08:01:31Z</time>
      </trkpt>
      <trkpt lat="48.69473" lon="6.18259">
        <ele>195</ele>
        <time>2014-06-05T08:01:36Z</time>
      </trkpt>
      <trkpt lat="48.6947" lon="6.18268">
        <ele>195</ele>
        <time>2014-06-05T08:01:41Z</time>
      </trkpt>
      <trkpt lat="48.69468" lon="6.18287">
        <ele>195</ele>
        <time>2014-06-05T08:01:47Z</time>
      </trkpt>
      <trkpt lat="48.6947" lon="6.18308">
        <ele>195</ele>
        <time>2014-06-05T08:01:52Z</time>
      </trkpt>
      <trkpt lat="48.69473" lon="6.18323">
        <ele>195</ele>
        <time>2014-06-05T08:01:57Z</time>
      </trkpt>
      <trkpt lat="48.69477" lon="6.18333">
        <ele>195</ele>
        <time>2014-06-05T08:02:02Z</time>
      </trkpt>
      <trkpt lat="48.69477" lon="6.18344">
        <ele>195</ele>
        <time>2014-06-05T08:02:07Z</time>
      </trkpt>
      <trkpt lat="48.6947" lon="6.18352">
        <ele>195</ele>
        <time>2014-06-05T08:02:12Z</time>
      </trkpt>
      <trkpt lat="48.69459" lon="6.18352">
        <ele>195</ele>
        <time>2014-06-05T08:02:17Z</time>
      </trkpt>
      <trkpt lat="48.6945" lon="6.18359">
        <ele>195</ele>
        <time>2014-06-05T08:02:22Z</time>
      </trkpt>
      <trkpt lat="48.69437" lon="6.18365">
        <ele>195</ele>
        <time>2014-06-05T08:02:27Z</time>
      </trkpt>
      <trkpt lat="48.69426" lon="6.18369">
        <ele>195</ele>
        <time>2014-06-05T08:02:32Z</time>
      </trkpt>
      <trkpt lat="48.69422" lon="6.18381">
        <ele>195</ele>
        <time>2014-06-05T08:02:37Z</time>
      </trkpt>
      <trkpt lat="48.69426" lon="6.1838">
        <ele>195</ele>
        <time>2014-06-05T08:02:42Z</time>
      </trkpt>
      <trkpt lat="48.69438" lon="6.18371">
        <ele>194</ele>
        <time>2014-06-05T08:02:48Z</time>
      </trkpt>
      <trkpt lat="48.69453" lon="6.18365">
        <ele>189</ele>
        <time>2014-06-05T08:02:53Z</time>
      </trkpt>
      <trkpt lat="48.69468" lon="6.18363">
        <ele>189</ele>
        <time>2014-06-05T08:02:58Z</time>
      </trkpt>
      <trkpt lat="48.69485" lon="6.18358">
        <ele>185</ele>
        <time>2014-06-05T08:03:03Z</time>
      </trkpt>
      <trkpt lat="48.69501" lon="6.1835">
        <ele>185</ele>
        <time>2014-06-05T08:03:08Z</time>
      </trkpt>
      <trkpt lat="48.69513" lon="6.18346">
        <ele>185</ele>
        <time>2014-06-05T08:03:13Z</time>
      </trkpt>
      <trkpt lat="48.69521" lon="6.1834">
        <ele>185</ele>
        <time>2014-06-05T08:03:18Z</time>
      </trkpt>
      <trkpt lat="48.69532" lon="6.1833">
        <ele>185</ele>
        <time>2014-06-05T08:03:23Z</time>
      </trkpt>
      <trkpt lat="48.69543" lon="6.18324">
        <ele>185</ele>
        <time>2014-06-05T08:03:28Z</time>
      </trkpt>
      <trkpt lat="48.69551" lon="6.1832">
        <ele>185</ele>
        <time>2014-06-05T08:03:33Z</time>
      </trkpt>
      <trkpt lat="48.69561" lon="6.18314">
        <ele>189</ele>
        <time>2014-06-05T08:03:38Z</time>
      </trkpt>
      <trkpt lat="48.69571" lon="6.18303">
        <ele>190</ele>
        <time>2014-06-05T08:03:43Z</time>
      </trkpt>
      <trkpt lat="48.69581" lon="6.18298">
        <ele>190</ele>
        <time>2014-06-05T08:03:48Z</time>
      </trkpt>
      <trkpt lat="48.69592" lon="6.18293">
        <ele>190</ele>
        <time>2014-06-05T08:03:53Z</time>
      </trkpt>
      <trkpt lat="48.69604" lon="6.18284">
        <ele>190</ele>
        <time>2014-06-05T08:03:58Z</time>
      </trkpt>
      <trkpt lat="48.69615" lon="6.18279">
        <ele>194</ele>
        <time>2014-06-05T08:04:03Z</time>
      </trkpt>
      <trkpt lat="48.69627" lon="6.18274">
        <ele>197</ele>
        <time>2014-06-05T08:04:08Z</time>
      </trkpt>
      <trkpt lat="48.69638" lon="6.18263">
        <ele>200</ele>
        <time>2014-06-05T08:04:13Z</time>
      </trkpt>
      <trkpt lat="48.6965" lon="6.18254">
        <ele>204</ele>
        <time>2014-06-05T08:04:18Z</time>
      </trkpt>
      <trkpt lat="48.69661" lon="6.18247">
        <ele>204</ele>
        <time>2014-06-05T08:04:23Z</time>
      </trkpt>
      <trkpt lat="48.6967" lon="6.18239">
        <ele>205</ele>
        <time>2014-06-05T08:04:28Z</time>
      </trkpt>
      <trkpt lat="48.69683" lon="6.18227">
        <ele>206</ele>
        <time>2014-06-05T08:04:33Z</time>
      </trkpt>
      <trkpt lat="48.69693" lon="6.18216">
        <ele>206</ele>
        <time>2014-06-05T08:04:38Z</time>
      </trkpt>
      <trkpt lat="48.69703" lon="6.18212">
        <ele>204</ele>
        <time>2014-06-05T08:04:44Z</time>
      </trkpt>
      <trkpt lat="48.69708" lon="6.18226">
        <ele>204</ele>
        <time>2014-06-05T08:04:49Z</time>
      </trkpt>
      <trkpt lat="48.69715" lon="6.18246">
        <ele>204</ele>
        <time>2014-06-05T08:04:54Z</time>
      </trkpt>
      <trkpt lat="48.69723" lon="6.18271">
        <ele>204</ele>
        <time>2014-06-05T08:04:59Z</time>
      </trkpt>
      <trkpt lat="48.69735" lon="6.1831">
        <ele>204</ele>
        <time>2014-06-05T08:05:04Z</time>
      </trkpt>
      <trkpt lat="48.69751" lon="6.18351">
        <ele>201</ele>
        <time>2014-06-05T08:05:09Z</time>
      </trkpt>
      <trkpt lat="48.69764" lon="6.18392">
        <ele>201</ele>
        <time>2014-06-05T08:05:14Z</time>
      </trkpt>
      <trkpt lat="48.69778" lon="6.18429">
        <ele>201</ele>
        <time>2014-06-05T08:05:19Z</time>
      </trkpt>
      <trkpt lat="48.6979" lon="6.18459">
        <ele>201</ele>
        <time>2014-06-05T08:05:24Z</time>
      </trkpt>
      <trkpt lat="48.69797" lon="6.18482">
        <ele>201</ele>
        <time>2014-06-05T08:05:29Z</time>
      </trkpt>
      <trkpt lat="48.69796" lon="6.18502">
        <ele>201</ele>
        <time>2014-06-05T08:05:34Z</time>
      </trkpt>
      <trkpt lat="48.69797" lon="6.18506">
        <ele>201</ele>
        <time>2014-06-05T08:05:40Z</time>
      </trkpt>
      <trkpt lat="48.69796" lon="6.18505">
        <ele>201</ele>
        <time>2014-06-05T08:05:45Z</time>
      </trkpt>
      <trkpt lat="48.69794" lon="6.18504">
        <ele>201</ele>
        <time>2014-06-05T08:05:50Z</time>
      </trkpt>
      <trkpt lat="48.69791" lon="6.18504">
        <ele>195</ele>
        <time>2014-06-05T08:05:56Z</time>
      </trkpt>
      <trkpt lat="48.69788" lon="6.18509">
        <ele>190</ele>
        <time>2014-06-05T08:06:01Z</time>
      </trkpt>
      <trkpt lat="48.69788" lon="6.18516">
        <ele>189</ele>
        <time>2014-06-05T08:06:06Z</time>
      </trkpt>
      <trkpt lat="48.69792" lon="6.18527">
        <ele>189</ele>
        <time>2014-06-05T08:06:11Z</time>
      </trkpt>
      <trkpt lat="48.69794" lon="6.18537">
        <ele>189</ele>
        <time>2014-06-05T08:06:16Z</time>
      </trkpt>
      <trkpt lat="48.69801" lon="6.18553">
        <ele>189</ele>
        <time>2014-06-05T08:06:22Z</time>
      </trkpt>
      <trkpt lat="48.69808" lon="6.18564">
        <ele>190</ele>
        <time>2014-06-05T08:06:27Z</time>
      </trkpt>
      <trkpt lat="48.69815" lon="6.18573">
        <ele>190</ele>
        <time>2014-06-05T08:06:32Z</time>
      </trkpt>
      <trkpt lat="48.69821" lon="6.18569">
        <ele>190</ele>
        <time>2014-06-05T08:06:37Z</time>
      </trkpt>
      <trkpt lat="48.69823" lon="6.18555">
        <ele>192</ele>
        <time>2014-06-05T08:06:42Z</time>
      </trkpt>
      <trkpt lat="48.69823" lon="6.18541">
        <ele>192</ele>
        <time>2014-06-05T08:06:47Z</time>
      </trkpt>
      <trkpt lat="48.6982" lon="6.18526">
        <ele>192</ele>
        <time>2014-06-05T08:06:52Z</time>
      </trkpt>
      <trkpt lat="48.69809" lon="6.18514">
        <ele>192</ele>
        <time>2014-06-05T08:06:57Z</time>
      </trkpt>
      <trkpt lat="48.69799" lon="6.18501">
        <ele>192</ele>
        <time>2014-06-05T08:07:02Z</time>
      </trkpt>
      <trkpt lat="48.69792" lon="6.18487">
        <ele>192</ele>
        <time>2014-06-05T08:07:07Z</time>
      </trkpt>
      <trkpt lat="48.6979" lon="6.18469">
        <ele>192</ele>
        <time>2014-06-05T08:07:12Z</time>
      </trkpt>
      <trkpt lat="48.69786" lon="6.18453">
        <ele>192</ele>
        <time>2014-06-05T08:07:17Z</time>
      </trkpt>
      <trkpt lat="48.69783" lon="6.18439">
        <ele>192</ele>
        <time>2014-06-05T08:07:22Z</time>
      </trkpt>
      <trkpt lat="48.69781" lon="6.18427">
        <ele>192</ele>
        <time>2014-06-05T08:07:27Z</time>
      </trkpt>
      <trkpt lat="48.69779" lon="6.18418">
        <ele>191</ele>
        <time>2014-06-05T08:07:32Z</time>
      </trkpt>
      <trkpt lat="48.69774" lon="6.184">
        <ele>186</ele>
        <time>2014-06-05T08:07:37Z</time>
      </trkpt>
      <trkpt lat="48.6977" lon="6.18384">
        <ele>181</ele>
        <time>2014-06-05T08:07:42Z</time>
      </trkpt>
      <trkpt lat="48.69761" lon="6.18366">
        <ele>178</ele>
        <time>2014-06-05T08:07:47Z</time>
      </trkpt>
      <trkpt lat="48.69756" lon="6.18348">
        <ele>178</ele>
        <time>2014-06-05T08:07:52Z</time>
      </trkpt>
      <trkpt lat="48.69749" lon="6.18332">
        <ele>178</ele>
        <time>2014-06-05T08:07:57Z</time>
      </trkpt>
      <trkpt lat="48.69742" lon="6.18312">
        <ele>178</ele>
        <time>2014-06-05T08:08:02Z</time>
      </trkpt>
      <trkpt lat="48.69738" lon="6.18299">
        <ele>179</ele>
        <time>2014-06-05T08:08:07Z</time>
      </trkpt>
      <trkpt lat="48.69734" lon="6.18287">
        <ele>183</ele>
        <time>2014-06-05T08:08:12Z</time>
      </trkpt>
      <trkpt lat="48.69728" lon="6.18273">
        <ele>186</ele>
        <time>2014-06-05T08:08:17Z</time>
      </trkpt>
      <trkpt lat="48.69722" lon="6.18264">
        <ele>186</ele>
        <time>2014-06-05T08:08:22Z</time>
      </trkpt>
      <trkpt lat="48.69722" lon="6.18249">
        <ele>191</ele>
        <time>2014-06-05T08:08:27Z</time>
      </trkpt>
      <trkpt lat="48.69718" lon="6.18238">
        <ele>196</ele>
        <time>2014-06-05T08:08:32Z</time>
      </trkpt>
      <trkpt lat="48.69714" lon="6.18225">
        <ele>197</ele>
        <time>2014-06-05T08:08:37Z</time>
      </trkpt>
      <trkpt lat="48.69711" lon="6.18216">
        <ele>197</ele>
        <time>2014-06-05T08:08:42Z</time>
      </trkpt>
      <trkpt lat="48.69708" lon="6.18202">
        <ele>196</ele>
        <time>2014-06-05T08:08:47Z</time>
      </trkpt>
      <trkpt lat="48.69699" lon="6.18182">
        <ele>192</ele>
        <time>2014-06-05T08:08:52Z</time>
      </trkpt>
      <trkpt lat="48.69687" lon="6.18144">
        <ele>190</ele>
        <time>2014-06-05T08:08:57Z</time>
      </trkpt>
      <trkpt lat="48.6968" lon="6.18117">
        <ele>190</ele>
        <time>2014-06-05T08:09:02Z</time>
      </trkpt>
      <trkpt lat="48.69674" lon="6.18097">
        <ele>190</ele>
        <time>2014-06-05T08:09:07Z</time>
      </trkpt>
      <trkpt lat="48.6967" lon="6.18076">
        <ele>191</ele>
        <time>2014-06-05T08:09:12Z</time>
      </trkpt>
      <trkpt lat="48.69668" lon="6.18055">
        <ele>191</ele>
        <time>2014-06-05T08:09:17Z</time>
      </trkpt>
      <trkpt lat="48.69664" lon="6.18036">
        <ele>191</ele>
        <time>2014-06-05T08:09:22Z</time>
      </trkpt>
      <trkpt lat="48.69663" lon="6.18021">
        <ele>191</ele>
        <time>2014-06-05T08:09:27Z</time>
      </trkpt>
      <trkpt lat="48.6966" lon="6.18004">
        <ele>193</ele>
        <time>2014-06-05T08:09:32Z</time>
      </trkpt>
      <trkpt lat="48.69648" lon="6.17988">
        <ele>194</ele>
        <time>2014-06-05T08:09:37Z</time>
      </trkpt>
      <trkpt lat="48.69638" lon="6.17973">
        <ele>192</ele>
        <time>2014-06-05T08:09:42Z</time>
      </trkpt>
      <trkpt lat="48.69631" lon="6.17958">
        <ele>191</ele>
        <time>2014-06-05T08:09:47Z</time>
      </trkpt>
      <trkpt lat="48.69623" lon="6.17947">
        <ele>191</ele>
        <time>2014-06-05T08:09:52Z</time>
      </trkpt>
      <trkpt lat="48.69619" lon="6.17929">
        <ele>191</ele>
        <time>2014-06-05T08:09:57Z</time>
      </trkpt>
      <trkpt lat="48.69615" lon="6.17917">
        <ele>191</ele>
        <time>2014-06-05T08:10:02Z</time>
      </trkpt>
      <trkpt lat="48.69608" lon="6.1792">
        <ele>191</ele>
        <time>2014-06-05T08:10:08Z</time>
      </trkpt>
      <trkpt lat="48.696" lon="6.1793">
        <ele>191</ele>
        <time>2014-06-05T08:10:14Z</time>
      </trkpt>
      <trkpt lat="48.69599" lon="6.17941">
        <ele>196</ele>
        <time>2014-06-05T08:10:20Z</time>
      </trkpt>
      <trkpt lat="48.69591" lon="6.17941">
        <ele>201</ele>
        <time>2014-06-05T08:10:25Z</time>
      </trkpt>
      <trkpt lat="48.69585" lon="6.17953">
        <ele>209</ele>
        <time>2014-06-05T08:10:30Z</time>
      </trkpt>
      <trkpt lat="48.6957" lon="6.17962">
        <ele>214</ele>
        <time>2014-06-05T08:10:35Z</time>
      </trkpt>
      <trkpt lat="48.69552" lon="6.17967">
        <ele>218</ele>
        <time>2014-06-05T08:10:40Z</time>
      </trkpt>
      <trkpt lat="48.69539" lon="6.17972">
        <ele>218</ele>
        <time>2014-06-05T08:10:45Z</time>
      </trkpt>
      <trkpt lat="48.69525" lon="6.17978">
        <ele>214</ele>
        <time>2014-06-05T08:10:50Z</time>
      </trkpt>
      <trkpt lat="48.69512" lon="6.17979">
        <ele>209</ele>
        <time>2014-06-05T08:10:55Z</time>
      </trkpt>
      <trkpt lat="48.69497" lon="6.17982">
        <ele>205</ele>
        <time>2014-06-05T08:11:00Z</time>
      </trkpt>
      <trkpt lat="48.69481" lon="6.17985">
        <ele>202</ele>
        <time>2014-06-05T08:11:05Z</time>
      </trkpt>
      <trkpt lat="48.69461" lon="6.17988">
        <ele>198</ele>
        <time>2014-06-05T08:11:10Z</time>
      </trkpt>
      <trkpt lat="48.69442" lon="6.18001">
        <ele>198</ele>
        <time>2014-06-05T08:11:15Z</time>
      </trkpt>
      <trkpt lat="48.69422" lon="6.18011">
        <ele>199</ele>
        <time>2014-06-05T08:11:20Z</time>
      </trkpt>
      <trkpt lat="48.69413" lon="6.18017">
        <ele>203</ele>
        <time>2014-06-05T08:11:25Z</time>
      </trkpt>
      <trkpt lat="48.69399" lon="6.18024">
        <ele>206</ele>
        <time>2014-06-05T08:11:30Z</time>
      </trkpt>
      <trkpt lat="48.69386" lon="6.18029">
        <ele>207</ele>
        <time>2014-06-05T08:11:35Z</time>
      </trkpt>
      <trkpt lat="48.69372" lon="6.18041">
        <ele>208</ele>
        <time>2014-06-05T08:11:40Z</time>
      </trkpt>
      <trkpt lat="48.69361" lon="6.18047">
        <ele>208</ele>
        <time>2014-06-05T08:11:45Z</time>
      </trkpt>
      <trkpt lat="48.69353" lon="6.18056">
        <ele>208</ele>
        <time>2014-06-05T08:11:50Z</time>
      </trkpt>
      <trkpt lat="48.69343" lon="6.18058">
        <ele>205</ele>
        <time>2014-06-05T08:11:57Z</time>
      </trkpt>
      <trkpt lat="48.69342" lon="6.18052">
        <ele>205</ele>
        <time>2014-06-05T08:12:02Z</time>
      </trkpt>
      <trkpt lat="48.69341" lon="6.18046">
        <ele>207</ele>
        <time>2014-06-05T08:12:07Z</time>
      </trkpt>
      <trkpt lat="48.6934" lon="6.18044">
        <ele>210</ele>
        <time>2014-06-05T08:12:12Z</time>
      </trkpt>
      <trkpt lat="48.69338" lon="6.18037">
        <ele>218</ele>
        <time>2014-06-05T08:12:20Z</time>
      </trkpt>
      <trkpt lat="48.69334" lon="6.18049">
        <ele>218</ele>
        <time>2014-06-05T08:12:29Z</time>
      </trkpt>
      <trkpt lat="48.69336" lon="6.1806">
        <ele>218</ele>
        <time>2014-06-05T08:12:35Z</time>
      </trkpt>
      <trkpt lat="48.6933" lon="6.18062">
        <ele>218</ele>
        <time>2014-06-05T08:12:41Z</time>
      </trkpt>
      <trkpt lat="48.69327" lon="6.18064">
        <ele>217</ele>
        <time>2014-06-05T08:12:49Z</time>
      </trkpt>
      <trkpt lat="48.69321" lon="6.1807">
        <ele>217</ele>
        <time>2014-06-05T08:12:54Z</time>
      </trkpt>
      <trkpt lat="48.6931" lon="6.18079">
        <ele>217</ele>
        <time>2014-06-05T08:12:59Z</time>
      </trkpt>
      <trkpt lat="48.69298" lon="6.18091">
        <ele>215</ele>
        <time>2014-06-05T08:13:04Z</time>
      </trkpt>
      <trkpt lat="48.69289" lon="6.18094">
        <ele>213</ele>
        <time>2014-06-05T08:13:09Z</time>
      </trkpt>
      <trkpt lat="48.69284" lon="6.18094">
        <ele>213</ele>
        <time>2014-06-05T08:13:15Z</time>
      </trkpt>
      <trkpt lat="48.6928" lon="6.18096">
        <ele>213</ele>
        <time>2014-06-05T08:13:20Z</time>
      </trkpt>
      <trkpt lat="48.69282" lon="6.18099">
        <ele>213</ele>
        <time>2014-06-05T08:13:26Z</time>
      </trkpt>
      <trkpt lat="48.69274" lon="6.1811">
        <ele>211</ele>
        <time>2014-06-05T08:13:31Z</time>
      </trkpt>
      <trkpt lat="48.69258" lon="6.18116">
        <ele>210</ele>
        <time>2014-06-05T08:13:36Z</time>
      </trkpt>
      <trkpt lat="48.69248" lon="6.18126">
        <ele>208</ele>
        <time>2014-06-05T08:13:41Z</time>
      </trkpt>
      <trkpt lat="48.69238" lon="6.18133">
        <ele>206</ele>
        <time>2014-06-05T08:13:46Z</time>
      </trkpt>
      <trkpt lat="48.69228" lon="6.18139">
        <ele>206</ele>
        <time>2014-06-05T08:13:51Z</time>
      </trkpt>
      <trkpt lat="48.6922" lon="6.18142">
        <ele>206</ele>
        <time>2014-06-05T08:13:56Z</time>
      </trkpt>
      <trkpt lat="48.6921" lon="6.18146">
        <ele>206</ele>
        <time>2014-06-05T08:14:01Z</time>
      </trkpt>
      <trkpt lat="48.69201" lon="6.18148">
        <ele>210</ele>
        <time>2014-06-05T08:14:06Z</time>
      </trkpt>
      <trkpt lat="48.69195" lon="6.18148">
        <ele>213</ele>
        <time>2014-06-05T08:14:11Z</time>
      </trkpt>
      <trkpt lat="48.69189" lon="6.18152">
        <ele>213</ele>
        <time>2014-06-05T08:14:16Z</time>
      </trkpt>
      <trkpt lat="48.6918" lon="6.18161">
        <ele>216</ele>
        <time>2014-06-05T08:14:21Z</time>
      </trkpt>
      <trkpt lat="48.6917" lon="6.18176">
        <ele>216</ele>
        <time>2014-06-05T08:14:26Z</time>
      </trkpt>
      <trkpt lat="48.69159" lon="6.18187">
        <ele>216</ele>
        <time>2014-06-05T08:14:31Z</time>
      </trkpt>
      <trkpt lat="48.69147" lon="6.18188">
        <ele>216</ele>
        <time>2014-06-05T08:14:36Z</time>
      </trkpt>
      <trkpt lat="48.69138" lon="6.18191">
        <ele>218</ele>
        <time>2014-06-05T08:14:41Z</time>
      </trkpt>
      <trkpt lat="48.69131" lon="6.18197">
        <ele>219</ele>
        <time>2014-06-05T08:14:46Z</time>
      </trkpt>
      <trkpt lat="48.69121" lon="6.18208">
        <ele>219</ele>
        <time>2014-06-05T08:14:51Z</time>
      </trkpt>
      <trkpt lat="48.69107" lon="6.18219">
        <ele>219</ele>
        <time>2014-06-05T08:14:56Z</time>
      </trkpt>
      <trkpt lat="48.69094" lon="6.18226">
        <ele>219</ele>
        <time>2014-06-05T08:15:01Z</time>
      </trkpt>
      <trkpt lat="48.69086" lon="6.18232">
        <ele>219</ele>
        <time>2014-06-05T08:15:06Z</time>
      </trkpt>
      <trkpt lat="48.69082" lon="6.18244">
        <ele>216</ele>
        <time>2014-06-05T08:15:11Z</time>
      </trkpt>
      <trkpt lat="48.69072" lon="6.18251">
        <ele>211</ele>
        <time>2014-06-05T08:15:16Z</time>
      </trkpt>
      <trkpt lat="48.69067" lon="6.1825">
        <ele>211</ele>
        <time>2014-06-05T08:15:23Z</time>
      </trkpt>
      <trkpt lat="48.69062" lon="6.18252">
        <ele>211</ele>
        <time>2014-06-05T08:15:28Z</time>
      </trkpt>
      <trkpt lat="48.69054" lon="6.18257">
        <ele>211</ele>
        <time>2014-06-05T08:15:33Z</time>
      </trkpt>
      <trkpt lat="48.69048" lon="6.1826">
        <ele>211</ele>
        <time>2014-06-05T08:15:38Z</time>
      </trkpt>
      <trkpt lat="48.69041" lon="6.18265">
        <ele>211</ele>
        <time>2014-06-05T08:15:44Z</time>
      </trkpt>
      <trkpt lat="48.69038" lon="6.1827">
        <ele>211</ele>
        <time>2014-06-05T08:15:49Z</time>
      </trkpt>
      <trkpt lat="48.69025" lon="6.18281">
        <ele>211</ele>
        <time>2014-06-05T08:15:54Z</time>
      </trkpt>
      <trkpt lat="48.6901" lon="6.18291">
        <ele>214</ele>
        <time>2014-06-05T08:15:59Z</time>
      </trkpt>
      <trkpt lat="48.68997" lon="6.18308">
        <ele>219</ele>
        <time>2014-06-05T08:16:04Z</time>
      </trkpt>
      <trkpt lat="48.68986" lon="6.18316">
        <ele>220</ele>
        <time>2014-06-05T08:16:09Z</time>
      </trkpt>
      <trkpt lat="48.68979" lon="6.18319">
        <ele>220</ele>
        <time>2014-06-05T08:16:14Z</time>
      </trkpt>
      <trkpt lat="48.68968" lon="6.18323">
        <ele>220</ele>
        <time>2014-06-05T08:16:20Z</time>
      </trkpt>
      <trkpt lat="48.68967" lon="6.18331">
        <ele>220</ele>
        <time>2014-06-05T08:16:25Z</time>
      </trkpt>
      <trkpt lat="48.68961" lon="6.18336">
        <ele>220</ele>
        <time>2014-06-05T08:16:30Z</time>
      </trkpt>
      <trkpt lat="48.6896" lon="6.18336">
        <ele>222</ele>
        <time>2014-06-05T08:16:40Z</time>
      </trkpt>
      <trkpt lat="48.68957" lon="6.18335">
        <ele>231</ele>
        <time>2014-06-05T08:16:47Z</time>
      </trkpt>
      <trkpt lat="48.68954" lon="6.18329">
        <ele>232</ele>
        <time>2014-06-05T08:16:55Z</time>
      </trkpt>
      <trkpt lat="48.68953" lon="6.18336">
        <ele>236</ele>
        <time>2014-06-05T08:17:03Z</time>
      </trkpt>
      <trkpt lat="48.68956" lon="6.18337">
        <ele>240</ele>
        <time>2014-06-05T08:17:08Z</time>
      </trkpt>
      <trkpt lat="48.68951" lon="6.18335">
        <ele>245</ele>
        <time>2014-06-05T08:17:13Z</time>
      </trkpt>
      <trkpt lat="48.68953" lon="6.18335">
        <ele>246</ele>
        <time>2014-06-05T08:17:18Z</time>
      </trkpt>
      <trkpt lat="48.68965" lon="6.18343">
        <ele>249</ele>
        <time>2014-06-05T08:17:23Z</time>
      </trkpt>
      <trkpt lat="48.6897" lon="6.18344">
        <ele>252</ele>
        <time>2014-06-05T08:17:29Z</time>
      </trkpt>
      <trkpt lat="48.68967" lon="6.18344">
        <ele>244</ele>
        <time>2014-06-05T08:17:37Z</time>
      </trkpt>
      <trkpt lat="48.68965" lon="6.18344">
        <ele>243</ele>
        <time>2014-06-05T08:17:43Z</time>
      </trkpt>
      <trkpt lat="48.68967" lon="6.18344">
        <ele>243</ele>
        <time>2014-06-05T08:17:49Z</time>
      </trkpt>
      <trkpt lat="48.68972" lon="6.18344">
        <ele>243</ele>
        <time>2014-06-05T08:17:54Z</time>
      </trkpt>
      <trkpt lat="48.68963" lon="6.18342">
        <ele>239</ele>
        <time>2014-06-05T08:17:59Z</time>
      </trkpt>
      <trkpt lat="48.68961" lon="6.18345">
        <ele>238</ele>
        <time>2014-06-05T08:18:08Z</time>
      </trkpt>
      <trkpt lat="48.68956" lon="6.18345">
        <ele>238</ele>
        <time>2014-06-05T08:18:13Z</time>
      </trkpt>
      <trkpt lat="48.6895" lon="6.18341">
        <ele>231</ele>
        <time>2014-06-05T08:18:21Z</time>
      </trkpt>
      <trkpt lat="48.68957" lon="6.1834">
        <ele>225</ele>
        <time>2014-06-05T08:18:31Z</time>
      </trkpt>
      <trkpt lat="48.6895" lon="6.18351">
        <ele>232</ele>
        <time>2014-06-05T08:18:38Z</time>
      </trkpt>
      <trkpt lat="48.68948" lon="6.18351">
        <ele>233</ele>
        <time>2014-06-05T08:18:47Z</time>
      </trkpt>
      <trkpt lat="48.68944" lon="6.18349">
        <ele>233</ele>
        <time>2014-06-05T08:18:53Z</time>
      </trkpt>
      <trkpt lat="48.68945" lon="6.18345">
        <ele>234</ele>
        <time>2014-06-05T08:18:59Z</time>
      </trkpt>
      <trkpt lat="48.68946" lon="6.18341">
        <ele>234</ele>
        <time>2014-06-05T08:19:06Z</time>
      </trkpt>
      <trkpt lat="48.6895" lon="6.18336">
        <ele>234</ele>
        <time>2014-06-05T08:19:12Z</time>
      </trkpt>
      <trkpt lat="48.68953" lon="6.18334">
        <ele>234</ele>
        <time>2014-06-05T08:19:17Z</time>
      </trkpt>
      <trkpt lat="48.68959" lon="6.18334">
        <ele>239</ele>
        <time>2014-06-05T08:19:23Z</time>
      </trkpt>
      <trkpt lat="48.68952" lon="6.1833">
        <ele>231</ele>
        <time>2014-06-05T08:19:30Z</time>
      </trkpt>
      <trkpt lat="48.6895" lon="6.18326">
        <ele>231</ele>
        <time>2014-06-05T08:19:35Z</time>
      </trkpt>
      <trkpt lat="48.6895" lon="6.18324">
        <ele>231</ele>
        <time>2014-06-05T08:19:41Z</time>
      </trkpt>
      <trkpt lat="48.68954" lon="6.18332">
        <ele>231</ele>
        <time>2014-06-05T08:19:46Z</time>
      </trkpt>
      <trkpt lat="48.6896" lon="6.18333">
        <ele>234</ele>
        <time>2014-06-05T08:19:56Z</time>
      </trkpt>
      <trkpt lat="48.68961" lon="6.18333">
        <ele>240</ele>
        <time>2014-06-05T08:20:05Z</time>
      </trkpt>
      <trkpt lat="48.68964" lon="6.18331">
        <ele>241</ele>
        <time>2014-06-05T08:20:10Z</time>
      </trkpt>
      <trkpt lat="48.68969" lon="6.1833">
        <ele>241</ele>
        <time>2014-06-05T08:20:16Z</time>
      </trkpt>
      <trkpt lat="48.68973" lon="6.1833">
        <ele>241</ele>
        <time>2014-06-05T08:20:21Z</time>
      </trkpt>
      <trkpt lat="48.68976" lon="6.18331">
        <ele>243</ele>
        <time>2014-06-05T08:20:30Z</time>
      </trkpt>
      <trkpt lat="48.68973" lon="6.18328">
        <ele>243</ele>
        <time>2014-06-05T08:20:36Z</time>
      </trkpt>
      <trkpt lat="48.68967" lon="6.18328">
        <ele>244</ele>
        <time>2014-06-05T08:20:42Z</time>
      </trkpt>
      <trkpt lat="48.68963" lon="6.18332">
        <ele>246</ele>
        <time>2014-06-05T08:20:47Z</time>
      </trkpt>
      <trkpt lat="48.68964" lon="6.18335">
        <ele>241</ele>
        <time>2014-06-05T08:20:58Z</time>
      </trkpt>
      <trkpt lat="48.6896" lon="6.18334">
        <ele>241</ele>
        <time>2014-06-05T08:21:03Z</time>
      </trkpt>
      <trkpt lat="48.68956" lon="6.18329">
        <ele>241</ele>
        <time>2014-06-05T08:21:08Z</time>
      </trkpt>
      <trkpt lat="48.68951" lon="6.18331">
        <ele>239</ele>
        <time>2014-06-05T08:21:15Z</time>
      </trkpt>
      <trkpt lat="48.68948" lon="6.18333">
        <ele>233</ele>
        <time>2014-06-05T08:21:22Z</time>
      </trkpt>
      <trkpt lat="48.68946" lon="6.18326">
        <ele>219</ele>
        <time>2014-06-05T08:21:33Z</time>
      </trkpt>
      <trkpt lat="48.68949" lon="6.1832">
        <ele>219</ele>
        <time>2014-06-05T08:21:39Z</time>
      </trkpt>
      <trkpt lat="48.68946" lon="6.18319">
        <ele>218</ele>
        <time>2014-06-05T08:21:45Z</time>
      </trkpt>
      <trkpt lat="48.68944" lon="6.1832">
        <ele>216</ele>
        <time>2014-06-05T08:21:53Z</time>
      </trkpt>
      <trkpt lat="48.68947" lon="6.18337">
        <ele>238</ele>
        <time>2014-06-05T08:21:58Z</time>
      </trkpt>
      <trkpt lat="48.68952" lon="6.1833">
        <ele>238</ele>
        <time>2014-06-05T08:22:07Z</time>
      </trkpt>
      <trkpt lat="48.68948" lon="6.1833">
        <ele>235</ele>
        <time>2014-06-05T08:22:12Z</time>
      </trkpt>
      <trkpt lat="48.68954" lon="6.18337">
        <ele>242</ele>
        <time>2014-06-05T08:22:19Z</time>
      </trkpt>
      <trkpt lat="48.68948" lon="6.18339">
        <ele>237</ele>
        <time>2014-06-05T08:22:26Z</time>
      </trkpt>
      <trkpt lat="48.68951" lon="6.18333">
        <ele>235</ele>
        <time>2014-06-05T08:22:33Z</time>
      </trkpt>
      <trkpt lat="48.68951" lon="6.18341">
        <ele>230</ele>
        <time>2014-06-05T08:22:40Z</time>
      </trkpt>
      <trkpt lat="48.68954" lon="6.18342">
        <ele>231</ele>
        <time>2014-06-05T08:22:48Z</time>
      </trkpt>
      <trkpt lat="48.68957" lon="6.18342">
        <ele>234</ele>
        <time>2014-06-05T08:22:55Z</time>
      </trkpt>
      <trkpt lat="48.68961" lon="6.18341">
        <ele>236</ele>
        <time>2014-06-05T08:23:00Z</time>
      </trkpt>
      <trkpt lat="48.68967" lon="6.1834">
        <ele>239</ele>
        <time>2014-06-05T08:23:06Z</time>
      </trkpt>
      <trkpt lat="48.68958" lon="6.18341">
        <ele>235</ele>
        <time>2014-06-05T08:23:13Z</time>
      </trkpt>
      <trkpt lat="48.68953" lon="6.18342">
        <ele>233</ele>
        <time>2014-06-05T08:23:19Z</time>
      </trkpt>
      <trkpt lat="48.6895" lon="6.18338">
        <ele>221</ele>
        <time>2014-06-05T08:23:28Z</time>
      </trkpt>
      <trkpt lat="48.68944" lon="6.18339">
        <ele>217</ele>
        <time>2014-06-05T08:23:34Z</time>
      </trkpt>
      <trkpt lat="48.68945" lon="6.1834">
        <ele>217</ele>
        <time>2014-06-05T08:23:39Z</time>
      </trkpt>
      <trkpt lat="48.68949" lon="6.1834">
        <ele>217</ele>
        <time>2014-06-05T08:23:47Z</time>
      </trkpt>
      <trkpt lat="48.68951" lon="6.18346">
        <ele>222</ele>
        <time>2014-06-05T08:23:54Z</time>
      </trkpt>
      <trkpt lat="48.68955" lon="6.18348">
        <ele>230</ele>
        <time>2014-06-05T08:24:02Z</time>
      </trkpt>
      <trkpt lat="48.68959" lon="6.18348">
        <ele>234</ele>
        <time>2014-06-05T08:24:07Z</time>
      </trkpt>
      <trkpt lat="48.68962" lon="6.18347">
        <ele>237</ele>
        <time>2014-06-05T08:24:13Z</time>
      </trkpt>
      <trkpt lat="48.68951" lon="6.18345">
        <ele>235</ele>
        <time>2014-06-05T08:24:18Z</time>
      </trkpt>
      <trkpt lat="48.68948" lon="6.18344">
        <ele>229</ele>
        <time>2014-06-05T08:24:24Z</time>
      </trkpt>
      <trkpt lat="48.68948" lon="6.18339">
        <ele>225</ele>
        <time>2014-06-05T08:24:35Z</time>
      </trkpt>
      <trkpt lat="48.68954" lon="6.18338">
        <ele>225</ele>
        <time>2014-06-05T08:24:43Z</time>
      </trkpt>
      <trkpt lat="48.68959" lon="6.18337">
        <ele>226</ele>
        <time>2014-06-05T08:24:49Z</time>
      </trkpt>
      <trkpt lat="48.68961" lon="6.18337">
        <ele>226</ele>
        <time>2014-06-05T08:24:56Z</time>
      </trkpt>
      <trkpt lat="48.68957" lon="6.18339">
        <ele>226</ele>
        <time>2014-06-05T08:25:01Z</time>
      </trkpt>
      <trkpt lat="48.68958" lon="6.18339">
        <ele>226</ele>
        <time>2014-06-05T08:25:06Z</time>
      </trkpt>
      <trkpt lat="48.68961" lon="6.18338">
        <ele>227</ele>
        <time>2014-06-05T08:25:12Z</time>
      </trkpt>
      <trkpt lat="48.68958" lon="6.18336">
        <ele>227</ele>
        <time>2014-06-05T08:25:18Z</time>
      </trkpt>
      <trkpt lat="48.68956" lon="6.18333">
        <ele>227</ele>
        <time>2014-06-05T08:25:23Z</time>
      </trkpt>
      <trkpt lat="48.68961" lon="6.1833">
        <ele>227</ele>
        <time>2014-06-05T08:25:28Z</time>
      </trkpt>
      <trkpt lat="48.6897" lon="6.18324">
        <ele>227</ele>
        <time>2014-06-05T08:25:33Z</time>
      </trkpt>
      <trkpt lat="48.68975" lon="6.18324">
        <ele>226</ele>
        <time>2014-06-05T08:25:41Z</time>
      </trkpt>
      <trkpt lat="48.68981" lon="6.18321">
        <ele>220</ele>
        <time>2014-06-05T08:25:46Z</time>
      </trkpt>
      <trkpt lat="48.68994" lon="6.18311">
        <ele>218</ele>
        <time>2014-06-05T08:25:51Z</time>
      </trkpt>
      <trkpt lat="48.69014" lon="6.183">
        <ele>217</ele>
        <time>2014-06-05T08:25:56Z</time>
      </trkpt>
      <trkpt lat="48.69038" lon="6.18286">
        <ele>217</ele>
        <time>2014-06-05T08:26:01Z</time>
      </trkpt>
      <trkpt lat="48.69064" lon="6.18269">
        <ele>217</ele>
        <time>2014-06-05T08:26:06Z</time>
      </trkpt>
      <trkpt lat="48.69088" lon="6.18251">
        <ele>218</ele>
        <time>2014-06-05T08:26:11Z</time>
      </trkpt>
      <trkpt lat="48.69109" lon="6.18237">
        <ele>218</ele>
        <time>2014-06-05T08:26:16Z</time>
      </trkpt>
      <trkpt lat="48.69128" lon="6.18222">
        <ele>218</ele>
        <time>2014-06-05T08:26:21Z</time>
      </trkpt>
      <trkpt lat="48.6914" lon="6.18211">
        <ele>218</ele>
        <time>2014-06-05T08:26:26Z</time>
      </trkpt>
      <trkpt lat="48.69154" lon="6.18199">
        <ele>218</ele>
        <time>2014-06-05T08:26:31Z</time>
      </trkpt>
      <trkpt lat="48.69167" lon="6.1819">
        <ele>218</ele>
        <time>2014-06-05T08:26:36Z</time>
      </trkpt>
      <trkpt lat="48.6918" lon="6.1818">
        <ele>218</ele>
        <time>2014-06-05T08:26:41Z</time>
      </trkpt>
      <trkpt lat="48.69191" lon="6.18173">
        <ele>218</ele>
        <time>2014-06-05T08:26:46Z</time>
      </trkpt>
      <trkpt lat="48.69201" lon="6.18169">
        <ele>218</ele>
        <time>2014-06-05T08:26:51Z</time>
      </trkpt>
      <trkpt lat="48.69209" lon="6.18158">
        <ele>218</ele>
        <time>2014-06-05T08:26:56Z</time>
      </trkpt>
      <trkpt lat="48.69225" lon="6.18144">
        <ele>217</ele>
        <time>2014-06-05T08:27:01Z</time>
      </trkpt>
      <trkpt lat="48.6924" lon="6.18133">
        <ele>217</ele>
        <time>2014-06-05T08:27:06Z</time>
      </trkpt>
      <trkpt lat="48.69256" lon="6.18119">
        <ele>217</ele>
        <time>2014-06-05T08:27:11Z</time>
      </trkpt>
      <trkpt lat="48.69276" lon="6.18106">
        <ele>217</ele>
        <time>2014-06-05T08:27:16Z</time>
      </trkpt>
      <trkpt lat="48.69285" lon="6.18099">
        <ele>217</ele>
        <time>2014-06-05T08:27:21Z</time>
      </trkpt>
      <trkpt lat="48.69277" lon="6.18075">
        <ele>217</ele>
        <time>2014-06-05T08:27:26Z</time>
      </trkpt>
      <trkpt lat="48.69266" lon="6.18051">
        <ele>217</ele>
        <time>2014-06-05T08:27:31Z</time>
      </trkpt>
      <trkpt lat="48.69253" lon="6.1803">
        <ele>217</ele>
        <time>2014-06-05T08:27:36Z</time>
      </trkpt>
      <trkpt lat="48.69243" lon="6.18009">
        <ele>217</ele>
        <time>2014-06-05T08:27:41Z</time>
      </trkpt>
      <trkpt lat="48.69239" lon="6.17982">
        <ele>219</ele>
        <time>2014-06-05T08:27:46Z</time>
      </trkpt>
      <trkpt lat="48.69231" lon="6.17957">
        <ele>222</ele>
        <time>2014-06-05T08:27:51Z</time>
      </trkpt>
      <trkpt lat="48.69225" lon="6.17924">
        <ele>225</ele>
        <time>2014-06-05T08:27:56Z</time>
      </trkpt>
      <trkpt lat="48.69219" lon="6.17896">
        <ele>225</ele>
        <time>2014-06-05T08:28:01Z</time>
      </trkpt>
      <trkpt lat="48.6921" lon="6.17875">
        <ele>225</ele>
        <time>2014-06-05T08:28:06Z</time>
      </trkpt>
      <trkpt lat="48.69198" lon="6.17854">
        <ele>224</ele>
        <time>2014-06-05T08:28:11Z</time>
      </trkpt>
      <trkpt lat="48.6919" lon="6.17833">
        <ele>224</ele>
        <time>2014-06-05T08:28:16Z</time>
      </trkpt>
      <trkpt lat="48.69186" lon="6.17804">
        <ele>224</ele>
        <time>2014-06-05T08:28:21Z</time>
      </trkpt>
      <trkpt lat="48.69181" lon="6.17774">
        <ele>224</ele>
        <time>2014-06-05T08:28:26Z</time>
      </trkpt>
      <trkpt lat="48.6917" lon="6.17747">
        <ele>224</ele>
        <time>2014-06-05T08:28:31Z</time>
      </trkpt>
      <trkpt lat="48.69163" lon="6.17715">
        <ele>224</ele>
        <time>2014-06-05T08:28:36Z</time>
      </trkpt>
      <trkpt lat="48.69153" lon="6.17685">
        <ele>224</ele>
        <time>2014-06-05T08:28:41Z</time>
      </trkpt>
      <trkpt lat="48.69146" lon="6.17653">
        <ele>224</ele>
        <time>2014-06-05T08:28:46Z</time>
      </trkpt>
      <trkpt lat="48.69136" lon="6.17623">
        <ele>224</ele>
        <time>2014-06-05T08:28:51Z</time>
      </trkpt>
      <trkpt lat="48.69128" lon="6.17591">
        <ele>224</ele>
        <time>2014-06-05T08:28:56Z</time>
      </trkpt>
      <trkpt lat="48.69116" lon="6.17562">
        <ele>225</ele>
        <time>2014-06-05T08:29:01Z</time>
      </trkpt>
      <trkpt lat="48.69109" lon="6.17524">
        <ele>228</ele>
        <time>2014-06-05T08:29:06Z</time>
      </trkpt>
      <trkpt lat="48.69103" lon="6.17498">
        <ele>231</ele>
        <time>2014-06-05T08:29:11Z</time>
      </trkpt>
      <trkpt lat="48.69094" lon="6.17473">
        <ele>234</ele>
        <time>2014-06-05T08:29:16Z</time>
      </trkpt>
      <trkpt lat="48.69076" lon="6.1745">
        <ele>234</ele>
        <time>2014-06-05T08:29:21Z</time>
      </trkpt>
      <trkpt lat="48.69062" lon="6.17429">
        <ele>234</ele>
        <time>2014-06-05T08:29:26Z</time>
      </trkpt>
      <trkpt lat="48.69054" lon="6.17395">
        <ele>234</ele>
        <time>2014-06-05T08:29:31Z</time>
      </trkpt>
      <trkpt lat="48.6905" lon="6.17358">
        <ele>234</ele>
        <time>2014-06-05T08:29:36Z</time>
      </trkpt>
      <trkpt lat="48.69041" lon="6.17323">
        <ele>231</ele>
        <time>2014-06-05T08:29:41Z</time>
      </trkpt>
      <trkpt lat="48.69029" lon="6.17286">
        <ele>230</ele>
        <time>2014-06-05T08:29:46Z</time>
      </trkpt>
      <trkpt lat="48.69024" lon="6.17252">
        <ele>230</ele>
        <time>2014-06-05T08:29:51Z</time>
      </trkpt>
      <trkpt lat="48.69017" lon="6.1723">
        <ele>228</ele>
        <time>2014-06-05T08:29:56Z</time>
      </trkpt>
      <trkpt lat="48.6901" lon="6.17216">
        <ele>227</ele>
        <time>2014-06-05T08:30:01Z</time>
      </trkpt>
      <trkpt lat="48.69003" lon="6.17208">
        <ele>227</ele>
        <time>2014-06-05T08:30:07Z</time>
      </trkpt>
      <trkpt lat="48.69002" lon="6.17204">
        <ele>231</ele>
        <time>2014-06-05T08:30:15Z</time>
      </trkpt>
      <trkpt lat="48.69" lon="6.17187">
        <ele>231</ele>
        <time>2014-06-05T08:30:20Z</time>
      </trkpt>
      <trkpt lat="48.68996" lon="6.17171">
        <ele>233</ele>
        <time>2014-06-05T08:30:25Z</time>
      </trkpt>
      <trkpt lat="48.6899" lon="6.17139">
        <ele>233</ele>
        <time>2014-06-05T08:30:30Z</time>
      </trkpt>
      <trkpt lat="48.6898" lon="6.17105">
        <ele>233</ele>
        <time>2014-06-05T08:30:35Z</time>
      </trkpt>
      <trkpt lat="48.68972" lon="6.17077">
        <ele>233</ele>
        <time>2014-06-05T08:30:40Z</time>
      </trkpt>
      <trkpt lat="48.68965" lon="6.17053">
        <ele>233</ele>
        <time>2014-06-05T08:30:45Z</time>
      </trkpt>
      <trkpt lat="48.68961" lon="6.17027">
        <ele>233</ele>
        <time>2014-06-05T08:30:50Z</time>
      </trkpt>
      <trkpt lat="48.68955" lon="6.1702">
        <ele>233</ele>
        <time>2014-06-05T08:30:55Z</time>
      </trkpt>
      <trkpt lat="48.68957" lon="6.17015">
        <ele>233</ele>
        <time>2014-06-05T08:31:01Z</time>
      </trkpt>
      <trkpt lat="48.68956" lon="6.17001">
        <ele>233</ele>
        <time>2014-06-05T08:31:10Z</time>
      </trkpt>
      <trkpt lat="48.68948" lon="6.16977">
        <ele>233</ele>
        <time>2014-06-05T08:31:15Z</time>
      </trkpt>
      <trkpt lat="48.68935" lon="6.16956">
        <ele>235</ele>
        <time>2014-06-05T08:31:20Z</time>
      </trkpt>
      <trkpt lat="48.68927" lon="6.16934">
        <ele>239</ele>
        <time>2014-06-05T08:31:25Z</time>
      </trkpt>
      <trkpt lat="48.68914" lon="6.16917">
        <ele>239</ele>
        <time>2014-06-05T08:31:35Z</time>
      </trkpt>
      <trkpt lat="48.68906" lon="6.169">
        <ele>239</ele>
        <time>2014-06-05T08:31:40Z</time>
      </trkpt>
      <trkpt lat="48.68897" lon="6.16876">
        <ele>239</ele>
        <time>2014-06-05T08:31:45Z</time>
      </trkpt>
      <trkpt lat="48.68885" lon="6.16852">
        <ele>239</ele>
        <time>2014-06-05T08:31:50Z</time>
      </trkpt>
      <trkpt lat="48.68877" lon="6.16817">
        <ele>240</ele>
        <time>2014-06-05T08:31:55Z</time>
      </trkpt>
      <trkpt lat="48.68868" lon="6.16776">
        <ele>241</ele>
        <time>2014-06-05T08:32:00Z</time>
      </trkpt>
      <trkpt lat="48.68858" lon="6.16737">
        <ele>241</ele>
        <time>2014-06-05T08:32:05Z</time>
      </trkpt>
      <trkpt lat="48.68847" lon="6.16691">
        <ele>241</ele>
        <time>2014-06-05T08:32:10Z</time>
      </trkpt>
      <trkpt lat="48.68837" lon="6.16649">
        <ele>236</ele>
        <time>2014-06-05T08:32:15Z</time>
      </trkpt>
      <trkpt lat="48.68825" lon="6.16606">
        <ele>233</ele>
        <time>2014-06-05T08:32:20Z</time>
      </trkpt>
      <trkpt lat="48.68811" lon="6.16563">
        <ele>231</ele>
        <time>2014-06-05T08:32:25Z</time>
      </trkpt>
      <trkpt lat="48.68802" lon="6.16524">
        <ele>231</ele>
        <time>2014-06-05T08:32:30Z</time>
      </trkpt>
      <trkpt lat="48.68793" lon="6.16488">
        <ele>231</ele>
        <time>2014-06-05T08:32:35Z</time>
      </trkpt>
      <trkpt lat="48.68784" lon="6.1646">
        <ele>231</ele>
        <time>2014-06-05T08:32:40Z</time>
      </trkpt>
      <trkpt lat="48.68775" lon="6.16428">
        <ele>231</ele>
        <time>2014-06-05T08:32:45Z</time>
      </trkpt>
      <trkpt lat="48.68767" lon="6.16398">
        <ele>231</ele>
        <time>2014-06-05T08:32:50Z</time>
      </trkpt>
      <trkpt lat="48.68759" lon="6.16368">
        <ele>231</ele>
        <time>2014-06-05T08:32:55Z</time>
      </trkpt>
      <trkpt lat="48.68751" lon="6.16339">
        <ele>231</ele>
        <time>2014-06-05T08:33:00Z</time>
      </trkpt>
      <trkpt lat="48.6874" lon="6.16306">
        <ele>231</ele>
        <time>2014-06-05T08:33:05Z</time>
      </trkpt>
      <trkpt lat="48.6873" lon="6.16284">
        <ele>231</ele>
        <time>2014-06-05T08:33:10Z</time>
      </trkpt>
      <trkpt lat="48.68724" lon="6.16287">
        <ele>232</ele>
        <time>2014-06-05T08:33:20Z</time>
      </trkpt>
      <trkpt lat="48.68722" lon="6.1629">
        <ele>234</ele>
        <time>2014-06-05T08:33:26Z</time>
      </trkpt>
      <trkpt lat="48.6872" lon="6.16294">
        <ele>236</ele>
        <time>2014-06-05T08:33:32Z</time>
      </trkpt>
      <trkpt lat="48.6872" lon="6.16269">
        <ele>237</ele>
        <time>2014-06-05T08:33:37Z</time>
      </trkpt>
      <trkpt lat="48.68713" lon="6.16239">
        <ele>238</ele>
        <time>2014-06-05T08:33:42Z</time>
      </trkpt>
      <trkpt lat="48.68703" lon="6.16208">
        <ele>238</ele>
        <time>2014-06-05T08:33:47Z</time>
      </trkpt>
      <trkpt lat="48.68697" lon="6.16185">
        <ele>238</ele>
        <time>2014-06-05T08:33:52Z</time>
      </trkpt>
      <trkpt lat="48.68689" lon="6.1616">
        <ele>238</ele>
        <time>2014-06-05T08:33:57Z</time>
      </trkpt>
      <trkpt lat="48.68681" lon="6.16134">
        <ele>238</ele>
        <time>2014-06-05T08:34:02Z</time>
      </trkpt>
      <trkpt lat="48.68668" lon="6.16114">
        <ele>238</ele>
        <time>2014-06-05T08:34:07Z</time>
      </trkpt>
      <trkpt lat="48.6866" lon="6.16082">
        <ele>238</ele>
        <time>2014-06-05T08:34:12Z</time>
      </trkpt>
      <trkpt lat="48.68652" lon="6.16052">
        <ele>238</ele>
        <time>2014-06-05T08:34:17Z</time>
      </trkpt>
      <trkpt lat="48.68649" lon="6.16029">
        <ele>238</ele>
        <time>2014-06-05T08:34:22Z</time>
      </trkpt>
      <trkpt lat="48.68641" lon="6.16001">
        <ele>238</ele>
        <time>2014-06-05T08:34:27Z</time>
      </trkpt>
      <trkpt lat="48.68634" lon="6.15971">
        <ele>238</ele>
        <time>2014-06-05T08:34:32Z</time>
      </trkpt>
      <trkpt lat="48.68626" lon="6.15942">
        <ele>238</ele>
        <time>2014-06-05T08:34:37Z</time>
      </trkpt>
      <trkpt lat="48.68619" lon="6.15914">
        <ele>238</ele>
        <time>2014-06-05T08:34:42Z</time>
      </trkpt>
      <trkpt lat="48.68612" lon="6.15883">
        <ele>238</ele>
        <time>2014-06-05T08:34:47Z</time>
      </trkpt>
      <trkpt lat="48.68602" lon="6.15849">
        <ele>238</ele>
        <time>2014-06-05T08:34:52Z</time>
      </trkpt>
      <trkpt lat="48.68592" lon="6.15815">
        <ele>237</ele>
        <time>2014-06-05T08:34:57Z</time>
      </trkpt>
      <trkpt lat="48.68583" lon="6.15783">
        <ele>237</ele>
        <time>2014-06-05T08:35:02Z</time>
      </trkpt>
      <trkpt lat="48.68571" lon="6.1575">
        <ele>237</ele>
        <time>2014-06-05T08:35:07Z</time>
      </trkpt>
      <trkpt lat="48.68561" lon="6.15714">
        <ele>236</ele>
        <time>2014-06-05T08:35:12Z</time>
      </trkpt>
      <trkpt lat="48.68549" lon="6.15679">
        <ele>236</ele>
        <time>2014-06-05T08:35:17Z</time>
      </trkpt>
      <trkpt lat="48.68538" lon="6.15645">
        <ele>234</ele>
        <time>2014-06-05T08:35:22Z</time>
      </trkpt>
      <trkpt lat="48.68527" lon="6.15613">
        <ele>234</ele>
        <time>2014-06-05T08:35:27Z</time>
      </trkpt>
      <trkpt lat="48.68516" lon="6.1558">
        <ele>234</ele>
        <time>2014-06-05T08:35:32Z</time>
      </trkpt>
      <trkpt lat="48.68504" lon="6.15543">
        <ele>233</ele>
        <time>2014-06-05T08:35:37Z</time>
      </trkpt>
      <trkpt lat="48.6849" lon="6.15505">
        <ele>229</ele>
        <time>2014-06-05T08:35:42Z</time>
      </trkpt>
      <trkpt lat="48.6848" lon="6.15466">
        <ele>226</ele>
        <time>2014-06-05T08:35:47Z</time>
      </trkpt>
      <trkpt lat="48.6847" lon="6.15427">
        <ele>226</ele>
        <time>2014-06-05T08:35:52Z</time>
      </trkpt>
      <trkpt lat="48.68461" lon="6.15387">
        <ele>224</ele>
        <time>2014-06-05T08:35:57Z</time>
      </trkpt>
      <trkpt lat="48.68452" lon="6.15346">
        <ele>224</ele>
        <time>2014-06-05T08:36:02Z</time>
      </trkpt>
      <trkpt lat="48.68446" lon="6.15306">
        <ele>224</ele>
        <time>2014-06-05T08:36:07Z</time>
      </trkpt>
      <trkpt lat="48.68439" lon="6.15266">
        <ele>222</ele>
        <time>2014-06-05T08:36:12Z</time>
      </trkpt>
      <trkpt lat="48.68431" lon="6.15227">
        <ele>222</ele>
        <time>2014-06-05T08:36:17Z</time>
      </trkpt>
      <trkpt lat="48.68425" lon="6.15194">
        <ele>222</ele>
        <time>2014-06-05T08:36:22Z</time>
      </trkpt>
      <trkpt lat="48.6842" lon="6.15173">
        <ele>222</ele>
        <time>2014-06-05T08:36:27Z</time>
      </trkpt>
      <trkpt lat="48.68419" lon="6.1517">
        <ele>222</ele>
        <time>2014-06-05T08:36:32Z</time>
      </trkpt>
      <trkpt lat="48.68413" lon="6.15154">
        <ele>222</ele>
        <time>2014-06-05T08:36:37Z</time>
      </trkpt>
      <trkpt lat="48.68406" lon="6.15127">
        <ele>222</ele>
        <time>2014-06-05T08:36:42Z</time>
      </trkpt>
      <trkpt lat="48.68396" lon="6.15097">
        <ele>222</ele>
        <time>2014-06-05T08:36:47Z</time>
      </trkpt>
      <trkpt lat="48.68385" lon="6.15067">
        <ele>222</ele>
        <time>2014-06-05T08:36:52Z</time>
      </trkpt>
      <trkpt lat="48.68371" lon="6.15038">
        <ele>222</ele>
        <time>2014-06-05T08:36:57Z</time>
      </trkpt>
      <trkpt lat="48.68354" lon="6.15011">
        <ele>223</ele>
        <time>2014-06-05T08:37:02Z</time>
      </trkpt>
      <trkpt lat="48.68335" lon="6.14984">
        <ele>223</ele>
        <time>2014-06-05T08:37:07Z</time>
      </trkpt>
      <trkpt lat="48.68318" lon="6.14958">
        <ele>223</ele>
        <time>2014-06-05T08:37:12Z</time>
      </trkpt>
      <trkpt lat="48.68303" lon="6.14932">
        <ele>223</ele>
        <time>2014-06-05T08:37:17Z</time>
      </trkpt>
      <trkpt lat="48.68291" lon="6.14909">
        <ele>225</ele>
        <time>2014-06-05T08:37:22Z</time>
      </trkpt>
      <trkpt lat="48.68275" lon="6.14891">
        <ele>230</ele>
        <time>2014-06-05T08:37:27Z</time>
      </trkpt>
      <trkpt lat="48.68258" lon="6.14865">
        <ele>235</ele>
        <time>2014-06-05T08:37:32Z</time>
      </trkpt>
      <trkpt lat="48.68244" lon="6.14842">
        <ele>237</ele>
        <time>2014-06-05T08:37:37Z</time>
      </trkpt>
      <trkpt lat="48.6823" lon="6.1482">
        <ele>238</ele>
        <time>2014-06-05T08:37:42Z</time>
      </trkpt>
      <trkpt lat="48.68221" lon="6.14798">
        <ele>239</ele>
        <time>2014-06-05T08:37:47Z</time>
      </trkpt>
      <trkpt lat="48.68208" lon="6.14776">
        <ele>239</ele>
        <time>2014-06-05T08:37:52Z</time>
      </trkpt>
      <trkpt lat="48.68193" lon="6.14753">
        <ele>239</ele>
        <time>2014-06-05T08:37:57Z</time>
      </trkpt>
      <trkpt lat="48.6818" lon="6.1473">
        <ele>238</ele>
        <time>2014-06-05T08:38:02Z</time>
      </trkpt>
      <trkpt lat="48.68166" lon="6.14705">
        <ele>238</ele>
        <time>2014-06-05T08:38:07Z</time>
      </trkpt>
      <trkpt lat="48.68152" lon="6.14676">
        <ele>236</ele>
        <time>2014-06-05T08:38:12Z</time>
      </trkpt>
      <trkpt lat="48.68136" lon="6.14644">
        <ele>235</ele>
        <time>2014-06-05T08:38:17Z</time>
      </trkpt>
      <trkpt lat="48.68118" lon="6.14616">
        <ele>235</ele>
        <time>2014-06-05T08:38:22Z</time>
      </trkpt>
      <trkpt lat="48.68103" lon="6.14583">
        <ele>235</ele>
        <time>2014-06-05T08:38:27Z</time>
      </trkpt>
      <trkpt lat="48.68089" lon="6.14553">
        <ele>235</ele>
        <time>2014-06-05T08:38:32Z</time>
      </trkpt>
      <trkpt lat="48.68076" lon="6.14525">
        <ele>235</ele>
        <time>2014-06-05T08:38:37Z</time>
      </trkpt>
      <trkpt lat="48.68064" lon="6.14497">
        <ele>235</ele>
        <time>2014-06-05T08:38:42Z</time>
      </trkpt>
      <trkpt lat="48.68053" lon="6.14476">
        <ele>235</ele>
        <time>2014-06-05T08:38:47Z</time>
      </trkpt>
      <trkpt lat="48.68045" lon="6.14458">
        <ele>235</ele>
        <time>2014-06-05T08:38:52Z</time>
      </trkpt>
      <trkpt lat="48.68032" lon="6.14434">
        <ele>235</ele>
        <time>2014-06-05T08:38:57Z</time>
      </trkpt>
      <trkpt lat="48.68018" lon="6.14409">
        <ele>236</ele>
        <time>2014-06-05T08:39:02Z</time>
      </trkpt>
      <trkpt lat="48.68004" lon="6.14386">
        <ele>238</ele>
        <time>2014-06-05T08:39:07Z</time>
      </trkpt>
      <trkpt lat="48.67993" lon="6.14361">
        <ele>240</ele>
        <time>2014-06-05T08:39:12Z</time>
      </trkpt>
      <trkpt lat="48.67981" lon="6.14337">
        <ele>241</ele>
        <time>2014-06-05T08:39:17Z</time>
      </trkpt>
      <trkpt lat="48.67971" lon="6.14315">
        <ele>241</ele>
        <time>2014-06-05T08:39:22Z</time>
      </trkpt>
      <trkpt lat="48.67961" lon="6.14296">
        <ele>241</ele>
        <time>2014-06-05T08:39:27Z</time>
      </trkpt>
      <trkpt lat="48.67955" lon="6.14283">
        <ele>242</ele>
        <time>2014-06-05T08:39:32Z</time>
      </trkpt>
      <trkpt lat="48.67949" lon="6.14275">
        <ele>243</ele>
        <time>2014-06-05T08:39:38Z</time>
      </trkpt>
      <trkpt lat="48.67941" lon="6.14264">
        <ele>244</ele>
        <time>2014-06-05T08:39:44Z</time>
      </trkpt>
      <trkpt lat="48.67929" lon="6.14247">
        <ele>244</ele>
        <time>2014-06-05T08:39:49Z</time>
      </trkpt>
      <trkpt lat="48.67919" lon="6.14229">
        <ele>244</ele>
        <time>2014-06-05T08:39:54Z</time>
      </trkpt>
      <trkpt lat="48.6791" lon="6.14213">
        <ele>245</ele>
        <time>2014-06-05T08:39:59Z</time>
      </trkpt>
      <trkpt lat="48.67902" lon="6.14196">
        <ele>245</ele>
        <time>2014-06-05T08:40:04Z</time>
      </trkpt>
      <trkpt lat="48.67894" lon="6.14176">
        <ele>246</ele>
        <time>2014-06-05T08:40:09Z</time>
      </trkpt>
      <trkpt lat="48.6788" lon="6.14167">
        <ele>246</ele>
        <time>2014-06-05T08:40:14Z</time>
      </trkpt>
      <trkpt lat="48.67868" lon="6.14159">
        <ele>246</ele>
        <time>2014-06-05T08:40:19Z</time>
      </trkpt>
      <trkpt lat="48.67859" lon="6.1415">
        <ele>246</ele>
        <time>2014-06-05T08:40:24Z</time>
      </trkpt>
      <trkpt lat="48.67856" lon="6.14147">
        <ele>246</ele>
        <time>2014-06-05T08:40:31Z</time>
      </trkpt>
      <trkpt lat="48.6787" lon="6.14168">
        <ele>248</ele>
        <time>2014-06-05T08:40:37Z</time>
      </trkpt>
      <trkpt lat="48.67861" lon="6.14201">
        <ele>248</ele>
        <time>2014-06-05T08:40:42Z</time>
      </trkpt>
      <trkpt lat="48.67857" lon="6.14239">
        <ele>246</ele>
        <time>2014-06-05T08:40:47Z</time>
      </trkpt>
      <trkpt lat="48.67857" lon="6.14284">
        <ele>242</ele>
        <time>2014-06-05T08:40:52Z</time>
      </trkpt>
      <trkpt lat="48.67846" lon="6.14338">
        <ele>238</ele>
        <time>2014-06-05T08:40:57Z</time>
      </trkpt>
      <trkpt lat="48.6782" lon="6.14384">
        <ele>237</ele>
        <time>2014-06-05T08:41:02Z</time>
      </trkpt>
      <trkpt lat="48.67791" lon="6.14414">
        <ele>235</ele>
        <time>2014-06-05T08:41:07Z</time>
      </trkpt>
      <trkpt lat="48.67763" lon="6.14442">
        <ele>235</ele>
        <time>2014-06-05T08:41:12Z</time>
      </trkpt>
      <trkpt lat="48.67736" lon="6.14471">
        <ele>234</ele>
        <time>2014-06-05T08:41:17Z</time>
      </trkpt>
      <trkpt lat="48.67712" lon="6.145">
        <ele>230</ele>
        <time>2014-06-05T08:41:22Z</time>
      </trkpt>
      <trkpt lat="48.67686" lon="6.14519">
        <ele>230</ele>
        <time>2014-06-05T08:41:27Z</time>
      </trkpt>
      <trkpt lat="48.67651" lon="6.14517">
        <ele>230</ele>
        <time>2014-06-05T08:41:32Z</time>
      </trkpt>
      <trkpt lat="48.67619" lon="6.14509">
        <ele>231</ele>
        <time>2014-06-05T08:41:37Z</time>
      </trkpt>
      <trkpt lat="48.67591" lon="6.14507">
        <ele>232</ele>
        <time>2014-06-05T08:41:42Z</time>
      </trkpt>
      <trkpt lat="48.67566" lon="6.14522">
        <ele>232</ele>
        <time>2014-06-05T08:41:47Z</time>
      </trkpt>
      <trkpt lat="48.67544" lon="6.14533">
        <ele>232</ele>
        <time>2014-06-05T08:41:52Z</time>
      </trkpt>
      <trkpt lat="48.67526" lon="6.14544">
        <ele>235</ele>
        <time>2014-06-05T08:41:57Z</time>
      </trkpt>
      <trkpt lat="48.67512" lon="6.14544">
        <ele>238</ele>
        <time>2014-06-05T08:42:02Z</time>
      </trkpt>
      <trkpt lat="48.67497" lon="6.14539">
        <ele>238</ele>
        <time>2014-06-05T08:42:07Z</time>
      </trkpt>
      <trkpt lat="48.67484" lon="6.14532">
        <ele>238</ele>
        <time>2014-06-05T08:42:12Z</time>
      </trkpt>
      <trkpt lat="48.67472" lon="6.14525">
        <ele>239</ele>
        <time>2014-06-05T08:42:17Z</time>
      </trkpt>
      <trkpt lat="48.6746" lon="6.14517">
        <ele>241</ele>
        <time>2014-06-05T08:42:22Z</time>
      </trkpt>
      <trkpt lat="48.67448" lon="6.14509">
        <ele>244</ele>
        <time>2014-06-05T08:42:27Z</time>
      </trkpt>
      <trkpt lat="48.67435" lon="6.14504">
        <ele>248</ele>
        <time>2014-06-05T08:42:32Z</time>
      </trkpt>
      <trkpt lat="48.67421" lon="6.14502">
        <ele>250</ele>
        <time>2014-06-05T08:42:37Z</time>
      </trkpt>
      <trkpt lat="48.6741" lon="6.1451">
        <ele>250</ele>
        <time>2014-06-05T08:42:42Z</time>
      </trkpt>
      <trkpt lat="48.674" lon="6.14521">
        <ele>250</ele>
        <time>2014-06-05T08:42:47Z</time>
      </trkpt>
      <trkpt lat="48.67389" lon="6.14536">
        <ele>250</ele>
        <time>2014-06-05T08:42:52Z</time>
      </trkpt>
      <trkpt lat="48.67382" lon="6.14555">
        <ele>250</ele>
        <time>2014-06-05T08:42:57Z</time>
      </trkpt>
      <trkpt lat="48.67378" lon="6.14576">
        <ele>251</ele>
        <time>2014-06-05T08:43:02Z</time>
      </trkpt>
      <trkpt lat="48.67376" lon="6.14597">
        <ele>255</ele>
        <time>2014-06-05T08:43:07Z</time>
      </trkpt>
      <trkpt lat="48.67373" lon="6.14601">
        <ele>257</ele>
        <time>2014-06-05T08:43:13Z</time>
      </trkpt>
      <trkpt lat="48.67377" lon="6.14599">
        <ele>257</ele>
        <time>2014-06-05T08:43:19Z</time>
      </trkpt>
      <trkpt lat="48.67371" lon="6.1459">
        <ele>258</ele>
        <time>2014-06-05T08:43:27Z</time>
      </trkpt>
      <trkpt lat="48.67366" lon="6.14575">
        <ele>258</ele>
        <time>2014-06-05T08:43:32Z</time>
      </trkpt>
      <trkpt lat="48.6736" lon="6.14562">
        <ele>260</ele>
        <time>2014-06-05T08:43:37Z</time>
      </trkpt>
      <trkpt lat="48.67352" lon="6.14546">
        <ele>264</ele>
        <time>2014-06-05T08:43:42Z</time>
      </trkpt>
      <trkpt lat="48.67347" lon="6.14529">
        <ele>264</ele>
        <time>2014-06-05T08:43:47Z</time>
      </trkpt>
      <trkpt lat="48.67342" lon="6.14522">
        <ele>264</ele>
        <time>2014-06-05T08:43:57Z</time>
      </trkpt>
      <trkpt lat="48.67338" lon="6.14505">
        <ele>265</ele>
        <time>2014-06-05T08:44:02Z</time>
      </trkpt>
      <trkpt lat="48.6733" lon="6.14482">
        <ele>265</ele>
        <time>2014-06-05T08:44:07Z</time>
      </trkpt>
      <trkpt lat="48.67315" lon="6.14458">
        <ele>265</ele>
        <time>2014-06-05T08:44:13Z</time>
      </trkpt>
      <trkpt lat="48.67296" lon="6.14453">
        <ele>265</ele>
        <time>2014-06-05T08:44:18Z</time>
      </trkpt>
      <trkpt lat="48.67278" lon="6.14448">
        <ele>265</ele>
        <time>2014-06-05T08:44:24Z</time>
      </trkpt>
      <trkpt lat="48.67263" lon="6.14443">
        <ele>265</ele>
        <time>2014-06-05T08:44:29Z</time>
      </trkpt>
      <trkpt lat="48.67249" lon="6.14439">
        <ele>265</ele>
        <time>2014-06-05T08:44:34Z</time>
      </trkpt>
      <trkpt lat="48.67237" lon="6.14432">
        <ele>266</ele>
        <time>2014-06-05T08:44:39Z</time>
      </trkpt>
      <trkpt lat="48.67228" lon="6.14427">
        <ele>271</ele>
        <time>2014-06-05T08:44:44Z</time>
      </trkpt>
      <trkpt lat="48.67221" lon="6.14422">
        <ele>277</ele>
        <time>2014-06-05T08:44:50Z</time>
      </trkpt>
      <trkpt lat="48.67221" lon="6.14425">
        <ele>283</ele>
        <time>2014-06-05T08:44:56Z</time>
      </trkpt>
      <trkpt lat="48.67225" lon="6.14428">
        <ele>288</ele>
        <time>2014-06-05T08:45:01Z</time>
      </trkpt>
      <trkpt lat="48.6722" lon="6.1443">
        <ele>292</ele>
        <time>2014-06-05T08:45:08Z</time>
      </trkpt>
      <trkpt lat="48.67216" lon="6.14432">
        <ele>292</ele>
        <time>2014-06-05T08:45:14Z</time>
      </trkpt>
      <trkpt lat="48.67213" lon="6.14426">
        <ele>289</ele>
        <time>2014-06-05T08:45:19Z</time>
      </trkpt>
      <trkpt lat="48.6721" lon="6.14425">
        <ele>284</ele>
        <time>2014-06-05T08:45:24Z</time>
      </trkpt>
      <trkpt lat="48.67208" lon="6.14423">
        <ele>280</ele>
        <time>2014-06-05T08:45:29Z</time>
      </trkpt>
      <trkpt lat="48.67204" lon="6.14426">
        <ele>275</ele>
        <time>2014-06-05T08:45:35Z</time>
      </trkpt>
      <trkpt lat="48.67202" lon="6.14422">
        <ele>273</ele>
        <time>2014-06-05T08:45:40Z</time>
      </trkpt>
      <trkpt lat="48.67197" lon="6.14405">
        <ele>273</ele>
        <time>2014-06-05T08:45:46Z</time>
      </trkpt>
      <trkpt lat="48.67192" lon="6.14389">
        <ele>273</ele>
        <time>2014-06-05T08:45:51Z</time>
      </trkpt>
      <trkpt lat="48.67184" lon="6.1437">
        <ele>273</ele>
        <time>2014-06-05T08:45:57Z</time>
      </trkpt>
      <trkpt lat="48.67177" lon="6.14356">
        <ele>273</ele>
        <time>2014-06-05T08:46:02Z</time>
      </trkpt>
      <trkpt lat="48.67167" lon="6.14343">
        <ele>275</ele>
        <time>2014-06-05T08:46:08Z</time>
      </trkpt>
      <trkpt lat="48.67158" lon="6.14333">
        <ele>276</ele>
        <time>2014-06-05T08:46:13Z</time>
      </trkpt>
      <trkpt lat="48.67148" lon="6.14325">
        <ele>278</ele>
        <time>2014-06-05T08:46:18Z</time>
      </trkpt>
      <trkpt lat="48.67139" lon="6.14315">
        <ele>279</ele>
        <time>2014-06-05T08:46:23Z</time>
      </trkpt>
      <trkpt lat="48.67128" lon="6.14301">
        <ele>282</ele>
        <time>2014-06-05T08:46:28Z</time>
      </trkpt>
      <trkpt lat="48.67119" lon="6.14288">
        <ele>287</ele>
        <time>2014-06-05T08:46:33Z</time>
      </trkpt>
      <trkpt lat="48.67109" lon="6.14273">
        <ele>288</ele>
        <time>2014-06-05T08:46:38Z</time>
      </trkpt>
      <trkpt lat="48.67099" lon="6.14257">
        <ele>291</ele>
        <time>2014-06-05T08:46:43Z</time>
      </trkpt>
      <trkpt lat="48.67087" lon="6.14242">
        <ele>291</ele>
        <time>2014-06-05T08:46:48Z</time>
      </trkpt>
      <trkpt lat="48.67077" lon="6.14227">
        <ele>291</ele>
        <time>2014-06-05T08:46:53Z</time>
      </trkpt>
      <trkpt lat="48.67065" lon="6.14213">
        <ele>291</ele>
        <time>2014-06-05T08:46:58Z</time>
      </trkpt>
      <trkpt lat="48.67053" lon="6.14199">
        <ele>293</ele>
        <time>2014-06-05T08:47:03Z</time>
      </trkpt>
      <trkpt lat="48.67043" lon="6.14185">
        <ele>298</ele>
        <time>2014-06-05T08:47:08Z</time>
      </trkpt>
      <trkpt lat="48.67031" lon="6.14168">
        <ele>300</ele>
        <time>2014-06-05T08:47:13Z</time>
      </trkpt>
      <trkpt lat="48.67023" lon="6.14153">
        <ele>300</ele>
        <time>2014-06-05T08:47:18Z</time>
      </trkpt>
      <trkpt lat="48.67015" lon="6.14137">
        <ele>300</ele>
        <time>2014-06-05T08:47:23Z</time>
      </trkpt>
      <trkpt lat="48.67004" lon="6.1412">
        <ele>300</ele>
        <time>2014-06-05T08:47:28Z</time>
      </trkpt>
      <trkpt lat="48.66996" lon="6.14103">
        <ele>301</ele>
        <time>2014-06-05T08:47:33Z</time>
      </trkpt>
      <trkpt lat="48.66986" lon="6.14086">
        <ele>301</ele>
        <time>2014-06-05T08:47:38Z</time>
      </trkpt>
      <trkpt lat="48.66976" lon="6.14071">
        <ele>301</ele>
        <time>2014-06-05T08:47:43Z</time>
      </trkpt>
      <trkpt lat="48.66966" lon="6.14055">
        <ele>302</ele>
        <time>2014-06-05T08:47:48Z</time>
      </trkpt>
      <trkpt lat="48.66955" lon="6.14037">
        <ele>302</ele>
        <time>2014-06-05T08:47:53Z</time>
      </trkpt>
      <trkpt lat="48.66942" lon="6.14023">
        <ele>302</ele>
        <time>2014-06-05T08:47:58Z</time>
      </trkpt>
      <trkpt lat="48.6693" lon="6.14011">
        <ele>303</ele>
        <time>2014-06-05T08:48:03Z</time>
      </trkpt>
      <trkpt lat="48.66917" lon="6.14">
        <ele>303</ele>
        <time>2014-06-05T08:48:08Z</time>
      </trkpt>
      <trkpt lat="48.66903" lon="6.13987">
        <ele>304</ele>
        <time>2014-06-05T08:48:14Z</time>
      </trkpt>
      <trkpt lat="48.66892" lon="6.13973">
        <ele>305</ele>
        <time>2014-06-05T08:48:19Z</time>
      </trkpt>
      <trkpt lat="48.66878" lon="6.13959">
        <ele>307</ele>
        <time>2014-06-05T08:48:25Z</time>
      </trkpt>
      <trkpt lat="48.66866" lon="6.13947">
        <ele>309</ele>
        <time>2014-06-05T08:48:30Z</time>
      </trkpt>
      <trkpt lat="48.66854" lon="6.13936">
        <ele>310</ele>
        <time>2014-06-05T08:48:35Z</time>
      </trkpt>
      <trkpt lat="48.66843" lon="6.13924">
        <ele>312</ele>
        <time>2014-06-05T08:48:40Z</time>
      </trkpt>
      <trkpt lat="48.66832" lon="6.13912">
        <ele>314</ele>
        <time>2014-06-05T08:48:45Z</time>
      </trkpt>
      <trkpt lat="48.6682" lon="6.13901">
        <ele>315</ele>
        <time>2014-06-05T08:48:50Z</time>
      </trkpt>
      <trkpt lat="48.66808" lon="6.13889">
        <ele>316</ele>
        <time>2014-06-05T08:48:55Z</time>
      </trkpt>
      <trkpt lat="48.66793" lon="6.13875">
        <ele>317</ele>
        <time>2014-06-05T08:49:01Z</time>
      </trkpt>
      <trkpt lat="48.6678" lon="6.13864">
        <ele>319</ele>
        <time>2014-06-05T08:49:06Z</time>
      </trkpt>
      <trkpt lat="48.6677" lon="6.13851">
        <ele>320</ele>
        <time>2014-06-05T08:49:11Z</time>
      </trkpt>
      <trkpt lat="48.66759" lon="6.13838">
        <ele>323</ele>
        <time>2014-06-05T08:49:16Z</time>
      </trkpt>
      <trkpt lat="48.66745" lon="6.13831">
        <ele>325</ele>
        <time>2014-06-05T08:49:21Z</time>
      </trkpt>
      <trkpt lat="48.66732" lon="6.13819">
        <ele>327</ele>
        <time>2014-06-05T08:49:27Z</time>
      </trkpt>
      <trkpt lat="48.66718" lon="6.13802">
        <ele>330</ele>
        <time>2014-06-05T08:49:32Z</time>
      </trkpt>
      <trkpt lat="48.66706" lon="6.1379">
        <ele>330</ele>
        <time>2014-06-05T08:49:37Z</time>
      </trkpt>
      <trkpt lat="48.66693" lon="6.13779">
        <ele>332</ele>
        <time>2014-06-05T08:49:42Z</time>
      </trkpt>
      <trkpt lat="48.66681" lon="6.13768">
        <ele>332</ele>
        <time>2014-06-05T08:49:47Z</time>
      </trkpt>
      <trkpt lat="48.66665" lon="6.13757">
        <ele>332</ele>
        <time>2014-06-05T08:49:53Z</time>
      </trkpt>
      <trkpt lat="48.66653" lon="6.13748">
        <ele>332</ele>
        <time>2014-06-05T08:49:58Z</time>
      </trkpt>
      <trkpt lat="48.6664" lon="6.13742">
        <ele>332</ele>
        <time>2014-06-05T08:50:03Z</time>
      </trkpt>
      <trkpt lat="48.66628" lon="6.13734">
        <ele>332</ele>
        <time>2014-06-05T08:50:08Z</time>
      </trkpt>
      <trkpt lat="48.66615" lon="6.13725">
        <ele>332</ele>
        <time>2014-06-05T08:50:13Z</time>
      </trkpt>
      <trkpt lat="48.66603" lon="6.13717">
        <ele>332</ele>
        <time>2014-06-05T08:50:18Z</time>
      </trkpt>
      <trkpt lat="48.66591" lon="6.13708">
        <ele>332</ele>
        <time>2014-06-05T08:50:23Z</time>
      </trkpt>
      <trkpt lat="48.66578" lon="6.13701">
        <ele>332</ele>
        <time>2014-06-05T08:50:28Z</time>
      </trkpt>
      <trkpt lat="48.66566" lon="6.13693">
        <ele>332</ele>
        <time>2014-06-05T08:50:33Z</time>
      </trkpt>
      <trkpt lat="48.66555" lon="6.13687">
        <ele>332</ele>
        <time>2014-06-05T08:50:38Z</time>
      </trkpt>
      <trkpt lat="48.66545" lon="6.13681">
        <ele>332</ele>
        <time>2014-06-05T08:50:43Z</time>
      </trkpt>
      <trkpt lat="48.66536" lon="6.13674">
        <ele>332</ele>
        <time>2014-06-05T08:50:48Z</time>
      </trkpt>
      <trkpt lat="48.66528" lon="6.13677">
        <ele>332</ele>
        <time>2014-06-05T08:50:53Z</time>
      </trkpt>
      <trkpt lat="48.66521" lon="6.13693">
        <ele>332</ele>
        <time>2014-06-05T08:50:58Z</time>
      </trkpt>
      <trkpt lat="48.66508" lon="6.13686">
        <ele>334</ele>
        <time>2014-06-05T08:51:03Z</time>
      </trkpt>
      <trkpt lat="48.66496" lon="6.13673">
        <ele>338</ele>
        <time>2014-06-05T08:51:08Z</time>
      </trkpt>
      <trkpt lat="48.66485" lon="6.1366">
        <ele>340</ele>
        <time>2014-06-05T08:51:13Z</time>
      </trkpt>
      <trkpt lat="48.66471" lon="6.13645">
        <ele>342</ele>
        <time>2014-06-05T08:51:18Z</time>
      </trkpt>
      <trkpt lat="48.66457" lon="6.13629">
        <ele>343</ele>
        <time>2014-06-05T08:51:23Z</time>
      </trkpt>
      <trkpt lat="48.66445" lon="6.1361">
        <ele>344</ele>
        <time>2014-06-05T08:51:28Z</time>
      </trkpt>
      <trkpt lat="48.66432" lon="6.1359">
        <ele>345</ele>
        <time>2014-06-05T08:51:33Z</time>
      </trkpt>
      <trkpt lat="48.66421" lon="6.1357">
        <ele>346</ele>
        <time>2014-06-05T08:51:38Z</time>
      </trkpt>
      <trkpt lat="48.66409" lon="6.13546">
        <ele>346</ele>
        <time>2014-06-05T08:51:44Z</time>
      </trkpt>
      <trkpt lat="48.66397" lon="6.13527">
        <ele>346</ele>
        <time>2014-06-05T08:51:49Z</time>
      </trkpt>
      <trkpt lat="48.66386" lon="6.13507">
        <ele>346</ele>
        <time>2014-06-05T08:51:54Z</time>
      </trkpt>
      <trkpt lat="48.66375" lon="6.13487">
        <ele>347</ele>
        <time>2014-06-05T08:51:59Z</time>
      </trkpt>
      <trkpt lat="48.66364" lon="6.13468">
        <ele>347</ele>
        <time>2014-06-05T08:52:04Z</time>
      </trkpt>
      <trkpt lat="48.66351" lon="6.13448">
        <ele>347</ele>
        <time>2014-06-05T08:52:09Z</time>
      </trkpt>
      <trkpt lat="48.66338" lon="6.13428">
        <ele>347</ele>
        <time>2014-06-05T08:52:14Z</time>
      </trkpt>
      <trkpt lat="48.66324" lon="6.13407">
        <ele>344</ele>
        <time>2014-06-05T08:52:19Z</time>
      </trkpt>
      <trkpt lat="48.66311" lon="6.13388">
        <ele>341</ele>
        <time>2014-06-05T08:52:24Z</time>
      </trkpt>
      <trkpt lat="48.66299" lon="6.13368">
        <ele>338</ele>
        <time>2014-06-05T08:52:29Z</time>
      </trkpt>
      <trkpt lat="48.66287" lon="6.13348">
        <ele>337</ele>
        <time>2014-06-05T08:52:34Z</time>
      </trkpt>
      <trkpt lat="48.66275" lon="6.13329">
        <ele>336</ele>
        <time>2014-06-05T08:52:39Z</time>
      </trkpt>
      <trkpt lat="48.66264" lon="6.13309">
        <ele>336</ele>
        <time>2014-06-05T08:52:44Z</time>
      </trkpt>
      <trkpt lat="48.66253" lon="6.1329">
        <ele>336</ele>
        <time>2014-06-05T08:52:49Z</time>
      </trkpt>
      <trkpt lat="48.66242" lon="6.1327">
        <ele>336</ele>
        <time>2014-06-05T08:52:54Z</time>
      </trkpt>
      <trkpt lat="48.6623" lon="6.1325">
        <ele>336</ele>
        <time>2014-06-05T08:52:59Z</time>
      </trkpt>
      <trkpt lat="48.66217" lon="6.13234">
        <ele>336</ele>
        <time>2014-06-05T08:53:04Z</time>
      </trkpt>
      <trkpt lat="48.66203" lon="6.13216">
        <ele>337</ele>
        <time>2014-06-05T08:53:09Z</time>
      </trkpt>
      <trkpt lat="48.66189" lon="6.13198">
        <ele>338</ele>
        <time>2014-06-05T08:53:14Z</time>
      </trkpt>
      <trkpt lat="48.66177" lon="6.13176">
        <ele>341</ele>
        <time>2014-06-05T08:53:19Z</time>
      </trkpt>
      <trkpt lat="48.66167" lon="6.13153">
        <ele>342</ele>
        <time>2014-06-05T08:53:24Z</time>
      </trkpt>
      <trkpt lat="48.66156" lon="6.1313">
        <ele>344</ele>
        <time>2014-06-05T08:53:29Z</time>
      </trkpt>
      <trkpt lat="48.66146" lon="6.13107">
        <ele>345</ele>
        <time>2014-06-05T08:53:34Z</time>
      </trkpt>
      <trkpt lat="48.66136" lon="6.13083">
        <ele>345</ele>
        <time>2014-06-05T08:53:39Z</time>
      </trkpt>
      <trkpt lat="48.66128" lon="6.13059">
        <ele>347</ele>
        <time>2014-06-05T08:53:44Z</time>
      </trkpt>
      <trkpt lat="48.66119" lon="6.13035">
        <ele>348</ele>
        <time>2014-06-05T08:53:49Z</time>
      </trkpt>
      <trkpt lat="48.6611" lon="6.13013">
        <ele>348</ele>
        <time>2014-06-05T08:53:54Z</time>
      </trkpt>
      <trkpt lat="48.66099" lon="6.12988">
        <ele>349</ele>
        <time>2014-06-05T08:53:59Z</time>
      </trkpt>
      <trkpt lat="48.66088" lon="6.12964">
        <ele>349</ele>
        <time>2014-06-05T08:54:04Z</time>
      </trkpt>
      <trkpt lat="48.6608" lon="6.1294">
        <ele>349</ele>
        <time>2014-06-05T08:54:09Z</time>
      </trkpt>
      <trkpt lat="48.66075" lon="6.12918">
        <ele>350</ele>
        <time>2014-06-05T08:54:14Z</time>
      </trkpt>
      <trkpt lat="48.66078" lon="6.12892">
        <ele>354</ele>
        <time>2014-06-05T08:54:19Z</time>
      </trkpt>
      <trkpt lat="48.66074" lon="6.12865">
        <ele>356</ele>
        <time>2014-06-05T08:54:24Z</time>
      </trkpt>
      <trkpt lat="48.66069" lon="6.12836">
        <ele>358</ele>
        <time>2014-06-05T08:54:29Z</time>
      </trkpt>
      <trkpt lat="48.6606" lon="6.12802">
        <ele>358</ele>
        <time>2014-06-05T08:54:34Z</time>
      </trkpt>
      <trkpt lat="48.66053" lon="6.12767">
        <ele>358</ele>
        <time>2014-06-05T08:54:39Z</time>
      </trkpt>
      <trkpt lat="48.66045" lon="6.12735">
        <ele>358</ele>
        <time>2014-06-05T08:54:44Z</time>
      </trkpt>
      <trkpt lat="48.66035" lon="6.12699">
        <ele>358</ele>
        <time>2014-06-05T08:54:49Z</time>
      </trkpt>
      <trkpt lat="48.66022" lon="6.12661">
        <ele>358</ele>
        <time>2014-06-05T08:54:54Z</time>
      </trkpt>
      <trkpt lat="48.66006" lon="6.12622">
        <ele>358</ele>
        <time>2014-06-05T08:54:59Z</time>
      </trkpt>
      <trkpt lat="48.65989" lon="6.12584">
        <ele>358</ele>
        <time>2014-06-05T08:55:04Z</time>
      </trkpt>
      <trkpt lat="48.65966" lon="6.1254">
        <ele>358</ele>
        <time>2014-06-05T08:55:11Z</time>
      </trkpt>
      <trkpt lat="48.65949" lon="6.12493">
        <ele>358</ele>
        <time>2014-06-05T08:55:16Z</time>
      </trkpt>
      <trkpt lat="48.65934" lon="6.12443">
        <ele>357</ele>
        <time>2014-06-05T08:55:22Z</time>
      </trkpt>
      <trkpt lat="48.65923" lon="6.12401">
        <ele>357</ele>
        <time>2014-06-05T08:55:27Z</time>
      </trkpt>
      <trkpt lat="48.6591" lon="6.12361">
        <ele>357</ele>
        <time>2014-06-05T08:55:32Z</time>
      </trkpt>
      <trkpt lat="48.65899" lon="6.12321">
        <ele>357</ele>
        <time>2014-06-05T08:55:37Z</time>
      </trkpt>
      <trkpt lat="48.65885" lon="6.12279">
        <ele>357</ele>
        <time>2014-06-05T08:55:42Z</time>
      </trkpt>
      <trkpt lat="48.65872" lon="6.12234">
        <ele>357</ele>
        <time>2014-06-05T08:55:47Z</time>
      </trkpt>
      <trkpt lat="48.6586" lon="6.1219">
        <ele>357</ele>
        <time>2014-06-05T08:55:52Z</time>
      </trkpt>
      <trkpt lat="48.6585" lon="6.12145">
        <ele>356</ele>
        <time>2014-06-05T08:55:57Z</time>
      </trkpt>
      <trkpt lat="48.65842" lon="6.12094">
        <ele>354</ele>
        <time>2014-06-05T08:56:02Z</time>
      </trkpt>
      <trkpt lat="48.65838" lon="6.12039">
        <ele>350</ele>
        <time>2014-06-05T08:56:07Z</time>
      </trkpt>
      <trkpt lat="48.65845" lon="6.11978">
        <ele>346</ele>
        <time>2014-06-05T08:56:12Z</time>
      </trkpt>
      <trkpt lat="48.65862" lon="6.11915">
        <ele>343</ele>
        <time>2014-06-05T08:56:17Z</time>
      </trkpt>
      <trkpt lat="48.65876" lon="6.11848">
        <ele>340</ele>
        <time>2014-06-05T08:56:22Z</time>
      </trkpt>
      <trkpt lat="48.65888" lon="6.11775">
        <ele>337</ele>
        <time>2014-06-05T08:56:27Z</time>
      </trkpt>
      <trkpt lat="48.65884" lon="6.11702">
        <ele>335</ele>
        <time>2014-06-05T08:56:32Z</time>
      </trkpt>
      <trkpt lat="48.6588" lon="6.1165">
        <ele>335</ele>
        <time>2014-06-05T08:56:37Z</time>
      </trkpt>
      <trkpt lat="48.65877" lon="6.11611">
        <ele>335</ele>
        <time>2014-06-05T08:56:42Z</time>
      </trkpt>
      <trkpt lat="48.65872" lon="6.1158">
        <ele>335</ele>
        <time>2014-06-05T08:56:47Z</time>
      </trkpt>
      <trkpt lat="48.65868" lon="6.11554">
        <ele>335</ele>
        <time>2014-06-05T08:56:52Z</time>
      </trkpt>
      <trkpt lat="48.65863" lon="6.11532">
        <ele>335</ele>
        <time>2014-06-05T08:56:57Z</time>
      </trkpt>
      <trkpt lat="48.65858" lon="6.11511">
        <ele>335</ele>
        <time>2014-06-05T08:57:02Z</time>
      </trkpt>
      <trkpt lat="48.65852" lon="6.11492">
        <ele>335</ele>
        <time>2014-06-05T08:57:07Z</time>
      </trkpt>
      <trkpt lat="48.65848" lon="6.11474">
        <ele>336</ele>
        <time>2014-06-05T08:57:12Z</time>
      </trkpt>
      <trkpt lat="48.65838" lon="6.11464">
        <ele>341</ele>
        <time>2014-06-05T08:57:18Z</time>
      </trkpt>
      <trkpt lat="48.6583" lon="6.11448">
        <ele>341</ele>
        <time>2014-06-05T08:57:23Z</time>
      </trkpt>
      <trkpt lat="48.65824" lon="6.11435">
        <ele>341</ele>
        <time>2014-06-05T08:57:28Z</time>
      </trkpt>
      <trkpt lat="48.65817" lon="6.11418">
        <ele>341</ele>
        <time>2014-06-05T08:57:34Z</time>
      </trkpt>
      <trkpt lat="48.6581" lon="6.11401">
        <ele>341</ele>
        <time>2014-06-05T08:57:39Z</time>
      </trkpt>
      <trkpt lat="48.65804" lon="6.11386">
        <ele>342</ele>
        <time>2014-06-05T08:57:44Z</time>
      </trkpt>
      <trkpt lat="48.65797" lon="6.11371">
        <ele>342</ele>
        <time>2014-06-05T08:57:49Z</time>
      </trkpt>
      <trkpt lat="48.65788" lon="6.1135">
        <ele>342</ele>
        <time>2014-06-05T08:57:54Z</time>
      </trkpt>
      <trkpt lat="48.6578" lon="6.11329">
        <ele>343</ele>
        <time>2014-06-05T08:57:59Z</time>
      </trkpt>
      <trkpt lat="48.65769" lon="6.11303">
        <ele>344</ele>
        <time>2014-06-05T08:58:04Z</time>
      </trkpt>
      <trkpt lat="48.65758" lon="6.11276">
        <ele>345</ele>
        <time>2014-06-05T08:58:09Z</time>
      </trkpt>
      <trkpt lat="48.65747" lon="6.1125">
        <ele>345</ele>
        <time>2014-06-05T08:58:14Z</time>
      </trkpt>
      <trkpt lat="48.65734" lon="6.11223">
        <ele>345</ele>
        <time>2014-06-05T08:58:19Z</time>
      </trkpt>
      <trkpt lat="48.65721" lon="6.11195">
        <ele>345</ele>
        <time>2014-06-05T08:58:24Z</time>
      </trkpt>
      <trkpt lat="48.6571" lon="6.11169">
        <ele>345</ele>
        <time>2014-06-05T08:58:29Z</time>
      </trkpt>
      <trkpt lat="48.657" lon="6.11143">
        <ele>345</ele>
        <time>2014-06-05T08:58:34Z</time>
      </trkpt>
      <trkpt lat="48.65689" lon="6.11118">
        <ele>346</ele>
        <time>2014-06-05T08:58:39Z</time>
      </trkpt>
      <trkpt lat="48.6568" lon="6.11097">
        <ele>347</ele>
        <time>2014-06-05T08:58:44Z</time>
      </trkpt>
      <trkpt lat="48.65673" lon="6.11082">
        <ele>350</ele>
        <time>2014-06-05T08:58:49Z</time>
      </trkpt>
      <trkpt lat="48.65666" lon="6.11068">
        <ele>352</ele>
        <time>2014-06-05T08:58:54Z</time>
      </trkpt>
      <trkpt lat="48.65659" lon="6.11051">
        <ele>353</ele>
        <time>2014-06-05T08:58:59Z</time>
      </trkpt>
      <trkpt lat="48.65652" lon="6.11033">
        <ele>355</ele>
        <time>2014-06-05T08:59:04Z</time>
      </trkpt>
      <trkpt lat="48.65646" lon="6.11016">
        <ele>355</ele>
        <time>2014-06-05T08:59:09Z</time>
      </trkpt>
      <trkpt lat="48.65639" lon="6.10998">
        <ele>355</ele>
        <time>2014-06-05T08:59:14Z</time>
      </trkpt>
      <trkpt lat="48.65631" lon="6.10979">
        <ele>355</ele>
        <time>2014-06-05T08:59:19Z</time>
      </trkpt>
      <trkpt lat="48.65624" lon="6.10961">
        <ele>356</ele>
        <time>2014-06-05T08:59:24Z</time>
      </trkpt>
      <trkpt lat="48.65615" lon="6.1094">
        <ele>357</ele>
        <time>2014-06-05T08:59:29Z</time>
      </trkpt>
      <trkpt lat="48.65606" lon="6.10917">
        <ele>358</ele>
        <time>2014-06-05T08:59:34Z</time>
      </trkpt>
      <trkpt lat="48.65596" lon="6.10892">
        <ele>358</ele>
        <time>2014-06-05T08:59:39Z</time>
      </trkpt>
      <trkpt lat="48.65585" lon="6.10869">
        <ele>358</ele>
        <time>2014-06-05T08:59:44Z</time>
      </trkpt>
      <trkpt lat="48.65574" lon="6.10845">
        <ele>358</ele>
        <time>2014-06-05T08:59:49Z</time>
      </trkpt>
      <trkpt lat="48.65564" lon="6.10822">
        <ele>359</ele>
        <time>2014-06-05T08:59:54Z</time>
      </trkpt>
      <trkpt lat="48.65556" lon="6.10806">
        <ele>359</ele>
        <time>2014-06-05T08:59:59Z</time>
      </trkpt>
      <trkpt lat="48.65548" lon="6.10786">
        <ele>360</ele>
        <time>2014-06-05T09:00:04Z</time>
      </trkpt>
      <trkpt lat="48.65536" lon="6.10761">
        <ele>361</ele>
        <time>2014-06-05T09:00:09Z</time>
      </trkpt>
      <trkpt lat="48.65525" lon="6.10732">
        <ele>361</ele>
        <time>2014-06-05T09:00:14Z</time>
      </trkpt>
      <trkpt lat="48.65517" lon="6.10707">
        <ele>361</ele>
        <time>2014-06-05T09:00:19Z</time>
      </trkpt>
      <trkpt lat="48.65512" lon="6.10683">
        <ele>361</ele>
        <time>2014-06-05T09:00:24Z</time>
      </trkpt>
      <trkpt lat="48.65507" lon="6.10658">
        <ele>361</ele>
        <time>2014-06-05T09:00:29Z</time>
      </trkpt>
      <trkpt lat="48.65501" lon="6.10634">
        <ele>361</ele>
        <time>2014-06-05T09:00:34Z</time>
      </trkpt>
      <trkpt lat="48.65495" lon="6.10609">
        <ele>361</ele>
        <time>2014-06-05T09:00:39Z</time>
      </trkpt>
      <trkpt lat="48.65488" lon="6.10586">
        <ele>361</ele>
        <time>2014-06-05T09:00:44Z</time>
      </trkpt>
      <trkpt lat="48.6548" lon="6.10562">
        <ele>361</ele>
        <time>2014-06-05T09:00:49Z</time>
      </trkpt>
      <trkpt lat="48.65473" lon="6.10538">
        <ele>361</ele>
        <time>2014-06-05T09:00:54Z</time>
      </trkpt>
      <trkpt lat="48.65466" lon="6.10517">
        <ele>363</ele>
        <time>2014-06-05T09:00:59Z</time>
      </trkpt>
      <trkpt lat="48.65461" lon="6.10497">
        <ele>366</ele>
        <time>2014-06-05T09:01:04Z</time>
      </trkpt>
      <trkpt lat="48.65455" lon="6.10473">
        <ele>366</ele>
        <time>2014-06-05T09:01:09Z</time>
      </trkpt>
      <trkpt lat="48.65445" lon="6.10446">
        <ele>366</ele>
        <time>2014-06-05T09:01:14Z</time>
      </trkpt>
      <trkpt lat="48.65437" lon="6.10421">
        <ele>366</ele>
        <time>2014-06-05T09:01:19Z</time>
      </trkpt>
      <trkpt lat="48.65428" lon="6.10395">
        <ele>366</ele>
        <time>2014-06-05T09:01:24Z</time>
      </trkpt>
      <trkpt lat="48.6542" lon="6.1037">
        <ele>366</ele>
        <time>2014-06-05T09:01:29Z</time>
      </trkpt>
      <trkpt lat="48.65411" lon="6.10346">
        <ele>366</ele>
        <time>2014-06-05T09:01:34Z</time>
      </trkpt>
      <trkpt lat="48.65404" lon="6.10324">
        <ele>367</ele>
        <time>2014-06-05T09:01:39Z</time>
      </trkpt>
      <trkpt lat="48.65399" lon="6.1031">
        <ele>369</ele>
        <time>2014-06-05T09:01:44Z</time>
      </trkpt>
      <trkpt lat="48.65392" lon="6.10288">
        <ele>370</ele>
        <time>2014-06-05T09:01:49Z</time>
      </trkpt>
      <trkpt lat="48.65386" lon="6.10267">
        <ele>370</ele>
        <time>2014-06-05T09:01:54Z</time>
      </trkpt>
      <trkpt lat="48.65379" lon="6.10243">
        <ele>370</ele>
        <time>2014-06-05T09:01:59Z</time>
      </trkpt>
      <trkpt lat="48.65374" lon="6.10221">
        <ele>370</ele>
        <time>2014-06-05T09:02:04Z</time>
      </trkpt>
      <trkpt lat="48.6537" lon="6.102">
        <ele>370</ele>
        <time>2014-06-05T09:02:09Z</time>
      </trkpt>
      <trkpt lat="48.65366" lon="6.10179">
        <ele>370</ele>
        <time>2014-06-05T09:02:14Z</time>
      </trkpt>
      <trkpt lat="48.65363" lon="6.10153">
        <ele>370</ele>
        <time>2014-06-05T09:02:19Z</time>
      </trkpt>
      <trkpt lat="48.65359" lon="6.10126">
        <ele>370</ele>
        <time>2014-06-05T09:02:24Z</time>
      </trkpt>
      <trkpt lat="48.65358" lon="6.10101">
        <ele>372</ele>
        <time>2014-06-05T09:02:29Z</time>
      </trkpt>
      <trkpt lat="48.65359" lon="6.10076">
        <ele>375</ele>
        <time>2014-06-05T09:02:34Z</time>
      </trkpt>
      <trkpt lat="48.65356" lon="6.10052">
        <ele>377</ele>
        <time>2014-06-05T09:02:39Z</time>
      </trkpt>
      <trkpt lat="48.65354" lon="6.10027">
        <ele>379</ele>
        <time>2014-06-05T09:02:44Z</time>
      </trkpt>
      <trkpt lat="48.6535" lon="6.10003">
        <ele>381</ele>
        <time>2014-06-05T09:02:49Z</time>
      </trkpt>
      <trkpt lat="48.65348" lon="6.0998">
        <ele>381</ele>
        <time>2014-06-05T09:02:54Z</time>
      </trkpt>
      <trkpt lat="48.65344" lon="6.09959">
        <ele>381</ele>
        <time>2014-06-05T09:02:59Z</time>
      </trkpt>
      <trkpt lat="48.65339" lon="6.09935">
        <ele>383</ele>
        <time>2014-06-05T09:03:04Z</time>
      </trkpt>
      <trkpt lat="48.65334" lon="6.09912">
        <ele>384</ele>
        <time>2014-06-05T09:03:09Z</time>
      </trkpt>
      <trkpt lat="48.65328" lon="6.09891">
        <ele>385</ele>
        <time>2014-06-05T09:03:14Z</time>
      </trkpt>
      <trkpt lat="48.65321" lon="6.09867">
        <ele>385</ele>
        <time>2014-06-05T09:03:19Z</time>
      </trkpt>
      <trkpt lat="48.65313" lon="6.09844">
        <ele>385</ele>
        <time>2014-06-05T09:03:24Z</time>
      </trkpt>
      <trkpt lat="48.65307" lon="6.09823">
        <ele>385</ele>
        <time>2014-06-05T09:03:29Z</time>
      </trkpt>
      <trkpt lat="48.65302" lon="6.09801">
        <ele>385</ele>
        <time>2014-06-05T09:03:34Z</time>
      </trkpt>
      <trkpt lat="48.65293" lon="6.09779">
        <ele>385</ele>
        <time>2014-06-05T09:03:39Z</time>
      </trkpt>
      <trkpt lat="48.65286" lon="6.09757">
        <ele>385</ele>
        <time>2014-06-05T09:03:44Z</time>
      </trkpt>
      <trkpt lat="48.65276" lon="6.09734">
        <ele>385</ele>
        <time>2014-06-05T09:03:49Z</time>
      </trkpt>
      <trkpt lat="48.65266" lon="6.0971">
        <ele>382</ele>
        <time>2014-06-05T09:03:54Z</time>
      </trkpt>
      <trkpt lat="48.65257" lon="6.09689">
        <ele>380</ele>
        <time>2014-06-05T09:03:59Z</time>
      </trkpt>
      <trkpt lat="48.65246" lon="6.09665">
        <ele>377</ele>
        <time>2014-06-05T09:04:04Z</time>
      </trkpt>
      <trkpt lat="48.65236" lon="6.09641">
        <ele>376</ele>
        <time>2014-06-05T09:04:09Z</time>
      </trkpt>
      <trkpt lat="48.65226" lon="6.09618">
        <ele>375</ele>
        <time>2014-06-05T09:04:14Z</time>
      </trkpt>
      <trkpt lat="48.65216" lon="6.09593">
        <ele>375</ele>
        <time>2014-06-05T09:04:19Z</time>
      </trkpt>
      <trkpt lat="48.65208" lon="6.09565">
        <ele>375</ele>
        <time>2014-06-05T09:04:24Z</time>
      </trkpt>
      <trkpt lat="48.652" lon="6.09535">
        <ele>376</ele>
        <time>2014-06-05T09:04:29Z</time>
      </trkpt>
      <trkpt lat="48.65192" lon="6.09505">
        <ele>377</ele>
        <time>2014-06-05T09:04:34Z</time>
      </trkpt>
      <trkpt lat="48.65184" lon="6.09473">
        <ele>380</ele>
        <time>2014-06-05T09:04:39Z</time>
      </trkpt>
      <trkpt lat="48.65176" lon="6.09439">
        <ele>380</ele>
        <time>2014-06-05T09:04:44Z</time>
      </trkpt>
      <trkpt lat="48.65167" lon="6.09401">
        <ele>381</ele>
        <time>2014-06-05T09:04:49Z</time>
      </trkpt>
      <trkpt lat="48.65157" lon="6.09366">
        <ele>382</ele>
        <time>2014-06-05T09:04:54Z</time>
      </trkpt>
      <trkpt lat="48.65147" lon="6.0933">
        <ele>382</ele>
        <time>2014-06-05T09:04:59Z</time>
      </trkpt>
      <trkpt lat="48.65138" lon="6.09293">
        <ele>382</ele>
        <time>2014-06-05T09:05:04Z</time>
      </trkpt>
      <trkpt lat="48.65128" lon="6.09257">
        <ele>382</ele>
        <time>2014-06-05T09:05:09Z</time>
      </trkpt>
      <trkpt lat="48.65121" lon="6.09225">
        <ele>382</ele>
        <time>2014-06-05T09:05:14Z</time>
      </trkpt>
      <trkpt lat="48.65117" lon="6.09207">
        <ele>382</ele>
        <time>2014-06-05T09:05:19Z</time>
      </trkpt>
      <trkpt lat="48.65114" lon="6.09195">
        <ele>382</ele>
        <time>2014-06-05T09:05:24Z</time>
      </trkpt>
      <trkpt lat="48.65115" lon="6.09191">
        <ele>383</ele>
        <time>2014-06-05T09:05:29Z</time>
      </trkpt>
      <trkpt lat="48.65111" lon="6.09188">
        <ele>387</ele>
        <time>2014-06-05T09:05:34Z</time>
      </trkpt>
      <trkpt lat="48.65106" lon="6.09185">
        <ele>387</ele>
        <time>2014-06-05T09:05:42Z</time>
      </trkpt>
      <trkpt lat="48.65107" lon="6.09185">
        <ele>387</ele>
        <time>2014-06-05T09:05:53Z</time>
      </trkpt>
      <trkpt lat="48.65109" lon="6.09192">
        <ele>387</ele>
        <time>2014-06-05T09:05:58Z</time>
      </trkpt>
      <trkpt lat="48.65112" lon="6.09205">
        <ele>387</ele>
        <time>2014-06-05T09:06:03Z</time>
      </trkpt>
      <trkpt lat="48.65117" lon="6.09199">
        <ele>388</ele>
        <time>2014-06-05T09:06:08Z</time>
      </trkpt>
      <trkpt lat="48.65113" lon="6.09183">
        <ele>388</ele>
        <time>2014-06-05T09:06:13Z</time>
      </trkpt>
      <trkpt lat="48.65111" lon="6.09171">
        <ele>388</ele>
        <time>2014-06-05T09:06:18Z</time>
      </trkpt>
      <trkpt lat="48.6511" lon="6.09162">
        <ele>388</ele>
        <time>2014-06-05T09:06:23Z</time>
      </trkpt>
      <trkpt lat="48.65108" lon="6.09155">
        <ele>388</ele>
        <time>2014-06-05T09:06:28Z</time>
      </trkpt>
      <trkpt lat="48.65106" lon="6.09146">
        <ele>387</ele>
        <time>2014-06-05T09:06:33Z</time>
      </trkpt>
      <trkpt lat="48.65104" lon="6.09132">
        <ele>387</ele>
        <time>2014-06-05T09:06:38Z</time>
      </trkpt>
      <trkpt lat="48.65101" lon="6.09114">
        <ele>385</ele>
        <time>2014-06-05T09:06:43Z</time>
      </trkpt>
      <trkpt lat="48.65099" lon="6.09093">
        <ele>385</ele>
        <time>2014-06-05T09:06:48Z</time>
      </trkpt>
      <trkpt lat="48.65098" lon="6.0907">
        <ele>385</ele>
        <time>2014-06-05T09:06:53Z</time>
      </trkpt>
      <trkpt lat="48.65097" lon="6.09045">
        <ele>385</ele>
        <time>2014-06-05T09:06:58Z</time>
      </trkpt>
      <trkpt lat="48.65096" lon="6.09019">
        <ele>385</ele>
        <time>2014-06-05T09:07:03Z</time>
      </trkpt>
      <trkpt lat="48.65094" lon="6.08991">
        <ele>385</ele>
        <time>2014-06-05T09:07:08Z</time>
      </trkpt>
      <trkpt lat="48.65092" lon="6.08964">
        <ele>385</ele>
        <time>2014-06-05T09:07:13Z</time>
      </trkpt>
      <trkpt lat="48.65088" lon="6.08937">
        <ele>385</ele>
        <time>2014-06-05T09:07:18Z</time>
      </trkpt>
      <trkpt lat="48.65081" lon="6.08906">
        <ele>385</ele>
        <time>2014-06-05T09:07:23Z</time>
      </trkpt>
      <trkpt lat="48.65073" lon="6.08874">
        <ele>385</ele>
        <time>2014-06-05T09:07:28Z</time>
      </trkpt>
      <trkpt lat="48.65065" lon="6.08844">
        <ele>385</ele>
        <time>2014-06-05T09:07:33Z</time>
      </trkpt>
      <trkpt lat="48.65058" lon="6.08817">
        <ele>385</ele>
        <time>2014-06-05T09:07:38Z</time>
      </trkpt>
      <trkpt lat="48.6505" lon="6.08785">
        <ele>385</ele>
        <time>2014-06-05T09:07:43Z</time>
      </trkpt>
      <trkpt lat="48.65041" lon="6.08751">
        <ele>386</ele>
        <time>2014-06-05T09:07:48Z</time>
      </trkpt>
      <trkpt lat="48.65033" lon="6.08717">
        <ele>386</ele>
        <time>2014-06-05T09:07:53Z</time>
      </trkpt>
      <trkpt lat="48.65024" lon="6.08682">
        <ele>386</ele>
        <time>2014-06-05T09:07:58Z</time>
      </trkpt>
      <trkpt lat="48.65015" lon="6.08648">
        <ele>387</ele>
        <time>2014-06-05T09:08:03Z</time>
      </trkpt>
      <trkpt lat="48.65007" lon="6.08615">
        <ele>387</ele>
        <time>2014-06-05T09:08:08Z</time>
      </trkpt>
      <trkpt lat="48.64999" lon="6.08583">
        <ele>387</ele>
        <time>2014-06-05T09:08:13Z</time>
      </trkpt>
      <trkpt lat="48.64991" lon="6.08549">
        <ele>387</ele>
        <time>2014-06-05T09:08:18Z</time>
      </trkpt>
      <trkpt lat="48.64982" lon="6.08516">
        <ele>387</ele>
        <time>2014-06-05T09:08:23Z</time>
      </trkpt>
      <trkpt lat="48.64974" lon="6.08482">
        <ele>388</ele>
        <time>2014-06-05T09:08:28Z</time>
      </trkpt>
      <trkpt lat="48.64965" lon="6.08446">
        <ele>388</ele>
        <time>2014-06-05T09:08:33Z</time>
      </trkpt>
      <trkpt lat="48.64957" lon="6.08409">
        <ele>388</ele>
        <time>2014-06-05T09:08:38Z</time>
      </trkpt>
      <trkpt lat="48.6495" lon="6.08371">
        <ele>388</ele>
        <time>2014-06-05T09:08:43Z</time>
      </trkpt>
      <trkpt lat="48.64942" lon="6.08331">
        <ele>388</ele>
        <time>2014-06-05T09:08:48Z</time>
      </trkpt>
      <trkpt lat="48.64935" lon="6.08292">
        <ele>388</ele>
        <time>2014-06-05T09:08:53Z</time>
      </trkpt>
      <trkpt lat="48.64926" lon="6.08252">
        <ele>388</ele>
        <time>2014-06-05T09:08:58Z</time>
      </trkpt>
      <trkpt lat="48.64918" lon="6.08211">
        <ele>387</ele>
        <time>2014-06-05T09:09:03Z</time>
      </trkpt>
      <trkpt lat="48.64908" lon="6.08168">
        <ele>386</ele>
        <time>2014-06-05T09:09:08Z</time>
      </trkpt>
      <trkpt lat="48.64897" lon="6.08128">
        <ele>386</ele>
        <time>2014-06-05T09:09:13Z</time>
      </trkpt>
      <trkpt lat="48.64886" lon="6.08089">
        <ele>386</ele>
        <time>2014-06-05T09:09:18Z</time>
      </trkpt>
      <trkpt lat="48.64872" lon="6.08046">
        <ele>386</ele>
        <time>2014-06-05T09:09:23Z</time>
      </trkpt>
      <trkpt lat="48.64857" lon="6.08004">
        <ele>385</ele>
        <time>2014-06-05T09:09:28Z</time>
      </trkpt>
      <trkpt lat="48.64842" lon="6.07962">
        <ele>385</ele>
        <time>2014-06-05T09:09:33Z</time>
      </trkpt>
      <trkpt lat="48.64825" lon="6.07917">
        <ele>385</ele>
        <time>2014-06-05T09:09:38Z</time>
      </trkpt>
      <trkpt lat="48.64808" lon="6.0787">
        <ele>385</ele>
        <time>2014-06-05T09:09:43Z</time>
      </trkpt>
      <trkpt lat="48.6479" lon="6.07824">
        <ele>385</ele>
        <time>2014-06-05T09:09:48Z</time>
      </trkpt>
      <trkpt lat="48.64773" lon="6.07784">
        <ele>385</ele>
        <time>2014-06-05T09:09:53Z</time>
      </trkpt>
      <trkpt lat="48.64755" lon="6.07745">
        <ele>384</ele>
        <time>2014-06-05T09:09:58Z</time>
      </trkpt>
      <trkpt lat="48.64737" lon="6.07708">
        <ele>381</ele>
        <time>2014-06-05T09:10:03Z</time>
      </trkpt>
      <trkpt lat="48.64719" lon="6.0767">
        <ele>379</ele>
        <time>2014-06-05T09:10:08Z</time>
      </trkpt>
      <trkpt lat="48.647" lon="6.07631">
        <ele>379</ele>
        <time>2014-06-05T09:10:13Z</time>
      </trkpt>
      <trkpt lat="48.6468" lon="6.0759">
        <ele>376</ele>
        <time>2014-06-05T09:10:18Z</time>
      </trkpt>
      <trkpt lat="48.64661" lon="6.07548">
        <ele>374</ele>
        <time>2014-06-05T09:10:23Z</time>
      </trkpt>
      <trkpt lat="48.6464" lon="6.07512">
        <ele>373</ele>
        <time>2014-06-05T09:10:28Z</time>
      </trkpt>
      <trkpt lat="48.64611" lon="6.07494">
        <ele>373</ele>
        <time>2014-06-05T09:10:33Z</time>
      </trkpt>
      <trkpt lat="48.64576" lon="6.07492">
        <ele>371</ele>
        <time>2014-06-05T09:10:38Z</time>
      </trkpt>
      <trkpt lat="48.64539" lon="6.075">
        <ele>368</ele>
        <time>2014-06-05T09:10:43Z</time>
      </trkpt>
      <trkpt lat="48.64499" lon="6.07507">
        <ele>366</ele>
        <time>2014-06-05T09:10:48Z</time>
      </trkpt>
      <trkpt lat="48.64454" lon="6.07515">
        <ele>365</ele>
        <time>2014-06-05T09:10:53Z</time>
      </trkpt>
      <trkpt lat="48.64412" lon="6.07521">
        <ele>362</ele>
        <time>2014-06-05T09:10:58Z</time>
      </trkpt>
      <trkpt lat="48.64363" lon="6.07518">
        <ele>362</ele>
        <time>2014-06-05T09:11:03Z</time>
      </trkpt>
      <trkpt lat="48.64323" lon="6.07477">
        <ele>362</ele>
        <time>2014-06-05T09:11:08Z</time>
      </trkpt>
      <trkpt lat="48.64289" lon="6.07428">
        <ele>362</ele>
        <time>2014-06-05T09:11:13Z</time>
      </trkpt>
      <trkpt lat="48.64255" lon="6.07378">
        <ele>362</ele>
        <time>2014-06-05T09:11:18Z</time>
      </trkpt>
      <trkpt lat="48.6422" lon="6.07327">
        <ele>361</ele>
        <time>2014-06-05T09:11:23Z</time>
      </trkpt>
      <trkpt lat="48.64187" lon="6.07272">
        <ele>356</ele>
        <time>2014-06-05T09:11:28Z</time>
      </trkpt>
      <trkpt lat="48.64156" lon="6.07214">
        <ele>353</ele>
        <time>2014-06-05T09:11:33Z</time>
      </trkpt>
      <trkpt lat="48.64127" lon="6.07153">
        <ele>349</ele>
        <time>2014-06-05T09:11:38Z</time>
      </trkpt>
      <trkpt lat="48.64104" lon="6.07079">
        <ele>345</ele>
        <time>2014-06-05T09:11:43Z</time>
      </trkpt>
      <trkpt lat="48.64124" lon="6.06993">
        <ele>340</ele>
        <time>2014-06-05T09:11:48Z</time>
      </trkpt>
      <trkpt lat="48.64172" lon="6.06929">
        <ele>338</ele>
        <time>2014-06-05T09:11:53Z</time>
      </trkpt>
      <trkpt lat="48.64177" lon="6.06833">
        <ele>338</ele>
        <time>2014-06-05T09:11:58Z</time>
      </trkpt>
      <trkpt lat="48.64176" lon="6.06734">
        <ele>334</ele>
        <time>2014-06-05T09:12:03Z</time>
      </trkpt>
      <trkpt lat="48.64176" lon="6.06636">
        <ele>329</ele>
        <time>2014-06-05T09:12:08Z</time>
      </trkpt>
      <trkpt lat="48.64187" lon="6.06536">
        <ele>324</ele>
        <time>2014-06-05T09:12:13Z</time>
      </trkpt>
      <trkpt lat="48.64206" lon="6.06447">
        <ele>318</ele>
        <time>2014-06-05T09:12:18Z</time>
      </trkpt>
      <trkpt lat="48.64181" lon="6.06366">
        <ele>311</ele>
        <time>2014-06-05T09:12:23Z</time>
      </trkpt>
      <trkpt lat="48.64138" lon="6.06287">
        <ele>306</ele>
        <time>2014-06-05T09:12:28Z</time>
      </trkpt>
      <trkpt lat="48.64093" lon="6.06214">
        <ele>301</ele>
        <time>2014-06-05T09:12:33Z</time>
      </trkpt>
      <trkpt lat="48.6405" lon="6.06142">
        <ele>295</ele>
        <time>2014-06-05T09:12:38Z</time>
      </trkpt>
      <trkpt lat="48.64026" lon="6.06055">
        <ele>290</ele>
        <time>2014-06-05T09:12:43Z</time>
      </trkpt>
      <trkpt lat="48.64011" lon="6.05964">
        <ele>284</ele>
        <time>2014-06-05T09:12:48Z</time>
      </trkpt>
      <trkpt lat="48.63999" lon="6.05885">
        <ele>278</ele>
        <time>2014-06-05T09:12:53Z</time>
      </trkpt>
      <trkpt lat="48.63973" lon="6.05815">
        <ele>273</ele>
        <time>2014-06-05T09:12:58Z</time>
      </trkpt>
      <trkpt lat="48.63935" lon="6.05757">
        <ele>268</ele>
        <time>2014-06-05T09:13:03Z</time>
      </trkpt>
      <trkpt lat="48.63902" lon="6.05702">
        <ele>264</ele>
        <time>2014-06-05T09:13:08Z</time>
      </trkpt>
      <trkpt lat="48.63869" lon="6.05649">
        <ele>262</ele>
        <time>2014-06-05T09:13:13Z</time>
      </trkpt>
      <trkpt lat="48.63837" lon="6.05597">
        <ele>259</ele>
        <time>2014-06-05T09:13:18Z</time>
      </trkpt>
      <trkpt lat="48.63803" lon="6.05548">
        <ele>256</ele>
        <time>2014-06-05T09:13:23Z</time>
      </trkpt>
      <trkpt lat="48.63766" lon="6.055">
        <ele>253</ele>
        <time>2014-06-05T09:13:28Z</time>
      </trkpt>
      <trkpt lat="48.63732" lon="6.05449">
        <ele>249</ele>
        <time>2014-06-05T09:13:33Z</time>
      </trkpt>
      <trkpt lat="48.63699" lon="6.054">
        <ele>246</ele>
        <time>2014-06-05T09:13:38Z</time>
      </trkpt>
      <trkpt lat="48.6367" lon="6.05339">
        <ele>242</ele>
        <time>2014-06-05T09:13:43Z</time>
      </trkpt>
      <trkpt lat="48.63644" lon="6.05274">
        <ele>241</ele>
        <time>2014-06-05T09:13:48Z</time>
      </trkpt>
      <trkpt lat="48.63619" lon="6.05212">
        <ele>239</ele>
        <time>2014-06-05T09:13:53Z</time>
      </trkpt>
      <trkpt lat="48.63598" lon="6.05145">
        <ele>239</ele>
        <time>2014-06-05T09:13:58Z</time>
      </trkpt>
      <trkpt lat="48.63584" lon="6.0507">
        <ele>239</ele>
        <time>2014-06-05T09:14:03Z</time>
      </trkpt>
      <trkpt lat="48.63573" lon="6.04997">
        <ele>238</ele>
        <time>2014-06-05T09:14:08Z</time>
      </trkpt>
      <trkpt lat="48.63564" lon="6.04925">
        <ele>236</ele>
        <time>2014-06-05T09:14:13Z</time>
      </trkpt>
      <trkpt lat="48.63552" lon="6.04854">
        <ele>233</ele>
        <time>2014-06-05T09:14:18Z</time>
      </trkpt>
      <trkpt lat="48.63534" lon="6.0479">
        <ele>229</ele>
        <time>2014-06-05T09:14:23Z</time>
      </trkpt>
      <trkpt lat="48.63514" lon="6.04735">
        <ele>228</ele>
        <time>2014-06-05T09:14:28Z</time>
      </trkpt>
      <trkpt lat="48.63501" lon="6.04684">
        <ele>228</ele>
        <time>2014-06-05T09:14:33Z</time>
      </trkpt>
      <trkpt lat="48.63499" lon="6.04665">
        <ele>227</ele>
        <time>2014-06-05T09:14:43Z</time>
      </trkpt>
      <trkpt lat="48.63496" lon="6.04657">
        <ele>226</ele>
        <time>2014-06-05T09:14:48Z</time>
      </trkpt>
      <trkpt lat="48.63496" lon="6.04652">
        <ele>222</ele>
        <time>2014-06-05T09:14:54Z</time>
      </trkpt>
      <trkpt lat="48.63497" lon="6.04647">
        <ele>220</ele>
        <time>2014-06-05T09:14:59Z</time>
      </trkpt>
      <trkpt lat="48.63491" lon="6.04643">
        <ele>219</ele>
        <time>2014-06-05T09:15:05Z</time>
      </trkpt>
      <trkpt lat="48.63488" lon="6.04642">
        <ele>219</ele>
        <time>2014-06-05T09:15:11Z</time>
      </trkpt>
      <trkpt lat="48.63483" lon="6.04636">
        <ele>215</ele>
        <time>2014-06-05T09:15:18Z</time>
      </trkpt>
      <trkpt lat="48.6348" lon="6.04639">
        <ele>210</ele>
        <time>2014-06-05T09:15:25Z</time>
      </trkpt>
      <trkpt lat="48.63484" lon="6.04646">
        <ele>202</ele>
        <time>2014-06-05T09:15:32Z</time>
      </trkpt>
      <trkpt lat="48.63484" lon="6.04646">
        <ele>197</ele>
        <time>2014-06-05T09:15:39Z</time>
      </trkpt>
      <trkpt lat="48.6349" lon="6.04649">
        <ele>199</ele>
        <time>2014-06-05T09:15:45Z</time>
      </trkpt>
      <trkpt lat="48.63484" lon="6.04645">
        <ele>193</ele>
        <time>2014-06-05T09:15:54Z</time>
      </trkpt>
      <trkpt lat="48.63484" lon="6.04645">
        <ele>188</ele>
        <time>2014-06-05T09:15:59Z</time>
      </trkpt>
      <trkpt lat="48.63489" lon="6.04641">
        <ele>188</ele>
        <time>2014-06-05T09:16:05Z</time>
      </trkpt>
      <trkpt lat="48.63487" lon="6.0464">
        <ele>195</ele>
        <time>2014-06-05T09:16:10Z</time>
      </trkpt>
      <trkpt lat="48.63488" lon="6.04606">
        <ele>201</ele>
        <time>2014-06-05T09:16:15Z</time>
      </trkpt>
      <trkpt lat="48.63484" lon="6.04562">
        <ele>206</ele>
        <time>2014-06-05T09:16:20Z</time>
      </trkpt>
      <trkpt lat="48.63487" lon="6.04519">
        <ele>211</ele>
        <time>2014-06-05T09:16:25Z</time>
      </trkpt>
      <trkpt lat="48.6349" lon="6.04477">
        <ele>211</ele>
        <time>2014-06-05T09:16:30Z</time>
      </trkpt>
      <trkpt lat="48.63494" lon="6.04433">
        <ele>211</ele>
        <time>2014-06-05T09:16:35Z</time>
      </trkpt>
      <trkpt lat="48.63489" lon="6.04399">
        <ele>211</ele>
        <time>2014-06-05T09:16:40Z</time>
      </trkpt>
      <trkpt lat="48.63477" lon="6.04363">
        <ele>213</ele>
        <time>2014-06-05T09:16:46Z</time>
      </trkpt>
      <trkpt lat="48.63466" lon="6.04331">
        <ele>213</ele>
        <time>2014-06-05T09:16:51Z</time>
      </trkpt>
      <trkpt lat="48.63454" lon="6.04297">
        <ele>213</ele>
        <time>2014-06-05T09:16:56Z</time>
      </trkpt>
      <trkpt lat="48.63441" lon="6.04258">
        <ele>213</ele>
        <time>2014-06-05T09:17:01Z</time>
      </trkpt>
      <trkpt lat="48.63425" lon="6.04216">
        <ele>213</ele>
        <time>2014-06-05T09:17:06Z</time>
      </trkpt>
      <trkpt lat="48.63403" lon="6.04175">
        <ele>213</ele>
        <time>2014-06-05T09:17:11Z</time>
      </trkpt>
      <trkpt lat="48.63386" lon="6.04149">
        <ele>213</ele>
        <time>2014-06-05T09:17:16Z</time>
      </trkpt>
      <trkpt lat="48.63373" lon="6.0415">
        <ele>213</ele>
        <time>2014-06-05T09:17:21Z</time>
      </trkpt>
      <trkpt lat="48.6337" lon="6.04167">
        <ele>213</ele>
        <time>2014-06-05T09:17:26Z</time>
      </trkpt>
      <trkpt lat="48.63382" lon="6.04189">
        <ele>213</ele>
        <time>2014-06-05T09:17:31Z</time>
      </trkpt>
      <trkpt lat="48.63388" lon="6.0421">
        <ele>213</ele>
        <time>2014-06-05T09:17:36Z</time>
      </trkpt>
      <trkpt lat="48.63391" lon="6.04217">
        <ele>213</ele>
        <time>2014-06-05T09:17:43Z</time>
      </trkpt>
      <trkpt lat="48.63396" lon="6.04219">
        <ele>213</ele>
        <time>2014-06-05T09:17:49Z</time>
      </trkpt>
      <trkpt lat="48.634" lon="6.0422">
        <ele>215</ele>
        <time>2014-06-05T09:17:55Z</time>
      </trkpt>
      <trkpt lat="48.63403" lon="6.04222">
        <ele>218</ele>
        <time>2014-06-05T09:18:01Z</time>
      </trkpt>
      <trkpt lat="48.63406" lon="6.04223">
        <ele>220</ele>
        <time>2014-06-05T09:18:07Z</time>
      </trkpt>
      <trkpt lat="48.63406" lon="6.04221">
        <ele>220</ele>
        <time>2014-06-05T09:18:12Z</time>
      </trkpt>
      <trkpt lat="48.63404" lon="6.04224">
        <ele>220</ele>
        <time>2014-06-05T09:18:20Z</time>
      </trkpt>
      <trkpt lat="48.63406" lon="6.0424">
        <ele>220</ele>
        <time>2014-06-05T09:18:25Z</time>
      </trkpt>
      <trkpt lat="48.63411" lon="6.0426">
        <ele>220</ele>
        <time>2014-06-05T09:18:30Z</time>
      </trkpt>
      <trkpt lat="48.63412" lon="6.04278">
        <ele>219</ele>
        <time>2014-06-05T09:18:35Z</time>
      </trkpt>
      <trkpt lat="48.63413" lon="6.043">
        <ele>217</ele>
        <time>2014-06-05T09:18:41Z</time>
      </trkpt>
      <trkpt lat="48.6342" lon="6.04302">
        <ele>216</ele>
        <time>2014-06-05T09:18:46Z</time>
      </trkpt>
      <trkpt lat="48.63432" lon="6.04293">
        <ele>215</ele>
        <time>2014-06-05T09:18:51Z</time>
      </trkpt>
      <trkpt lat="48.63444" lon="6.04286">
        <ele>214</ele>
        <time>2014-06-05T09:18:56Z</time>
      </trkpt>
      <trkpt lat="48.63459" lon="6.04271">
        <ele>214</ele>
        <time>2014-06-05T09:19:01Z</time>
      </trkpt>
      <trkpt lat="48.63473" lon="6.04259">
        <ele>213</ele>
        <time>2014-06-05T09:19:06Z</time>
      </trkpt>
      <trkpt lat="48.63489" lon="6.04245">
        <ele>213</ele>
        <time>2014-06-05T09:19:11Z</time>
      </trkpt>
      <trkpt lat="48.63505" lon="6.04229">
        <ele>213</ele>
        <time>2014-06-05T09:19:16Z</time>
      </trkpt>
      <trkpt lat="48.63515" lon="6.04213">
        <ele>213</ele>
        <time>2014-06-05T09:19:21Z</time>
      </trkpt>
      <trkpt lat="48.63527" lon="6.042">
        <ele>213</ele>
        <time>2014-06-05T09:19:26Z</time>
      </trkpt>
      <trkpt lat="48.63541" lon="6.04182">
        <ele>213</ele>
        <time>2014-06-05T09:19:31Z</time>
      </trkpt>
      <trkpt lat="48.63549" lon="6.04177">
        <ele>216</ele>
        <time>2014-06-05T09:19:38Z</time>
      </trkpt>
      <trkpt lat="48.63556" lon="6.04165">
        <ele>216</ele>
        <time>2014-06-05T09:19:43Z</time>
      </trkpt>
      <trkpt lat="48.63572" lon="6.04147">
        <ele>216</ele>
        <time>2014-06-05T09:19:48Z</time>
      </trkpt>
      <trkpt lat="48.63597" lon="6.04119">
        <ele>216</ele>
        <time>2014-06-05T09:19:54Z</time>
      </trkpt>
      <trkpt lat="48.63618" lon="6.04093">
        <ele>216</ele>
        <time>2014-06-05T09:19:59Z</time>
      </trkpt>
      <trkpt lat="48.63642" lon="6.04065">
        <ele>216</ele>
        <time>2014-06-05T09:20:04Z</time>
      </trkpt>
      <trkpt lat="48.63667" lon="6.04042">
        <ele>215</ele>
        <time>2014-06-05T09:20:09Z</time>
      </trkpt>
      <trkpt lat="48.63691" lon="6.04024">
        <ele>214</ele>
        <time>2014-06-05T09:20:14Z</time>
      </trkpt>
      <trkpt lat="48.63716" lon="6.04011">
        <ele>214</ele>
        <time>2014-06-05T09:20:19Z</time>
      </trkpt>
      <trkpt lat="48.63745" lon="6.04">
        <ele>212</ele>
        <time>2014-06-05T09:20:24Z</time>
      </trkpt>
      <trkpt lat="48.63771" lon="6.03995">
        <ele>211</ele>
        <time>2014-06-05T09:20:29Z</time>
      </trkpt>
      <trkpt lat="48.63804" lon="6.03989">
        <ele>211</ele>
        <time>2014-06-05T09:20:35Z</time>
      </trkpt>
      <trkpt lat="48.63834" lon="6.03985">
        <ele>212</ele>
        <time>2014-06-05T09:20:40Z</time>
      </trkpt>
      <trkpt lat="48.63863" lon="6.03978">
        <ele>213</ele>
        <time>2014-06-05T09:20:45Z</time>
      </trkpt>
      <trkpt lat="48.6389" lon="6.03974">
        <ele>213</ele>
        <time>2014-06-05T09:20:50Z</time>
      </trkpt>
      <trkpt lat="48.63913" lon="6.03969">
        <ele>213</ele>
        <time>2014-06-05T09:20:55Z</time>
      </trkpt>
      <trkpt lat="48.63941" lon="6.03969">
        <ele>213</ele>
        <time>2014-06-05T09:21:00Z</time>
      </trkpt>
      <trkpt lat="48.63977" lon="6.03967">
        <ele>215</ele>
        <time>2014-06-05T09:21:06Z</time>
      </trkpt>
      <trkpt lat="48.64008" lon="6.03965">
        <ele>215</ele>
        <time>2014-06-05T09:21:11Z</time>
      </trkpt>
      <trkpt lat="48.64046" lon="6.03966">
        <ele>215</ele>
        <time>2014-06-05T09:21:17Z</time>
      </trkpt>
      <trkpt lat="48.64074" lon="6.0397">
        <ele>215</ele>
        <time>2014-06-05T09:21:22Z</time>
      </trkpt>
      <trkpt lat="48.64104" lon="6.03974">
        <ele>215</ele>
        <time>2014-06-05T09:21:27Z</time>
      </trkpt>
      <trkpt lat="48.64132" lon="6.03981">
        <ele>215</ele>
        <time>2014-06-05T09:21:32Z</time>
      </trkpt>
      <trkpt lat="48.6416" lon="6.0399">
        <ele>215</ele>
        <time>2014-06-05T09:21:37Z</time>
      </trkpt>
      <trkpt lat="48.64188" lon="6.03998">
        <ele>212</ele>
        <time>2014-06-05T09:21:42Z</time>
      </trkpt>
      <trkpt lat="48.64225" lon="6.04007">
        <ele>208</ele>
        <time>2014-06-05T09:21:48Z</time>
      </trkpt>
      <trkpt lat="48.64255" lon="6.04011">
        <ele>206</ele>
        <time>2014-06-05T09:21:53Z</time>
      </trkpt>
      <trkpt lat="48.6429" lon="6.04017">
        <ele>205</ele>
        <time>2014-06-05T09:21:59Z</time>
      </trkpt>
      <trkpt lat="48.64318" lon="6.04018">
        <ele>204</ele>
        <time>2014-06-05T09:22:04Z</time>
      </trkpt>
      <trkpt lat="48.64352" lon="6.04023">
        <ele>204</ele>
        <time>2014-06-05T09:22:10Z</time>
      </trkpt>
      <trkpt lat="48.6438" lon="6.04027">
        <ele>204</ele>
        <time>2014-06-05T09:22:15Z</time>
      </trkpt>
      <trkpt lat="48.6441" lon="6.04034">
        <ele>204</ele>
        <time>2014-06-05T09:22:20Z</time>
      </trkpt>
      <trkpt lat="48.64443" lon="6.04042">
        <ele>203</ele>
        <time>2014-06-05T09:22:26Z</time>
      </trkpt>
      <trkpt lat="48.64471" lon="6.04048">
        <ele>202</ele>
        <time>2014-06-05T09:22:31Z</time>
      </trkpt>
      <trkpt lat="48.64499" lon="6.04055">
        <ele>202</ele>
        <time>2014-06-05T09:22:36Z</time>
      </trkpt>
      <trkpt lat="48.64528" lon="6.0406">
        <ele>202</ele>
        <time>2014-06-05T09:22:41Z</time>
      </trkpt>
      <trkpt lat="48.64564" lon="6.0406">
        <ele>202</ele>
        <time>2014-06-05T09:22:47Z</time>
      </trkpt>
      <trkpt lat="48.64594" lon="6.04057">
        <ele>202</ele>
        <time>2014-06-05T09:22:52Z</time>
      </trkpt>
      <trkpt lat="48.64629" lon="6.04048">
        <ele>202</ele>
        <time>2014-06-05T09:22:58Z</time>
      </trkpt>
      <trkpt lat="48.64658" lon="6.04039">
        <ele>202</ele>
        <time>2014-06-05T09:23:03Z</time>
      </trkpt>
      <trkpt lat="48.64688" lon="6.04029">
        <ele>202</ele>
        <time>2014-06-05T09:23:08Z</time>
      </trkpt>
      <trkpt lat="48.64717" lon="6.04018">
        <ele>202</ele>
        <time>2014-06-05T09:23:13Z</time>
      </trkpt>
      <trkpt lat="48.64746" lon="6.04006">
        <ele>202</ele>
        <time>2014-06-05T09:23:18Z</time>
      </trkpt>
      <trkpt lat="48.64773" lon="6.03994">
        <ele>202</ele>
        <time>2014-06-05T09:23:23Z</time>
      </trkpt>
      <trkpt lat="48.64801" lon="6.0398">
        <ele>202</ele>
        <time>2014-06-05T09:23:28Z</time>
      </trkpt>
      <trkpt lat="48.64829" lon="6.03963">
        <ele>203</ele>
        <time>2014-06-05T09:23:33Z</time>
      </trkpt>
      <trkpt lat="48.64858" lon="6.03942">
        <ele>204</ele>
        <time>2014-06-05T09:23:38Z</time>
      </trkpt>
      <trkpt lat="48.64886" lon="6.0392">
        <ele>204</ele>
        <time>2014-06-05T09:23:43Z</time>
      </trkpt>
      <trkpt lat="48.64914" lon="6.03899">
        <ele>207</ele>
        <time>2014-06-05T09:23:48Z</time>
      </trkpt>
      <trkpt lat="48.64941" lon="6.03876">
        <ele>207</ele>
        <time>2014-06-05T09:23:53Z</time>
      </trkpt>
      <trkpt lat="48.64969" lon="6.03857">
        <ele>209</ele>
        <time>2014-06-05T09:23:58Z</time>
      </trkpt>
      <trkpt lat="48.65002" lon="6.03833">
        <ele>215</ele>
        <time>2014-06-05T09:24:04Z</time>
      </trkpt>
      <trkpt lat="48.65028" lon="6.03813">
        <ele>219</ele>
        <time>2014-06-05T09:24:09Z</time>
      </trkpt>
      <trkpt lat="48.65053" lon="6.03792">
        <ele>222</ele>
        <time>2014-06-05T09:24:14Z</time>
      </trkpt>
      <trkpt lat="48.65077" lon="6.03767">
        <ele>224</ele>
        <time>2014-06-05T09:24:19Z</time>
      </trkpt>
      <trkpt lat="48.65102" lon="6.0374">
        <ele>224</ele>
        <time>2014-06-05T09:24:24Z</time>
      </trkpt>
      <trkpt lat="48.65126" lon="6.03714">
        <ele>224</ele>
        <time>2014-06-05T09:24:29Z</time>
      </trkpt>
      <trkpt lat="48.6515" lon="6.03686">
        <ele>224</ele>
        <time>2014-06-05T09:24:34Z</time>
      </trkpt>
      <trkpt lat="48.65171" lon="6.03655">
        <ele>224</ele>
        <time>2014-06-05T09:24:39Z</time>
      </trkpt>
      <trkpt lat="48.65192" lon="6.03624">
        <ele>224</ele>
        <time>2014-06-05T09:24:44Z</time>
      </trkpt>
      <trkpt lat="48.6521" lon="6.0359">
        <ele>224</ele>
        <time>2014-06-05T09:24:49Z</time>
      </trkpt>
      <trkpt lat="48.65226" lon="6.03552">
        <ele>222</ele>
        <time>2014-06-05T09:24:54Z</time>
      </trkpt>
      <trkpt lat="48.65239" lon="6.03505">
        <ele>217</ele>
        <time>2014-06-05T09:24:59Z</time>
      </trkpt>
      <trkpt lat="48.65255" lon="6.03467">
        <ele>212</ele>
        <time>2014-06-05T09:25:04Z</time>
      </trkpt>
      <trkpt lat="48.65272" lon="6.03428">
        <ele>207</ele>
        <time>2014-06-05T09:25:09Z</time>
      </trkpt>
      <trkpt lat="48.65287" lon="6.03384">
        <ele>201</ele>
        <time>2014-06-05T09:25:14Z</time>
      </trkpt>
      <trkpt lat="48.65303" lon="6.03345">
        <ele>195</ele>
        <time>2014-06-05T09:25:19Z</time>
      </trkpt>
      <trkpt lat="48.65319" lon="6.03309">
        <ele>191</ele>
        <time>2014-06-05T09:25:24Z</time>
      </trkpt>
      <trkpt lat="48.65345" lon="6.03273">
        <ele>193</ele>
        <time>2014-06-05T09:25:30Z</time>
      </trkpt>
      <trkpt lat="48.65365" lon="6.03238">
        <ele>198</ele>
        <time>2014-06-05T09:25:35Z</time>
      </trkpt>
      <trkpt lat="48.65389" lon="6.0321">
        <ele>205</ele>
        <time>2014-06-05T09:25:40Z</time>
      </trkpt>
      <trkpt lat="48.6541" lon="6.03176">
        <ele>210</ele>
        <time>2014-06-05T09:25:45Z</time>
      </trkpt>
      <trkpt lat="48.65426" lon="6.03137">
        <ele>212</ele>
        <time>2014-06-05T09:25:50Z</time>
      </trkpt>
      <trkpt lat="48.65448" lon="6.03097">
        <ele>215</ele>
        <time>2014-06-05T09:25:55Z</time>
      </trkpt>
      <trkpt lat="48.65468" lon="6.03063">
        <ele>216</ele>
        <time>2014-06-05T09:26:00Z</time>
      </trkpt>
      <trkpt lat="48.65487" lon="6.03031">
        <ele>218</ele>
        <time>2014-06-05T09:26:05Z</time>
      </trkpt>
      <trkpt lat="48.65507" lon="6.02996">
        <ele>221</ele>
        <time>2014-06-05T09:26:10Z</time>
      </trkpt>
      <trkpt lat="48.65527" lon="6.02958">
        <ele>221</ele>
        <time>2014-06-05T09:26:15Z</time>
      </trkpt>
      <trkpt lat="48.65544" lon="6.02919">
        <ele>221</ele>
        <time>2014-06-05T09:26:20Z</time>
      </trkpt>
      <trkpt lat="48.65562" lon="6.02878">
        <ele>221</ele>
        <time>2014-06-05T09:26:25Z</time>
      </trkpt>
      <trkpt lat="48.65578" lon="6.02841">
        <ele>218</ele>
        <time>2014-06-05T09:26:30Z</time>
      </trkpt>
      <trkpt lat="48.65595" lon="6.02803">
        <ele>214</ele>
        <time>2014-06-05T09:26:35Z</time>
      </trkpt>
      <trkpt lat="48.6561" lon="6.0277">
        <ele>214</ele>
        <time>2014-06-05T09:26:40Z</time>
      </trkpt>
      <trkpt lat="48.65627" lon="6.02737">
        <ele>214</ele>
        <time>2014-06-05T09:26:45Z</time>
      </trkpt>
      <trkpt lat="48.65646" lon="6.02706">
        <ele>216</ele>
        <time>2014-06-05T09:26:50Z</time>
      </trkpt>
      <trkpt lat="48.65666" lon="6.02665">
        <ele>221</ele>
        <time>2014-06-05T09:26:55Z</time>
      </trkpt>
      <trkpt lat="48.65686" lon="6.02621">
        <ele>226</ele>
        <time>2014-06-05T09:27:00Z</time>
      </trkpt>
      <trkpt lat="48.65701" lon="6.02582">
        <ele>229</ele>
        <time>2014-06-05T09:27:05Z</time>
      </trkpt>
      <trkpt lat="48.65718" lon="6.02539">
        <ele>230</ele>
        <time>2014-06-05T09:27:10Z</time>
      </trkpt>
      <trkpt lat="48.65732" lon="6.02499">
        <ele>230</ele>
        <time>2014-06-05T09:27:15Z</time>
      </trkpt>
      <trkpt lat="48.65747" lon="6.0246">
        <ele>230</ele>
        <time>2014-06-05T09:27:20Z</time>
      </trkpt>
      <trkpt lat="48.65766" lon="6.02425">
        <ele>229</ele>
        <time>2014-06-05T09:27:25Z</time>
      </trkpt>
      <trkpt lat="48.65777" lon="6.02388">
        <ele>226</ele>
        <time>2014-06-05T09:27:30Z</time>
      </trkpt>
      <trkpt lat="48.65795" lon="6.02352">
        <ele>224</ele>
        <time>2014-06-05T09:27:35Z</time>
      </trkpt>
      <trkpt lat="48.65818" lon="6.02311">
        <ele>219</ele>
        <time>2014-06-05T09:27:40Z</time>
      </trkpt>
      <trkpt lat="48.65841" lon="6.02274">
        <ele>218</ele>
        <time>2014-06-05T09:27:45Z</time>
      </trkpt>
      <trkpt lat="48.65863" lon="6.02243">
        <ele>218</ele>
        <time>2014-06-05T09:27:50Z</time>
      </trkpt>
      <trkpt lat="48.65885" lon="6.02216">
        <ele>217</ele>
        <time>2014-06-05T09:27:55Z</time>
      </trkpt>
      <trkpt lat="48.65908" lon="6.02189">
        <ele>217</ele>
        <time>2014-06-05T09:28:00Z</time>
      </trkpt>
      <trkpt lat="48.65933" lon="6.02167">
        <ele>217</ele>
        <time>2014-06-05T09:28:05Z</time>
      </trkpt>
      <trkpt lat="48.65959" lon="6.0214">
        <ele>217</ele>
        <time>2014-06-05T09:28:10Z</time>
      </trkpt>
      <trkpt lat="48.65981" lon="6.02112">
        <ele>217</ele>
        <time>2014-06-05T09:28:15Z</time>
      </trkpt>
      <trkpt lat="48.66002" lon="6.02077">
        <ele>217</ele>
        <time>2014-06-05T09:28:20Z</time>
      </trkpt>
      <trkpt lat="48.6602" lon="6.02042">
        <ele>217</ele>
        <time>2014-06-05T09:28:25Z</time>
      </trkpt>
      <trkpt lat="48.66038" lon="6.02003">
        <ele>216</ele>
        <time>2014-06-05T09:28:30Z</time>
      </trkpt>
      <trkpt lat="48.66055" lon="6.01965">
        <ele>214</ele>
        <time>2014-06-05T09:28:35Z</time>
      </trkpt>
      <trkpt lat="48.66072" lon="6.01924">
        <ele>214</ele>
        <time>2014-06-05T09:28:40Z</time>
      </trkpt>
      <trkpt lat="48.66092" lon="6.01888">
        <ele>214</ele>
        <time>2014-06-05T09:28:45Z</time>
      </trkpt>
      <trkpt lat="48.66107" lon="6.01849">
        <ele>212</ele>
        <time>2014-06-05T09:28:50Z</time>
      </trkpt>
      <trkpt lat="48.66119" lon="6.01805">
        <ele>207</ele>
        <time>2014-06-05T09:28:55Z</time>
      </trkpt>
      <trkpt lat="48.66132" lon="6.01763">
        <ele>205</ele>
        <time>2014-06-05T09:29:00Z</time>
      </trkpt>
      <trkpt lat="48.66144" lon="6.01719">
        <ele>204</ele>
        <time>2014-06-05T09:29:05Z</time>
      </trkpt>
      <trkpt lat="48.66152" lon="6.01678">
        <ele>204</ele>
        <time>2014-06-05T09:29:10Z</time>
      </trkpt>
      <trkpt lat="48.6616" lon="6.01632">
        <ele>204</ele>
        <time>2014-06-05T09:29:15Z</time>
      </trkpt>
      <trkpt lat="48.66165" lon="6.01587">
        <ele>204</ele>
        <time>2014-06-05T09:29:20Z</time>
      </trkpt>
      <trkpt lat="48.66166" lon="6.01541">
        <ele>203</ele>
        <time>2014-06-05T09:29:25Z</time>
      </trkpt>
      <trkpt lat="48.6617" lon="6.01496">
        <ele>202</ele>
        <time>2014-06-05T09:29:30Z</time>
      </trkpt>
      <trkpt lat="48.66173" lon="6.01455">
        <ele>202</ele>
        <time>2014-06-05T09:29:35Z</time>
      </trkpt>
      <trkpt lat="48.66175" lon="6.01412">
        <ele>202</ele>
        <time>2014-06-05T09:29:40Z</time>
      </trkpt>
      <trkpt lat="48.66175" lon="6.01368">
        <ele>204</ele>
        <time>2014-06-05T09:29:45Z</time>
      </trkpt>
      <trkpt lat="48.66172" lon="6.01324">
        <ele>209</ele>
        <time>2014-06-05T09:29:50Z</time>
      </trkpt>
      <trkpt lat="48.66168" lon="6.01275">
        <ele>213</ele>
        <time>2014-06-05T09:29:55Z</time>
      </trkpt>
      <trkpt lat="48.66163" lon="6.01231">
        <ele>211</ele>
        <time>2014-06-05T09:30:00Z</time>
      </trkpt>
      <trkpt lat="48.66154" lon="6.01187">
        <ele>207</ele>
        <time>2014-06-05T09:30:05Z</time>
      </trkpt>
      <trkpt lat="48.66146" lon="6.01148">
        <ele>207</ele>
        <time>2014-06-05T09:30:10Z</time>
      </trkpt>
      <trkpt lat="48.66135" lon="6.01105">
        <ele>204</ele>
        <time>2014-06-05T09:30:15Z</time>
      </trkpt>
      <trkpt lat="48.66127" lon="6.01063">
        <ele>201</ele>
        <time>2014-06-05T09:30:20Z</time>
      </trkpt>
      <trkpt lat="48.66117" lon="6.01024">
        <ele>201</ele>
        <time>2014-06-05T09:30:25Z</time>
      </trkpt>
      <trkpt lat="48.66105" lon="6.00984">
        <ele>201</ele>
        <time>2014-06-05T09:30:30Z</time>
      </trkpt>
      <trkpt lat="48.66097" lon="6.00947">
        <ele>200</ele>
        <time>2014-06-05T09:30:35Z</time>
      </trkpt>
      <trkpt lat="48.66092" lon="6.00909">
        <ele>200</ele>
        <time>2014-06-05T09:30:40Z</time>
      </trkpt>
      <trkpt lat="48.66079" lon="6.00869">
        <ele>200</ele>
        <time>2014-06-05T09:30:45Z</time>
      </trkpt>
      <trkpt lat="48.66065" lon="6.0083">
        <ele>200</ele>
        <time>2014-06-05T09:30:50Z</time>
      </trkpt>
      <trkpt lat="48.66051" lon="6.00791">
        <ele>199</ele>
        <time>2014-06-05T09:30:55Z</time>
      </trkpt>
      <trkpt lat="48.66036" lon="6.00755">
        <ele>198</ele>
        <time>2014-06-05T09:31:00Z</time>
      </trkpt>
      <trkpt lat="48.66021" lon="6.00719">
        <ele>197</ele>
        <time>2014-06-05T09:31:05Z</time>
      </trkpt>
      <trkpt lat="48.66005" lon="6.00684">
        <ele>197</ele>
        <time>2014-06-05T09:31:10Z</time>
      </trkpt>
      <trkpt lat="48.65986" lon="6.00648">
        <ele>197</ele>
        <time>2014-06-05T09:31:15Z</time>
      </trkpt>
      <trkpt lat="48.65968" lon="6.00617">
        <ele>197</ele>
        <time>2014-06-05T09:31:20Z</time>
      </trkpt>
      <trkpt lat="48.65952" lon="6.00585">
        <ele>199</ele>
        <time>2014-06-05T09:31:25Z</time>
      </trkpt>
      <trkpt lat="48.65933" lon="6.00553">
        <ele>200</ele>
        <time>2014-06-05T09:31:30Z</time>
      </trkpt>
      <trkpt lat="48.65915" lon="6.00523">
        <ele>200</ele>
        <time>2014-06-05T09:31:35Z</time>
      </trkpt>
      <trkpt lat="48.65894" lon="6.00494">
        <ele>201</ele>
        <time>2014-06-05T09:31:40Z</time>
      </trkpt>
      <trkpt lat="48.65874" lon="6.00466">
        <ele>201</ele>
        <time>2014-06-05T09:31:45Z</time>
      </trkpt>
      <trkpt lat="48.65851" lon="6.00436">
        <ele>201</ele>
        <time>2014-06-05T09:31:50Z</time>
      </trkpt>
      <trkpt lat="48.65827" lon="6.00407">
        <ele>201</ele>
        <time>2014-06-05T09:31:55Z</time>
      </trkpt>
      <trkpt lat="48.65805" lon="6.00378">
        <ele>201</ele>
        <time>2014-06-05T09:32:00Z</time>
      </trkpt>
      <trkpt lat="48.65783" lon="6.0035">
        <ele>202</ele>
        <time>2014-06-05T09:32:05Z</time>
      </trkpt>
      <trkpt lat="48.65761" lon="6.00324">
        <ele>202</ele>
        <time>2014-06-05T09:32:10Z</time>
      </trkpt>
      <trkpt lat="48.65738" lon="6.00299">
        <ele>202</ele>
        <time>2014-06-05T09:32:15Z</time>
      </trkpt>
      <trkpt lat="48.65713" lon="6.00274">
        <ele>202</ele>
        <time>2014-06-05T09:32:20Z</time>
      </trkpt>
      <trkpt lat="48.65689" lon="6.00254">
        <ele>204</ele>
        <time>2014-06-05T09:32:25Z</time>
      </trkpt>
      <trkpt lat="48.65666" lon="6.00234">
        <ele>206</ele>
        <time>2014-06-05T09:32:30Z</time>
      </trkpt>
      <trkpt lat="48.65639" lon="6.00218">
        <ele>207</ele>
        <time>2014-06-05T09:32:35Z</time>
      </trkpt>
      <trkpt lat="48.65611" lon="6.00204">
        <ele>207</ele>
        <time>2014-06-05T09:32:40Z</time>
      </trkpt>
      <trkpt lat="48.65582" lon="6.00185">
        <ele>206</ele>
        <time>2014-06-05T09:32:45Z</time>
      </trkpt>
      <trkpt lat="48.65554" lon="6.00171">
        <ele>203</ele>
        <time>2014-06-05T09:32:50Z</time>
      </trkpt>
      <trkpt lat="48.65528" lon="6.00157">
        <ele>203</ele>
        <time>2014-06-05T09:32:55Z</time>
      </trkpt>
      <trkpt lat="48.65499" lon="6.00144">
        <ele>203</ele>
        <time>2014-06-05T09:33:00Z</time>
      </trkpt>
      <trkpt lat="48.65472" lon="6.00132">
        <ele>203</ele>
        <time>2014-06-05T09:33:05Z</time>
      </trkpt>
      <trkpt lat="48.65444" lon="6.00118">
        <ele>204</ele>
        <time>2014-06-05T09:33:10Z</time>
      </trkpt>
      <trkpt lat="48.65413" lon="6.00104">
        <ele>204</ele>
        <time>2014-06-05T09:33:15Z</time>
      </trkpt>
      <trkpt lat="48.65382" lon="6.00086">
        <ele>203</ele>
        <time>2014-06-05T09:33:20Z</time>
      </trkpt>
      <trkpt lat="48.65355" lon="6.00061">
        <ele>200</ele>
        <time>2014-06-05T09:33:25Z</time>
      </trkpt>
      <trkpt lat="48.65331" lon="6.00033">
        <ele>197</ele>
        <time>2014-06-05T09:33:30Z</time>
      </trkpt>
      <trkpt lat="48.65307" lon="6.00005">
        <ele>195</ele>
        <time>2014-06-05T09:33:35Z</time>
      </trkpt>
      <trkpt lat="48.65283" lon="5.99978">
        <ele>195</ele>
        <time>2014-06-05T09:33:40Z</time>
      </trkpt>
      <trkpt lat="48.65262" lon="5.99953">
        <ele>195</ele>
        <time>2014-06-05T09:33:45Z</time>
      </trkpt>
      <trkpt lat="48.6524" lon="5.99925">
        <ele>195</ele>
        <time>2014-06-05T09:33:50Z</time>
      </trkpt>
      <trkpt lat="48.65218" lon="5.99897">
        <ele>195</ele>
        <time>2014-06-05T09:33:55Z</time>
      </trkpt>
      <trkpt lat="48.652" lon="5.99867">
        <ele>196</ele>
        <time>2014-06-05T09:34:00Z</time>
      </trkpt>
      <trkpt lat="48.6519" lon="5.99826">
        <ele>198</ele>
        <time>2014-06-05T09:34:05Z</time>
      </trkpt>
      <trkpt lat="48.65186" lon="5.99784">
        <ele>200</ele>
        <time>2014-06-05T09:34:10Z</time>
      </trkpt>
      <trkpt lat="48.65185" lon="5.99743">
        <ele>205</ele>
        <time>2014-06-05T09:34:15Z</time>
      </trkpt>
      <trkpt lat="48.65181" lon="5.99706">
        <ele>210</ele>
        <time>2014-06-05T09:34:20Z</time>
      </trkpt>
      <trkpt lat="48.65178" lon="5.99665">
        <ele>213</ele>
        <time>2014-06-05T09:34:25Z</time>
      </trkpt>
      <trkpt lat="48.65169" lon="5.9962">
        <ele>213</ele>
        <time>2014-06-05T09:34:30Z</time>
      </trkpt>
      <trkpt lat="48.65155" lon="5.99567">
        <ele>210</ele>
        <time>2014-06-05T09:34:35Z</time>
      </trkpt>
      <trkpt lat="48.65146" lon="5.99514">
        <ele>209</ele>
        <time>2014-06-05T09:34:40Z</time>
      </trkpt>
      <trkpt lat="48.6513" lon="5.99468">
        <ele>207</ele>
        <time>2014-06-05T09:34:45Z</time>
      </trkpt>
      <trkpt lat="48.6512" lon="5.99423">
        <ele>202</ele>
        <time>2014-06-05T09:34:50Z</time>
      </trkpt>
      <trkpt lat="48.65117" lon="5.99382">
        <ele>202</ele>
        <time>2014-06-05T09:34:55Z</time>
      </trkpt>
      <trkpt lat="48.6511" lon="5.99339">
        <ele>202</ele>
        <time>2014-06-05T09:35:00Z</time>
      </trkpt>
      <trkpt lat="48.65107" lon="5.99295">
        <ele>203</ele>
        <time>2014-06-05T09:35:05Z</time>
      </trkpt>
      <trkpt lat="48.65107" lon="5.9925">
        <ele>206</ele>
        <time>2014-06-05T09:35:10Z</time>
      </trkpt>
      <trkpt lat="48.65104" lon="5.99206">
        <ele>206</ele>
        <time>2014-06-05T09:35:15Z</time>
      </trkpt>
      <trkpt lat="48.65099" lon="5.99162">
        <ele>206</ele>
        <time>2014-06-05T09:35:20Z</time>
      </trkpt>
      <trkpt lat="48.65095" lon="5.99117">
        <ele>206</ele>
        <time>2014-06-05T09:35:25Z</time>
      </trkpt>
      <trkpt lat="48.65091" lon="5.99072">
        <ele>206</ele>
        <time>2014-06-05T09:35:30Z</time>
      </trkpt>
      <trkpt lat="48.65089" lon="5.99032">
        <ele>206</ele>
        <time>2014-06-05T09:35:35Z</time>
      </trkpt>
      <trkpt lat="48.65086" lon="5.9899">
        <ele>206</ele>
        <time>2014-06-05T09:35:40Z</time>
      </trkpt>
      <trkpt lat="48.65084" lon="5.98948">
        <ele>206</ele>
        <time>2014-06-05T09:35:45Z</time>
      </trkpt>
      <trkpt lat="48.65078" lon="5.98904">
        <ele>206</ele>
        <time>2014-06-05T09:35:50Z</time>
      </trkpt>
      <trkpt lat="48.65072" lon="5.98859">
        <ele>206</ele>
        <time>2014-06-05T09:35:55Z</time>
      </trkpt>
      <trkpt lat="48.65066" lon="5.98817">
        <ele>204</ele>
        <time>2014-06-05T09:36:00Z</time>
      </trkpt>
      <trkpt lat="48.65066" lon="5.9878">
        <ele>204</ele>
        <time>2014-06-05T09:36:05Z</time>
      </trkpt>
      <trkpt lat="48.65065" lon="5.98735">
        <ele>205</ele>
        <time>2014-06-05T09:36:10Z</time>
      </trkpt>
      <trkpt lat="48.65065" lon="5.98689">
        <ele>207</ele>
        <time>2014-06-05T09:36:15Z</time>
      </trkpt>
      <trkpt lat="48.65064" lon="5.98639">
        <ele>207</ele>
        <time>2014-06-05T09:36:20Z</time>
      </trkpt>
      <trkpt lat="48.65064" lon="5.98592">
        <ele>207</ele>
        <time>2014-06-05T09:36:25Z</time>
      </trkpt>
      <trkpt lat="48.65063" lon="5.98553">
        <ele>205</ele>
        <time>2014-06-05T09:36:30Z</time>
      </trkpt>
      <trkpt lat="48.65061" lon="5.98515">
        <ele>200</ele>
        <time>2014-06-05T09:36:35Z</time>
      </trkpt>
      <trkpt lat="48.65058" lon="5.98475">
        <ele>198</ele>
        <time>2014-06-05T09:36:40Z</time>
      </trkpt>
      <trkpt lat="48.65054" lon="5.98433">
        <ele>198</ele>
        <time>2014-06-05T09:36:45Z</time>
      </trkpt>
      <trkpt lat="48.65054" lon="5.98395">
        <ele>199</ele>
        <time>2014-06-05T09:36:50Z</time>
      </trkpt>
      <trkpt lat="48.65055" lon="5.98353">
        <ele>201</ele>
        <time>2014-06-05T09:36:55Z</time>
      </trkpt>
      <trkpt lat="48.65052" lon="5.98316">
        <ele>201</ele>
        <time>2014-06-05T09:37:00Z</time>
      </trkpt>
      <trkpt lat="48.65053" lon="5.98277">
        <ele>203</ele>
        <time>2014-06-05T09:37:05Z</time>
      </trkpt>
      <trkpt lat="48.65053" lon="5.98235">
        <ele>208</ele>
        <time>2014-06-05T09:37:10Z</time>
      </trkpt>
      <trkpt lat="48.65051" lon="5.98196">
        <ele>208</ele>
        <time>2014-06-05T09:37:15Z</time>
      </trkpt>
      <trkpt lat="48.65051" lon="5.98158">
        <ele>208</ele>
        <time>2014-06-05T09:37:20Z</time>
      </trkpt>
      <trkpt lat="48.65051" lon="5.9812">
        <ele>210</ele>
        <time>2014-06-05T09:37:25Z</time>
      </trkpt>
      <trkpt lat="48.65051" lon="5.98083">
        <ele>213</ele>
        <time>2014-06-05T09:37:30Z</time>
      </trkpt>
      <trkpt lat="48.65049" lon="5.98043">
        <ele>213</ele>
        <time>2014-06-05T09:37:35Z</time>
      </trkpt>
      <trkpt lat="48.65044" lon="5.98002">
        <ele>213</ele>
        <time>2014-06-05T09:37:40Z</time>
      </trkpt>
      <trkpt lat="48.65036" lon="5.97963">
        <ele>209</ele>
        <time>2014-06-05T09:37:45Z</time>
      </trkpt>
      <trkpt lat="48.65027" lon="5.97924">
        <ele>205</ele>
        <time>2014-06-05T09:37:50Z</time>
      </trkpt>
      <trkpt lat="48.65018" lon="5.97884">
        <ele>203</ele>
        <time>2014-06-05T09:37:55Z</time>
      </trkpt>
      <trkpt lat="48.6501" lon="5.97845">
        <ele>202</ele>
        <time>2014-06-05T09:38:00Z</time>
      </trkpt>
      <trkpt lat="48.65002" lon="5.97804">
        <ele>200</ele>
        <time>2014-06-05T09:38:05Z</time>
      </trkpt>
      <trkpt lat="48.64994" lon="5.97763">
        <ele>197</ele>
        <time>2014-06-05T09:38:10Z</time>
      </trkpt>
      <trkpt lat="48.64985" lon="5.97724">
        <ele>197</ele>
        <time>2014-06-05T09:38:15Z</time>
      </trkpt>
      <trkpt lat="48.64975" lon="5.97679">
        <ele>197</ele>
        <time>2014-06-05T09:38:21Z</time>
      </trkpt>
      <trkpt lat="48.64965" lon="5.97634">
        <ele>195</ele>
        <time>2014-06-05T09:38:27Z</time>
      </trkpt>
      <trkpt lat="48.64954" lon="5.97594">
        <ele>195</ele>
        <time>2014-06-05T09:38:32Z</time>
      </trkpt>
      <trkpt lat="48.64944" lon="5.97558">
        <ele>195</ele>
        <time>2014-06-05T09:38:37Z</time>
      </trkpt>
      <trkpt lat="48.64936" lon="5.97523">
        <ele>195</ele>
        <time>2014-06-05T09:38:42Z</time>
      </trkpt>
      <trkpt lat="48.64928" lon="5.97489">
        <ele>195</ele>
        <time>2014-06-05T09:38:47Z</time>
      </trkpt>
      <trkpt lat="48.6492" lon="5.9746">
        <ele>195</ele>
        <time>2014-06-05T09:38:52Z</time>
      </trkpt>
      <trkpt lat="48.64914" lon="5.97432">
        <ele>195</ele>
        <time>2014-06-05T09:38:57Z</time>
      </trkpt>
      <trkpt lat="48.64913" lon="5.97421">
        <ele>196</ele>
        <time>2014-06-05T09:39:02Z</time>
      </trkpt>
      <trkpt lat="48.64921" lon="5.97408">
        <ele>197</ele>
        <time>2014-06-05T09:39:07Z</time>
      </trkpt>
      <trkpt lat="48.64926" lon="5.97398">
        <ele>197</ele>
        <time>2014-06-05T09:39:12Z</time>
      </trkpt>
      <trkpt lat="48.6493" lon="5.97396">
        <ele>197</ele>
        <time>2014-06-05T09:39:18Z</time>
      </trkpt>
      <trkpt lat="48.64934" lon="5.97394">
        <ele>197</ele>
        <time>2014-06-05T09:39:23Z</time>
      </trkpt>
      <trkpt lat="48.64945" lon="5.97391">
        <ele>199</ele>
        <time>2014-06-05T09:39:28Z</time>
      </trkpt>
      <trkpt lat="48.64957" lon="5.97389">
        <ele>204</ele>
        <time>2014-06-05T09:39:33Z</time>
      </trkpt>
      <trkpt lat="48.64952" lon="5.97386">
        <ele>205</ele>
        <time>2014-06-05T09:39:39Z</time>
      </trkpt>
      <trkpt lat="48.64946" lon="5.97393">
        <ele>205</ele>
        <time>2014-06-05T09:39:44Z</time>
      </trkpt>
      <trkpt lat="48.64935" lon="5.974">
        <ele>205</ele>
        <time>2014-06-05T09:39:49Z</time>
      </trkpt>
      <trkpt lat="48.64911" lon="5.97414">
        <ele>205</ele>
        <time>2014-06-05T09:39:55Z</time>
      </trkpt>
      <trkpt lat="48.64878" lon="5.97405">
        <ele>204</ele>
        <time>2014-06-05T09:40:01Z</time>
      </trkpt>
      <trkpt lat="48.64865" lon="5.97362">
        <ele>199</ele>
        <time>2014-06-05T09:40:06Z</time>
      </trkpt>
      <trkpt lat="48.64854" lon="5.97325">
        <ele>194</ele>
        <time>2014-06-05T09:40:11Z</time>
      </trkpt>
      <trkpt lat="48.64841" lon="5.97286">
        <ele>191</ele>
        <time>2014-06-05T09:40:16Z</time>
      </trkpt>
      <trkpt lat="48.64826" lon="5.97243">
        <ele>191</ele>
        <time>2014-06-05T09:40:21Z</time>
      </trkpt>
      <trkpt lat="48.64815" lon="5.97201">
        <ele>191</ele>
        <time>2014-06-05T09:40:26Z</time>
      </trkpt>
      <trkpt lat="48.648" lon="5.97159">
        <ele>191</ele>
        <time>2014-06-05T09:40:31Z</time>
      </trkpt>
      <trkpt lat="48.64787" lon="5.9712">
        <ele>191</ele>
        <time>2014-06-05T09:40:36Z</time>
      </trkpt>
      <trkpt lat="48.64775" lon="5.97072">
        <ele>194</ele>
        <time>2014-06-05T09:40:42Z</time>
      </trkpt>
      <trkpt lat="48.64767" lon="5.97034">
        <ele>194</ele>
        <time>2014-06-05T09:40:47Z</time>
      </trkpt>
      <trkpt lat="48.64758" lon="5.9699">
        <ele>194</ele>
        <time>2014-06-05T09:40:52Z</time>
      </trkpt>
      <trkpt lat="48.64743" lon="5.96945">
        <ele>193</ele>
        <time>2014-06-05T09:40:57Z</time>
      </trkpt>
      <trkpt lat="48.64732" lon="5.96904">
        <ele>189</ele>
        <time>2014-06-05T09:41:02Z</time>
      </trkpt>
      <trkpt lat="48.64718" lon="5.96861">
        <ele>185</ele>
        <time>2014-06-05T09:41:07Z</time>
      </trkpt>
      <trkpt lat="48.64704" lon="5.9682">
        <ele>185</ele>
        <time>2014-06-05T09:41:12Z</time>
      </trkpt>
      <trkpt lat="48.64696" lon="5.96782">
        <ele>185</ele>
        <time>2014-06-05T09:41:17Z</time>
      </trkpt>
      <trkpt lat="48.64682" lon="5.96741">
        <ele>190</ele>
        <time>2014-06-05T09:41:22Z</time>
      </trkpt>
      <trkpt lat="48.64671" lon="5.96702">
        <ele>195</ele>
        <time>2014-06-05T09:41:27Z</time>
      </trkpt>
      <trkpt lat="48.64656" lon="5.96664">
        <ele>197</ele>
        <time>2014-06-05T09:41:32Z</time>
      </trkpt>
      <trkpt lat="48.64638" lon="5.9663">
        <ele>197</ele>
        <time>2014-06-05T09:41:37Z</time>
      </trkpt>
      <trkpt lat="48.64622" lon="5.96599">
        <ele>197</ele>
        <time>2014-06-05T09:41:42Z</time>
      </trkpt>
      <trkpt lat="48.64607" lon="5.96562">
        <ele>197</ele>
        <time>2014-06-05T09:41:47Z</time>
      </trkpt>
      <trkpt lat="48.64597" lon="5.96525">
        <ele>197</ele>
        <time>2014-06-05T09:41:52Z</time>
      </trkpt>
      <trkpt lat="48.64582" lon="5.96483">
        <ele>198</ele>
        <time>2014-06-05T09:41:57Z</time>
      </trkpt>
      <trkpt lat="48.64568" lon="5.96445">
        <ele>199</ele>
        <time>2014-06-05T09:42:02Z</time>
      </trkpt>
      <trkpt lat="48.64554" lon="5.96407">
        <ele>199</ele>
        <time>2014-06-05T09:42:07Z</time>
      </trkpt>
      <trkpt lat="48.64534" lon="5.96364">
        <ele>199</ele>
        <time>2014-06-05T09:42:12Z</time>
      </trkpt>
      <trkpt lat="48.64529" lon="5.96324">
        <ele>199</ele>
        <time>2014-06-05T09:42:17Z</time>
      </trkpt>
      <trkpt lat="48.64518" lon="5.96284">
        <ele>199</ele>
        <time>2014-06-05T09:42:22Z</time>
      </trkpt>
      <trkpt lat="48.64515" lon="5.96251">
        <ele>199</ele>
        <time>2014-06-05T09:42:27Z</time>
      </trkpt>
      <trkpt lat="48.64508" lon="5.96208">
        <ele>202</ele>
        <time>2014-06-05T09:42:32Z</time>
      </trkpt>
      <trkpt lat="48.64498" lon="5.96168">
        <ele>205</ele>
        <time>2014-06-05T09:42:37Z</time>
      </trkpt>
      <trkpt lat="48.64483" lon="5.96125">
        <ele>205</ele>
        <time>2014-06-05T09:42:42Z</time>
      </trkpt>
      <trkpt lat="48.64471" lon="5.96082">
        <ele>205</ele>
        <time>2014-06-05T09:42:47Z</time>
      </trkpt>
      <trkpt lat="48.64455" lon="5.96032">
        <ele>205</ele>
        <time>2014-06-05T09:42:52Z</time>
      </trkpt>
      <trkpt lat="48.64442" lon="5.95986">
        <ele>205</ele>
        <time>2014-06-05T09:42:57Z</time>
      </trkpt>
      <trkpt lat="48.64437" lon="5.95954">
        <ele>205</ele>
        <time>2014-06-05T09:43:02Z</time>
      </trkpt>
      <trkpt lat="48.64434" lon="5.95917">
        <ele>205</ele>
        <time>2014-06-05T09:43:07Z</time>
      </trkpt>
      <trkpt lat="48.64421" lon="5.95871">
        <ele>205</ele>
        <time>2014-06-05T09:43:12Z</time>
      </trkpt>
      <trkpt lat="48.6441" lon="5.95825">
        <ele>205</ele>
        <time>2014-06-05T09:43:17Z</time>
      </trkpt>
      <trkpt lat="48.64403" lon="5.95782">
        <ele>201</ele>
        <time>2014-06-05T09:43:22Z</time>
      </trkpt>
      <trkpt lat="48.64399" lon="5.95738">
        <ele>203</ele>
        <time>2014-06-05T09:43:27Z</time>
      </trkpt>
      <trkpt lat="48.64391" lon="5.95692">
        <ele>203</ele>
        <time>2014-06-05T09:43:32Z</time>
      </trkpt>
      <trkpt lat="48.64383" lon="5.95648">
        <ele>203</ele>
        <time>2014-06-05T09:43:37Z</time>
      </trkpt>
      <trkpt lat="48.64376" lon="5.95605">
        <ele>203</ele>
        <time>2014-06-05T09:43:42Z</time>
      </trkpt>
      <trkpt lat="48.64372" lon="5.95567">
        <ele>203</ele>
        <time>2014-06-05T09:43:47Z</time>
      </trkpt>
      <trkpt lat="48.64369" lon="5.95524">
        <ele>203</ele>
        <time>2014-06-05T09:43:53Z</time>
      </trkpt>
      <trkpt lat="48.64366" lon="5.95487">
        <ele>203</ele>
        <time>2014-06-05T09:43:58Z</time>
      </trkpt>
      <trkpt lat="48.64361" lon="5.95447">
        <ele>203</ele>
        <time>2014-06-05T09:44:03Z</time>
      </trkpt>
      <trkpt lat="48.64357" lon="5.95408">
        <ele>205</ele>
        <time>2014-06-05T09:44:08Z</time>
      </trkpt>
      <trkpt lat="48.64353" lon="5.95367">
        <ele>205</ele>
        <time>2014-06-05T09:44:13Z</time>
      </trkpt>
      <trkpt lat="48.64348" lon="5.95324">
        <ele>205</ele>
        <time>2014-06-05T09:44:18Z</time>
      </trkpt>
      <trkpt lat="48.64341" lon="5.95272">
        <ele>205</ele>
        <time>2014-06-05T09:44:24Z</time>
      </trkpt>
      <trkpt lat="48.64337" lon="5.95233">
        <ele>207</ele>
        <time>2014-06-05T09:44:29Z</time>
      </trkpt>
      <trkpt lat="48.64333" lon="5.95193">
        <ele>212</ele>
        <time>2014-06-05T09:44:34Z</time>
      </trkpt>
      <trkpt lat="48.64326" lon="5.9515">
        <ele>212</ele>
        <time>2014-06-05T09:44:39Z</time>
      </trkpt>
      <trkpt lat="48.6432" lon="5.9511">
        <ele>212</ele>
        <time>2014-06-05T09:44:44Z</time>
      </trkpt>
      <trkpt lat="48.6432" lon="5.95068">
        <ele>212</ele>
        <time>2014-06-05T09:44:49Z</time>
      </trkpt>
      <trkpt lat="48.6432" lon="5.95023">
        <ele>212</ele>
        <time>2014-06-05T09:44:54Z</time>
      </trkpt>
      <trkpt lat="48.64312" lon="5.94981">
        <ele>211</ele>
        <time>2014-06-05T09:44:59Z</time>
      </trkpt>
      <trkpt lat="48.64309" lon="5.94938">
        <ele>210</ele>
        <time>2014-06-05T09:45:04Z</time>
      </trkpt>
      <trkpt lat="48.64306" lon="5.94896">
        <ele>210</ele>
        <time>2014-06-05T09:45:09Z</time>
      </trkpt>
      <trkpt lat="48.64301" lon="5.94852">
        <ele>207</ele>
        <time>2014-06-05T09:45:14Z</time>
      </trkpt>
      <trkpt lat="48.64302" lon="5.94809">
        <ele>205</ele>
        <time>2014-06-05T09:45:19Z</time>
      </trkpt>
      <trkpt lat="48.64302" lon="5.94768">
        <ele>205</ele>
        <time>2014-06-05T09:45:24Z</time>
      </trkpt>
      <trkpt lat="48.64302" lon="5.94726">
        <ele>205</ele>
        <time>2014-06-05T09:45:29Z</time>
      </trkpt>
      <trkpt lat="48.64299" lon="5.94676">
        <ele>205</ele>
        <time>2014-06-05T09:45:35Z</time>
      </trkpt>
      <trkpt lat="48.64296" lon="5.94634">
        <ele>206</ele>
        <time>2014-06-05T09:45:40Z</time>
      </trkpt>
      <trkpt lat="48.64295" lon="5.94593">
        <ele>211</ele>
        <time>2014-06-05T09:45:45Z</time>
      </trkpt>
      <trkpt lat="48.64294" lon="5.94552">
        <ele>213</ele>
        <time>2014-06-05T09:45:50Z</time>
      </trkpt>
      <trkpt lat="48.64294" lon="5.94516">
        <ele>213</ele>
        <time>2014-06-05T09:45:55Z</time>
      </trkpt>
      <trkpt lat="48.64294" lon="5.94478">
        <ele>213</ele>
        <time>2014-06-05T09:46:00Z</time>
      </trkpt>
      <trkpt lat="48.64295" lon="5.94438">
        <ele>217</ele>
        <time>2014-06-05T09:46:05Z</time>
      </trkpt>
      <trkpt lat="48.64295" lon="5.94399">
        <ele>219</ele>
        <time>2014-06-05T09:46:10Z</time>
      </trkpt>
      <trkpt lat="48.64296" lon="5.94364">
        <ele>219</ele>
        <time>2014-06-05T09:46:15Z</time>
      </trkpt>
      <trkpt lat="48.64296" lon="5.94333">
        <ele>219</ele>
        <time>2014-06-05T09:46:20Z</time>
      </trkpt>
      <trkpt lat="48.64296" lon="5.94303">
        <ele>219</ele>
        <time>2014-06-05T09:46:25Z</time>
      </trkpt>
      <trkpt lat="48.64297" lon="5.94272">
        <ele>216</ele>
        <time>2014-06-05T09:46:30Z</time>
      </trkpt>
      <trkpt lat="48.64299" lon="5.94235">
        <ele>214</ele>
        <time>2014-06-05T09:46:35Z</time>
      </trkpt>
      <trkpt lat="48.64301" lon="5.942">
        <ele>212</ele>
        <time>2014-06-05T09:46:40Z</time>
      </trkpt>
      <trkpt lat="48.64303" lon="5.94177">
        <ele>209</ele>
        <time>2014-06-05T09:46:45Z</time>
      </trkpt>
      <trkpt lat="48.64304" lon="5.94157">
        <ele>209</ele>
        <time>2014-06-05T09:46:50Z</time>
      </trkpt>
      <trkpt lat="48.64307" lon="5.94123">
        <ele>209</ele>
        <time>2014-06-05T09:46:55Z</time>
      </trkpt>
      <trkpt lat="48.64308" lon="5.9409">
        <ele>209</ele>
        <time>2014-06-05T09:47:00Z</time>
      </trkpt>
      <trkpt lat="48.6431" lon="5.94057">
        <ele>210</ele>
        <time>2014-06-05T09:47:05Z</time>
      </trkpt>
      <trkpt lat="48.64316" lon="5.94018">
        <ele>212</ele>
        <time>2014-06-05T09:47:10Z</time>
      </trkpt>
      <trkpt lat="48.64323" lon="5.93977">
        <ele>213</ele>
        <time>2014-06-05T09:47:15Z</time>
      </trkpt>
      <trkpt lat="48.64329" lon="5.93936">
        <ele>214</ele>
        <time>2014-06-05T09:47:20Z</time>
      </trkpt>
      <trkpt lat="48.64331" lon="5.93894">
        <ele>216</ele>
        <time>2014-06-05T09:47:25Z</time>
      </trkpt>
      <trkpt lat="48.64332" lon="5.93853">
        <ele>218</ele>
        <time>2014-06-05T09:47:30Z</time>
      </trkpt>
      <trkpt lat="48.64335" lon="5.93814">
        <ele>222</ele>
        <time>2014-06-05T09:47:35Z</time>
      </trkpt>
      <trkpt lat="48.6434" lon="5.93776">
        <ele>225</ele>
        <time>2014-06-05T09:47:40Z</time>
      </trkpt>
      <trkpt lat="48.64346" lon="5.93735">
        <ele>225</ele>
        <time>2014-06-05T09:47:45Z</time>
      </trkpt>
      <trkpt lat="48.64348" lon="5.93693">
        <ele>225</ele>
        <time>2014-06-05T09:47:50Z</time>
      </trkpt>
      <trkpt lat="48.64349" lon="5.93651">
        <ele>225</ele>
        <time>2014-06-05T09:47:55Z</time>
      </trkpt>
      <trkpt lat="48.64351" lon="5.93609">
        <ele>225</ele>
        <time>2014-06-05T09:48:00Z</time>
      </trkpt>
      <trkpt lat="48.64352" lon="5.93569">
        <ele>225</ele>
        <time>2014-06-05T09:48:05Z</time>
      </trkpt>
      <trkpt lat="48.64353" lon="5.93534">
        <ele>225</ele>
        <time>2014-06-05T09:48:10Z</time>
      </trkpt>
      <trkpt lat="48.64352" lon="5.93508">
        <ele>224</ele>
        <time>2014-06-05T09:48:15Z</time>
      </trkpt>
      <trkpt lat="48.64351" lon="5.93484">
        <ele>222</ele>
        <time>2014-06-05T09:48:20Z</time>
      </trkpt>
      <trkpt lat="48.64343" lon="5.93472">
        <ele>217</ele>
        <time>2014-06-05T09:48:25Z</time>
      </trkpt>
      <trkpt lat="48.64333" lon="5.93472">
        <ele>208</ele>
        <time>2014-06-05T09:48:30Z</time>
      </trkpt>
      <trkpt lat="48.64332" lon="5.93483">
        <ele>202</ele>
        <time>2014-06-05T09:48:35Z</time>
      </trkpt>
      <trkpt lat="48.64336" lon="5.93491">
        <ele>200</ele>
        <time>2014-06-05T09:48:43Z</time>
      </trkpt>
      <trkpt lat="48.64333" lon="5.93493">
        <ele>202</ele>
        <time>2014-06-05T09:48:53Z</time>
      </trkpt>
      <trkpt lat="48.6434" lon="5.93492">
        <ele>205</ele>
        <time>2014-06-05T09:49:02Z</time>
      </trkpt>
      <trkpt lat="48.64348" lon="5.93494">
        <ele>203</ele>
        <time>2014-06-05T09:49:09Z</time>
      </trkpt>
      <trkpt lat="48.64348" lon="5.93496">
        <ele>200</ele>
        <time>2014-06-05T09:49:18Z</time>
      </trkpt>
      <trkpt lat="48.6435" lon="5.93496">
        <ele>199</ele>
        <time>2014-06-05T09:49:27Z</time>
      </trkpt>
      <trkpt lat="48.64347" lon="5.93496">
        <ele>197</ele>
        <time>2014-06-05T09:49:32Z</time>
      </trkpt>
      <trkpt lat="48.64342" lon="5.93493">
        <ele>197</ele>
        <time>2014-06-05T09:49:39Z</time>
      </trkpt>
      <trkpt lat="48.64323" lon="5.93493">
        <ele>203</ele>
        <time>2014-06-05T09:49:50Z</time>
      </trkpt>
      <trkpt lat="48.64323" lon="5.9349">
        <ele>202</ele>
        <time>2014-06-05T09:49:56Z</time>
      </trkpt>
      <trkpt lat="48.64325" lon="5.9349">
        <ele>202</ele>
        <time>2014-06-05T09:50:01Z</time>
      </trkpt>
      <trkpt lat="48.64328" lon="5.9349">
        <ele>202</ele>
        <time>2014-06-05T09:50:06Z</time>
      </trkpt>
      <trkpt lat="48.64339" lon="5.93491">
        <ele>201</ele>
        <time>2014-06-05T09:50:15Z</time>
      </trkpt>
      <trkpt lat="48.6434" lon="5.9349">
        <ele>202</ele>
        <time>2014-06-05T09:50:20Z</time>
      </trkpt>
      <trkpt lat="48.64329" lon="5.93484">
        <ele>211</ele>
        <time>2014-06-05T09:50:29Z</time>
      </trkpt>
      <trkpt lat="48.64338" lon="5.93482">
        <ele>208</ele>
        <time>2014-06-05T09:50:38Z</time>
      </trkpt>
      <trkpt lat="48.64339" lon="5.93479">
        <ele>208</ele>
        <time>2014-06-05T09:50:43Z</time>
      </trkpt>
      <trkpt lat="48.64343" lon="5.93473">
        <ele>208</ele>
        <time>2014-06-05T09:50:50Z</time>
      </trkpt>
      <trkpt lat="48.64348" lon="5.9347">
        <ele>209</ele>
        <time>2014-06-05T09:50:58Z</time>
      </trkpt>
      <trkpt lat="48.64344" lon="5.93469">
        <ele>210</ele>
        <time>2014-06-05T09:51:03Z</time>
      </trkpt>
      <trkpt lat="48.64339" lon="5.9347">
        <ele>210</ele>
        <time>2014-06-05T09:51:09Z</time>
      </trkpt>
      <trkpt lat="48.64334" lon="5.93468">
        <ele>212</ele>
        <time>2014-06-05T09:51:17Z</time>
      </trkpt>
      <trkpt lat="48.64331" lon="5.93469">
        <ele>212</ele>
        <time>2014-06-05T09:51:24Z</time>
      </trkpt>
      <trkpt lat="48.6433" lon="5.93464">
        <ele>213</ele>
        <time>2014-06-05T09:51:29Z</time>
      </trkpt>
      <trkpt lat="48.64337" lon="5.93475">
        <ele>212</ele>
        <time>2014-06-05T09:51:34Z</time>
      </trkpt>
      <trkpt lat="48.64342" lon="5.93477">
        <ele>211</ele>
        <time>2014-06-05T09:51:40Z</time>
      </trkpt>
      <trkpt lat="48.64343" lon="5.93474">
        <ele>210</ele>
        <time>2014-06-05T09:51:46Z</time>
      </trkpt>
      <trkpt lat="48.64341" lon="5.93473">
        <ele>210</ele>
        <time>2014-06-05T09:51:54Z</time>
      </trkpt>
      <trkpt lat="48.64339" lon="5.93476">
        <ele>210</ele>
        <time>2014-06-05T09:52:00Z</time>
      </trkpt>
      <trkpt lat="48.64337" lon="5.93474">
        <ele>210</ele>
        <time>2014-06-05T09:52:07Z</time>
      </trkpt>
      <trkpt lat="48.64336" lon="5.93468">
        <ele>210</ele>
        <time>2014-06-05T09:52:13Z</time>
      </trkpt>
      <trkpt lat="48.6434" lon="5.93467">
        <ele>213</ele>
        <time>2014-06-05T09:52:22Z</time>
      </trkpt>
      <trkpt lat="48.64338" lon="5.93467">
        <ele>213</ele>
        <time>2014-06-05T09:52:27Z</time>
      </trkpt>
      <trkpt lat="48.64341" lon="5.93466">
        <ele>213</ele>
        <time>2014-06-05T09:52:34Z</time>
      </trkpt>
      <trkpt lat="48.64344" lon="5.93464">
        <ele>213</ele>
        <time>2014-06-05T09:52:40Z</time>
      </trkpt>
      <trkpt lat="48.64342" lon="5.93482">
        <ele>213</ele>
        <time>2014-06-05T09:52:47Z</time>
      </trkpt>
      <trkpt lat="48.64345" lon="5.93484">
        <ele>212</ele>
        <time>2014-06-05T09:52:53Z</time>
      </trkpt>
      <trkpt lat="48.64344" lon="5.93488">
        <ele>211</ele>
        <time>2014-06-05T09:52:58Z</time>
      </trkpt>
      <trkpt lat="48.64344" lon="5.9349">
        <ele>209</ele>
        <time>2014-06-05T09:53:03Z</time>
      </trkpt>
      <trkpt lat="48.64343" lon="5.9349">
        <ele>202</ele>
        <time>2014-06-05T09:53:09Z</time>
      </trkpt>
      <trkpt lat="48.64342" lon="5.93488">
        <ele>208</ele>
        <time>2014-06-05T09:53:17Z</time>
      </trkpt>
      <trkpt lat="48.6434" lon="5.93488">
        <ele>209</ele>
        <time>2014-06-05T09:53:22Z</time>
      </trkpt>
      <trkpt lat="48.64336" lon="5.93489">
        <ele>209</ele>
        <time>2014-06-05T09:53:29Z</time>
      </trkpt>
      <trkpt lat="48.64336" lon="5.93485">
        <ele>209</ele>
        <time>2014-06-05T09:53:39Z</time>
      </trkpt>
      <trkpt lat="48.64331" lon="5.93486">
        <ele>209</ele>
        <time>2014-06-05T09:53:47Z</time>
      </trkpt>
      <trkpt lat="48.64328" lon="5.93489">
        <ele>209</ele>
        <time>2014-06-05T09:53:56Z</time>
      </trkpt>
      <trkpt lat="48.64329" lon="5.93492">
        <ele>209</ele>
        <time>2014-06-05T09:54:01Z</time>
      </trkpt>
      <trkpt lat="48.6433" lon="5.93483">
        <ele>209</ele>
        <time>2014-06-05T09:54:08Z</time>
      </trkpt>
      <trkpt lat="48.6433" lon="5.93477">
        <ele>209</ele>
        <time>2014-06-05T09:54:16Z</time>
      </trkpt>
      <trkpt lat="48.64331" lon="5.93471">
        <ele>213</ele>
        <time>2014-06-05T09:54:23Z</time>
      </trkpt>
      <trkpt lat="48.64333" lon="5.93468">
        <ele>217</ele>
        <time>2014-06-05T09:54:29Z</time>
      </trkpt>
      <trkpt lat="48.64333" lon="5.93472">
        <ele>220</ele>
        <time>2014-06-05T09:54:39Z</time>
      </trkpt>
      <trkpt lat="48.64337" lon="5.93476">
        <ele>219</ele>
        <time>2014-06-05T09:54:47Z</time>
      </trkpt>
      <trkpt lat="48.64336" lon="5.93491">
        <ele>209</ele>
        <time>2014-06-05T09:54:54Z</time>
      </trkpt>
      <trkpt lat="48.64338" lon="5.93499">
        <ele>205</ele>
        <time>2014-06-05T09:55:00Z</time>
      </trkpt>
      <trkpt lat="48.64339" lon="5.93512">
        <ele>197</ele>
        <time>2014-06-05T09:55:08Z</time>
      </trkpt>
      <trkpt lat="48.64337" lon="5.93517">
        <ele>192</ele>
        <time>2014-06-05T09:55:13Z</time>
      </trkpt>
      <trkpt lat="48.6434" lon="5.93517">
        <ele>190</ele>
        <time>2014-06-05T09:55:18Z</time>
      </trkpt>
      <trkpt lat="48.64341" lon="5.9351">
        <ele>190</ele>
        <time>2014-06-05T09:55:26Z</time>
      </trkpt>
      <trkpt lat="48.64343" lon="5.93504">
        <ele>193</ele>
        <time>2014-06-05T09:55:34Z</time>
      </trkpt>
      <trkpt lat="48.64336" lon="5.93489">
        <ele>190</ele>
        <time>2014-06-05T09:55:41Z</time>
      </trkpt>
      <trkpt lat="48.64336" lon="5.93481">
        <ele>190</ele>
        <time>2014-06-05T09:55:46Z</time>
      </trkpt>
      <trkpt lat="48.64337" lon="5.93471">
        <ele>190</ele>
        <time>2014-06-05T09:55:51Z</time>
      </trkpt>
      <trkpt lat="48.64333" lon="5.93451">
        <ele>190</ele>
        <time>2014-06-05T09:55:56Z</time>
      </trkpt>
      <trkpt lat="48.64327" lon="5.93431">
        <ele>190</ele>
        <time>2014-06-05T09:56:01Z</time>
      </trkpt>
      <trkpt lat="48.64322" lon="5.93408">
        <ele>190</ele>
        <time>2014-06-05T09:56:06Z</time>
      </trkpt>
      <trkpt lat="48.64318" lon="5.93388">
        <ele>187</ele>
        <time>2014-06-05T09:56:11Z</time>
      </trkpt>
      <trkpt lat="48.64315" lon="5.93366">
        <ele>184</ele>
        <time>2014-06-05T09:56:16Z</time>
      </trkpt>
      <trkpt lat="48.64312" lon="5.93342">
        <ele>184</ele>
        <time>2014-06-05T09:56:21Z</time>
      </trkpt>
      <trkpt lat="48.64311" lon="5.93316">
        <ele>184</ele>
        <time>2014-06-05T09:56:26Z</time>
      </trkpt>
      <trkpt lat="48.64311" lon="5.93286">
        <ele>184</ele>
        <time>2014-06-05T09:56:31Z</time>
      </trkpt>
      <trkpt lat="48.64313" lon="5.93253">
        <ele>186</ele>
        <time>2014-06-05T09:56:36Z</time>
      </trkpt>
      <trkpt lat="48.64311" lon="5.93222">
        <ele>186</ele>
        <time>2014-06-05T09:56:41Z</time>
      </trkpt>
      <trkpt lat="48.64311" lon="5.93191">
        <ele>186</ele>
        <time>2014-06-05T09:56:46Z</time>
      </trkpt>
      <trkpt lat="48.64314" lon="5.93166">
        <ele>184</ele>
        <time>2014-06-05T09:56:51Z</time>
      </trkpt>
      <trkpt lat="48.64317" lon="5.9314">
        <ele>183</ele>
        <time>2014-06-05T09:56:56Z</time>
      </trkpt>
      <trkpt lat="48.6432" lon="5.93112">
        <ele>183</ele>
        <time>2014-06-05T09:57:01Z</time>
      </trkpt>
      <trkpt lat="48.64323" lon="5.93084">
        <ele>183</ele>
        <time>2014-06-05T09:57:06Z</time>
      </trkpt>
      <trkpt lat="48.64326" lon="5.93055">
        <ele>183</ele>
        <time>2014-06-05T09:57:11Z</time>
      </trkpt>
      <trkpt lat="48.64327" lon="5.93027">
        <ele>183</ele>
        <time>2014-06-05T09:57:16Z</time>
      </trkpt>
      <trkpt lat="48.6433" lon="5.92998">
        <ele>183</ele>
        <time>2014-06-05T09:57:21Z</time>
      </trkpt>
      <trkpt lat="48.64331" lon="5.92973">
        <ele>184</ele>
        <time>2014-06-05T09:57:26Z</time>
      </trkpt>
      <trkpt lat="48.64329" lon="5.92956">
        <ele>187</ele>
        <time>2014-06-05T09:57:31Z</time>
      </trkpt>
      <trkpt lat="48.64328" lon="5.92942">
        <ele>190</ele>
        <time>2014-06-05T09:57:36Z</time>
      </trkpt>
      <trkpt lat="48.64325" lon="5.92931">
        <ele>192</ele>
        <time>2014-06-05T09:57:41Z</time>
      </trkpt>
      <trkpt lat="48.64324" lon="5.92924">
        <ele>194</ele>
        <time>2014-06-05T09:57:46Z</time>
      </trkpt>
      <trkpt lat="48.64323" lon="5.92931">
        <ele>194</ele>
        <time>2014-06-05T09:57:51Z</time>
      </trkpt>
      <trkpt lat="48.64329" lon="5.92944">
        <ele>196</ele>
        <time>2014-06-05T09:57:56Z</time>
      </trkpt>
      <trkpt lat="48.64332" lon="5.9296">
        <ele>198</ele>
        <time>2014-06-05T09:58:01Z</time>
      </trkpt>
      <trkpt lat="48.64334" lon="5.92979">
        <ele>201</ele>
        <time>2014-06-05T09:58:06Z</time>
      </trkpt>
      <trkpt lat="48.64332" lon="5.93003">
        <ele>203</ele>
        <time>2014-06-05T09:58:11Z</time>
      </trkpt>
      <trkpt lat="48.64331" lon="5.93027">
        <ele>205</ele>
        <time>2014-06-05T09:58:16Z</time>
      </trkpt>
      <trkpt lat="48.6433" lon="5.93052">
        <ele>205</ele>
        <time>2014-06-05T09:58:21Z</time>
      </trkpt>
      <trkpt lat="48.6433" lon="5.9308">
        <ele>205</ele>
        <time>2014-06-05T09:58:26Z</time>
      </trkpt>
      <trkpt lat="48.6433" lon="5.93103">
        <ele>205</ele>
        <time>2014-06-05T09:58:31Z</time>
      </trkpt>
      <trkpt lat="48.64328" lon="5.93123">
        <ele>205</ele>
        <time>2014-06-05T09:58:36Z</time>
      </trkpt>
      <trkpt lat="48.64342" lon="5.93134">
        <ele>205</ele>
        <time>2014-06-05T09:58:41Z</time>
      </trkpt>
      <trkpt lat="48.6436" lon="5.9314">
        <ele>205</ele>
        <time>2014-06-05T09:58:46Z</time>
      </trkpt>
      <trkpt lat="48.6437" lon="5.93157">
        <ele>205</ele>
        <time>2014-06-05T09:58:51Z</time>
      </trkpt>
      <trkpt lat="48.64368" lon="5.93186">
        <ele>204</ele>
        <time>2014-06-05T09:58:56Z</time>
      </trkpt>
      <trkpt lat="48.64366" lon="5.93214">
        <ele>204</ele>
        <time>2014-06-05T09:59:01Z</time>
      </trkpt>
      <trkpt lat="48.64365" lon="5.93243">
        <ele>204</ele>
        <time>2014-06-05T09:59:06Z</time>
      </trkpt>
      <trkpt lat="48.64363" lon="5.93269">
        <ele>204</ele>
        <time>2014-06-05T09:59:11Z</time>
      </trkpt>
      <trkpt lat="48.64361" lon="5.93293">
        <ele>204</ele>
        <time>2014-06-05T09:59:16Z</time>
      </trkpt>
      <trkpt lat="48.64364" lon="5.93318">
        <ele>204</ele>
        <time>2014-06-05T09:59:21Z</time>
      </trkpt>
      <trkpt lat="48.64378" lon="5.93336">
        <ele>204</ele>
        <time>2014-06-05T09:59:26Z</time>
      </trkpt>
      <trkpt lat="48.64394" lon="5.93348">
        <ele>204</ele>
        <time>2014-06-05T09:59:31Z</time>
      </trkpt>
      <trkpt lat="48.64409" lon="5.93357">
        <ele>204</ele>
        <time>2014-06-05T09:59:36Z</time>
      </trkpt>
      <trkpt lat="48.64424" lon="5.93364">
        <ele>204</ele>
        <time>2014-06-05T09:59:41Z</time>
      </trkpt>
      <trkpt lat="48.64438" lon="5.93371">
        <ele>204</ele>
        <time>2014-06-05T09:59:46Z</time>
      </trkpt>
      <trkpt lat="48.64452" lon="5.93378">
        <ele>204</ele>
        <time>2014-06-05T09:59:51Z</time>
      </trkpt>
      <trkpt lat="48.64466" lon="5.93386">
        <ele>204</ele>
        <time>2014-06-05T09:59:56Z</time>
      </trkpt>
      <trkpt lat="48.64481" lon="5.93394">
        <ele>204</ele>
        <time>2014-06-05T10:00:01Z</time>
      </trkpt>
      <trkpt lat="48.64498" lon="5.93402">
        <ele>204</ele>
        <time>2014-06-05T10:00:06Z</time>
      </trkpt>
      <trkpt lat="48.64516" lon="5.93411">
        <ele>204</ele>
        <time>2014-06-05T10:00:11Z</time>
      </trkpt>
      <trkpt lat="48.64537" lon="5.93422">
        <ele>204</ele>
        <time>2014-06-05T10:00:16Z</time>
      </trkpt>
      <trkpt lat="48.64565" lon="5.93438">
        <ele>204</ele>
        <time>2014-06-05T10:00:21Z</time>
      </trkpt>
      <trkpt lat="48.64594" lon="5.93451">
        <ele>204</ele>
        <time>2014-06-05T10:00:26Z</time>
      </trkpt>
      <trkpt lat="48.64607" lon="5.93444">
        <ele>204</ele>
        <time>2014-06-05T10:00:31Z</time>
      </trkpt>
      <trkpt lat="48.6461" lon="5.93426">
        <ele>204</ele>
        <time>2014-06-05T10:00:36Z</time>
      </trkpt>
      <trkpt lat="48.6461" lon="5.93401">
        <ele>204</ele>
        <time>2014-06-05T10:00:41Z</time>
      </trkpt>
      <trkpt lat="48.64613" lon="5.93377">
        <ele>208</ele>
        <time>2014-06-05T10:00:46Z</time>
      </trkpt>
      <trkpt lat="48.64621" lon="5.93353">
        <ele>208</ele>
        <time>2014-06-05T10:00:51Z</time>
      </trkpt>
      <trkpt lat="48.64629" lon="5.93331">
        <ele>208</ele>
        <time>2014-06-05T10:00:56Z</time>
      </trkpt>
      <trkpt lat="48.64634" lon="5.93308">
        <ele>208</ele>
        <time>2014-06-05T10:01:01Z</time>
      </trkpt>
      <trkpt lat="48.64638" lon="5.93281">
        <ele>210</ele>
        <time>2014-06-05T10:01:06Z</time>
      </trkpt>
      <trkpt lat="48.64643" lon="5.93254">
        <ele>215</ele>
        <time>2014-06-05T10:01:11Z</time>
      </trkpt>
      <trkpt lat="48.64648" lon="5.93229">
        <ele>219</ele>
        <time>2014-06-05T10:01:16Z</time>
      </trkpt>
      <trkpt lat="48.64653" lon="5.93203">
        <ele>221</ele>
        <time>2014-06-05T10:01:21Z</time>
      </trkpt>
      <trkpt lat="48.64658" lon="5.93176">
        <ele>223</ele>
        <time>2014-06-05T10:01:26Z</time>
      </trkpt>
      <trkpt lat="48.64661" lon="5.93144">
        <ele>224</ele>
        <time>2014-06-05T10:01:31Z</time>
      </trkpt>
      <trkpt lat="48.64665" lon="5.93112">
        <ele>226</ele>
        <time>2014-06-05T10:01:36Z</time>
      </trkpt>
      <trkpt lat="48.64671" lon="5.93084">
        <ele>226</ele>
        <time>2014-06-05T10:01:41Z</time>
      </trkpt>
      <trkpt lat="48.64677" lon="5.93051">
        <ele>226</ele>
        <time>2014-06-05T10:01:46Z</time>
      </trkpt>
      <trkpt lat="48.64685" lon="5.93014">
        <ele>226</ele>
        <time>2014-06-05T10:01:51Z</time>
      </trkpt>
      <trkpt lat="48.64688" lon="5.92972">
        <ele>224</ele>
        <time>2014-06-05T10:01:56Z</time>
      </trkpt>
      <trkpt lat="48.64691" lon="5.92936">
        <ele>222</ele>
        <time>2014-06-05T10:02:01Z</time>
      </trkpt>
      <trkpt lat="48.64695" lon="5.92897">
        <ele>219</ele>
        <time>2014-06-05T10:02:06Z</time>
      </trkpt>
      <trkpt lat="48.64698" lon="5.92851">
        <ele>216</ele>
        <time>2014-06-05T10:02:11Z</time>
      </trkpt>
      <trkpt lat="48.64702" lon="5.92799">
        <ele>215</ele>
        <time>2014-06-05T10:02:16Z</time>
      </trkpt>
      <trkpt lat="48.64708" lon="5.92736">
        <ele>210</ele>
        <time>2014-06-05T10:02:21Z</time>
      </trkpt>
      <trkpt lat="48.64712" lon="5.92664">
        <ele>207</ele>
        <time>2014-06-05T10:02:26Z</time>
      </trkpt>
      <trkpt lat="48.64713" lon="5.92597">
        <ele>207</ele>
        <time>2014-06-05T10:02:31Z</time>
      </trkpt>
      <trkpt lat="48.64713" lon="5.92542">
        <ele>207</ele>
        <time>2014-06-05T10:02:36Z</time>
      </trkpt>
      <trkpt lat="48.64713" lon="5.92497">
        <ele>208</ele>
        <time>2014-06-05T10:02:41Z</time>
      </trkpt>
      <trkpt lat="48.64714" lon="5.92456">
        <ele>210</ele>
        <time>2014-06-05T10:02:46Z</time>
      </trkpt>
      <trkpt lat="48.64714" lon="5.92407">
        <ele>210</ele>
        <time>2014-06-05T10:02:51Z</time>
      </trkpt>
      <trkpt lat="48.64712" lon="5.92353">
        <ele>210</ele>
        <time>2014-06-05T10:02:56Z</time>
      </trkpt>
      <trkpt lat="48.64713" lon="5.92316">
        <ele>214</ele>
        <time>2014-06-05T10:03:01Z</time>
      </trkpt>
      <trkpt lat="48.64715" lon="5.92284">
        <ele>217</ele>
        <time>2014-06-05T10:03:06Z</time>
      </trkpt>
      <trkpt lat="48.64716" lon="5.92247">
        <ele>217</ele>
        <time>2014-06-05T10:03:11Z</time>
      </trkpt>
      <trkpt lat="48.64716" lon="5.92208">
        <ele>217</ele>
        <time>2014-06-05T10:03:16Z</time>
      </trkpt>
      <trkpt lat="48.64714" lon="5.9217">
        <ele>217</ele>
        <time>2014-06-05T10:03:21Z</time>
      </trkpt>
      <trkpt lat="48.64708" lon="5.92136">
        <ele>216</ele>
        <time>2014-06-05T10:03:26Z</time>
      </trkpt>
      <trkpt lat="48.64703" lon="5.92102">
        <ele>216</ele>
        <time>2014-06-05T10:03:31Z</time>
      </trkpt>
      <trkpt lat="48.64701" lon="5.92072">
        <ele>216</ele>
        <time>2014-06-05T10:03:36Z</time>
      </trkpt>
      <trkpt lat="48.64701" lon="5.92039">
        <ele>217</ele>
        <time>2014-06-05T10:03:41Z</time>
      </trkpt>
      <trkpt lat="48.647" lon="5.92003">
        <ele>220</ele>
        <time>2014-06-05T10:03:46Z</time>
      </trkpt>
      <trkpt lat="48.647" lon="5.91964">
        <ele>220</ele>
        <time>2014-06-05T10:03:51Z</time>
      </trkpt>
      <trkpt lat="48.64699" lon="5.91924">
        <ele>222</ele>
        <time>2014-06-05T10:03:56Z</time>
      </trkpt>
      <trkpt lat="48.64697" lon="5.91881">
        <ele>220</ele>
        <time>2014-06-05T10:04:01Z</time>
      </trkpt>
      <trkpt lat="48.64697" lon="5.91838">
        <ele>215</ele>
        <time>2014-06-05T10:04:06Z</time>
      </trkpt>
      <trkpt lat="48.64696" lon="5.91799">
        <ele>215</ele>
        <time>2014-06-05T10:04:11Z</time>
      </trkpt>
      <trkpt lat="48.647" lon="5.91753">
        <ele>216</ele>
        <time>2014-06-05T10:04:16Z</time>
      </trkpt>
      <trkpt lat="48.6471" lon="5.91708">
        <ele>217</ele>
        <time>2014-06-05T10:04:21Z</time>
      </trkpt>
      <trkpt lat="48.6472" lon="5.91671">
        <ele>218</ele>
        <time>2014-06-05T10:04:26Z</time>
      </trkpt>
      <trkpt lat="48.64732" lon="5.91631">
        <ele>218</ele>
        <time>2014-06-05T10:04:31Z</time>
      </trkpt>
      <trkpt lat="48.64744" lon="5.91592">
        <ele>216</ele>
        <time>2014-06-05T10:04:36Z</time>
      </trkpt>
      <trkpt lat="48.64755" lon="5.91554">
        <ele>213</ele>
        <time>2014-06-05T10:04:41Z</time>
      </trkpt>
      <trkpt lat="48.64766" lon="5.91512">
        <ele>212</ele>
        <time>2014-06-05T10:04:46Z</time>
      </trkpt>
      <trkpt lat="48.64777" lon="5.91469">
        <ele>210</ele>
        <time>2014-06-05T10:04:51Z</time>
      </trkpt>
      <trkpt lat="48.64788" lon="5.91429">
        <ele>209</ele>
        <time>2014-06-05T10:04:56Z</time>
      </trkpt>
      <trkpt lat="48.64803" lon="5.9138">
        <ele>209</ele>
        <time>2014-06-05T10:05:01Z</time>
      </trkpt>
      <trkpt lat="48.64819" lon="5.91319">
        <ele>208</ele>
        <time>2014-06-05T10:05:06Z</time>
      </trkpt>
      <trkpt lat="48.64839" lon="5.91253">
        <ele>205</ele>
        <time>2014-06-05T10:05:11Z</time>
      </trkpt>
      <trkpt lat="48.64857" lon="5.91186">
        <ele>200</ele>
        <time>2014-06-05T10:05:16Z</time>
      </trkpt>
      <trkpt lat="48.64875" lon="5.91123">
        <ele>196</ele>
        <time>2014-06-05T10:05:21Z</time>
      </trkpt>
      <trkpt lat="48.64893" lon="5.91066">
        <ele>192</ele>
        <time>2014-06-05T10:05:26Z</time>
      </trkpt>
      <trkpt lat="48.64914" lon="5.91019">
        <ele>190</ele>
        <time>2014-06-05T10:05:31Z</time>
      </trkpt>
      <trkpt lat="48.64937" lon="5.90976">
        <ele>190</ele>
        <time>2014-06-05T10:05:36Z</time>
      </trkpt>
      <trkpt lat="48.64954" lon="5.9093">
        <ele>190</ele>
        <time>2014-06-05T10:05:41Z</time>
      </trkpt>
      <trkpt lat="48.6496" lon="5.90883">
        <ele>190</ele>
        <time>2014-06-05T10:05:46Z</time>
      </trkpt>
      <trkpt lat="48.64954" lon="5.90845">
        <ele>190</ele>
        <time>2014-06-05T10:05:51Z</time>
      </trkpt>
      <trkpt lat="48.64942" lon="5.90809">
        <ele>190</ele>
        <time>2014-06-05T10:05:56Z</time>
      </trkpt>
      <trkpt lat="48.64932" lon="5.90773">
        <ele>190</ele>
        <time>2014-06-05T10:06:01Z</time>
      </trkpt>
      <trkpt lat="48.64937" lon="5.90734">
        <ele>191</ele>
        <time>2014-06-05T10:06:06Z</time>
      </trkpt>
      <trkpt lat="48.64948" lon="5.90695">
        <ele>192</ele>
        <time>2014-06-05T10:06:11Z</time>
      </trkpt>
      <trkpt lat="48.64961" lon="5.90655">
        <ele>193</ele>
        <time>2014-06-05T10:06:16Z</time>
      </trkpt>
      <trkpt lat="48.6498" lon="5.90621">
        <ele>194</ele>
        <time>2014-06-05T10:06:21Z</time>
      </trkpt>
      <trkpt lat="48.65007" lon="5.906">
        <ele>194</ele>
        <time>2014-06-05T10:06:26Z</time>
      </trkpt>
      <trkpt lat="48.65033" lon="5.90583">
        <ele>194</ele>
        <time>2014-06-05T10:06:31Z</time>
      </trkpt>
      <trkpt lat="48.65057" lon="5.90566">
        <ele>194</ele>
        <time>2014-06-05T10:06:36Z</time>
      </trkpt>
      <trkpt lat="48.65079" lon="5.90551">
        <ele>194</ele>
        <time>2014-06-05T10:06:41Z</time>
      </trkpt>
      <trkpt lat="48.65098" lon="5.90554">
        <ele>194</ele>
        <time>2014-06-05T10:06:46Z</time>
      </trkpt>
      <trkpt lat="48.65108" lon="5.90582">
        <ele>194</ele>
        <time>2014-06-05T10:06:51Z</time>
      </trkpt>
      <trkpt lat="48.65116" lon="5.90612">
        <ele>194</ele>
        <time>2014-06-05T10:06:56Z</time>
      </trkpt>
      <trkpt lat="48.65124" lon="5.9064">
        <ele>194</ele>
        <time>2014-06-05T10:07:01Z</time>
      </trkpt>
      <trkpt lat="48.65136" lon="5.90653">
        <ele>194</ele>
        <time>2014-06-05T10:07:06Z</time>
      </trkpt>
      <trkpt lat="48.65154" lon="5.90638">
        <ele>194</ele>
        <time>2014-06-05T10:07:11Z</time>
      </trkpt>
      <trkpt lat="48.65172" lon="5.90618">
        <ele>194</ele>
        <time>2014-06-05T10:07:16Z</time>
      </trkpt>
      <trkpt lat="48.65189" lon="5.90599">
        <ele>195</ele>
        <time>2014-06-05T10:07:21Z</time>
      </trkpt>
      <trkpt lat="48.65205" lon="5.90584">
        <ele>196</ele>
        <time>2014-06-05T10:07:26Z</time>
      </trkpt>
      <trkpt lat="48.65219" lon="5.90571">
        <ele>196</ele>
        <time>2014-06-05T10:07:31Z</time>
      </trkpt>
      <trkpt lat="48.65238" lon="5.90565">
        <ele>196</ele>
        <time>2014-06-05T10:07:36Z</time>
      </trkpt>
      <trkpt lat="48.65255" lon="5.90551">
        <ele>199</ele>
        <time>2014-06-05T10:07:41Z</time>
      </trkpt>
      <trkpt lat="48.65272" lon="5.9053">
        <ele>199</ele>
        <time>2014-06-05T10:07:46Z</time>
      </trkpt>
      <trkpt lat="48.65291" lon="5.90512">
        <ele>199</ele>
        <time>2014-06-05T10:07:51Z</time>
      </trkpt>
      <trkpt lat="48.6531" lon="5.90493">
        <ele>199</ele>
        <time>2014-06-05T10:07:56Z</time>
      </trkpt>
      <trkpt lat="48.6533" lon="5.90489">
        <ele>199</ele>
        <time>2014-06-05T10:08:01Z</time>
      </trkpt>
      <trkpt lat="48.6535" lon="5.90483">
        <ele>199</ele>
        <time>2014-06-05T10:08:06Z</time>
      </trkpt>
      <trkpt lat="48.6537" lon="5.90451">
        <ele>199</ele>
        <time>2014-06-05T10:08:11Z</time>
      </trkpt>
      <trkpt lat="48.65393" lon="5.90415">
        <ele>199</ele>
        <time>2014-06-05T10:08:16Z</time>
      </trkpt>
      <trkpt lat="48.65418" lon="5.90373">
        <ele>198</ele>
        <time>2014-06-05T10:08:21Z</time>
      </trkpt>
      <trkpt lat="48.65444" lon="5.90325">
        <ele>197</ele>
        <time>2014-06-05T10:08:26Z</time>
      </trkpt>
      <trkpt lat="48.65477" lon="5.90291">
        <ele>194</ele>
        <time>2014-06-05T10:08:31Z</time>
      </trkpt>
      <trkpt lat="48.65509" lon="5.90265">
        <ele>193</ele>
        <time>2014-06-05T10:08:36Z</time>
      </trkpt>
      <trkpt lat="48.65538" lon="5.90244">
        <ele>192</ele>
        <time>2014-06-05T10:08:41Z</time>
      </trkpt>
      <trkpt lat="48.65566" lon="5.90227">
        <ele>192</ele>
        <time>2014-06-05T10:08:46Z</time>
      </trkpt>
      <trkpt lat="48.65594" lon="5.90215">
        <ele>192</ele>
        <time>2014-06-05T10:08:51Z</time>
      </trkpt>
      <trkpt lat="48.65624" lon="5.9021">
        <ele>192</ele>
        <time>2014-06-05T10:08:56Z</time>
      </trkpt>
      <trkpt lat="48.65655" lon="5.90215">
        <ele>192</ele>
        <time>2014-06-05T10:09:01Z</time>
      </trkpt>
      <trkpt lat="48.65685" lon="5.90214">
        <ele>192</ele>
        <time>2014-06-05T10:09:06Z</time>
      </trkpt>
      <trkpt lat="48.65718" lon="5.90215">
        <ele>192</ele>
        <time>2014-06-05T10:09:11Z</time>
      </trkpt>
      <trkpt lat="48.65749" lon="5.90214">
        <ele>192</ele>
        <time>2014-06-05T10:09:16Z</time>
      </trkpt>
      <trkpt lat="48.65781" lon="5.90215">
        <ele>192</ele>
        <time>2014-06-05T10:09:21Z</time>
      </trkpt>
      <trkpt lat="48.6581" lon="5.9022">
        <ele>192</ele>
        <time>2014-06-05T10:09:26Z</time>
      </trkpt>
      <trkpt lat="48.65836" lon="5.90235">
        <ele>192</ele>
        <time>2014-06-05T10:09:31Z</time>
      </trkpt>
      <trkpt lat="48.65861" lon="5.90244">
        <ele>192</ele>
        <time>2014-06-05T10:09:36Z</time>
      </trkpt>
      <trkpt lat="48.65882" lon="5.90244">
        <ele>194</ele>
        <time>2014-06-05T10:09:41Z</time>
      </trkpt>
      <trkpt lat="48.65902" lon="5.90246">
        <ele>195</ele>
        <time>2014-06-05T10:09:46Z</time>
      </trkpt>
      <trkpt lat="48.65927" lon="5.90247">
        <ele>195</ele>
        <time>2014-06-05T10:09:51Z</time>
      </trkpt>
      <trkpt lat="48.65958" lon="5.90243">
        <ele>195</ele>
        <time>2014-06-05T10:09:56Z</time>
      </trkpt>
      <trkpt lat="48.65989" lon="5.90241">
        <ele>195</ele>
        <time>2014-06-05T10:10:01Z</time>
      </trkpt>
      <trkpt lat="48.66021" lon="5.90238">
        <ele>195</ele>
        <time>2014-06-05T10:10:06Z</time>
      </trkpt>
      <trkpt lat="48.66055" lon="5.90234">
        <ele>195</ele>
        <time>2014-06-05T10:10:11Z</time>
      </trkpt>
      <trkpt lat="48.66088" lon="5.9023">
        <ele>195</ele>
        <time>2014-06-05T10:10:16Z</time>
      </trkpt>
      <trkpt lat="48.66122" lon="5.90228">
        <ele>195</ele>
        <time>2014-06-05T10:10:21Z</time>
      </trkpt>
      <trkpt lat="48.66153" lon="5.90223">
        <ele>196</ele>
        <time>2014-06-05T10:10:26Z</time>
      </trkpt>
      <trkpt lat="48.66183" lon="5.90219">
        <ele>196</ele>
        <time>2014-06-05T10:10:31Z</time>
      </trkpt>
      <trkpt lat="48.66214" lon="5.90213">
        <ele>196</ele>
        <time>2014-06-05T10:10:36Z</time>
      </trkpt>
      <trkpt lat="48.66246" lon="5.90207">
        <ele>196</ele>
        <time>2014-06-05T10:10:41Z</time>
      </trkpt>
      <trkpt lat="48.66275" lon="5.90198">
        <ele>196</ele>
        <time>2014-06-05T10:10:46Z</time>
      </trkpt>
      <trkpt lat="48.66302" lon="5.90184">
        <ele>196</ele>
        <time>2014-06-05T10:10:51Z</time>
      </trkpt>
      <trkpt lat="48.66331" lon="5.90167">
        <ele>196</ele>
        <time>2014-06-05T10:10:56Z</time>
      </trkpt>
      <trkpt lat="48.66361" lon="5.90152">
        <ele>196</ele>
        <time>2014-06-05T10:11:01Z</time>
      </trkpt>
      <trkpt lat="48.6639" lon="5.90138">
        <ele>196</ele>
        <time>2014-06-05T10:11:06Z</time>
      </trkpt>
      <trkpt lat="48.6642" lon="5.90122">
        <ele>196</ele>
        <time>2014-06-05T10:11:11Z</time>
      </trkpt>
      <trkpt lat="48.66447" lon="5.90107">
        <ele>196</ele>
        <time>2014-06-05T10:11:16Z</time>
      </trkpt>
      <trkpt lat="48.66473" lon="5.90095">
        <ele>196</ele>
        <time>2014-06-05T10:11:21Z</time>
      </trkpt>
      <trkpt lat="48.665" lon="5.90083">
        <ele>196</ele>
        <time>2014-06-05T10:11:26Z</time>
      </trkpt>
      <trkpt lat="48.66528" lon="5.90071">
        <ele>196</ele>
        <time>2014-06-05T10:11:31Z</time>
      </trkpt>
      <trkpt lat="48.66555" lon="5.90063">
        <ele>196</ele>
        <time>2014-06-05T10:11:36Z</time>
      </trkpt>
      <trkpt lat="48.66582" lon="5.90056">
        <ele>196</ele>
        <time>2014-06-05T10:11:41Z</time>
      </trkpt>
      <trkpt lat="48.6661" lon="5.9005">
        <ele>195</ele>
        <time>2014-06-05T10:11:46Z</time>
      </trkpt>
      <trkpt lat="48.66638" lon="5.90046">
        <ele>195</ele>
        <time>2014-06-05T10:11:51Z</time>
      </trkpt>
      <trkpt lat="48.66665" lon="5.90043">
        <ele>195</ele>
        <time>2014-06-05T10:11:56Z</time>
      </trkpt>
      <trkpt lat="48.66695" lon="5.90043">
        <ele>195</ele>
        <time>2014-06-05T10:12:01Z</time>
      </trkpt>
      <trkpt lat="48.66724" lon="5.90043">
        <ele>195</ele>
        <time>2014-06-05T10:12:06Z</time>
      </trkpt>
      <trkpt lat="48.66755" lon="5.90043">
        <ele>195</ele>
        <time>2014-06-05T10:12:11Z</time>
      </trkpt>
      <trkpt lat="48.66787" lon="5.90043">
        <ele>195</ele>
        <time>2014-06-05T10:12:16Z</time>
      </trkpt>
      <trkpt lat="48.66817" lon="5.90044">
        <ele>195</ele>
        <time>2014-06-05T10:12:21Z</time>
      </trkpt>
      <trkpt lat="48.66847" lon="5.90054">
        <ele>195</ele>
        <time>2014-06-05T10:12:26Z</time>
      </trkpt>
      <trkpt lat="48.66872" lon="5.90078">
        <ele>195</ele>
        <time>2014-06-05T10:12:31Z</time>
      </trkpt>
      <trkpt lat="48.66894" lon="5.90103">
        <ele>195</ele>
        <time>2014-06-05T10:12:36Z</time>
      </trkpt>
      <trkpt lat="48.66917" lon="5.90128">
        <ele>195</ele>
        <time>2014-06-05T10:12:41Z</time>
      </trkpt>
      <trkpt lat="48.66944" lon="5.90145">
        <ele>195</ele>
        <time>2014-06-05T10:12:46Z</time>
      </trkpt>
      <trkpt lat="48.66975" lon="5.9015">
        <ele>195</ele>
        <time>2014-06-05T10:12:51Z</time>
      </trkpt>
      <trkpt lat="48.67002" lon="5.90156">
        <ele>195</ele>
        <time>2014-06-05T10:12:56Z</time>
      </trkpt>
      <trkpt lat="48.67024" lon="5.90157">
        <ele>195</ele>
        <time>2014-06-05T10:13:01Z</time>
      </trkpt>
      <trkpt lat="48.6704" lon="5.90174">
        <ele>195</ele>
        <time>2014-06-05T10:13:06Z</time>
      </trkpt>
      <trkpt lat="48.67038" lon="5.90211">
        <ele>195</ele>
        <time>2014-06-05T10:13:11Z</time>
      </trkpt>
      <trkpt lat="48.67037" lon="5.90247">
        <ele>195</ele>
        <time>2014-06-05T10:13:16Z</time>
      </trkpt>
      <trkpt lat="48.67037" lon="5.90278">
        <ele>195</ele>
        <time>2014-06-05T10:13:21Z</time>
      </trkpt>
      <trkpt lat="48.67037" lon="5.90311">
        <ele>195</ele>
        <time>2014-06-05T10:13:26Z</time>
      </trkpt>
      <trkpt lat="48.67036" lon="5.90342">
        <ele>192</ele>
        <time>2014-06-05T10:13:31Z</time>
      </trkpt>
      <trkpt lat="48.67034" lon="5.90373">
        <ele>189</ele>
        <time>2014-06-05T10:13:36Z</time>
      </trkpt>
      <trkpt lat="48.67029" lon="5.90404">
        <ele>189</ele>
        <time>2014-06-05T10:13:41Z</time>
      </trkpt>
      <trkpt lat="48.67023" lon="5.90432">
        <ele>189</ele>
        <time>2014-06-05T10:13:46Z</time>
      </trkpt>
      <trkpt lat="48.67018" lon="5.90459">
        <ele>189</ele>
        <time>2014-06-05T10:13:51Z</time>
      </trkpt>
      <trkpt lat="48.67011" lon="5.90485">
        <ele>189</ele>
        <time>2014-06-05T10:13:56Z</time>
      </trkpt>
      <trkpt lat="48.67001" lon="5.90511">
        <ele>189</ele>
        <time>2014-06-05T10:14:01Z</time>
      </trkpt>
      <trkpt lat="48.6699" lon="5.90538">
        <ele>189</ele>
        <time>2014-06-05T10:14:06Z</time>
      </trkpt>
      <trkpt lat="48.66981" lon="5.90558">
        <ele>189</ele>
        <time>2014-06-05T10:14:11Z</time>
      </trkpt>
      <trkpt lat="48.66977" lon="5.90576">
        <ele>189</ele>
        <time>2014-06-05T10:14:16Z</time>
      </trkpt>
      <trkpt lat="48.66991" lon="5.90595">
        <ele>189</ele>
        <time>2014-06-05T10:14:21Z</time>
      </trkpt>
      <trkpt lat="48.67012" lon="5.90615">
        <ele>189</ele>
        <time>2014-06-05T10:14:26Z</time>
      </trkpt>
      <trkpt lat="48.67033" lon="5.90634">
        <ele>189</ele>
        <time>2014-06-05T10:14:31Z</time>
      </trkpt>
      <trkpt lat="48.67049" lon="5.90654">
        <ele>189</ele>
        <time>2014-06-05T10:14:36Z</time>
      </trkpt>
      <trkpt lat="48.6706" lon="5.90651">
        <ele>189</ele>
        <time>2014-06-05T10:14:41Z</time>
      </trkpt>
      <trkpt lat="48.67065" lon="5.90632">
        <ele>189</ele>
        <time>2014-06-05T10:14:46Z</time>
      </trkpt>
      <trkpt lat="48.67069" lon="5.90611">
        <ele>189</ele>
        <time>2014-06-05T10:14:51Z</time>
      </trkpt>
      <trkpt lat="48.67081" lon="5.90603">
        <ele>189</ele>
        <time>2014-06-05T10:14:56Z</time>
      </trkpt>
      <trkpt lat="48.671" lon="5.90617">
        <ele>189</ele>
        <time>2014-06-05T10:15:01Z</time>
      </trkpt>
      <trkpt lat="48.67123" lon="5.90633">
        <ele>189</ele>
        <time>2014-06-05T10:15:06Z</time>
      </trkpt>
      <trkpt lat="48.67144" lon="5.90642">
        <ele>189</ele>
        <time>2014-06-05T10:15:11Z</time>
      </trkpt>
      <trkpt lat="48.67166" lon="5.9064">
        <ele>189</ele>
        <time>2014-06-05T10:15:16Z</time>
      </trkpt>
      <trkpt lat="48.67178" lon="5.9062">
        <ele>189</ele>
        <time>2014-06-05T10:15:21Z</time>
      </trkpt>
      <trkpt lat="48.67174" lon="5.90602">
        <ele>189</ele>
        <time>2014-06-05T10:15:26Z</time>
      </trkpt>
      <trkpt lat="48.67158" lon="5.90599">
        <ele>189</ele>
        <time>2014-06-05T10:15:31Z</time>
      </trkpt>
      <trkpt lat="48.67139" lon="5.90602">
        <ele>189</ele>
        <time>2014-06-05T10:15:36Z</time>
      </trkpt>
      <trkpt lat="48.67129" lon="5.90593">
        <ele>190</ele>
        <time>2014-06-05T10:15:41Z</time>
      </trkpt>
      <trkpt lat="48.67127" lon="5.90563">
        <ele>192</ele>
        <time>2014-06-05T10:15:46Z</time>
      </trkpt>
      <trkpt lat="48.67127" lon="5.9053">
        <ele>192</ele>
        <time>2014-06-05T10:15:51Z</time>
      </trkpt>
      <trkpt lat="48.67128" lon="5.90496">
        <ele>192</ele>
        <time>2014-06-05T10:15:56Z</time>
      </trkpt>
      <trkpt lat="48.67129" lon="5.90461">
        <ele>192</ele>
        <time>2014-06-05T10:16:01Z</time>
      </trkpt>
      <trkpt lat="48.67131" lon="5.90429">
        <ele>192</ele>
        <time>2014-06-05T10:16:06Z</time>
      </trkpt>
      <trkpt lat="48.67132" lon="5.90395">
        <ele>192</ele>
        <time>2014-06-05T10:16:11Z</time>
      </trkpt>
      <trkpt lat="48.67133" lon="5.90362">
        <ele>192</ele>
        <time>2014-06-05T10:16:16Z</time>
      </trkpt>
      <trkpt lat="48.67133" lon="5.90328">
        <ele>190</ele>
        <time>2014-06-05T10:16:21Z</time>
      </trkpt>
      <trkpt lat="48.67135" lon="5.90295">
        <ele>189</ele>
        <time>2014-06-05T10:16:26Z</time>
      </trkpt>
      <trkpt lat="48.67138" lon="5.90262">
        <ele>189</ele>
        <time>2014-06-05T10:16:31Z</time>
      </trkpt>
      <trkpt lat="48.67139" lon="5.90232">
        <ele>189</ele>
        <time>2014-06-05T10:16:36Z</time>
      </trkpt>
      <trkpt lat="48.6714" lon="5.90203">
        <ele>189</ele>
        <time>2014-06-05T10:16:41Z</time>
      </trkpt>
      <trkpt lat="48.67141" lon="5.90176">
        <ele>189</ele>
        <time>2014-06-05T10:16:46Z</time>
      </trkpt>
      <trkpt lat="48.67142" lon="5.90147">
        <ele>189</ele>
        <time>2014-06-05T10:16:51Z</time>
      </trkpt>
      <trkpt lat="48.67143" lon="5.90118">
        <ele>189</ele>
        <time>2014-06-05T10:16:56Z</time>
      </trkpt>
      <trkpt lat="48.67144" lon="5.9009">
        <ele>189</ele>
        <time>2014-06-05T10:17:01Z</time>
      </trkpt>
      <trkpt lat="48.67144" lon="5.90062">
        <ele>190</ele>
        <time>2014-06-05T10:17:06Z</time>
      </trkpt>
      <trkpt lat="48.67145" lon="5.90036">
        <ele>191</ele>
        <time>2014-06-05T10:17:11Z</time>
      </trkpt>
      <trkpt lat="48.67146" lon="5.90008">
        <ele>192</ele>
        <time>2014-06-05T10:17:16Z</time>
      </trkpt>
      <trkpt lat="48.67146" lon="5.89976">
        <ele>192</ele>
        <time>2014-06-05T10:17:21Z</time>
      </trkpt>
      <trkpt lat="48.67147" lon="5.89931">
        <ele>192</ele>
        <time>2014-06-05T10:17:26Z</time>
      </trkpt>
      <trkpt lat="48.67147" lon="5.8988">
        <ele>192</ele>
        <time>2014-06-05T10:17:31Z</time>
      </trkpt>
      <trkpt lat="48.67146" lon="5.89828">
        <ele>192</ele>
        <time>2014-06-05T10:17:36Z</time>
      </trkpt>
      <trkpt lat="48.67147" lon="5.89785">
        <ele>192</ele>
        <time>2014-06-05T10:17:41Z</time>
      </trkpt>
      <trkpt lat="48.67148" lon="5.8975">
        <ele>192</ele>
        <time>2014-06-05T10:17:46Z</time>
      </trkpt>
      <trkpt lat="48.67149" lon="5.89718">
        <ele>192</ele>
        <time>2014-06-05T10:17:51Z</time>
      </trkpt>
      <trkpt lat="48.6715" lon="5.89686">
        <ele>192</ele>
        <time>2014-06-05T10:17:56Z</time>
      </trkpt>
      <trkpt lat="48.67151" lon="5.89649">
        <ele>192</ele>
        <time>2014-06-05T10:18:01Z</time>
      </trkpt>
      <trkpt lat="48.67152" lon="5.89614">
        <ele>192</ele>
        <time>2014-06-05T10:18:06Z</time>
      </trkpt>
      <trkpt lat="48.67153" lon="5.89578">
        <ele>192</ele>
        <time>2014-06-05T10:18:11Z</time>
      </trkpt>
      <trkpt lat="48.67154" lon="5.89541">
        <ele>192</ele>
        <time>2014-06-05T10:18:16Z</time>
      </trkpt>
      <trkpt lat="48.67155" lon="5.89508">
        <ele>192</ele>
        <time>2014-06-05T10:18:21Z</time>
      </trkpt>
      <trkpt lat="48.67156" lon="5.89477">
        <ele>192</ele>
        <time>2014-06-05T10:18:26Z</time>
      </trkpt>
      <trkpt lat="48.67157" lon="5.89458">
        <ele>192</ele>
        <time>2014-06-05T10:18:31Z</time>
      </trkpt>
      <trkpt lat="48.67154" lon="5.89454">
        <ele>193</ele>
        <time>2014-06-05T10:18:38Z</time>
      </trkpt>
      <trkpt lat="48.67154" lon="5.89437">
        <ele>196</ele>
        <time>2014-06-05T10:18:45Z</time>
      </trkpt>
      <trkpt lat="48.67155" lon="5.89404">
        <ele>196</ele>
        <time>2014-06-05T10:18:50Z</time>
      </trkpt>
      <trkpt lat="48.67153" lon="5.89365">
        <ele>196</ele>
        <time>2014-06-05T10:18:55Z</time>
      </trkpt>
      <trkpt lat="48.6715" lon="5.89328">
        <ele>196</ele>
        <time>2014-06-05T10:19:00Z</time>
      </trkpt>
      <trkpt lat="48.67148" lon="5.89287">
        <ele>195</ele>
        <time>2014-06-05T10:19:05Z</time>
      </trkpt>
      <trkpt lat="48.67146" lon="5.89246">
        <ele>195</ele>
        <time>2014-06-05T10:19:10Z</time>
      </trkpt>
      <trkpt lat="48.67143" lon="5.89203">
        <ele>195</ele>
        <time>2014-06-05T10:19:15Z</time>
      </trkpt>
      <trkpt lat="48.67139" lon="5.89167">
        <ele>194</ele>
        <time>2014-06-05T10:19:20Z</time>
      </trkpt>
      <trkpt lat="48.67139" lon="5.89137">
        <ele>193</ele>
        <time>2014-06-05T10:19:25Z</time>
      </trkpt>
      <trkpt lat="48.67144" lon="5.89107">
        <ele>193</ele>
        <time>2014-06-05T10:19:30Z</time>
      </trkpt>
      <trkpt lat="48.67149" lon="5.89076">
        <ele>191</ele>
        <time>2014-06-05T10:19:35Z</time>
      </trkpt>
      <trkpt lat="48.67156" lon="5.89045">
        <ele>189</ele>
        <time>2014-06-05T10:19:40Z</time>
      </trkpt>
      <trkpt lat="48.67165" lon="5.8903">
        <ele>189</ele>
        <time>2014-06-05T10:19:45Z</time>
      </trkpt>
      <trkpt lat="48.67171" lon="5.89022">
        <ele>190</ele>
        <time>2014-06-05T10:19:50Z</time>
      </trkpt>
      <trkpt lat="48.67177" lon="5.89027">
        <ele>193</ele>
        <time>2014-06-05T10:19:55Z</time>
      </trkpt>
      <trkpt lat="48.67186" lon="5.89022">
        <ele>214</ele>
        <time>2014-06-05T10:20:07Z</time>
      </trkpt>
      <trkpt lat="48.67186" lon="5.89026">
        <ele>210</ele>
        <time>2014-06-05T10:20:12Z</time>
      </trkpt>
      <trkpt lat="48.67182" lon="5.89031">
        <ele>203</ele>
        <time>2014-06-05T10:20:19Z</time>
      </trkpt>
      <trkpt lat="48.67179" lon="5.89032">
        <ele>201</ele>
        <time>2014-06-05T10:20:25Z</time>
      </trkpt>
      <trkpt lat="48.67174" lon="5.89029">
        <ele>198</ele>
        <time>2014-06-05T10:20:31Z</time>
      </trkpt>
      <trkpt lat="48.67171" lon="5.89025">
        <ele>198</ele>
        <time>2014-06-05T10:20:38Z</time>
      </trkpt>
      <trkpt lat="48.67165" lon="5.89027">
        <ele>198</ele>
        <time>2014-06-05T10:20:44Z</time>
      </trkpt>
      <trkpt lat="48.6716" lon="5.8902">
        <ele>198</ele>
        <time>2014-06-05T10:20:49Z</time>
      </trkpt>
      <trkpt lat="48.67161" lon="5.89012">
        <ele>198</ele>
        <time>2014-06-05T10:20:55Z</time>
      </trkpt>
      <trkpt lat="48.67165" lon="5.89005">
        <ele>198</ele>
        <time>2014-06-05T10:21:06Z</time>
      </trkpt>
      <trkpt lat="48.67167" lon="5.88989">
        <ele>196</ele>
        <time>2014-06-05T10:21:11Z</time>
      </trkpt>
      <trkpt lat="48.67171" lon="5.88962">
        <ele>194</ele>
        <time>2014-06-05T10:21:17Z</time>
      </trkpt>
      <trkpt lat="48.67175" lon="5.88943">
        <ele>193</ele>
        <time>2014-06-05T10:21:22Z</time>
      </trkpt>
      <trkpt lat="48.6718" lon="5.88923">
        <ele>193</ele>
        <time>2014-06-05T10:21:27Z</time>
      </trkpt>
      <trkpt lat="48.67185" lon="5.88902">
        <ele>193</ele>
        <time>2014-06-05T10:21:32Z</time>
      </trkpt>
      <trkpt lat="48.67192" lon="5.88879">
        <ele>193</ele>
        <time>2014-06-05T10:21:37Z</time>
      </trkpt>
      <trkpt lat="48.67199" lon="5.88863">
        <ele>193</ele>
        <time>2014-06-05T10:21:42Z</time>
      </trkpt>
      <trkpt lat="48.67208" lon="5.88848">
        <ele>193</ele>
        <time>2014-06-05T10:21:47Z</time>
      </trkpt>
      <trkpt lat="48.67216" lon="5.88835">
        <ele>195</ele>
        <time>2014-06-05T10:21:52Z</time>
      </trkpt>
      <trkpt lat="48.67223" lon="5.88823">
        <ele>199</ele>
        <time>2014-06-05T10:21:57Z</time>
      </trkpt>
      <trkpt lat="48.6723" lon="5.88819">
        <ele>202</ele>
        <time>2014-06-05T10:22:03Z</time>
      </trkpt>
      <trkpt lat="48.67239" lon="5.88827">
        <ele>202</ele>
        <time>2014-06-05T10:22:08Z</time>
      </trkpt>
      <trkpt lat="48.6725" lon="5.88837">
        <ele>204</ele>
        <time>2014-06-05T10:22:13Z</time>
      </trkpt>
      <trkpt lat="48.67263" lon="5.8885">
        <ele>206</ele>
        <time>2014-06-05T10:22:18Z</time>
      </trkpt>
      <trkpt lat="48.67277" lon="5.88862">
        <ele>206</ele>
        <time>2014-06-05T10:22:23Z</time>
      </trkpt>
      <trkpt lat="48.6729" lon="5.88877">
        <ele>206</ele>
        <time>2014-06-05T10:22:28Z</time>
      </trkpt>
      <trkpt lat="48.67306" lon="5.88896">
        <ele>206</ele>
        <time>2014-06-05T10:22:33Z</time>
      </trkpt>
      <trkpt lat="48.67321" lon="5.88922">
        <ele>202</ele>
        <time>2014-06-05T10:22:38Z</time>
      </trkpt>
      <trkpt lat="48.67333" lon="5.88951">
        <ele>197</ele>
        <time>2014-06-05T10:22:43Z</time>
      </trkpt>
      <trkpt lat="48.6735" lon="5.88974">
        <ele>195</ele>
        <time>2014-06-05T10:22:48Z</time>
      </trkpt>
      <trkpt lat="48.6736" lon="5.88997">
        <ele>195</ele>
        <time>2014-06-05T10:22:53Z</time>
      </trkpt>
      <trkpt lat="48.67368" lon="5.89009">
        <ele>195</ele>
        <time>2014-06-05T10:22:58Z</time>
      </trkpt>
      <trkpt lat="48.67365" lon="5.89013">
        <ele>195</ele>
        <time>2014-06-05T10:23:03Z</time>
      </trkpt>
      <trkpt lat="48.67361" lon="5.89019">
        <ele>199</ele>
        <time>2014-06-05T10:23:13Z</time>
      </trkpt>
      <trkpt lat="48.67367" lon="5.89009">
        <ele>216</ele>
        <time>2014-06-05T10:23:22Z</time>
      </trkpt>
      <trkpt lat="48.67365" lon="5.89014">
        <ele>229</ele>
        <time>2014-06-05T10:23:29Z</time>
      </trkpt>
      <trkpt lat="48.67357" lon="5.89023">
        <ele>244</ele>
        <time>2014-06-05T10:23:38Z</time>
      </trkpt>
      <trkpt lat="48.67356" lon="5.89023">
        <ele>241</ele>
        <time>2014-06-05T10:23:43Z</time>
      </trkpt>
      <trkpt lat="48.67358" lon="5.89022">
        <ele>241</ele>
        <time>2014-06-05T10:23:49Z</time>
      </trkpt>
      <trkpt lat="48.67361" lon="5.89023">
        <ele>247</ele>
        <time>2014-06-05T10:23:58Z</time>
      </trkpt>
      <trkpt lat="48.67362" lon="5.89022">
        <ele>245</ele>
        <time>2014-06-05T10:24:05Z</time>
      </trkpt>
      <trkpt lat="48.67366" lon="5.89019">
        <ele>245</ele>
        <time>2014-06-05T10:24:12Z</time>
      </trkpt>
      <trkpt lat="48.67371" lon="5.89016">
        <ele>248</ele>
        <time>2014-06-05T10:24:17Z</time>
      </trkpt>
      <trkpt lat="48.67371" lon="5.89017">
        <ele>251</ele>
        <time>2014-06-05T10:24:23Z</time>
      </trkpt>
      <trkpt lat="48.67368" lon="5.89017">
        <ele>251</ele>
        <time>2014-06-05T10:24:29Z</time>
      </trkpt>
      <trkpt lat="48.67364" lon="5.89017">
        <ele>246</ele>
        <time>2014-06-05T10:24:34Z</time>
      </trkpt>
      <trkpt lat="48.67364" lon="5.89019">
        <ele>241</ele>
        <time>2014-06-05T10:24:43Z</time>
      </trkpt>
      <trkpt lat="48.67368" lon="5.89019">
        <ele>244</ele>
        <time>2014-06-05T10:24:48Z</time>
      </trkpt>
      <trkpt lat="48.67373" lon="5.89018">
        <ele>251</ele>
        <time>2014-06-05T10:24:55Z</time>
      </trkpt>
      <trkpt lat="48.67373" lon="5.89027">
        <ele>275</ele>
        <time>2014-06-05T10:25:06Z</time>
      </trkpt>
      <trkpt lat="48.67373" lon="5.8903">
        <ele>277</ele>
        <time>2014-06-05T10:25:12Z</time>
      </trkpt>
      <trkpt lat="48.67373" lon="5.89032">
        <ele>282</ele>
        <time>2014-06-05T10:25:17Z</time>
      </trkpt>
      <trkpt lat="48.67369" lon="5.89036">
        <ele>290</ele>
        <time>2014-06-05T10:25:22Z</time>
      </trkpt>
      <trkpt lat="48.67373" lon="5.89035">
        <ele>297</ele>
        <time>2014-06-05T10:25:28Z</time>
      </trkpt>
      <trkpt lat="48.67377" lon="5.89033">
        <ele>303</ele>
        <time>2014-06-05T10:25:34Z</time>
      </trkpt>
      <trkpt lat="48.67377" lon="5.89032">
        <ele>310</ele>
        <time>2014-06-05T10:25:44Z</time>
      </trkpt>
      <trkpt lat="48.67375" lon="5.89027">
        <ele>309</ele>
        <time>2014-06-05T10:25:52Z</time>
      </trkpt>
      <trkpt lat="48.67376" lon="5.89026">
        <ele>309</ele>
        <time>2014-06-05T10:25:57Z</time>
      </trkpt>
      <trkpt lat="48.67372" lon="5.89032">
        <ele>306</ele>
        <time>2014-06-05T10:26:04Z</time>
      </trkpt>
      <trkpt lat="48.67369" lon="5.89033">
        <ele>300</ele>
        <time>2014-06-05T10:26:09Z</time>
      </trkpt>
      <trkpt lat="48.67365" lon="5.89035">
        <ele>293</ele>
        <time>2014-06-05T10:26:16Z</time>
      </trkpt>
      <trkpt lat="48.67358" lon="5.89035">
        <ele>268</ele>
        <time>2014-06-05T10:26:21Z</time>
      </trkpt>
      <trkpt lat="48.67358" lon="5.89028">
        <ele>262</ele>
        <time>2014-06-05T10:26:27Z</time>
      </trkpt>
      <trkpt lat="48.67359" lon="5.89025">
        <ele>256</ele>
        <time>2014-06-05T10:26:33Z</time>
      </trkpt>
      <trkpt lat="48.67366" lon="5.89022">
        <ele>256</ele>
        <time>2014-06-05T10:26:40Z</time>
      </trkpt>
      <trkpt lat="48.67367" lon="5.8902">
        <ele>256</ele>
        <time>2014-06-05T10:26:45Z</time>
      </trkpt>
      <trkpt lat="48.67362" lon="5.89014">
        <ele>245</ele>
        <time>2014-06-05T10:26:50Z</time>
      </trkpt>
      <trkpt lat="48.67356" lon="5.89015">
        <ele>239</ele>
        <time>2014-06-05T10:26:56Z</time>
      </trkpt>
      <trkpt lat="48.67353" lon="5.89016">
        <ele>233</ele>
        <time>2014-06-05T10:27:02Z</time>
      </trkpt>
      <trkpt lat="48.6735" lon="5.89017">
        <ele>228</ele>
        <time>2014-06-05T10:27:07Z</time>
      </trkpt>
      <trkpt lat="48.67347" lon="5.89017">
        <ele>224</ele>
        <time>2014-06-05T10:27:14Z</time>
      </trkpt>
      <trkpt lat="48.67348" lon="5.89011">
        <ele>217</ele>
        <time>2014-06-05T10:27:21Z</time>
      </trkpt>
      <trkpt lat="48.67351" lon="5.89008">
        <ele>217</ele>
        <time>2014-06-05T10:27:27Z</time>
      </trkpt>
      <trkpt lat="48.67353" lon="5.89002">
        <ele>210</ele>
        <time>2014-06-05T10:27:37Z</time>
      </trkpt>
      <trkpt lat="48.67347" lon="5.89012">
        <ele>211</ele>
        <time>2014-06-05T10:27:50Z</time>
      </trkpt>
      <trkpt lat="48.6735" lon="5.89008">
        <ele>210</ele>
        <time>2014-06-05T10:27:55Z</time>
      </trkpt>
      <trkpt lat="48.67351" lon="5.89006">
        <ele>207</ele>
        <time>2014-06-05T10:28:00Z</time>
      </trkpt>
      <trkpt lat="48.67354" lon="5.89009">
        <ele>208</ele>
        <time>2014-06-05T10:28:07Z</time>
      </trkpt>
      <trkpt lat="48.67355" lon="5.89009">
        <ele>213</ele>
        <time>2014-06-05T10:28:12Z</time>
      </trkpt>
      <trkpt lat="48.67355" lon="5.89012">
        <ele>218</ele>
        <time>2014-06-05T10:28:21Z</time>
      </trkpt>
      <trkpt lat="48.6735" lon="5.89015">
        <ele>218</ele>
        <time>2014-06-05T10:28:27Z</time>
      </trkpt>
      <trkpt lat="48.67346" lon="5.89018">
        <ele>218</ele>
        <time>2014-06-05T10:28:34Z</time>
      </trkpt>
      <trkpt lat="48.67344" lon="5.8902">
        <ele>217</ele>
        <time>2014-06-05T10:28:40Z</time>
      </trkpt>
      <trkpt lat="48.67353" lon="5.89021">
        <ele>220</ele>
        <time>2014-06-05T10:28:59Z</time>
      </trkpt>
      <trkpt lat="48.67358" lon="5.89022">
        <ele>226</ele>
        <time>2014-06-05T10:29:05Z</time>
      </trkpt>
      <trkpt lat="48.67364" lon="5.89016">
        <ele>232</ele>
        <time>2014-06-05T10:29:11Z</time>
      </trkpt>
      <trkpt lat="48.67369" lon="5.89013">
        <ele>235</ele>
        <time>2014-06-05T10:29:19Z</time>
      </trkpt>
      <trkpt lat="48.67376" lon="5.89013">
        <ele>241</ele>
        <time>2014-06-05T10:29:25Z</time>
      </trkpt>
      <trkpt lat="48.67378" lon="5.89013">
        <ele>243</ele>
        <time>2014-06-05T10:29:31Z</time>
      </trkpt>
      <trkpt lat="48.67384" lon="5.8901">
        <ele>248</ele>
        <time>2014-06-05T10:29:36Z</time>
      </trkpt>
      <trkpt lat="48.6739" lon="5.89008">
        <ele>253</ele>
        <time>2014-06-05T10:29:41Z</time>
      </trkpt>
      <trkpt lat="48.67391" lon="5.89009">
        <ele>259</ele>
        <time>2014-06-05T10:29:48Z</time>
      </trkpt>
      <trkpt lat="48.67394" lon="5.89013">
        <ele>274</ele>
        <time>2014-06-05T10:29:55Z</time>
      </trkpt>
      <trkpt lat="48.67395" lon="5.89013">
        <ele>273</ele>
        <time>2014-06-05T10:30:01Z</time>
      </trkpt>
      <trkpt lat="48.67396" lon="5.89012">
        <ele>274</ele>
        <time>2014-06-05T10:30:16Z</time>
      </trkpt>
      <trkpt lat="48.67392" lon="5.89012">
        <ele>277</ele>
        <time>2014-06-05T10:30:21Z</time>
      </trkpt>
      <trkpt lat="48.67387" lon="5.89013">
        <ele>272</ele>
        <time>2014-06-05T10:30:27Z</time>
      </trkpt>
      <trkpt lat="48.67382" lon="5.89013">
        <ele>266</ele>
        <time>2014-06-05T10:30:33Z</time>
      </trkpt>
      <trkpt lat="48.67376" lon="5.89014">
        <ele>260</ele>
        <time>2014-06-05T10:30:39Z</time>
      </trkpt>
      <trkpt lat="48.67372" lon="5.89014">
        <ele>255</ele>
        <time>2014-06-05T10:30:44Z</time>
      </trkpt>
      <trkpt lat="48.67366" lon="5.89014">
        <ele>247</ele>
        <time>2014-06-05T10:30:49Z</time>
      </trkpt>
      <trkpt lat="48.67365" lon="5.89016">
        <ele>237</ele>
        <time>2014-06-05T10:30:54Z</time>
      </trkpt>
      <trkpt lat="48.67368" lon="5.89012">
        <ele>239</ele>
        <time>2014-06-05T10:31:03Z</time>
      </trkpt>
      <trkpt lat="48.67361" lon="5.89012">
        <ele>236</ele>
        <time>2014-06-05T10:31:09Z</time>
      </trkpt>
      <trkpt lat="48.67365" lon="5.89012">
        <ele>229</ele>
        <time>2014-06-05T10:31:16Z</time>
      </trkpt>
      <trkpt lat="48.6737" lon="5.8901">
        <ele>235</ele>
        <time>2014-06-05T10:31:22Z</time>
      </trkpt>
      <trkpt lat="48.67376" lon="5.89008">
        <ele>240</ele>
        <time>2014-06-05T10:31:27Z</time>
      </trkpt>
      <trkpt lat="48.6738" lon="5.89007">
        <ele>245</ele>
        <time>2014-06-05T10:31:32Z</time>
      </trkpt>
      <trkpt lat="48.6738" lon="5.89">
        <ele>249</ele>
        <time>2014-06-05T10:31:38Z</time>
      </trkpt>
      <trkpt lat="48.67381" lon="5.89002">
        <ele>247</ele>
        <time>2014-06-05T10:31:44Z</time>
      </trkpt>
      <trkpt lat="48.67384" lon="5.89003">
        <ele>247</ele>
        <time>2014-06-05T10:31:49Z</time>
      </trkpt>
      <trkpt lat="48.67389" lon="5.89004">
        <ele>250</ele>
        <time>2014-06-05T10:31:55Z</time>
      </trkpt>
      <trkpt lat="48.67387" lon="5.89002">
        <ele>252</ele>
        <time>2014-06-05T10:32:00Z</time>
      </trkpt>
      <trkpt lat="48.67382" lon="5.89001">
        <ele>248</ele>
        <time>2014-06-05T10:32:07Z</time>
      </trkpt>
      <trkpt lat="48.67379" lon="5.89001">
        <ele>243</ele>
        <time>2014-06-05T10:32:14Z</time>
      </trkpt>
      <trkpt lat="48.67371" lon="5.89004">
        <ele>237</ele>
        <time>2014-06-05T10:32:23Z</time>
      </trkpt>
      <trkpt lat="48.67368" lon="5.89005">
        <ele>231</ele>
        <time>2014-06-05T10:32:31Z</time>
      </trkpt>
      <trkpt lat="48.67371" lon="5.88998">
        <ele>231</ele>
        <time>2014-06-05T10:32:37Z</time>
      </trkpt>
      <trkpt lat="48.67367" lon="5.89005">
        <ele>229</ele>
        <time>2014-06-05T10:32:46Z</time>
      </trkpt>
      <trkpt lat="48.67363" lon="5.89009">
        <ele>230</ele>
        <time>2014-06-05T10:32:51Z</time>
      </trkpt>
      <trkpt lat="48.67358" lon="5.89011">
        <ele>230</ele>
        <time>2014-06-05T10:32:56Z</time>
      </trkpt>
      <trkpt lat="48.67353" lon="5.89014">
        <ele>227</ele>
        <time>2014-06-05T10:33:03Z</time>
      </trkpt>
      <trkpt lat="48.67348" lon="5.89018">
        <ele>218</ele>
        <time>2014-06-05T10:33:11Z</time>
      </trkpt>
      <trkpt lat="48.67351" lon="5.89012">
        <ele>218</ele>
        <time>2014-06-05T10:33:17Z</time>
      </trkpt>
      <trkpt lat="48.67353" lon="5.89011">
        <ele>218</ele>
        <time>2014-06-05T10:33:22Z</time>
      </trkpt>
      <trkpt lat="48.67358" lon="5.89009">
        <ele>220</ele>
        <time>2014-06-05T10:33:28Z</time>
      </trkpt>
      <trkpt lat="48.67363" lon="5.89008">
        <ele>222</ele>
        <time>2014-06-05T10:33:33Z</time>
      </trkpt>
      <trkpt lat="48.67369" lon="5.89005">
        <ele>224</ele>
        <time>2014-06-05T10:33:38Z</time>
      </trkpt>
      <trkpt lat="48.67373" lon="5.89">
        <ele>225</ele>
        <time>2014-06-05T10:33:46Z</time>
      </trkpt>
      <trkpt lat="48.67373" lon="5.89003">
        <ele>233</ele>
        <time>2014-06-05T10:33:53Z</time>
      </trkpt>
      <trkpt lat="48.6737" lon="5.89004">
        <ele>233</ele>
        <time>2014-06-05T10:33:58Z</time>
      </trkpt>
      <trkpt lat="48.67358" lon="5.88993">
        <ele>235</ele>
        <time>2014-06-05T10:34:06Z</time>
      </trkpt>
      <trkpt lat="48.67346" lon="5.88973">
        <ele>230</ele>
        <time>2014-06-05T10:34:11Z</time>
      </trkpt>
      <trkpt lat="48.67331" lon="5.88946">
        <ele>224</ele>
        <time>2014-06-05T10:34:16Z</time>
      </trkpt>
      <trkpt lat="48.67315" lon="5.88924">
        <ele>219</ele>
        <time>2014-06-05T10:34:21Z</time>
      </trkpt>
      <trkpt lat="48.67301" lon="5.88905">
        <ele>214</ele>
        <time>2014-06-05T10:34:26Z</time>
      </trkpt>
      <trkpt lat="48.67289" lon="5.8889">
        <ele>212</ele>
        <time>2014-06-05T10:34:31Z</time>
      </trkpt>
      <trkpt lat="48.67278" lon="5.88877">
        <ele>210</ele>
        <time>2014-06-05T10:34:36Z</time>
      </trkpt>
      <trkpt lat="48.67272" lon="5.88862">
        <ele>210</ele>
        <time>2014-06-05T10:34:41Z</time>
      </trkpt>
      <trkpt lat="48.67262" lon="5.88853">
        <ele>210</ele>
        <time>2014-06-05T10:34:46Z</time>
      </trkpt>
      <trkpt lat="48.67252" lon="5.88838">
        <ele>210</ele>
        <time>2014-06-05T10:34:51Z</time>
      </trkpt>
      <trkpt lat="48.67245" lon="5.88831">
        <ele>210</ele>
        <time>2014-06-05T10:34:56Z</time>
      </trkpt>
      <trkpt lat="48.67237" lon="5.88827">
        <ele>210</ele>
        <time>2014-06-05T10:35:02Z</time>
      </trkpt>
      <trkpt lat="48.67235" lon="5.88831">
        <ele>210</ele>
        <time>2014-06-05T10:35:09Z</time>
      </trkpt>
      <trkpt lat="48.67232" lon="5.88832">
        <ele>210</ele>
        <time>2014-06-05T10:35:15Z</time>
      </trkpt>
      <trkpt lat="48.67224" lon="5.8881">
        <ele>210</ele>
        <time>2014-06-05T10:35:20Z</time>
      </trkpt>
      <trkpt lat="48.6723" lon="5.88785">
        <ele>210</ele>
        <time>2014-06-05T10:35:25Z</time>
      </trkpt>
      <trkpt lat="48.67241" lon="5.88761">
        <ele>210</ele>
        <time>2014-06-05T10:35:30Z</time>
      </trkpt>
      <trkpt lat="48.67254" lon="5.88739">
        <ele>209</ele>
        <time>2014-06-05T10:35:35Z</time>
      </trkpt>
      <trkpt lat="48.67262" lon="5.88715">
        <ele>209</ele>
        <time>2014-06-05T10:35:40Z</time>
      </trkpt>
      <trkpt lat="48.67273" lon="5.88693">
        <ele>209</ele>
        <time>2014-06-05T10:35:45Z</time>
      </trkpt>
      <trkpt lat="48.67285" lon="5.8867">
        <ele>209</ele>
        <time>2014-06-05T10:35:50Z</time>
      </trkpt>
      <trkpt lat="48.67293" lon="5.88649">
        <ele>209</ele>
        <time>2014-06-05T10:35:55Z</time>
      </trkpt>
      <trkpt lat="48.67304" lon="5.88625">
        <ele>209</ele>
        <time>2014-06-05T10:36:00Z</time>
      </trkpt>
      <trkpt lat="48.67315" lon="5.88606">
        <ele>212</ele>
        <time>2014-06-05T10:36:05Z</time>
      </trkpt>
      <trkpt lat="48.67328" lon="5.88599">
        <ele>216</ele>
        <time>2014-06-05T10:36:10Z</time>
      </trkpt>
      <trkpt lat="48.67345" lon="5.88589">
        <ele>216</ele>
        <time>2014-06-05T10:36:15Z</time>
      </trkpt>
      <trkpt lat="48.67362" lon="5.88577">
        <ele>215</ele>
        <time>2014-06-05T10:36:20Z</time>
      </trkpt>
      <trkpt lat="48.67378" lon="5.88564">
        <ele>211</ele>
        <time>2014-06-05T10:36:25Z</time>
      </trkpt>
      <trkpt lat="48.67394" lon="5.88549">
        <ele>208</ele>
        <time>2014-06-05T10:36:30Z</time>
      </trkpt>
      <trkpt lat="48.67413" lon="5.88536">
        <ele>207</ele>
        <time>2014-06-05T10:36:35Z</time>
      </trkpt>
      <trkpt lat="48.67434" lon="5.88519">
        <ele>207</ele>
        <time>2014-06-05T10:36:40Z</time>
      </trkpt>
      <trkpt lat="48.67455" lon="5.88504">
        <ele>207</ele>
        <time>2014-06-05T10:36:45Z</time>
      </trkpt>
      <trkpt lat="48.67474" lon="5.88488">
        <ele>207</ele>
        <time>2014-06-05T10:36:50Z</time>
      </trkpt>
      <trkpt lat="48.67491" lon="5.88474">
        <ele>207</ele>
        <time>2014-06-05T10:36:55Z</time>
      </trkpt>
      <trkpt lat="48.67505" lon="5.88462">
        <ele>207</ele>
        <time>2014-06-05T10:37:00Z</time>
      </trkpt>
      <trkpt lat="48.67516" lon="5.88455">
        <ele>207</ele>
        <time>2014-06-05T10:37:05Z</time>
      </trkpt>
      <trkpt lat="48.67522" lon="5.88449">
        <ele>206</ele>
        <time>2014-06-05T10:37:11Z</time>
      </trkpt>
      <trkpt lat="48.67531" lon="5.88442">
        <ele>206</ele>
        <time>2014-06-05T10:37:16Z</time>
      </trkpt>
      <trkpt lat="48.6754" lon="5.88434">
        <ele>206</ele>
        <time>2014-06-05T10:37:21Z</time>
      </trkpt>
      <trkpt lat="48.6755" lon="5.88426">
        <ele>206</ele>
        <time>2014-06-05T10:37:26Z</time>
      </trkpt>
      <trkpt lat="48.67565" lon="5.88413">
        <ele>206</ele>
        <time>2014-06-05T10:37:31Z</time>
      </trkpt>
      <trkpt lat="48.67579" lon="5.88398">
        <ele>206</ele>
        <time>2014-06-05T10:37:36Z</time>
      </trkpt>
      <trkpt lat="48.67595" lon="5.88381">
        <ele>206</ele>
        <time>2014-06-05T10:37:41Z</time>
      </trkpt>
      <trkpt lat="48.67612" lon="5.88365">
        <ele>211</ele>
        <time>2014-06-05T10:37:46Z</time>
      </trkpt>
      <trkpt lat="48.67632" lon="5.88346">
        <ele>216</ele>
        <time>2014-06-05T10:37:51Z</time>
      </trkpt>
      <trkpt lat="48.67648" lon="5.88333">
        <ele>220</ele>
        <time>2014-06-05T10:37:56Z</time>
      </trkpt>
      <trkpt lat="48.67665" lon="5.88323">
        <ele>220</ele>
        <time>2014-06-05T10:38:01Z</time>
      </trkpt>
      <trkpt lat="48.67683" lon="5.88315">
        <ele>221</ele>
        <time>2014-06-05T10:38:06Z</time>
      </trkpt>
      <trkpt lat="48.67695" lon="5.88305">
        <ele>221</ele>
        <time>2014-06-05T10:38:11Z</time>
      </trkpt>
      <trkpt lat="48.6771" lon="5.88294">
        <ele>216</ele>
        <time>2014-06-05T10:38:16Z</time>
      </trkpt>
      <trkpt lat="48.67725" lon="5.8828">
        <ele>214</ele>
        <time>2014-06-05T10:38:21Z</time>
      </trkpt>
      <trkpt lat="48.6774" lon="5.88267">
        <ele>213</ele>
        <time>2014-06-05T10:38:26Z</time>
      </trkpt>
      <trkpt lat="48.67752" lon="5.88255">
        <ele>213</ele>
        <time>2014-06-05T10:38:31Z</time>
      </trkpt>
      <trkpt lat="48.67761" lon="5.88248">
        <ele>213</ele>
        <time>2014-06-05T10:38:36Z</time>
      </trkpt>
      <trkpt lat="48.67769" lon="5.88243">
        <ele>212</ele>
        <time>2014-06-05T10:38:41Z</time>
      </trkpt>
      <trkpt lat="48.67778" lon="5.88233">
        <ele>211</ele>
        <time>2014-06-05T10:38:46Z</time>
      </trkpt>
      <trkpt lat="48.67768" lon="5.88231">
        <ele>211</ele>
        <time>2014-06-05T10:38:51Z</time>
      </trkpt>
      <trkpt lat="48.67766" lon="5.88212">
        <ele>210</ele>
        <time>2014-06-05T10:38:56Z</time>
      </trkpt>
      <trkpt lat="48.67764" lon="5.88202">
        <ele>209</ele>
        <time>2014-06-05T10:39:01Z</time>
      </trkpt>
      <trkpt lat="48.67765" lon="5.88185">
        <ele>209</ele>
        <time>2014-06-05T10:39:06Z</time>
      </trkpt>
      <trkpt lat="48.6776" lon="5.88157">
        <ele>207</ele>
        <time>2014-06-05T10:39:11Z</time>
      </trkpt>
      <trkpt lat="48.67757" lon="5.88123">
        <ele>207</ele>
        <time>2014-06-05T10:39:16Z</time>
      </trkpt>
      <trkpt lat="48.67753" lon="5.88086">
        <ele>206</ele>
        <time>2014-06-05T10:39:21Z</time>
      </trkpt>
      <trkpt lat="48.67749" lon="5.88047">
        <ele>206</ele>
        <time>2014-06-05T10:39:26Z</time>
      </trkpt>
      <trkpt lat="48.67744" lon="5.88007">
        <ele>206</ele>
        <time>2014-06-05T10:39:31Z</time>
      </trkpt>
      <trkpt lat="48.67741" lon="5.87963">
        <ele>206</ele>
        <time>2014-06-05T10:39:36Z</time>
      </trkpt>
      <trkpt lat="48.67736" lon="5.87918">
        <ele>206</ele>
        <time>2014-06-05T10:39:41Z</time>
      </trkpt>
      <trkpt lat="48.67731" lon="5.87876">
        <ele>206</ele>
        <time>2014-06-05T10:39:46Z</time>
      </trkpt>
      <trkpt lat="48.67729" lon="5.8784">
        <ele>206</ele>
        <time>2014-06-05T10:39:51Z</time>
      </trkpt>
      <trkpt lat="48.67726" lon="5.87804">
        <ele>206</ele>
        <time>2014-06-05T10:39:56Z</time>
      </trkpt>
      <trkpt lat="48.67723" lon="5.87768">
        <ele>206</ele>
        <time>2014-06-05T10:40:01Z</time>
      </trkpt>
      <trkpt lat="48.67721" lon="5.87732">
        <ele>206</ele>
        <time>2014-06-05T10:40:06Z</time>
      </trkpt>
      <trkpt lat="48.67719" lon="5.87697">
        <ele>206</ele>
        <time>2014-06-05T10:40:11Z</time>
      </trkpt>
      <trkpt lat="48.67716" lon="5.87658">
        <ele>206</ele>
        <time>2014-06-05T10:40:16Z</time>
      </trkpt>
      <trkpt lat="48.67714" lon="5.87617">
        <ele>206</ele>
        <time>2014-06-05T10:40:21Z</time>
      </trkpt>
      <trkpt lat="48.67712" lon="5.87576">
        <ele>206</ele>
        <time>2014-06-05T10:40:26Z</time>
      </trkpt>
      <trkpt lat="48.67712" lon="5.87537">
        <ele>206</ele>
        <time>2014-06-05T10:40:31Z</time>
      </trkpt>
      <trkpt lat="48.67712" lon="5.87497">
        <ele>206</ele>
        <time>2014-06-05T10:40:36Z</time>
      </trkpt>
      <trkpt lat="48.67712" lon="5.87458">
        <ele>206</ele>
        <time>2014-06-05T10:40:41Z</time>
      </trkpt>
      <trkpt lat="48.67711" lon="5.87417">
        <ele>206</ele>
        <time>2014-06-05T10:40:46Z</time>
      </trkpt>
      <trkpt lat="48.6771" lon="5.87374">
        <ele>206</ele>
        <time>2014-06-05T10:40:51Z</time>
      </trkpt>
      <trkpt lat="48.67711" lon="5.87329">
        <ele>206</ele>
        <time>2014-06-05T10:40:56Z</time>
      </trkpt>
      <trkpt lat="48.67711" lon="5.87285">
        <ele>206</ele>
        <time>2014-06-05T10:41:01Z</time>
      </trkpt>
      <trkpt lat="48.67712" lon="5.87246">
        <ele>206</ele>
        <time>2014-06-05T10:41:06Z</time>
      </trkpt>
      <trkpt lat="48.67712" lon="5.87208">
        <ele>207</ele>
        <time>2014-06-05T10:41:11Z</time>
      </trkpt>
      <trkpt lat="48.67714" lon="5.87167">
        <ele>208</ele>
        <time>2014-06-05T10:41:16Z</time>
      </trkpt>
      <trkpt lat="48.67712" lon="5.87124">
        <ele>209</ele>
        <time>2014-06-05T10:41:21Z</time>
      </trkpt>
      <trkpt lat="48.67707" lon="5.8708">
        <ele>209</ele>
        <time>2014-06-05T10:41:26Z</time>
      </trkpt>
      <trkpt lat="48.67703" lon="5.87036">
        <ele>209</ele>
        <time>2014-06-05T10:41:31Z</time>
      </trkpt>
      <trkpt lat="48.67696" lon="5.86991">
        <ele>209</ele>
        <time>2014-06-05T10:41:36Z</time>
      </trkpt>
      <trkpt lat="48.6769" lon="5.86947">
        <ele>209</ele>
        <time>2014-06-05T10:41:41Z</time>
      </trkpt>
      <trkpt lat="48.67682" lon="5.86906">
        <ele>209</ele>
        <time>2014-06-05T10:41:46Z</time>
      </trkpt>
      <trkpt lat="48.67671" lon="5.86867">
        <ele>209</ele>
        <time>2014-06-05T10:41:51Z</time>
      </trkpt>
      <trkpt lat="48.67659" lon="5.86829">
        <ele>209</ele>
        <time>2014-06-05T10:41:56Z</time>
      </trkpt>
      <trkpt lat="48.67646" lon="5.86792">
        <ele>209</ele>
        <time>2014-06-05T10:42:01Z</time>
      </trkpt>
      <trkpt lat="48.67633" lon="5.86754">
        <ele>209</ele>
        <time>2014-06-05T10:42:06Z</time>
      </trkpt>
      <trkpt lat="48.67618" lon="5.86715">
        <ele>208</ele>
        <time>2014-06-05T10:42:11Z</time>
      </trkpt>
      <trkpt lat="48.67604" lon="5.86677">
        <ele>206</ele>
        <time>2014-06-05T10:42:16Z</time>
      </trkpt>
      <trkpt lat="48.67592" lon="5.86639">
        <ele>204</ele>
        <time>2014-06-05T10:42:21Z</time>
      </trkpt>
      <trkpt lat="48.6758" lon="5.86601">
        <ele>203</ele>
        <time>2014-06-05T10:42:26Z</time>
      </trkpt>
      <trkpt lat="48.67569" lon="5.86562">
        <ele>202</ele>
        <time>2014-06-05T10:42:31Z</time>
      </trkpt>
      <trkpt lat="48.67557" lon="5.86523">
        <ele>201</ele>
        <time>2014-06-05T10:42:36Z</time>
      </trkpt>
      <trkpt lat="48.67544" lon="5.86482">
        <ele>199</ele>
        <time>2014-06-05T10:42:41Z</time>
      </trkpt>
      <trkpt lat="48.67533" lon="5.8644">
        <ele>199</ele>
        <time>2014-06-05T10:42:46Z</time>
      </trkpt>
      <trkpt lat="48.67521" lon="5.86399">
        <ele>199</ele>
        <time>2014-06-05T10:42:51Z</time>
      </trkpt>
      <trkpt lat="48.6751" lon="5.86363">
        <ele>199</ele>
        <time>2014-06-05T10:42:56Z</time>
      </trkpt>
      <trkpt lat="48.67503" lon="5.86332">
        <ele>199</ele>
        <time>2014-06-05T10:43:01Z</time>
      </trkpt>
      <trkpt lat="48.67495" lon="5.86302">
        <ele>200</ele>
        <time>2014-06-05T10:43:06Z</time>
      </trkpt>
      <trkpt lat="48.67485" lon="5.86273">
        <ele>200</ele>
        <time>2014-06-05T10:43:11Z</time>
      </trkpt>
      <trkpt lat="48.67475" lon="5.8624">
        <ele>201</ele>
        <time>2014-06-05T10:43:16Z</time>
      </trkpt>
      <trkpt lat="48.67466" lon="5.86207">
        <ele>201</ele>
        <time>2014-06-05T10:43:21Z</time>
      </trkpt>
      <trkpt lat="48.6746" lon="5.86172">
        <ele>202</ele>
        <time>2014-06-05T10:43:26Z</time>
      </trkpt>
      <trkpt lat="48.67452" lon="5.86131">
        <ele>202</ele>
        <time>2014-06-05T10:43:31Z</time>
      </trkpt>
      <trkpt lat="48.67445" lon="5.86092">
        <ele>202</ele>
        <time>2014-06-05T10:43:36Z</time>
      </trkpt>
      <trkpt lat="48.6744" lon="5.86055">
        <ele>203</ele>
        <time>2014-06-05T10:43:41Z</time>
      </trkpt>
      <trkpt lat="48.67435" lon="5.86018">
        <ele>204</ele>
        <time>2014-06-05T10:43:46Z</time>
      </trkpt>
      <trkpt lat="48.67432" lon="5.85983">
        <ele>205</ele>
        <time>2014-06-05T10:43:51Z</time>
      </trkpt>
      <trkpt lat="48.67428" lon="5.85947">
        <ele>205</ele>
        <time>2014-06-05T10:43:56Z</time>
      </trkpt>
      <trkpt lat="48.67422" lon="5.85908">
        <ele>206</ele>
        <time>2014-06-05T10:44:01Z</time>
      </trkpt>
      <trkpt lat="48.67419" lon="5.85868">
        <ele>206</ele>
        <time>2014-06-05T10:44:06Z</time>
      </trkpt>
      <trkpt lat="48.67416" lon="5.85827">
        <ele>207</ele>
        <time>2014-06-05T10:44:11Z</time>
      </trkpt>
      <trkpt lat="48.67408" lon="5.85785">
        <ele>208</ele>
        <time>2014-06-05T10:44:16Z</time>
      </trkpt>
      <trkpt lat="48.67402" lon="5.85745">
        <ele>208</ele>
        <time>2014-06-05T10:44:21Z</time>
      </trkpt>
      <trkpt lat="48.67395" lon="5.85693">
        <ele>208</ele>
        <time>2014-06-05T10:44:27Z</time>
      </trkpt>
      <trkpt lat="48.67392" lon="5.85651">
        <ele>208</ele>
        <time>2014-06-05T10:44:32Z</time>
      </trkpt>
      <trkpt lat="48.67391" lon="5.85607">
        <ele>208</ele>
        <time>2014-06-05T10:44:37Z</time>
      </trkpt>
      <trkpt lat="48.67394" lon="5.85564">
        <ele>208</ele>
        <time>2014-06-05T10:44:42Z</time>
      </trkpt>
      <trkpt lat="48.67401" lon="5.85525">
        <ele>208</ele>
        <time>2014-06-05T10:44:47Z</time>
      </trkpt>
      <trkpt lat="48.67408" lon="5.85486">
        <ele>208</ele>
        <time>2014-06-05T10:44:52Z</time>
      </trkpt>
      <trkpt lat="48.67415" lon="5.85453">
        <ele>208</ele>
        <time>2014-06-05T10:44:57Z</time>
      </trkpt>
      <trkpt lat="48.6742" lon="5.85434">
        <ele>208</ele>
        <time>2014-06-05T10:45:02Z</time>
      </trkpt>
      <trkpt lat="48.67423" lon="5.85423">
        <ele>207</ele>
        <time>2014-06-05T10:45:08Z</time>
      </trkpt>
      <trkpt lat="48.67426" lon="5.8542">
        <ele>207</ele>
        <time>2014-06-05T10:45:15Z</time>
      </trkpt>
      <trkpt lat="48.67438" lon="5.85404">
        <ele>207</ele>
        <time>2014-06-05T10:45:20Z</time>
      </trkpt>
      <trkpt lat="48.67456" lon="5.8538">
        <ele>207</ele>
        <time>2014-06-05T10:45:26Z</time>
      </trkpt>
      <trkpt lat="48.67471" lon="5.85351">
        <ele>208</ele>
        <time>2014-06-05T10:45:31Z</time>
      </trkpt>
      <trkpt lat="48.67482" lon="5.85331">
        <ele>209</ele>
        <time>2014-06-05T10:45:36Z</time>
      </trkpt>
      <trkpt lat="48.67494" lon="5.85311">
        <ele>210</ele>
        <time>2014-06-05T10:45:42Z</time>
      </trkpt>
      <trkpt lat="48.67507" lon="5.85296">
        <ele>210</ele>
        <time>2014-06-05T10:45:47Z</time>
      </trkpt>
      <trkpt lat="48.67516" lon="5.85281">
        <ele>210</ele>
        <time>2014-06-05T10:45:52Z</time>
      </trkpt>
      <trkpt lat="48.67523" lon="5.85272">
        <ele>210</ele>
        <time>2014-06-05T10:45:57Z</time>
      </trkpt>
      <trkpt lat="48.67533" lon="5.85254">
        <ele>210</ele>
        <time>2014-06-05T10:46:02Z</time>
      </trkpt>
      <trkpt lat="48.6755" lon="5.85231">
        <ele>210</ele>
        <time>2014-06-05T10:46:07Z</time>
      </trkpt>
      <trkpt lat="48.67571" lon="5.85201">
        <ele>210</ele>
        <time>2014-06-05T10:46:12Z</time>
      </trkpt>
      <trkpt lat="48.67593" lon="5.85169">
        <ele>210</ele>
        <time>2014-06-05T10:46:17Z</time>
      </trkpt>
      <trkpt lat="48.67614" lon="5.85138">
        <ele>210</ele>
        <time>2014-06-05T10:46:22Z</time>
      </trkpt>
      <trkpt lat="48.67632" lon="5.85112">
        <ele>210</ele>
        <time>2014-06-05T10:46:27Z</time>
      </trkpt>
      <trkpt lat="48.67648" lon="5.85083">
        <ele>210</ele>
        <time>2014-06-05T10:46:32Z</time>
      </trkpt>
      <trkpt lat="48.67664" lon="5.85053">
        <ele>210</ele>
        <time>2014-06-05T10:46:37Z</time>
      </trkpt>
      <trkpt lat="48.67679" lon="5.85018">
        <ele>210</ele>
        <time>2014-06-05T10:46:42Z</time>
      </trkpt>
      <trkpt lat="48.67691" lon="5.84983">
        <ele>210</ele>
        <time>2014-06-05T10:46:47Z</time>
      </trkpt>
      <trkpt lat="48.67703" lon="5.84951">
        <ele>210</ele>
        <time>2014-06-05T10:46:52Z</time>
      </trkpt>
      <trkpt lat="48.67712" lon="5.84917">
        <ele>210</ele>
        <time>2014-06-05T10:46:57Z</time>
      </trkpt>
      <trkpt lat="48.67718" lon="5.84881">
        <ele>210</ele>
        <time>2014-06-05T10:47:02Z</time>
      </trkpt>
      <trkpt lat="48.67722" lon="5.84844">
        <ele>210</ele>
        <time>2014-06-05T10:47:07Z</time>
      </trkpt>
      <trkpt lat="48.67726" lon="5.84807">
        <ele>211</ele>
        <time>2014-06-05T10:47:12Z</time>
      </trkpt>
      <trkpt lat="48.67727" lon="5.84768">
        <ele>212</ele>
        <time>2014-06-05T10:47:17Z</time>
      </trkpt>
      <trkpt lat="48.67727" lon="5.84729">
        <ele>212</ele>
        <time>2014-06-05T10:47:22Z</time>
      </trkpt>
      <trkpt lat="48.67728" lon="5.84688">
        <ele>212</ele>
        <time>2014-06-05T10:47:27Z</time>
      </trkpt>
      <trkpt lat="48.67729" lon="5.84649">
        <ele>212</ele>
        <time>2014-06-05T10:47:32Z</time>
      </trkpt>
      <trkpt lat="48.67731" lon="5.84611">
        <ele>212</ele>
        <time>2014-06-05T10:47:37Z</time>
      </trkpt>
      <trkpt lat="48.67734" lon="5.84572">
        <ele>212</ele>
        <time>2014-06-05T10:47:42Z</time>
      </trkpt>
      <trkpt lat="48.67733" lon="5.84529">
        <ele>212</ele>
        <time>2014-06-05T10:47:47Z</time>
      </trkpt>
      <trkpt lat="48.67731" lon="5.84486">
        <ele>212</ele>
        <time>2014-06-05T10:47:52Z</time>
      </trkpt>
      <trkpt lat="48.67727" lon="5.84444">
        <ele>212</ele>
        <time>2014-06-05T10:47:57Z</time>
      </trkpt>
      <trkpt lat="48.67717" lon="5.844">
        <ele>212</ele>
        <time>2014-06-05T10:48:02Z</time>
      </trkpt>
      <trkpt lat="48.67707" lon="5.8436">
        <ele>212</ele>
        <time>2014-06-05T10:48:07Z</time>
      </trkpt>
      <trkpt lat="48.67698" lon="5.8432">
        <ele>212</ele>
        <time>2014-06-05T10:48:12Z</time>
      </trkpt>
      <trkpt lat="48.67687" lon="5.84279">
        <ele>212</ele>
        <time>2014-06-05T10:48:17Z</time>
      </trkpt>
      <trkpt lat="48.67678" lon="5.84237">
        <ele>211</ele>
        <time>2014-06-05T10:48:22Z</time>
      </trkpt>
      <trkpt lat="48.67668" lon="5.84192">
        <ele>211</ele>
        <time>2014-06-05T10:48:27Z</time>
      </trkpt>
      <trkpt lat="48.67656" lon="5.84147">
        <ele>211</ele>
        <time>2014-06-05T10:48:32Z</time>
      </trkpt>
      <trkpt lat="48.67642" lon="5.84096">
        <ele>211</ele>
        <time>2014-06-05T10:48:38Z</time>
      </trkpt>
      <trkpt lat="48.67631" lon="5.84053">
        <ele>209</ele>
        <time>2014-06-05T10:48:43Z</time>
      </trkpt>
      <trkpt lat="48.67622" lon="5.84014">
        <ele>209</ele>
        <time>2014-06-05T10:48:48Z</time>
      </trkpt>
      <trkpt lat="48.67614" lon="5.83974">
        <ele>208</ele>
        <time>2014-06-05T10:48:53Z</time>
      </trkpt>
      <trkpt lat="48.67607" lon="5.83934">
        <ele>208</ele>
        <time>2014-06-05T10:48:58Z</time>
      </trkpt>
      <trkpt lat="48.676" lon="5.83893">
        <ele>208</ele>
        <time>2014-06-05T10:49:03Z</time>
      </trkpt>
      <trkpt lat="48.67595" lon="5.83854">
        <ele>208</ele>
        <time>2014-06-05T10:49:08Z</time>
      </trkpt>
      <trkpt lat="48.67591" lon="5.8382">
        <ele>208</ele>
        <time>2014-06-05T10:49:13Z</time>
      </trkpt>
      <trkpt lat="48.67586" lon="5.8379">
        <ele>208</ele>
        <time>2014-06-05T10:49:18Z</time>
      </trkpt>
      <trkpt lat="48.67581" lon="5.83764">
        <ele>208</ele>
        <time>2014-06-05T10:49:23Z</time>
      </trkpt>
      <trkpt lat="48.67579" lon="5.83735">
        <ele>208</ele>
        <time>2014-06-05T10:49:28Z</time>
      </trkpt>
      <trkpt lat="48.6757" lon="5.83703">
        <ele>208</ele>
        <time>2014-06-05T10:49:33Z</time>
      </trkpt>
      <trkpt lat="48.67575" lon="5.83678">
        <ele>208</ele>
        <time>2014-06-05T10:49:38Z</time>
      </trkpt>
      <trkpt lat="48.67573" lon="5.83647">
        <ele>210</ele>
        <time>2014-06-05T10:49:43Z</time>
      </trkpt>
      <trkpt lat="48.67567" lon="5.83614">
        <ele>210</ele>
        <time>2014-06-05T10:49:48Z</time>
      </trkpt>
      <trkpt lat="48.67559" lon="5.8359">
        <ele>210</ele>
        <time>2014-06-05T10:49:53Z</time>
      </trkpt>
      <trkpt lat="48.67556" lon="5.83557">
        <ele>210</ele>
        <time>2014-06-05T10:49:58Z</time>
      </trkpt>
      <trkpt lat="48.67548" lon="5.83514">
        <ele>210</ele>
        <time>2014-06-05T10:50:03Z</time>
      </trkpt>
      <trkpt lat="48.67542" lon="5.83472">
        <ele>210</ele>
        <time>2014-06-05T10:50:08Z</time>
      </trkpt>
      <trkpt lat="48.67537" lon="5.83429">
        <ele>209</ele>
        <time>2014-06-05T10:50:13Z</time>
      </trkpt>
      <trkpt lat="48.6753" lon="5.83386">
        <ele>209</ele>
        <time>2014-06-05T10:50:18Z</time>
      </trkpt>
      <trkpt lat="48.67524" lon="5.83343">
        <ele>209</ele>
        <time>2014-06-05T10:50:23Z</time>
      </trkpt>
      <trkpt lat="48.67518" lon="5.83298">
        <ele>209</ele>
        <time>2014-06-05T10:50:28Z</time>
      </trkpt>
      <trkpt lat="48.67511" lon="5.83254">
        <ele>207</ele>
        <time>2014-06-05T10:50:33Z</time>
      </trkpt>
      <trkpt lat="48.67506" lon="5.83211">
        <ele>206</ele>
        <time>2014-06-05T10:50:38Z</time>
      </trkpt>
      <trkpt lat="48.675" lon="5.83167">
        <ele>206</ele>
        <time>2014-06-05T10:50:43Z</time>
      </trkpt>
      <trkpt lat="48.67497" lon="5.83125">
        <ele>206</ele>
        <time>2014-06-05T10:50:48Z</time>
      </trkpt>
      <trkpt lat="48.67488" lon="5.83085">
        <ele>206</ele>
        <time>2014-06-05T10:50:53Z</time>
      </trkpt>
      <trkpt lat="48.67483" lon="5.8304">
        <ele>206</ele>
        <time>2014-06-05T10:50:58Z</time>
      </trkpt>
      <trkpt lat="48.6748" lon="5.82994">
        <ele>206</ele>
        <time>2014-06-05T10:51:03Z</time>
      </trkpt>
      <trkpt lat="48.67476" lon="5.82953">
        <ele>206</ele>
        <time>2014-06-05T10:51:08Z</time>
      </trkpt>
      <trkpt lat="48.6747" lon="5.8291">
        <ele>209</ele>
        <time>2014-06-05T10:51:13Z</time>
      </trkpt>
      <trkpt lat="48.67464" lon="5.82868">
        <ele>210</ele>
        <time>2014-06-05T10:51:18Z</time>
      </trkpt>
      <trkpt lat="48.6746" lon="5.82826">
        <ele>211</ele>
        <time>2014-06-05T10:51:23Z</time>
      </trkpt>
      <trkpt lat="48.67457" lon="5.82786">
        <ele>212</ele>
        <time>2014-06-05T10:51:28Z</time>
      </trkpt>
      <trkpt lat="48.67456" lon="5.82753">
        <ele>214</ele>
        <time>2014-06-05T10:51:33Z</time>
      </trkpt>
      <trkpt lat="48.67455" lon="5.82724">
        <ele>215</ele>
        <time>2014-06-05T10:51:38Z</time>
      </trkpt>
      <trkpt lat="48.67455" lon="5.82698">
        <ele>217</ele>
        <time>2014-06-05T10:51:43Z</time>
      </trkpt>
      <trkpt lat="48.67451" lon="5.82676">
        <ele>218</ele>
        <time>2014-06-05T10:51:48Z</time>
      </trkpt>
      <trkpt lat="48.67454" lon="5.82651">
        <ele>219</ele>
        <time>2014-06-05T10:51:53Z</time>
      </trkpt>
      <trkpt lat="48.67453" lon="5.82612">
        <ele>219</ele>
        <time>2014-06-05T10:51:58Z</time>
      </trkpt>
      <trkpt lat="48.67456" lon="5.82573">
        <ele>219</ele>
        <time>2014-06-05T10:52:03Z</time>
      </trkpt>
      <trkpt lat="48.67459" lon="5.82532">
        <ele>221</ele>
        <time>2014-06-05T10:52:08Z</time>
      </trkpt>
      <trkpt lat="48.67463" lon="5.82491">
        <ele>222</ele>
        <time>2014-06-05T10:52:13Z</time>
      </trkpt>
      <trkpt lat="48.67466" lon="5.82451">
        <ele>223</ele>
        <time>2014-06-05T10:52:18Z</time>
      </trkpt>
      <trkpt lat="48.67466" lon="5.82409">
        <ele>223</ele>
        <time>2014-06-05T10:52:23Z</time>
      </trkpt>
      <trkpt lat="48.67462" lon="5.82367">
        <ele>223</ele>
        <time>2014-06-05T10:52:28Z</time>
      </trkpt>
      <trkpt lat="48.67459" lon="5.82324">
        <ele>223</ele>
        <time>2014-06-05T10:52:33Z</time>
      </trkpt>
      <trkpt lat="48.67452" lon="5.82279">
        <ele>223</ele>
        <time>2014-06-05T10:52:38Z</time>
      </trkpt>
      <trkpt lat="48.67443" lon="5.82235">
        <ele>223</ele>
        <time>2014-06-05T10:52:43Z</time>
      </trkpt>
      <trkpt lat="48.67433" lon="5.82192">
        <ele>223</ele>
        <time>2014-06-05T10:52:48Z</time>
      </trkpt>
      <trkpt lat="48.67424" lon="5.82149">
        <ele>223</ele>
        <time>2014-06-05T10:52:53Z</time>
      </trkpt>
      <trkpt lat="48.67414" lon="5.82106">
        <ele>223</ele>
        <time>2014-06-05T10:52:58Z</time>
      </trkpt>
      <trkpt lat="48.67405" lon="5.82064">
        <ele>223</ele>
        <time>2014-06-05T10:53:03Z</time>
      </trkpt>
      <trkpt lat="48.67395" lon="5.82021">
        <ele>223</ele>
        <time>2014-06-05T10:53:08Z</time>
      </trkpt>
      <trkpt lat="48.67387" lon="5.8198">
        <ele>223</ele>
        <time>2014-06-05T10:53:13Z</time>
      </trkpt>
      <trkpt lat="48.67383" lon="5.81939">
        <ele>223</ele>
        <time>2014-06-05T10:53:18Z</time>
      </trkpt>
      <trkpt lat="48.67382" lon="5.81899">
        <ele>223</ele>
        <time>2014-06-05T10:53:23Z</time>
      </trkpt>
      <trkpt lat="48.67384" lon="5.8186">
        <ele>223</ele>
        <time>2014-06-05T10:53:28Z</time>
      </trkpt>
      <trkpt lat="48.67389" lon="5.81824">
        <ele>224</ele>
        <time>2014-06-05T10:53:33Z</time>
      </trkpt>
      <trkpt lat="48.67395" lon="5.81794">
        <ele>227</ele>
        <time>2014-06-05T10:53:38Z</time>
      </trkpt>
      <trkpt lat="48.67402" lon="5.81774">
        <ele>227</ele>
        <time>2014-06-05T10:53:43Z</time>
      </trkpt>
      <trkpt lat="48.67407" lon="5.81735">
        <ele>227</ele>
        <time>2014-06-05T10:53:48Z</time>
      </trkpt>
      <trkpt lat="48.67413" lon="5.8169">
        <ele>227</ele>
        <time>2014-06-05T10:53:53Z</time>
      </trkpt>
      <trkpt lat="48.67422" lon="5.81647">
        <ele>227</ele>
        <time>2014-06-05T10:53:58Z</time>
      </trkpt>
      <trkpt lat="48.6743" lon="5.81607">
        <ele>227</ele>
        <time>2014-06-05T10:54:03Z</time>
      </trkpt>
      <trkpt lat="48.67437" lon="5.81569">
        <ele>227</ele>
        <time>2014-06-05T10:54:08Z</time>
      </trkpt>
      <trkpt lat="48.67446" lon="5.81531">
        <ele>229</ele>
        <time>2014-06-05T10:54:13Z</time>
      </trkpt>
      <trkpt lat="48.67453" lon="5.81491">
        <ele>231</ele>
        <time>2014-06-05T10:54:18Z</time>
      </trkpt>
      <trkpt lat="48.6746" lon="5.81451">
        <ele>231</ele>
        <time>2014-06-05T10:54:23Z</time>
      </trkpt>
      <trkpt lat="48.67466" lon="5.8141">
        <ele>231</ele>
        <time>2014-06-05T10:54:28Z</time>
      </trkpt>
      <trkpt lat="48.6747" lon="5.81365">
        <ele>231</ele>
        <time>2014-06-05T10:54:33Z</time>
      </trkpt>
      <trkpt lat="48.67476" lon="5.81326">
        <ele>231</ele>
        <time>2014-06-05T10:54:38Z</time>
      </trkpt>
      <trkpt lat="48.67479" lon="5.8129">
        <ele>231</ele>
        <time>2014-06-05T10:54:43Z</time>
      </trkpt>
      <trkpt lat="48.67482" lon="5.81266">
        <ele>230</ele>
        <time>2014-06-05T10:54:48Z</time>
      </trkpt>
      <trkpt lat="48.67482" lon="5.81251">
        <ele>229</ele>
        <time>2014-06-05T10:54:53Z</time>
      </trkpt>
      <trkpt lat="48.67486" lon="5.81236">
        <ele>229</ele>
        <time>2014-06-05T10:54:58Z</time>
      </trkpt>
      <trkpt lat="48.6749" lon="5.81205">
        <ele>228</ele>
        <time>2014-06-05T10:55:03Z</time>
      </trkpt>
      <trkpt lat="48.67495" lon="5.81161">
        <ele>227</ele>
        <time>2014-06-05T10:55:08Z</time>
      </trkpt>
      <trkpt lat="48.67501" lon="5.81118">
        <ele>226</ele>
        <time>2014-06-05T10:55:13Z</time>
      </trkpt>
      <trkpt lat="48.67508" lon="5.8108">
        <ele>226</ele>
        <time>2014-06-05T10:55:18Z</time>
      </trkpt>
      <trkpt lat="48.67516" lon="5.81043">
        <ele>226</ele>
        <time>2014-06-05T10:55:23Z</time>
      </trkpt>
      <trkpt lat="48.67523" lon="5.81006">
        <ele>226</ele>
        <time>2014-06-05T10:55:28Z</time>
      </trkpt>
      <trkpt lat="48.67529" lon="5.80966">
        <ele>226</ele>
        <time>2014-06-05T10:55:33Z</time>
      </trkpt>
      <trkpt lat="48.67536" lon="5.80929">
        <ele>226</ele>
        <time>2014-06-05T10:55:38Z</time>
      </trkpt>
      <trkpt lat="48.67542" lon="5.80894">
        <ele>226</ele>
        <time>2014-06-05T10:55:43Z</time>
      </trkpt>
      <trkpt lat="48.67548" lon="5.8086">
        <ele>227</ele>
        <time>2014-06-05T10:55:48Z</time>
      </trkpt>
      <trkpt lat="48.67554" lon="5.80827">
        <ele>228</ele>
        <time>2014-06-05T10:55:53Z</time>
      </trkpt>
      <trkpt lat="48.6756" lon="5.8079">
        <ele>228</ele>
        <time>2014-06-05T10:55:58Z</time>
      </trkpt>
      <trkpt lat="48.67565" lon="5.80748">
        <ele>228</ele>
        <time>2014-06-05T10:56:03Z</time>
      </trkpt>
      <trkpt lat="48.67572" lon="5.80709">
        <ele>228</ele>
        <time>2014-06-05T10:56:08Z</time>
      </trkpt>
      <trkpt lat="48.67577" lon="5.80668">
        <ele>229</ele>
        <time>2014-06-05T10:56:13Z</time>
      </trkpt>
      <trkpt lat="48.67582" lon="5.80627">
        <ele>229</ele>
        <time>2014-06-05T10:56:18Z</time>
      </trkpt>
      <trkpt lat="48.67588" lon="5.80591">
        <ele>229</ele>
        <time>2014-06-05T10:56:23Z</time>
      </trkpt>
      <trkpt lat="48.67594" lon="5.80554">
        <ele>229</ele>
        <time>2014-06-05T10:56:28Z</time>
      </trkpt>
      <trkpt lat="48.67601" lon="5.80516">
        <ele>229</ele>
        <time>2014-06-05T10:56:33Z</time>
      </trkpt>
      <trkpt lat="48.67607" lon="5.80478">
        <ele>229</ele>
        <time>2014-06-05T10:56:38Z</time>
      </trkpt>
      <trkpt lat="48.67612" lon="5.80439">
        <ele>229</ele>
        <time>2014-06-05T10:56:43Z</time>
      </trkpt>
      <trkpt lat="48.67616" lon="5.80396">
        <ele>229</ele>
        <time>2014-06-05T10:56:48Z</time>
      </trkpt>
      <trkpt lat="48.67622" lon="5.80355">
        <ele>229</ele>
        <time>2014-06-05T10:56:53Z</time>
      </trkpt>
      <trkpt lat="48.67627" lon="5.80313">
        <ele>229</ele>
        <time>2014-06-05T10:56:58Z</time>
      </trkpt>
      <trkpt lat="48.67633" lon="5.80271">
        <ele>229</ele>
        <time>2014-06-05T10:57:03Z</time>
      </trkpt>
      <trkpt lat="48.6764" lon="5.80227">
        <ele>227</ele>
        <time>2014-06-05T10:57:08Z</time>
      </trkpt>
      <trkpt lat="48.67645" lon="5.80183">
        <ele>226</ele>
        <time>2014-06-05T10:57:13Z</time>
      </trkpt>
      <trkpt lat="48.67645" lon="5.80141">
        <ele>225</ele>
        <time>2014-06-05T10:57:18Z</time>
      </trkpt>
      <trkpt lat="48.67646" lon="5.80099">
        <ele>223</ele>
        <time>2014-06-05T10:57:23Z</time>
      </trkpt>
      <trkpt lat="48.67647" lon="5.80061">
        <ele>222</ele>
        <time>2014-06-05T10:57:28Z</time>
      </trkpt>
      <trkpt lat="48.67649" lon="5.8002">
        <ele>222</ele>
        <time>2014-06-05T10:57:33Z</time>
      </trkpt>
      <trkpt lat="48.67653" lon="5.79978">
        <ele>221</ele>
        <time>2014-06-05T10:57:38Z</time>
      </trkpt>
      <trkpt lat="48.67655" lon="5.79939">
        <ele>221</ele>
        <time>2014-06-05T10:57:43Z</time>
      </trkpt>
      <trkpt lat="48.67659" lon="5.79901">
        <ele>221</ele>
        <time>2014-06-05T10:57:48Z</time>
      </trkpt>
      <trkpt lat="48.67659" lon="5.79858">
        <ele>221</ele>
        <time>2014-06-05T10:57:53Z</time>
      </trkpt>
      <trkpt lat="48.67658" lon="5.79818">
        <ele>218</ele>
        <time>2014-06-05T10:57:58Z</time>
      </trkpt>
      <trkpt lat="48.67659" lon="5.79781">
        <ele>217</ele>
        <time>2014-06-05T10:58:03Z</time>
      </trkpt>
      <trkpt lat="48.67658" lon="5.79741">
        <ele>215</ele>
        <time>2014-06-05T10:58:08Z</time>
      </trkpt>
      <trkpt lat="48.67657" lon="5.79698">
        <ele>214</ele>
        <time>2014-06-05T10:58:13Z</time>
      </trkpt>
      <trkpt lat="48.67654" lon="5.79656">
        <ele>213</ele>
        <time>2014-06-05T10:58:18Z</time>
      </trkpt>
      <trkpt lat="48.67653" lon="5.79613">
        <ele>213</ele>
        <time>2014-06-05T10:58:23Z</time>
      </trkpt>
      <trkpt lat="48.6765" lon="5.79572">
        <ele>212</ele>
        <time>2014-06-05T10:58:28Z</time>
      </trkpt>
      <trkpt lat="48.67646" lon="5.7953">
        <ele>210</ele>
        <time>2014-06-05T10:58:33Z</time>
      </trkpt>
      <trkpt lat="48.67644" lon="5.79488">
        <ele>210</ele>
        <time>2014-06-05T10:58:38Z</time>
      </trkpt>
      <trkpt lat="48.67641" lon="5.79446">
        <ele>210</ele>
        <time>2014-06-05T10:58:43Z</time>
      </trkpt>
      <trkpt lat="48.67635" lon="5.79404">
        <ele>210</ele>
        <time>2014-06-05T10:58:48Z</time>
      </trkpt>
      <trkpt lat="48.67629" lon="5.79362">
        <ele>210</ele>
        <time>2014-06-05T10:58:53Z</time>
      </trkpt>
      <trkpt lat="48.67624" lon="5.79322">
        <ele>210</ele>
        <time>2014-06-05T10:58:58Z</time>
      </trkpt>
      <trkpt lat="48.67619" lon="5.79281">
        <ele>212</ele>
        <time>2014-06-05T10:59:03Z</time>
      </trkpt>
      <trkpt lat="48.67614" lon="5.79241">
        <ele>214</ele>
        <time>2014-06-05T10:59:08Z</time>
      </trkpt>
      <trkpt lat="48.67606" lon="5.79199">
        <ele>214</ele>
        <time>2014-06-05T10:59:13Z</time>
      </trkpt>
      <trkpt lat="48.67601" lon="5.79159">
        <ele>214</ele>
        <time>2014-06-05T10:59:18Z</time>
      </trkpt>
      <trkpt lat="48.67596" lon="5.79122">
        <ele>214</ele>
        <time>2014-06-05T10:59:23Z</time>
      </trkpt>
      <trkpt lat="48.67591" lon="5.7909">
        <ele>214</ele>
        <time>2014-06-05T10:59:28Z</time>
      </trkpt>
      <trkpt lat="48.67587" lon="5.79059">
        <ele>214</ele>
        <time>2014-06-05T10:59:33Z</time>
      </trkpt>
      <trkpt lat="48.67583" lon="5.79043">
        <ele>214</ele>
        <time>2014-06-05T10:59:38Z</time>
      </trkpt>
      <trkpt lat="48.67585" lon="5.79026">
        <ele>214</ele>
        <time>2014-06-05T10:59:43Z</time>
      </trkpt>
      <trkpt lat="48.67585" lon="5.79002">
        <ele>216</ele>
        <time>2014-06-05T10:59:48Z</time>
      </trkpt>
      <trkpt lat="48.67583" lon="5.78979">
        <ele>220</ele>
        <time>2014-06-05T10:59:53Z</time>
      </trkpt>
      <trkpt lat="48.67582" lon="5.78958">
        <ele>222</ele>
        <time>2014-06-05T10:59:58Z</time>
      </trkpt>
      <trkpt lat="48.67579" lon="5.7893">
        <ele>223</ele>
        <time>2014-06-05T11:00:03Z</time>
      </trkpt>
      <trkpt lat="48.67574" lon="5.7889">
        <ele>223</ele>
        <time>2014-06-05T11:00:08Z</time>
      </trkpt>
      <trkpt lat="48.67567" lon="5.78848">
        <ele>223</ele>
        <time>2014-06-05T11:00:13Z</time>
      </trkpt>
      <trkpt lat="48.67561" lon="5.78805">
        <ele>223</ele>
        <time>2014-06-05T11:00:18Z</time>
      </trkpt>
      <trkpt lat="48.67556" lon="5.78764">
        <ele>223</ele>
        <time>2014-06-05T11:00:23Z</time>
      </trkpt>
      <trkpt lat="48.67551" lon="5.78725">
        <ele>223</ele>
        <time>2014-06-05T11:00:28Z</time>
      </trkpt>
      <trkpt lat="48.67544" lon="5.78687">
        <ele>223</ele>
        <time>2014-06-05T11:00:33Z</time>
      </trkpt>
      <trkpt lat="48.67539" lon="5.78646">
        <ele>223</ele>
        <time>2014-06-05T11:00:38Z</time>
      </trkpt>
      <trkpt lat="48.67532" lon="5.78604">
        <ele>223</ele>
        <time>2014-06-05T11:00:43Z</time>
      </trkpt>
      <trkpt lat="48.67527" lon="5.78561">
        <ele>222</ele>
        <time>2014-06-05T11:00:48Z</time>
      </trkpt>
      <trkpt lat="48.67521" lon="5.78518">
        <ele>222</ele>
        <time>2014-06-05T11:00:53Z</time>
      </trkpt>
      <trkpt lat="48.67516" lon="5.78474">
        <ele>222</ele>
        <time>2014-06-05T11:00:58Z</time>
      </trkpt>
      <trkpt lat="48.6751" lon="5.78431">
        <ele>222</ele>
        <time>2014-06-05T11:01:03Z</time>
      </trkpt>
      <trkpt lat="48.67505" lon="5.78387">
        <ele>222</ele>
        <time>2014-06-05T11:01:08Z</time>
      </trkpt>
      <trkpt lat="48.675" lon="5.78344">
        <ele>222</ele>
        <time>2014-06-05T11:01:13Z</time>
      </trkpt>
      <trkpt lat="48.67494" lon="5.78301">
        <ele>222</ele>
        <time>2014-06-05T11:01:18Z</time>
      </trkpt>
      <trkpt lat="48.67489" lon="5.78259">
        <ele>222</ele>
        <time>2014-06-05T11:01:23Z</time>
      </trkpt>
      <trkpt lat="48.67485" lon="5.78215">
        <ele>223</ele>
        <time>2014-06-05T11:01:28Z</time>
      </trkpt>
      <trkpt lat="48.67478" lon="5.78171">
        <ele>223</ele>
        <time>2014-06-05T11:01:33Z</time>
      </trkpt>
      <trkpt lat="48.67473" lon="5.7813">
        <ele>223</ele>
        <time>2014-06-05T11:01:38Z</time>
      </trkpt>
      <trkpt lat="48.67467" lon="5.78093">
        <ele>226</ele>
        <time>2014-06-05T11:01:43Z</time>
      </trkpt>
      <trkpt lat="48.67465" lon="5.78061">
        <ele>228</ele>
        <time>2014-06-05T11:01:48Z</time>
      </trkpt>
      <trkpt lat="48.67463" lon="5.78032">
        <ele>230</ele>
        <time>2014-06-05T11:01:53Z</time>
      </trkpt>
      <trkpt lat="48.67459" lon="5.78003">
        <ele>232</ele>
        <time>2014-06-05T11:01:58Z</time>
      </trkpt>
      <trkpt lat="48.67454" lon="5.77969">
        <ele>233</ele>
        <time>2014-06-05T11:02:03Z</time>
      </trkpt>
      <trkpt lat="48.67447" lon="5.77932">
        <ele>234</ele>
        <time>2014-06-05T11:02:08Z</time>
      </trkpt>
      <trkpt lat="48.67441" lon="5.77892">
        <ele>235</ele>
        <time>2014-06-05T11:02:13Z</time>
      </trkpt>
      <trkpt lat="48.67435" lon="5.7785">
        <ele>235</ele>
        <time>2014-06-05T11:02:18Z</time>
      </trkpt>
      <trkpt lat="48.67431" lon="5.7781">
        <ele>235</ele>
        <time>2014-06-05T11:02:23Z</time>
      </trkpt>
      <trkpt lat="48.67428" lon="5.77773">
        <ele>235</ele>
        <time>2014-06-05T11:02:28Z</time>
      </trkpt>
      <trkpt lat="48.67427" lon="5.77743">
        <ele>235</ele>
        <time>2014-06-05T11:02:33Z</time>
      </trkpt>
      <trkpt lat="48.67432" lon="5.77715">
        <ele>236</ele>
        <time>2014-06-05T11:02:38Z</time>
      </trkpt>
      <trkpt lat="48.67437" lon="5.77685">
        <ele>237</ele>
        <time>2014-06-05T11:02:43Z</time>
      </trkpt>
      <trkpt lat="48.67439" lon="5.77655">
        <ele>237</ele>
        <time>2014-06-05T11:02:48Z</time>
      </trkpt>
      <trkpt lat="48.67442" lon="5.77635">
        <ele>237</ele>
        <time>2014-06-05T11:02:53Z</time>
      </trkpt>
      <trkpt lat="48.67439" lon="5.77632">
        <ele>237</ele>
        <time>2014-06-05T11:02:58Z</time>
      </trkpt>
      <trkpt lat="48.67441" lon="5.77635">
        <ele>237</ele>
        <time>2014-06-05T11:03:04Z</time>
      </trkpt>
      <trkpt lat="48.67443" lon="5.77637">
        <ele>237</ele>
        <time>2014-06-05T11:03:11Z</time>
      </trkpt>
      <trkpt lat="48.67446" lon="5.7764">
        <ele>237</ele>
        <time>2014-06-05T11:03:18Z</time>
      </trkpt>
      <trkpt lat="48.67448" lon="5.7764">
        <ele>237</ele>
        <time>2014-06-05T11:03:24Z</time>
      </trkpt>
      <trkpt lat="48.6745" lon="5.77641">
        <ele>239</ele>
        <time>2014-06-05T11:03:29Z</time>
      </trkpt>
      <trkpt lat="48.67459" lon="5.77643">
        <ele>241</ele>
        <time>2014-06-05T11:03:36Z</time>
      </trkpt>
      <trkpt lat="48.67461" lon="5.77649">
        <ele>246</ele>
        <time>2014-06-05T11:03:43Z</time>
      </trkpt>
      <trkpt lat="48.67462" lon="5.77653">
        <ele>249</ele>
        <time>2014-06-05T11:03:51Z</time>
      </trkpt>
      <trkpt lat="48.67462" lon="5.77645">
        <ele>251</ele>
        <time>2014-06-05T11:03:57Z</time>
      </trkpt>
      <trkpt lat="48.67462" lon="5.77641">
        <ele>247</ele>
        <time>2014-06-05T11:04:03Z</time>
      </trkpt>
      <trkpt lat="48.67457" lon="5.77645">
        <ele>242</ele>
        <time>2014-06-05T11:04:10Z</time>
      </trkpt>
      <trkpt lat="48.67455" lon="5.77648">
        <ele>242</ele>
        <time>2014-06-05T11:04:18Z</time>
      </trkpt>
      <trkpt lat="48.67447" lon="5.77638">
        <ele>245</ele>
        <time>2014-06-05T11:04:23Z</time>
      </trkpt>
      <trkpt lat="48.67445" lon="5.77626">
        <ele>246</ele>
        <time>2014-06-05T11:04:28Z</time>
      </trkpt>
      <trkpt lat="48.67443" lon="5.77604">
        <ele>246</ele>
        <time>2014-06-05T11:04:33Z</time>
      </trkpt>
      <trkpt lat="48.67438" lon="5.77577">
        <ele>246</ele>
        <time>2014-06-05T11:04:38Z</time>
      </trkpt>
      <trkpt lat="48.67426" lon="5.77557">
        <ele>246</ele>
        <time>2014-06-05T11:04:43Z</time>
      </trkpt>
      <trkpt lat="48.67411" lon="5.7754">
        <ele>246</ele>
        <time>2014-06-05T11:04:48Z</time>
      </trkpt>
      <trkpt lat="48.67399" lon="5.77522">
        <ele>246</ele>
        <time>2014-06-05T11:04:53Z</time>
      </trkpt>
      <trkpt lat="48.67403" lon="5.77502">
        <ele>246</ele>
        <time>2014-06-05T11:04:58Z</time>
      </trkpt>
      <trkpt lat="48.67413" lon="5.77485">
        <ele>246</ele>
        <time>2014-06-05T11:05:03Z</time>
      </trkpt>
      <trkpt lat="48.67429" lon="5.77471">
        <ele>246</ele>
        <time>2014-06-05T11:05:08Z</time>
      </trkpt>
      <trkpt lat="48.67446" lon="5.77463">
        <ele>246</ele>
        <time>2014-06-05T11:05:13Z</time>
      </trkpt>
      <trkpt lat="48.67462" lon="5.77456">
        <ele>246</ele>
        <time>2014-06-05T11:05:18Z</time>
      </trkpt>
      <trkpt lat="48.67476" lon="5.77451">
        <ele>246</ele>
        <time>2014-06-05T11:05:23Z</time>
      </trkpt>
      <trkpt lat="48.67489" lon="5.77443">
        <ele>247</ele>
        <time>2014-06-05T11:05:28Z</time>
      </trkpt>
      <trkpt lat="48.67507" lon="5.77451">
        <ele>251</ele>
        <time>2014-06-05T11:05:33Z</time>
      </trkpt>
      <trkpt lat="48.67525" lon="5.77464">
        <ele>251</ele>
        <time>2014-06-05T11:05:38Z</time>
      </trkpt>
      <trkpt lat="48.6754" lon="5.77488">
        <ele>251</ele>
        <time>2014-06-05T11:05:43Z</time>
      </trkpt>
      <trkpt lat="48.67552" lon="5.77524">
        <ele>251</ele>
        <time>2014-06-05T11:05:48Z</time>
      </trkpt>
      <trkpt lat="48.67558" lon="5.7757">
        <ele>248</ele>
        <time>2014-06-05T11:05:53Z</time>
      </trkpt>
      <trkpt lat="48.67568" lon="5.77624">
        <ele>244</ele>
        <time>2014-06-05T11:05:58Z</time>
      </trkpt>
      <trkpt lat="48.67579" lon="5.77679">
        <ele>242</ele>
        <time>2014-06-05T11:06:03Z</time>
      </trkpt>
      <trkpt lat="48.67607" lon="5.77715">
        <ele>240</ele>
        <time>2014-06-05T11:06:08Z</time>
      </trkpt>
      <trkpt lat="48.67637" lon="5.77742">
        <ele>239</ele>
        <time>2014-06-05T11:06:13Z</time>
      </trkpt>
      <trkpt lat="48.67663" lon="5.77764">
        <ele>239</ele>
        <time>2014-06-05T11:06:18Z</time>
      </trkpt>
      <trkpt lat="48.6769" lon="5.77786">
        <ele>239</ele>
        <time>2014-06-05T11:06:23Z</time>
      </trkpt>
      <trkpt lat="48.67715" lon="5.77807">
        <ele>239</ele>
        <time>2014-06-05T11:06:28Z</time>
      </trkpt>
      <trkpt lat="48.67741" lon="5.7782">
        <ele>239</ele>
        <time>2014-06-05T11:06:33Z</time>
      </trkpt>
      <trkpt lat="48.67765" lon="5.7783">
        <ele>239</ele>
        <time>2014-06-05T11:06:38Z</time>
      </trkpt>
      <trkpt lat="48.67788" lon="5.77838">
        <ele>239</ele>
        <time>2014-06-05T11:06:43Z</time>
      </trkpt>
      <trkpt lat="48.67811" lon="5.77846">
        <ele>239</ele>
        <time>2014-06-05T11:06:48Z</time>
      </trkpt>
      <trkpt lat="48.67833" lon="5.77857">
        <ele>239</ele>
        <time>2014-06-05T11:06:53Z</time>
      </trkpt>
      <trkpt lat="48.67856" lon="5.77871">
        <ele>239</ele>
        <time>2014-06-05T11:06:58Z</time>
      </trkpt>
      <trkpt lat="48.67875" lon="5.7789">
        <ele>239</ele>
        <time>2014-06-05T11:07:03Z</time>
      </trkpt>
      <trkpt lat="48.67894" lon="5.77911">
        <ele>239</ele>
        <time>2014-06-05T11:07:08Z</time>
      </trkpt>
      <trkpt lat="48.67915" lon="5.77934">
        <ele>239</ele>
        <time>2014-06-05T11:07:13Z</time>
      </trkpt>
      <trkpt lat="48.67937" lon="5.77957">
        <ele>239</ele>
        <time>2014-06-05T11:07:18Z</time>
      </trkpt>
      <trkpt lat="48.67958" lon="5.77981">
        <ele>239</ele>
        <time>2014-06-05T11:07:23Z</time>
      </trkpt>
      <trkpt lat="48.67978" lon="5.78007">
        <ele>239</ele>
        <time>2014-06-05T11:07:28Z</time>
      </trkpt>
      <trkpt lat="48.67999" lon="5.78032">
        <ele>239</ele>
        <time>2014-06-05T11:07:33Z</time>
      </trkpt>
      <trkpt lat="48.68019" lon="5.78057">
        <ele>239</ele>
        <time>2014-06-05T11:07:38Z</time>
      </trkpt>
      <trkpt lat="48.68039" lon="5.78077">
        <ele>240</ele>
        <time>2014-06-05T11:07:43Z</time>
      </trkpt>
      <trkpt lat="48.68058" lon="5.78098">
        <ele>240</ele>
        <time>2014-06-05T11:07:48Z</time>
      </trkpt>
      <trkpt lat="48.68071" lon="5.78126">
        <ele>240</ele>
        <time>2014-06-05T11:07:53Z</time>
      </trkpt>
      <trkpt lat="48.68088" lon="5.78156">
        <ele>241</ele>
        <time>2014-06-05T11:07:58Z</time>
      </trkpt>
      <trkpt lat="48.68105" lon="5.78187">
        <ele>243</ele>
        <time>2014-06-05T11:08:03Z</time>
      </trkpt>
      <trkpt lat="48.68124" lon="5.78218">
        <ele>243</ele>
        <time>2014-06-05T11:08:08Z</time>
      </trkpt>
      <trkpt lat="48.68144" lon="5.7825">
        <ele>243</ele>
        <time>2014-06-05T11:08:13Z</time>
      </trkpt>
      <trkpt lat="48.68164" lon="5.78283">
        <ele>243</ele>
        <time>2014-06-05T11:08:18Z</time>
      </trkpt>
      <trkpt lat="48.68182" lon="5.78316">
        <ele>243</ele>
        <time>2014-06-05T11:08:23Z</time>
      </trkpt>
      <trkpt lat="48.682" lon="5.78347">
        <ele>243</ele>
        <time>2014-06-05T11:08:28Z</time>
      </trkpt>
      <trkpt lat="48.68218" lon="5.7838">
        <ele>243</ele>
        <time>2014-06-05T11:08:33Z</time>
      </trkpt>
      <trkpt lat="48.68233" lon="5.78408">
        <ele>243</ele>
        <time>2014-06-05T11:08:38Z</time>
      </trkpt>
      <trkpt lat="48.68245" lon="5.78433">
        <ele>243</ele>
        <time>2014-06-05T11:08:43Z</time>
      </trkpt>
      <trkpt lat="48.68254" lon="5.78452">
        <ele>243</ele>
        <time>2014-06-05T11:08:48Z</time>
      </trkpt>
      <trkpt lat="48.68252" lon="5.78466">
        <ele>243</ele>
        <time>2014-06-05T11:08:53Z</time>
      </trkpt>
      <trkpt lat="48.68254" lon="5.78477">
        <ele>244</ele>
        <time>2014-06-05T11:08:58Z</time>
      </trkpt>
      <trkpt lat="48.6826" lon="5.78501">
        <ele>245</ele>
        <time>2014-06-05T11:09:03Z</time>
      </trkpt>
      <trkpt lat="48.68268" lon="5.78537">
        <ele>245</ele>
        <time>2014-06-05T11:09:08Z</time>
      </trkpt>
      <trkpt lat="48.68275" lon="5.78579">
        <ele>245</ele>
        <time>2014-06-05T11:09:13Z</time>
      </trkpt>
      <trkpt lat="48.6828" lon="5.78619">
        <ele>245</ele>
        <time>2014-06-05T11:09:18Z</time>
      </trkpt>
      <trkpt lat="48.68284" lon="5.78646">
        <ele>245</ele>
        <time>2014-06-05T11:09:23Z</time>
      </trkpt>
      <trkpt lat="48.683" lon="5.78634">
        <ele>245</ele>
        <time>2014-06-05T11:09:28Z</time>
      </trkpt>
      <trkpt lat="48.68321" lon="5.78616">
        <ele>246</ele>
        <time>2014-06-05T11:09:33Z</time>
      </trkpt>
      <trkpt lat="48.6834" lon="5.786">
        <ele>248</ele>
        <time>2014-06-05T11:09:38Z</time>
      </trkpt>
      <trkpt lat="48.68358" lon="5.78585">
        <ele>249</ele>
        <time>2014-06-05T11:09:43Z</time>
      </trkpt>
      <trkpt lat="48.68368" lon="5.78571">
        <ele>252</ele>
        <time>2014-06-05T11:09:48Z</time>
      </trkpt>
      <trkpt lat="48.68386" lon="5.78557">
        <ele>253</ele>
        <time>2014-06-05T11:09:53Z</time>
      </trkpt>
      <trkpt lat="48.68404" lon="5.78542">
        <ele>253</ele>
        <time>2014-06-05T11:09:58Z</time>
      </trkpt>
      <trkpt lat="48.68419" lon="5.78525">
        <ele>253</ele>
        <time>2014-06-05T11:10:03Z</time>
      </trkpt>
      <trkpt lat="48.68432" lon="5.7851">
        <ele>251</ele>
        <time>2014-06-05T11:10:08Z</time>
      </trkpt>
      <trkpt lat="48.68448" lon="5.78498">
        <ele>250</ele>
        <time>2014-06-05T11:10:13Z</time>
      </trkpt>
      <trkpt lat="48.68457" lon="5.78494">
        <ele>249</ele>
        <time>2014-06-05T11:10:18Z</time>
      </trkpt>
      <trkpt lat="48.68462" lon="5.78507">
        <ele>249</ele>
        <time>2014-06-05T11:10:23Z</time>
      </trkpt>
      <trkpt lat="48.68471" lon="5.78531">
        <ele>250</ele>
        <time>2014-06-05T11:10:28Z</time>
      </trkpt>
      <trkpt lat="48.68481" lon="5.78557">
        <ele>251</ele>
        <time>2014-06-05T11:10:33Z</time>
      </trkpt>
      <trkpt lat="48.68494" lon="5.78575">
        <ele>254</ele>
        <time>2014-06-05T11:10:38Z</time>
      </trkpt>
      <trkpt lat="48.68505" lon="5.78593">
        <ele>255</ele>
        <time>2014-06-05T11:10:43Z</time>
      </trkpt>
      <trkpt lat="48.68517" lon="5.78612">
        <ele>256</ele>
        <time>2014-06-05T11:10:48Z</time>
      </trkpt>
      <trkpt lat="48.68524" lon="5.78628">
        <ele>256</ele>
        <time>2014-06-05T11:10:53Z</time>
      </trkpt>
      <trkpt lat="48.6853" lon="5.78627">
        <ele>259</ele>
        <time>2014-06-05T11:10:58Z</time>
      </trkpt>
      <trkpt lat="48.68538" lon="5.78612">
        <ele>260</ele>
        <time>2014-06-05T11:11:03Z</time>
      </trkpt>
      <trkpt lat="48.68547" lon="5.78599">
        <ele>260</ele>
        <time>2014-06-05T11:11:08Z</time>
      </trkpt>
      <trkpt lat="48.68556" lon="5.78586">
        <ele>260</ele>
        <time>2014-06-05T11:11:13Z</time>
      </trkpt>
      <trkpt lat="48.68565" lon="5.78575">
        <ele>260</ele>
        <time>2014-06-05T11:11:18Z</time>
      </trkpt>
      <trkpt lat="48.68581" lon="5.78566">
        <ele>262</ele>
        <time>2014-06-05T11:11:24Z</time>
      </trkpt>
      <trkpt lat="48.68592" lon="5.78558">
        <ele>269</ele>
        <time>2014-06-05T11:11:29Z</time>
      </trkpt>
      <trkpt lat="48.68598" lon="5.78543">
        <ele>273</ele>
        <time>2014-06-05T11:11:34Z</time>
      </trkpt>
      <trkpt lat="48.68595" lon="5.78527">
        <ele>273</ele>
        <time>2014-06-05T11:11:39Z</time>
      </trkpt>
      <trkpt lat="48.6859" lon="5.78519">
        <ele>274</ele>
        <time>2014-06-05T11:11:44Z</time>
      </trkpt>
      <trkpt lat="48.68582" lon="5.7851">
        <ele>277</ele>
        <time>2014-06-05T11:11:49Z</time>
      </trkpt>
      <trkpt lat="48.68572" lon="5.78499">
        <ele>279</ele>
        <time>2014-06-05T11:11:54Z</time>
      </trkpt>
      <trkpt lat="48.68562" lon="5.78486">
        <ele>282</ele>
        <time>2014-06-05T11:11:59Z</time>
      </trkpt>
      <trkpt lat="48.68553" lon="5.78476">
        <ele>283</ele>
        <time>2014-06-05T11:12:05Z</time>
      </trkpt>
      <trkpt lat="48.68544" lon="5.78464">
        <ele>284</ele>
        <time>2014-06-05T11:12:10Z</time>
      </trkpt>
      <trkpt lat="48.68531" lon="5.7846">
        <ele>288</ele>
        <time>2014-06-05T11:12:15Z</time>
      </trkpt>
      <trkpt lat="48.68518" lon="5.78447">
        <ele>291</ele>
        <time>2014-06-05T11:12:21Z</time>
      </trkpt>
      <trkpt lat="48.6851" lon="5.78433">
        <ele>292</ele>
        <time>2014-06-05T11:12:26Z</time>
      </trkpt>
      <trkpt lat="48.68501" lon="5.78418">
        <ele>293</ele>
        <time>2014-06-05T11:12:31Z</time>
      </trkpt>
      <trkpt lat="48.68495" lon="5.78402">
        <ele>294</ele>
        <time>2014-06-05T11:12:36Z</time>
      </trkpt>
      <trkpt lat="48.68493" lon="5.78382">
        <ele>295</ele>
        <time>2014-06-05T11:12:41Z</time>
      </trkpt>
      <trkpt lat="48.68499" lon="5.78363">
        <ele>295</ele>
        <time>2014-06-05T11:12:46Z</time>
      </trkpt>
      <trkpt lat="48.68496" lon="5.7834">
        <ele>294</ele>
        <time>2014-06-05T11:12:51Z</time>
      </trkpt>
      <trkpt lat="48.68492" lon="5.78316">
        <ele>294</ele>
        <time>2014-06-05T11:12:56Z</time>
      </trkpt>
      <trkpt lat="48.6849" lon="5.78287">
        <ele>291</ele>
        <time>2014-06-05T11:13:01Z</time>
      </trkpt>
      <trkpt lat="48.68485" lon="5.78261">
        <ele>291</ele>
        <time>2014-06-05T11:13:06Z</time>
      </trkpt>
      <trkpt lat="48.68478" lon="5.78228">
        <ele>291</ele>
        <time>2014-06-05T11:13:12Z</time>
      </trkpt>
      <trkpt lat="48.6847" lon="5.78193">
        <ele>291</ele>
        <time>2014-06-05T11:13:17Z</time>
      </trkpt>
      <trkpt lat="48.68461" lon="5.78151">
        <ele>291</ele>
        <time>2014-06-05T11:13:22Z</time>
      </trkpt>
      <trkpt lat="48.6845" lon="5.781">
        <ele>290</ele>
        <time>2014-06-05T11:13:28Z</time>
      </trkpt>
      <trkpt lat="48.68437" lon="5.78059">
        <ele>290</ele>
        <time>2014-06-05T11:13:33Z</time>
      </trkpt>
      <trkpt lat="48.68423" lon="5.78013">
        <ele>288</ele>
        <time>2014-06-05T11:13:38Z</time>
      </trkpt>
      <trkpt lat="48.68406" lon="5.77964">
        <ele>285</ele>
        <time>2014-06-05T11:13:43Z</time>
      </trkpt>
      <trkpt lat="48.68388" lon="5.77914">
        <ele>281</ele>
        <time>2014-06-05T11:13:48Z</time>
      </trkpt>
      <trkpt lat="48.68371" lon="5.77862">
        <ele>278</ele>
        <time>2014-06-05T11:13:53Z</time>
      </trkpt>
      <trkpt lat="48.68352" lon="5.77811">
        <ele>275</ele>
        <time>2014-06-05T11:13:58Z</time>
      </trkpt>
      <trkpt lat="48.68333" lon="5.77761">
        <ele>274</ele>
        <time>2014-06-05T11:14:03Z</time>
      </trkpt>
      <trkpt lat="48.6832" lon="5.77708">
        <ele>273</ele>
        <time>2014-06-05T11:14:08Z</time>
      </trkpt>
      <trkpt lat="48.68309" lon="5.77655">
        <ele>273</ele>
        <time>2014-06-05T11:14:13Z</time>
      </trkpt>
      <trkpt lat="48.68302" lon="5.77602">
        <ele>273</ele>
        <time>2014-06-05T11:14:18Z</time>
      </trkpt>
      <trkpt lat="48.68297" lon="5.77552">
        <ele>273</ele>
        <time>2014-06-05T11:14:23Z</time>
      </trkpt>
      <trkpt lat="48.68291" lon="5.77504">
        <ele>273</ele>
        <time>2014-06-05T11:14:28Z</time>
      </trkpt>
      <trkpt lat="48.68288" lon="5.77459">
        <ele>273</ele>
        <time>2014-06-05T11:14:33Z</time>
      </trkpt>
      <trkpt lat="48.68284" lon="5.77401">
        <ele>273</ele>
        <time>2014-06-05T11:14:39Z</time>
      </trkpt>
      <trkpt lat="48.68289" lon="5.77353">
        <ele>273</ele>
        <time>2014-06-05T11:14:44Z</time>
      </trkpt>
      <trkpt lat="48.68296" lon="5.77307">
        <ele>271</ele>
        <time>2014-06-05T11:14:49Z</time>
      </trkpt>
      <trkpt lat="48.68302" lon="5.77263">
        <ele>268</ele>
        <time>2014-06-05T11:14:54Z</time>
      </trkpt>
      <trkpt lat="48.68309" lon="5.77219">
        <ele>265</ele>
        <time>2014-06-05T11:14:59Z</time>
      </trkpt>
      <trkpt lat="48.68312" lon="5.77175">
        <ele>263</ele>
        <time>2014-06-05T11:15:04Z</time>
      </trkpt>
      <trkpt lat="48.68309" lon="5.77131">
        <ele>263</ele>
        <time>2014-06-05T11:15:09Z</time>
      </trkpt>
      <trkpt lat="48.68296" lon="5.77088">
        <ele>263</ele>
        <time>2014-06-05T11:15:14Z</time>
      </trkpt>
      <trkpt lat="48.68275" lon="5.7705">
        <ele>263</ele>
        <time>2014-06-05T11:15:19Z</time>
      </trkpt>
      <trkpt lat="48.68252" lon="5.77017">
        <ele>263</ele>
        <time>2014-06-05T11:15:24Z</time>
      </trkpt>
      <trkpt lat="48.68227" lon="5.76982">
        <ele>264</ele>
        <time>2014-06-05T11:15:29Z</time>
      </trkpt>
      <trkpt lat="48.68203" lon="5.76948">
        <ele>264</ele>
        <time>2014-06-05T11:15:34Z</time>
      </trkpt>
      <trkpt lat="48.6818" lon="5.76917">
        <ele>264</ele>
        <time>2014-06-05T11:15:39Z</time>
      </trkpt>
      <trkpt lat="48.68158" lon="5.76888">
        <ele>266</ele>
        <time>2014-06-05T11:15:44Z</time>
      </trkpt>
      <trkpt lat="48.68136" lon="5.76859">
        <ele>269</ele>
        <time>2014-06-05T11:15:49Z</time>
      </trkpt>
      <trkpt lat="48.68115" lon="5.7683">
        <ele>270</ele>
        <time>2014-06-05T11:15:54Z</time>
      </trkpt>
      <trkpt lat="48.68089" lon="5.76798">
        <ele>270</ele>
        <time>2014-06-05T11:15:59Z</time>
      </trkpt>
      <trkpt lat="48.68062" lon="5.76765">
        <ele>270</ele>
        <time>2014-06-05T11:16:04Z</time>
      </trkpt>
      <trkpt lat="48.68034" lon="5.76727">
        <ele>268</ele>
        <time>2014-06-05T11:16:09Z</time>
      </trkpt>
      <trkpt lat="48.68013" lon="5.76679">
        <ele>267</ele>
        <time>2014-06-05T11:16:14Z</time>
      </trkpt>
      <trkpt lat="48.67989" lon="5.76617">
        <ele>265</ele>
        <time>2014-06-05T11:16:20Z</time>
      </trkpt>
      <trkpt lat="48.6797" lon="5.76562">
        <ele>264</ele>
        <time>2014-06-05T11:16:25Z</time>
      </trkpt>
      <trkpt lat="48.67959" lon="5.76511">
        <ele>263</ele>
        <time>2014-06-05T11:16:30Z</time>
      </trkpt>
      <trkpt lat="48.67958" lon="5.76459">
        <ele>262</ele>
        <time>2014-06-05T11:16:35Z</time>
      </trkpt>
      <trkpt lat="48.67962" lon="5.76413">
        <ele>258</ele>
        <time>2014-06-05T11:16:40Z</time>
      </trkpt>
      <trkpt lat="48.67966" lon="5.76372">
        <ele>254</ele>
        <time>2014-06-05T11:16:45Z</time>
      </trkpt>
      <trkpt lat="48.67972" lon="5.76341">
        <ele>251</ele>
        <time>2014-06-05T11:16:50Z</time>
      </trkpt>
      <trkpt lat="48.67978" lon="5.76316">
        <ele>249</ele>
        <time>2014-06-05T11:16:55Z</time>
      </trkpt>
      <trkpt lat="48.67984" lon="5.76284">
        <ele>248</ele>
        <time>2014-06-05T11:17:00Z</time>
      </trkpt>
      <trkpt lat="48.67993" lon="5.76247">
        <ele>248</ele>
        <time>2014-06-05T11:17:05Z</time>
      </trkpt>
      <trkpt lat="48.68006" lon="5.76212">
        <ele>248</ele>
        <time>2014-06-05T11:17:10Z</time>
      </trkpt>
      <trkpt lat="48.68025" lon="5.76179">
        <ele>248</ele>
        <time>2014-06-05T11:17:15Z</time>
      </trkpt>
      <trkpt lat="48.68045" lon="5.7615">
        <ele>248</ele>
        <time>2014-06-05T11:17:20Z</time>
      </trkpt>
      <trkpt lat="48.68062" lon="5.76122">
        <ele>251</ele>
        <time>2014-06-05T11:17:25Z</time>
      </trkpt>
      <trkpt lat="48.68079" lon="5.76095">
        <ele>252</ele>
        <time>2014-06-05T11:17:30Z</time>
      </trkpt>
      <trkpt lat="48.68097" lon="5.76068">
        <ele>253</ele>
        <time>2014-06-05T11:17:35Z</time>
      </trkpt>
      <trkpt lat="48.68115" lon="5.76043">
        <ele>253</ele>
        <time>2014-06-05T11:17:40Z</time>
      </trkpt>
      <trkpt lat="48.68132" lon="5.76016">
        <ele>254</ele>
        <time>2014-06-05T11:17:45Z</time>
      </trkpt>
      <trkpt lat="48.68148" lon="5.7599">
        <ele>254</ele>
        <time>2014-06-05T11:17:50Z</time>
      </trkpt>
      <trkpt lat="48.68166" lon="5.75957">
        <ele>254</ele>
        <time>2014-06-05T11:17:55Z</time>
      </trkpt>
      <trkpt lat="48.68182" lon="5.75916">
        <ele>253</ele>
        <time>2014-06-05T11:18:00Z</time>
      </trkpt>
      <trkpt lat="48.68198" lon="5.75874">
        <ele>250</ele>
        <time>2014-06-05T11:18:05Z</time>
      </trkpt>
      <trkpt lat="48.68211" lon="5.75833">
        <ele>247</ele>
        <time>2014-06-05T11:18:10Z</time>
      </trkpt>
      <trkpt lat="48.68221" lon="5.75801">
        <ele>247</ele>
        <time>2014-06-05T11:18:15Z</time>
      </trkpt>
      <trkpt lat="48.68229" lon="5.7578">
        <ele>247</ele>
        <time>2014-06-05T11:18:20Z</time>
      </trkpt>
      <trkpt lat="48.68233" lon="5.75768">
        <ele>247</ele>
        <time>2014-06-05T11:18:25Z</time>
      </trkpt>
      <trkpt lat="48.68235" lon="5.75757">
        <ele>247</ele>
        <time>2014-06-05T11:18:30Z</time>
      </trkpt>
      <trkpt lat="48.68239" lon="5.75742">
        <ele>247</ele>
        <time>2014-06-05T11:18:35Z</time>
      </trkpt>
      <trkpt lat="48.68242" lon="5.7573">
        <ele>247</ele>
        <time>2014-06-05T11:18:40Z</time>
      </trkpt>
      <trkpt lat="48.68245" lon="5.75725">
        <ele>247</ele>
        <time>2014-06-05T11:18:47Z</time>
      </trkpt>
      <trkpt lat="48.68249" lon="5.75708">
        <ele>247</ele>
        <time>2014-06-05T11:18:52Z</time>
      </trkpt>
      <trkpt lat="48.68256" lon="5.75683">
        <ele>247</ele>
        <time>2014-06-05T11:18:57Z</time>
      </trkpt>
      <trkpt lat="48.68266" lon="5.75657">
        <ele>247</ele>
        <time>2014-06-05T11:19:02Z</time>
      </trkpt>
      <trkpt lat="48.68275" lon="5.75627">
        <ele>247</ele>
        <time>2014-06-05T11:19:07Z</time>
      </trkpt>
      <trkpt lat="48.68284" lon="5.75597">
        <ele>247</ele>
        <time>2014-06-05T11:19:12Z</time>
      </trkpt>
      <trkpt lat="48.68293" lon="5.75568">
        <ele>247</ele>
        <time>2014-06-05T11:19:17Z</time>
      </trkpt>
      <trkpt lat="48.683" lon="5.75543">
        <ele>247</ele>
        <time>2014-06-05T11:19:22Z</time>
      </trkpt>
      <trkpt lat="48.68307" lon="5.7552">
        <ele>247</ele>
        <time>2014-06-05T11:19:27Z</time>
      </trkpt>
      <trkpt lat="48.68312" lon="5.75493">
        <ele>247</ele>
        <time>2014-06-05T11:19:32Z</time>
      </trkpt>
      <trkpt lat="48.68314" lon="5.75465">
        <ele>247</ele>
        <time>2014-06-05T11:19:37Z</time>
      </trkpt>
      <trkpt lat="48.68309" lon="5.7544">
        <ele>248</ele>
        <time>2014-06-05T11:19:42Z</time>
      </trkpt>
      <trkpt lat="48.68302" lon="5.75417">
        <ele>251</ele>
        <time>2014-06-05T11:19:47Z</time>
      </trkpt>
      <trkpt lat="48.6829" lon="5.75397">
        <ele>254</ele>
        <time>2014-06-05T11:19:52Z</time>
      </trkpt>
      <trkpt lat="48.68275" lon="5.75381">
        <ele>258</ele>
        <time>2014-06-05T11:19:57Z</time>
      </trkpt>
      <trkpt lat="48.6826" lon="5.75365">
        <ele>262</ele>
        <time>2014-06-05T11:20:02Z</time>
      </trkpt>
      <trkpt lat="48.68244" lon="5.75347">
        <ele>266</ele>
        <time>2014-06-05T11:20:07Z</time>
      </trkpt>
      <trkpt lat="48.6823" lon="5.75329">
        <ele>267</ele>
        <time>2014-06-05T11:20:12Z</time>
      </trkpt>
      <trkpt lat="48.68215" lon="5.75312">
        <ele>269</ele>
        <time>2014-06-05T11:20:17Z</time>
      </trkpt>
      <trkpt lat="48.68202" lon="5.75293">
        <ele>271</ele>
        <time>2014-06-05T11:20:22Z</time>
      </trkpt>
      <trkpt lat="48.68188" lon="5.75275">
        <ele>273</ele>
        <time>2014-06-05T11:20:27Z</time>
      </trkpt>
      <trkpt lat="48.68173" lon="5.75255">
        <ele>274</ele>
        <time>2014-06-05T11:20:32Z</time>
      </trkpt>
      <trkpt lat="48.68159" lon="5.75236">
        <ele>274</ele>
        <time>2014-06-05T11:20:37Z</time>
      </trkpt>
      <trkpt lat="48.68145" lon="5.75217">
        <ele>276</ele>
        <time>2014-06-05T11:20:42Z</time>
      </trkpt>
      <trkpt lat="48.68129" lon="5.75197">
        <ele>277</ele>
        <time>2014-06-05T11:20:47Z</time>
      </trkpt>
      <trkpt lat="48.68114" lon="5.75177">
        <ele>278</ele>
        <time>2014-06-05T11:20:52Z</time>
      </trkpt>
      <trkpt lat="48.68099" lon="5.75157">
        <ele>278</ele>
        <time>2014-06-05T11:20:57Z</time>
      </trkpt>
      <trkpt lat="48.68084" lon="5.75138">
        <ele>278</ele>
        <time>2014-06-05T11:21:02Z</time>
      </trkpt>
      <trkpt lat="48.68068" lon="5.7512">
        <ele>278</ele>
        <time>2014-06-05T11:21:07Z</time>
      </trkpt>
      <trkpt lat="48.68051" lon="5.75103">
        <ele>279</ele>
        <time>2014-06-05T11:21:12Z</time>
      </trkpt>
      <trkpt lat="48.68038" lon="5.7508">
        <ele>279</ele>
        <time>2014-06-05T11:21:17Z</time>
      </trkpt>
      <trkpt lat="48.68035" lon="5.75048">
        <ele>279</ele>
        <time>2014-06-05T11:21:22Z</time>
      </trkpt>
      <trkpt lat="48.68037" lon="5.75016">
        <ele>279</ele>
        <time>2014-06-05T11:21:27Z</time>
      </trkpt>
      <trkpt lat="48.68047" lon="5.74992">
        <ele>279</ele>
        <time>2014-06-05T11:21:32Z</time>
      </trkpt>
      <trkpt lat="48.68065" lon="5.74971">
        <ele>279</ele>
        <time>2014-06-05T11:21:37Z</time>
      </trkpt>
      <trkpt lat="48.68084" lon="5.74954">
        <ele>278</ele>
        <time>2014-06-05T11:21:42Z</time>
      </trkpt>
      <trkpt lat="48.68103" lon="5.7494">
        <ele>278</ele>
        <time>2014-06-05T11:21:47Z</time>
      </trkpt>
      <trkpt lat="48.68122" lon="5.74928">
        <ele>278</ele>
        <time>2014-06-05T11:21:52Z</time>
      </trkpt>
      <trkpt lat="48.68142" lon="5.74914">
        <ele>278</ele>
        <time>2014-06-05T11:21:57Z</time>
      </trkpt>
      <trkpt lat="48.68161" lon="5.74897">
        <ele>278</ele>
        <time>2014-06-05T11:22:02Z</time>
      </trkpt>
      <trkpt lat="48.68179" lon="5.7487">
        <ele>278</ele>
        <time>2014-06-05T11:22:07Z</time>
      </trkpt>
      <trkpt lat="48.68193" lon="5.74835">
        <ele>278</ele>
        <time>2014-06-05T11:22:12Z</time>
      </trkpt>
      <trkpt lat="48.68202" lon="5.74793">
        <ele>278</ele>
        <time>2014-06-05T11:22:17Z</time>
      </trkpt>
      <trkpt lat="48.68208" lon="5.7475">
        <ele>278</ele>
        <time>2014-06-05T11:22:22Z</time>
      </trkpt>
      <trkpt lat="48.68213" lon="5.74704">
        <ele>275</ele>
        <time>2014-06-05T11:22:27Z</time>
      </trkpt>
      <trkpt lat="48.68219" lon="5.74656">
        <ele>272</ele>
        <time>2014-06-05T11:22:32Z</time>
      </trkpt>
      <trkpt lat="48.68225" lon="5.74607">
        <ele>270</ele>
        <time>2014-06-05T11:22:37Z</time>
      </trkpt>
      <trkpt lat="48.68231" lon="5.74559">
        <ele>269</ele>
        <time>2014-06-05T11:22:42Z</time>
      </trkpt>
      <trkpt lat="48.68238" lon="5.74512">
        <ele>267</ele>
        <time>2014-06-05T11:22:47Z</time>
      </trkpt>
      <trkpt lat="48.68243" lon="5.74467">
        <ele>267</ele>
        <time>2014-06-05T11:22:52Z</time>
      </trkpt>
      <trkpt lat="48.6825" lon="5.74422">
        <ele>265</ele>
        <time>2014-06-05T11:22:57Z</time>
      </trkpt>
      <trkpt lat="48.68256" lon="5.74376">
        <ele>264</ele>
        <time>2014-06-05T11:23:02Z</time>
      </trkpt>
      <trkpt lat="48.68262" lon="5.74329">
        <ele>263</ele>
        <time>2014-06-05T11:23:07Z</time>
      </trkpt>
      <trkpt lat="48.68268" lon="5.74281">
        <ele>262</ele>
        <time>2014-06-05T11:23:12Z</time>
      </trkpt>
      <trkpt lat="48.68275" lon="5.74232">
        <ele>261</ele>
        <time>2014-06-05T11:23:17Z</time>
      </trkpt>
      <trkpt lat="48.6828" lon="5.74184">
        <ele>261</ele>
        <time>2014-06-05T11:23:22Z</time>
      </trkpt>
      <trkpt lat="48.68287" lon="5.74136">
        <ele>260</ele>
        <time>2014-06-05T11:23:27Z</time>
      </trkpt>
      <trkpt lat="48.68293" lon="5.74088">
        <ele>259</ele>
        <time>2014-06-05T11:23:32Z</time>
      </trkpt>
      <trkpt lat="48.68299" lon="5.74041">
        <ele>258</ele>
        <time>2014-06-05T11:23:37Z</time>
      </trkpt>
      <trkpt lat="48.68303" lon="5.73994">
        <ele>258</ele>
        <time>2014-06-05T11:23:42Z</time>
      </trkpt>
      <trkpt lat="48.68308" lon="5.73946">
        <ele>258</ele>
        <time>2014-06-05T11:23:47Z</time>
      </trkpt>
      <trkpt lat="48.68314" lon="5.73897">
        <ele>258</ele>
        <time>2014-06-05T11:23:52Z</time>
      </trkpt>
      <trkpt lat="48.68321" lon="5.73849">
        <ele>257</ele>
        <time>2014-06-05T11:23:57Z</time>
      </trkpt>
      <trkpt lat="48.68328" lon="5.73801">
        <ele>255</ele>
        <time>2014-06-05T11:24:02Z</time>
      </trkpt>
      <trkpt lat="48.68334" lon="5.7375">
        <ele>255</ele>
        <time>2014-06-05T11:24:07Z</time>
      </trkpt>
      <trkpt lat="48.68339" lon="5.737">
        <ele>254</ele>
        <time>2014-06-05T11:24:12Z</time>
      </trkpt>
      <trkpt lat="48.68345" lon="5.73649">
        <ele>253</ele>
        <time>2014-06-05T11:24:17Z</time>
      </trkpt>
      <trkpt lat="48.6835" lon="5.73596">
        <ele>251</ele>
        <time>2014-06-05T11:24:22Z</time>
      </trkpt>
      <trkpt lat="48.68356" lon="5.73541">
        <ele>250</ele>
        <time>2014-06-05T11:24:27Z</time>
      </trkpt>
      <trkpt lat="48.68364" lon="5.73484">
        <ele>248</ele>
        <time>2014-06-05T11:24:32Z</time>
      </trkpt>
      <trkpt lat="48.68371" lon="5.73429">
        <ele>247</ele>
        <time>2014-06-05T11:24:37Z</time>
      </trkpt>
      <trkpt lat="48.68379" lon="5.73372">
        <ele>245</ele>
        <time>2014-06-05T11:24:42Z</time>
      </trkpt>
      <trkpt lat="48.68389" lon="5.73315">
        <ele>243</ele>
        <time>2014-06-05T11:24:47Z</time>
      </trkpt>
      <trkpt lat="48.68399" lon="5.7326">
        <ele>241</ele>
        <time>2014-06-05T11:24:52Z</time>
      </trkpt>
      <trkpt lat="48.68407" lon="5.73208">
        <ele>240</ele>
        <time>2014-06-05T11:24:57Z</time>
      </trkpt>
      <trkpt lat="48.68418" lon="5.73155">
        <ele>240</ele>
        <time>2014-06-05T11:25:02Z</time>
      </trkpt>
      <trkpt lat="48.68427" lon="5.73101">
        <ele>238</ele>
        <time>2014-06-05T11:25:07Z</time>
      </trkpt>
      <trkpt lat="48.68437" lon="5.73049">
        <ele>238</ele>
        <time>2014-06-05T11:25:12Z</time>
      </trkpt>
      <trkpt lat="48.6845" lon="5.72997">
        <ele>238</ele>
        <time>2014-06-05T11:25:17Z</time>
      </trkpt>
      <trkpt lat="48.68465" lon="5.72947">
        <ele>238</ele>
        <time>2014-06-05T11:25:22Z</time>
      </trkpt>
      <trkpt lat="48.68481" lon="5.72899">
        <ele>236</ele>
        <time>2014-06-05T11:25:27Z</time>
      </trkpt>
      <trkpt lat="48.68496" lon="5.72852">
        <ele>235</ele>
        <time>2014-06-05T11:25:32Z</time>
      </trkpt>
      <trkpt lat="48.68511" lon="5.72805">
        <ele>234</ele>
        <time>2014-06-05T11:25:37Z</time>
      </trkpt>
      <trkpt lat="48.68525" lon="5.72759">
        <ele>233</ele>
        <time>2014-06-05T11:25:42Z</time>
      </trkpt>
      <trkpt lat="48.68539" lon="5.72716">
        <ele>232</ele>
        <time>2014-06-05T11:25:47Z</time>
      </trkpt>
      <trkpt lat="48.68553" lon="5.72673">
        <ele>231</ele>
        <time>2014-06-05T11:25:52Z</time>
      </trkpt>
      <trkpt lat="48.68565" lon="5.72633">
        <ele>230</ele>
        <time>2014-06-05T11:25:57Z</time>
      </trkpt>
      <trkpt lat="48.68576" lon="5.726">
        <ele>230</ele>
        <time>2014-06-05T11:26:02Z</time>
      </trkpt>
      <trkpt lat="48.68585" lon="5.72573">
        <ele>230</ele>
        <time>2014-06-05T11:26:07Z</time>
      </trkpt>
      <trkpt lat="48.68592" lon="5.72542">
        <ele>230</ele>
        <time>2014-06-05T11:26:12Z</time>
      </trkpt>
      <trkpt lat="48.68602" lon="5.7251">
        <ele>230</ele>
        <time>2014-06-05T11:26:17Z</time>
      </trkpt>
      <trkpt lat="48.68612" lon="5.72475">
        <ele>230</ele>
        <time>2014-06-05T11:26:22Z</time>
      </trkpt>
      <trkpt lat="48.68623" lon="5.72438">
        <ele>230</ele>
        <time>2014-06-05T11:26:27Z</time>
      </trkpt>
      <trkpt lat="48.68634" lon="5.72395">
        <ele>232</ele>
        <time>2014-06-05T11:26:32Z</time>
      </trkpt>
      <trkpt lat="48.68647" lon="5.72354">
        <ele>233</ele>
        <time>2014-06-05T11:26:37Z</time>
      </trkpt>
      <trkpt lat="48.6866" lon="5.72314">
        <ele>233</ele>
        <time>2014-06-05T11:26:42Z</time>
      </trkpt>
      <trkpt lat="48.68672" lon="5.72276">
        <ele>235</ele>
        <time>2014-06-05T11:26:47Z</time>
      </trkpt>
      <trkpt lat="48.68684" lon="5.72236">
        <ele>235</ele>
        <time>2014-06-05T11:26:52Z</time>
      </trkpt>
      <trkpt lat="48.68697" lon="5.72197">
        <ele>235</ele>
        <time>2014-06-05T11:26:57Z</time>
      </trkpt>
      <trkpt lat="48.6871" lon="5.72156">
        <ele>235</ele>
        <time>2014-06-05T11:27:02Z</time>
      </trkpt>
      <trkpt lat="48.68721" lon="5.72115">
        <ele>235</ele>
        <time>2014-06-05T11:27:07Z</time>
      </trkpt>
      <trkpt lat="48.68733" lon="5.72078">
        <ele>235</ele>
        <time>2014-06-05T11:27:12Z</time>
      </trkpt>
      <trkpt lat="48.68745" lon="5.7204">
        <ele>235</ele>
        <time>2014-06-05T11:27:17Z</time>
      </trkpt>
      <trkpt lat="48.68758" lon="5.72004">
        <ele>235</ele>
        <time>2014-06-05T11:27:22Z</time>
      </trkpt>
      <trkpt lat="48.68771" lon="5.71974">
        <ele>235</ele>
        <time>2014-06-05T11:27:27Z</time>
      </trkpt>
      <trkpt lat="48.68784" lon="5.71944">
        <ele>239</ele>
        <time>2014-06-05T11:27:32Z</time>
      </trkpt>
      <trkpt lat="48.68799" lon="5.71917">
        <ele>244</ele>
        <time>2014-06-05T11:27:37Z</time>
      </trkpt>
      <trkpt lat="48.68801" lon="5.71889">
        <ele>249</ele>
        <time>2014-06-05T11:27:42Z</time>
      </trkpt>
      <trkpt lat="48.688" lon="5.71862">
        <ele>249</ele>
        <time>2014-06-05T11:27:47Z</time>
      </trkpt>
      <trkpt lat="48.68798" lon="5.71834">
        <ele>249</ele>
        <time>2014-06-05T11:27:52Z</time>
      </trkpt>
      <trkpt lat="48.68798" lon="5.71815">
        <ele>249</ele>
        <time>2014-06-05T11:27:57Z</time>
      </trkpt>
      <trkpt lat="48.68802" lon="5.71807">
        <ele>253</ele>
        <time>2014-06-05T11:28:08Z</time>
      </trkpt>
      <trkpt lat="48.68805" lon="5.71792">
        <ele>253</ele>
        <time>2014-06-05T11:28:13Z</time>
      </trkpt>
      <trkpt lat="48.68805" lon="5.71785">
        <ele>252</ele>
        <time>2014-06-05T11:28:19Z</time>
      </trkpt>
      <trkpt lat="48.68805" lon="5.71781">
        <ele>251</ele>
        <time>2014-06-05T11:28:25Z</time>
      </trkpt>
      <trkpt lat="48.68804" lon="5.71775">
        <ele>251</ele>
        <time>2014-06-05T11:28:30Z</time>
      </trkpt>
      <trkpt lat="48.68808" lon="5.71751">
        <ele>251</ele>
        <time>2014-06-05T11:28:35Z</time>
      </trkpt>
      <trkpt lat="48.68813" lon="5.71726">
        <ele>251</ele>
        <time>2014-06-05T11:28:40Z</time>
      </trkpt>
      <trkpt lat="48.68821" lon="5.71695">
        <ele>250</ele>
        <time>2014-06-05T11:28:45Z</time>
      </trkpt>
      <trkpt lat="48.68834" lon="5.71666">
        <ele>249</ele>
        <time>2014-06-05T11:28:50Z</time>
      </trkpt>
      <trkpt lat="48.68848" lon="5.71636">
        <ele>248</ele>
        <time>2014-06-05T11:28:55Z</time>
      </trkpt>
      <trkpt lat="48.68864" lon="5.716">
        <ele>248</ele>
        <time>2014-06-05T11:29:00Z</time>
      </trkpt>
      <trkpt lat="48.68884" lon="5.71564">
        <ele>248</ele>
        <time>2014-06-05T11:29:05Z</time>
      </trkpt>
      <trkpt lat="48.68907" lon="5.71532">
        <ele>247</ele>
        <time>2014-06-05T11:29:10Z</time>
      </trkpt>
      <trkpt lat="48.68929" lon="5.71503">
        <ele>245</ele>
        <time>2014-06-05T11:29:15Z</time>
      </trkpt>
      <trkpt lat="48.68949" lon="5.71473">
        <ele>244</ele>
        <time>2014-06-05T11:29:20Z</time>
      </trkpt>
      <trkpt lat="48.68969" lon="5.71443">
        <ele>242</ele>
        <time>2014-06-05T11:29:25Z</time>
      </trkpt>
      <trkpt lat="48.68984" lon="5.7141">
        <ele>242</ele>
        <time>2014-06-05T11:29:30Z</time>
      </trkpt>
      <trkpt lat="48.6899" lon="5.71378">
        <ele>241</ele>
        <time>2014-06-05T11:29:35Z</time>
      </trkpt>
      <trkpt lat="48.6899" lon="5.71342">
        <ele>241</ele>
        <time>2014-06-05T11:29:40Z</time>
      </trkpt>
      <trkpt lat="48.68987" lon="5.71303">
        <ele>241</ele>
        <time>2014-06-05T11:29:45Z</time>
      </trkpt>
      <trkpt lat="48.68983" lon="5.71265">
        <ele>241</ele>
        <time>2014-06-05T11:29:50Z</time>
      </trkpt>
      <trkpt lat="48.68979" lon="5.71221">
        <ele>242</ele>
        <time>2014-06-05T11:29:55Z</time>
      </trkpt>
      <trkpt lat="48.68976" lon="5.71172">
        <ele>242</ele>
        <time>2014-06-05T11:30:00Z</time>
      </trkpt>
      <trkpt lat="48.68976" lon="5.7112">
        <ele>242</ele>
        <time>2014-06-05T11:30:05Z</time>
      </trkpt>
      <trkpt lat="48.68977" lon="5.71069">
        <ele>242</ele>
        <time>2014-06-05T11:30:10Z</time>
      </trkpt>
      <trkpt lat="48.68977" lon="5.71023">
        <ele>242</ele>
        <time>2014-06-05T11:30:15Z</time>
      </trkpt>
      <trkpt lat="48.68978" lon="5.70981">
        <ele>242</ele>
        <time>2014-06-05T11:30:20Z</time>
      </trkpt>
      <trkpt lat="48.6898" lon="5.70938">
        <ele>241</ele>
        <time>2014-06-05T11:30:25Z</time>
      </trkpt>
      <trkpt lat="48.6898" lon="5.70896">
        <ele>240</ele>
        <time>2014-06-05T11:30:30Z</time>
      </trkpt>
      <trkpt lat="48.68981" lon="5.70855">
        <ele>240</ele>
        <time>2014-06-05T11:30:35Z</time>
      </trkpt>
      <trkpt lat="48.68982" lon="5.70822">
        <ele>240</ele>
        <time>2014-06-05T11:30:40Z</time>
      </trkpt>
      <trkpt lat="48.68983" lon="5.70795">
        <ele>240</ele>
        <time>2014-06-05T11:30:45Z</time>
      </trkpt>
      <trkpt lat="48.68983" lon="5.70778">
        <ele>240</ele>
        <time>2014-06-05T11:30:50Z</time>
      </trkpt>
      <trkpt lat="48.68983" lon="5.70764">
        <ele>240</ele>
        <time>2014-06-05T11:30:55Z</time>
      </trkpt>
      <trkpt lat="48.68983" lon="5.7075">
        <ele>240</ele>
        <time>2014-06-05T11:31:00Z</time>
      </trkpt>
      <trkpt lat="48.68983" lon="5.70737">
        <ele>240</ele>
        <time>2014-06-05T11:31:05Z</time>
      </trkpt>
      <trkpt lat="48.6898" lon="5.70741">
        <ele>240</ele>
        <time>2014-06-05T11:31:10Z</time>
      </trkpt>
      <trkpt lat="48.6898" lon="5.70752">
        <ele>240</ele>
        <time>2014-06-05T11:31:16Z</time>
      </trkpt>
      <trkpt lat="48.68982" lon="5.7077">
        <ele>240</ele>
        <time>2014-06-05T11:31:21Z</time>
      </trkpt>
      <trkpt lat="48.68991" lon="5.70785">
        <ele>240</ele>
        <time>2014-06-05T11:31:26Z</time>
      </trkpt>
      <trkpt lat="48.69001" lon="5.70787">
        <ele>240</ele>
        <time>2014-06-05T11:31:31Z</time>
      </trkpt>
      <trkpt lat="48.69008" lon="5.70787">
        <ele>239</ele>
        <time>2014-06-05T11:31:39Z</time>
      </trkpt>
      <trkpt lat="48.69011" lon="5.70786">
        <ele>236</ele>
        <time>2014-06-05T11:31:45Z</time>
      </trkpt>
      <trkpt lat="48.69011" lon="5.70788">
        <ele>239</ele>
        <time>2014-06-05T11:31:55Z</time>
      </trkpt>
      <trkpt lat="48.69014" lon="5.7079">
        <ele>239</ele>
        <time>2014-06-05T11:32:01Z</time>
      </trkpt>
      <trkpt lat="48.69008" lon="5.7079">
        <ele>244</ele>
        <time>2014-06-05T11:32:08Z</time>
      </trkpt>
      <trkpt lat="48.69012" lon="5.70786">
        <ele>239</ele>
        <time>2014-06-05T11:32:27Z</time>
      </trkpt>
      <trkpt lat="48.6903" lon="5.70778">
        <ele>239</ele>
        <time>2014-06-05T11:32:32Z</time>
      </trkpt>
      <trkpt lat="48.69053" lon="5.70769">
        <ele>239</ele>
        <time>2014-06-05T11:32:37Z</time>
      </trkpt>
      <trkpt lat="48.69079" lon="5.70757">
        <ele>239</ele>
        <time>2014-06-05T11:32:42Z</time>
      </trkpt>
      <trkpt lat="48.69102" lon="5.70748">
        <ele>239</ele>
        <time>2014-06-05T11:32:47Z</time>
      </trkpt>
      <trkpt lat="48.69125" lon="5.7074">
        <ele>239</ele>
        <time>2014-06-05T11:32:52Z</time>
      </trkpt>
      <trkpt lat="48.69146" lon="5.70731">
        <ele>239</ele>
        <time>2014-06-05T11:32:57Z</time>
      </trkpt>
      <trkpt lat="48.69169" lon="5.70723">
        <ele>239</ele>
        <time>2014-06-05T11:33:02Z</time>
      </trkpt>
      <trkpt lat="48.69191" lon="5.70716">
        <ele>239</ele>
        <time>2014-06-05T11:33:07Z</time>
      </trkpt>
      <trkpt lat="48.6921" lon="5.70708">
        <ele>239</ele>
        <time>2014-06-05T11:33:12Z</time>
      </trkpt>
      <trkpt lat="48.69226" lon="5.70703">
        <ele>239</ele>
        <time>2014-06-05T11:33:17Z</time>
      </trkpt>
      <trkpt lat="48.69239" lon="5.70698">
        <ele>238</ele>
        <time>2014-06-05T11:33:22Z</time>
      </trkpt>
      <trkpt lat="48.69251" lon="5.70694">
        <ele>238</ele>
        <time>2014-06-05T11:33:27Z</time>
      </trkpt>
      <trkpt lat="48.69262" lon="5.7069">
        <ele>237</ele>
        <time>2014-06-05T11:33:32Z</time>
      </trkpt>
      <trkpt lat="48.6927" lon="5.70687">
        <ele>237</ele>
        <time>2014-06-05T11:33:37Z</time>
      </trkpt>
      <trkpt lat="48.69277" lon="5.70682">
        <ele>237</ele>
        <time>2014-06-05T11:33:42Z</time>
      </trkpt>
      <trkpt lat="48.69287" lon="5.7068">
        <ele>236</ele>
        <time>2014-06-05T11:33:47Z</time>
      </trkpt>
      <trkpt lat="48.693" lon="5.70675">
        <ele>230</ele>
        <time>2014-06-05T11:33:56Z</time>
      </trkpt>
      <trkpt lat="48.69312" lon="5.70672">
        <ele>230</ele>
        <time>2014-06-05T11:34:01Z</time>
      </trkpt>
      <trkpt lat="48.69326" lon="5.70666">
        <ele>230</ele>
        <time>2014-06-05T11:34:06Z</time>
      </trkpt>
      <trkpt lat="48.69348" lon="5.70658">
        <ele>230</ele>
        <time>2014-06-05T11:34:12Z</time>
      </trkpt>
      <trkpt lat="48.69366" lon="5.70652">
        <ele>230</ele>
        <time>2014-06-05T11:34:17Z</time>
      </trkpt>
      <trkpt lat="48.69384" lon="5.70646">
        <ele>231</ele>
        <time>2014-06-05T11:34:22Z</time>
      </trkpt>
      <trkpt lat="48.69405" lon="5.70638">
        <ele>231</ele>
        <time>2014-06-05T11:34:27Z</time>
      </trkpt>
      <trkpt lat="48.69425" lon="5.7063">
        <ele>231</ele>
        <time>2014-06-05T11:34:32Z</time>
      </trkpt>
      <trkpt lat="48.69446" lon="5.70621">
        <ele>232</ele>
        <time>2014-06-05T11:34:37Z</time>
      </trkpt>
      <trkpt lat="48.69469" lon="5.70614">
        <ele>233</ele>
        <time>2014-06-05T11:34:42Z</time>
      </trkpt>
      <trkpt lat="48.69493" lon="5.70605">
        <ele>234</ele>
        <time>2014-06-05T11:34:47Z</time>
      </trkpt>
      <trkpt lat="48.69521" lon="5.70595">
        <ele>235</ele>
        <time>2014-06-05T11:34:53Z</time>
      </trkpt>
      <trkpt lat="48.69547" lon="5.70586">
        <ele>235</ele>
        <time>2014-06-05T11:34:58Z</time>
      </trkpt>
      <trkpt lat="48.69575" lon="5.70575">
        <ele>235</ele>
        <time>2014-06-05T11:35:03Z</time>
      </trkpt>
      <trkpt lat="48.69602" lon="5.70566">
        <ele>235</ele>
        <time>2014-06-05T11:35:08Z</time>
      </trkpt>
      <trkpt lat="48.6963" lon="5.70555">
        <ele>235</ele>
        <time>2014-06-05T11:35:13Z</time>
      </trkpt>
      <trkpt lat="48.69658" lon="5.70546">
        <ele>235</ele>
        <time>2014-06-05T11:35:18Z</time>
      </trkpt>
      <trkpt lat="48.69686" lon="5.70535">
        <ele>235</ele>
        <time>2014-06-05T11:35:23Z</time>
      </trkpt>
      <trkpt lat="48.69714" lon="5.70525">
        <ele>235</ele>
        <time>2014-06-05T11:35:28Z</time>
      </trkpt>
      <trkpt lat="48.69741" lon="5.70515">
        <ele>235</ele>
        <time>2014-06-05T11:35:33Z</time>
      </trkpt>
      <trkpt lat="48.69768" lon="5.70504">
        <ele>235</ele>
        <time>2014-06-05T11:35:38Z</time>
      </trkpt>
      <trkpt lat="48.69796" lon="5.70494">
        <ele>235</ele>
        <time>2014-06-05T11:35:43Z</time>
      </trkpt>
      <trkpt lat="48.6982" lon="5.70483">
        <ele>235</ele>
        <time>2014-06-05T11:35:48Z</time>
      </trkpt>
      <trkpt lat="48.69843" lon="5.7049">
        <ele>236</ele>
        <time>2014-06-05T11:35:53Z</time>
      </trkpt>
      <trkpt lat="48.69864" lon="5.70512">
        <ele>237</ele>
        <time>2014-06-05T11:35:58Z</time>
      </trkpt>
      <trkpt lat="48.69885" lon="5.70535">
        <ele>238</ele>
        <time>2014-06-05T11:36:03Z</time>
      </trkpt>
      <trkpt lat="48.69907" lon="5.70557">
        <ele>238</ele>
        <time>2014-06-05T11:36:08Z</time>
      </trkpt>
      <trkpt lat="48.69928" lon="5.70576">
        <ele>238</ele>
        <time>2014-06-05T11:36:13Z</time>
      </trkpt>
      <trkpt lat="48.69953" lon="5.7059">
        <ele>238</ele>
        <time>2014-06-05T11:36:18Z</time>
      </trkpt>
      <trkpt lat="48.69978" lon="5.70595">
        <ele>238</ele>
        <time>2014-06-05T11:36:23Z</time>
      </trkpt>
      <trkpt lat="48.70005" lon="5.7059">
        <ele>238</ele>
        <time>2014-06-05T11:36:28Z</time>
      </trkpt>
      <trkpt lat="48.7003" lon="5.70575">
        <ele>238</ele>
        <time>2014-06-05T11:36:33Z</time>
      </trkpt>
      <trkpt lat="48.70051" lon="5.70548">
        <ele>238</ele>
        <time>2014-06-05T11:36:38Z</time>
      </trkpt>
      <trkpt lat="48.70068" lon="5.70515">
        <ele>238</ele>
        <time>2014-06-05T11:36:43Z</time>
      </trkpt>
      <trkpt lat="48.70086" lon="5.70478">
        <ele>238</ele>
        <time>2014-06-05T11:36:48Z</time>
      </trkpt>
      <trkpt lat="48.70103" lon="5.70443">
        <ele>236</ele>
        <time>2014-06-05T11:36:53Z</time>
      </trkpt>
      <trkpt lat="48.70121" lon="5.70408">
        <ele>234</ele>
        <time>2014-06-05T11:36:58Z</time>
      </trkpt>
      <trkpt lat="48.70138" lon="5.70374">
        <ele>233</ele>
        <time>2014-06-05T11:37:03Z</time>
      </trkpt>
      <trkpt lat="48.70158" lon="5.70337">
        <ele>231</ele>
        <time>2014-06-05T11:37:08Z</time>
      </trkpt>
      <trkpt lat="48.70179" lon="5.70301">
        <ele>231</ele>
        <time>2014-06-05T11:37:13Z</time>
      </trkpt>
      <trkpt lat="48.702" lon="5.70267">
        <ele>231</ele>
        <time>2014-06-05T11:37:18Z</time>
      </trkpt>
      <trkpt lat="48.70213" lon="5.70239">
        <ele>231</ele>
        <time>2014-06-05T11:37:23Z</time>
      </trkpt>
      <trkpt lat="48.70223" lon="5.70219">
        <ele>231</ele>
        <time>2014-06-05T11:37:28Z</time>
      </trkpt>
      <trkpt lat="48.70236" lon="5.70192">
        <ele>231</ele>
        <time>2014-06-05T11:37:37Z</time>
      </trkpt>
      <trkpt lat="48.70248" lon="5.70161">
        <ele>231</ele>
        <time>2014-06-05T11:37:43Z</time>
      </trkpt>
      <trkpt lat="48.70257" lon="5.7013">
        <ele>231</ele>
        <time>2014-06-05T11:37:48Z</time>
      </trkpt>
      <trkpt lat="48.70268" lon="5.70097">
        <ele>231</ele>
        <time>2014-06-05T11:37:53Z</time>
      </trkpt>
      <trkpt lat="48.7028" lon="5.70058">
        <ele>231</ele>
        <time>2014-06-05T11:37:58Z</time>
      </trkpt>
      <trkpt lat="48.70298" lon="5.70022">
        <ele>231</ele>
        <time>2014-06-05T11:38:03Z</time>
      </trkpt>
      <trkpt lat="48.70317" lon="5.69991">
        <ele>231</ele>
        <time>2014-06-05T11:38:08Z</time>
      </trkpt>
      <trkpt lat="48.70334" lon="5.69961">
        <ele>231</ele>
        <time>2014-06-05T11:38:13Z</time>
      </trkpt>
      <trkpt lat="48.70348" lon="5.69934">
        <ele>231</ele>
        <time>2014-06-05T11:38:18Z</time>
      </trkpt>
      <trkpt lat="48.70363" lon="5.69907">
        <ele>231</ele>
        <time>2014-06-05T11:38:23Z</time>
      </trkpt>
      <trkpt lat="48.70375" lon="5.69878">
        <ele>231</ele>
        <time>2014-06-05T11:38:28Z</time>
      </trkpt>
      <trkpt lat="48.70384" lon="5.69849">
        <ele>231</ele>
        <time>2014-06-05T11:38:33Z</time>
      </trkpt>
      <trkpt lat="48.70394" lon="5.69817">
        <ele>231</ele>
        <time>2014-06-05T11:38:38Z</time>
      </trkpt>
      <trkpt lat="48.70404" lon="5.69788">
        <ele>231</ele>
        <time>2014-06-05T11:38:43Z</time>
      </trkpt>
      <trkpt lat="48.70418" lon="5.69761">
        <ele>231</ele>
        <time>2014-06-05T11:38:48Z</time>
      </trkpt>
      <trkpt lat="48.70431" lon="5.69734">
        <ele>231</ele>
        <time>2014-06-05T11:38:53Z</time>
      </trkpt>
      <trkpt lat="48.70445" lon="5.69704">
        <ele>231</ele>
        <time>2014-06-05T11:38:59Z</time>
      </trkpt>
      <trkpt lat="48.70453" lon="5.69683">
        <ele>231</ele>
        <time>2014-06-05T11:39:04Z</time>
      </trkpt>
      <trkpt lat="48.70444" lon="5.69669">
        <ele>233</ele>
        <time>2014-06-05T11:39:09Z</time>
      </trkpt>
      <trkpt lat="48.70436" lon="5.69657">
        <ele>236</ele>
        <time>2014-06-05T11:39:14Z</time>
      </trkpt>
      <trkpt lat="48.70426" lon="5.69642">
        <ele>238</ele>
        <time>2014-06-05T11:39:19Z</time>
      </trkpt>
      <trkpt lat="48.70414" lon="5.69625">
        <ele>242</ele>
        <time>2014-06-05T11:39:24Z</time>
      </trkpt>
      <trkpt lat="48.70403" lon="5.69605">
        <ele>245</ele>
        <time>2014-06-05T11:39:29Z</time>
      </trkpt>
      <trkpt lat="48.70393" lon="5.69587">
        <ele>247</ele>
        <time>2014-06-05T11:39:34Z</time>
      </trkpt>
      <trkpt lat="48.70383" lon="5.69566">
        <ele>249</ele>
        <time>2014-06-05T11:39:39Z</time>
      </trkpt>
      <trkpt lat="48.70375" lon="5.69543">
        <ele>251</ele>
        <time>2014-06-05T11:39:44Z</time>
      </trkpt>
      <trkpt lat="48.70365" lon="5.69517">
        <ele>252</ele>
        <time>2014-06-05T11:39:49Z</time>
      </trkpt>
      <trkpt lat="48.70355" lon="5.69494">
        <ele>253</ele>
        <time>2014-06-05T11:39:54Z</time>
      </trkpt>
      <trkpt lat="48.70346" lon="5.69472">
        <ele>254</ele>
        <time>2014-06-05T11:39:59Z</time>
      </trkpt>
      <trkpt lat="48.70336" lon="5.69449">
        <ele>254</ele>
        <time>2014-06-05T11:40:04Z</time>
      </trkpt>
      <trkpt lat="48.70327" lon="5.69424">
        <ele>255</ele>
        <time>2014-06-05T11:40:09Z</time>
      </trkpt>
      <trkpt lat="48.7032" lon="5.69402">
        <ele>256</ele>
        <time>2014-06-05T11:40:14Z</time>
      </trkpt>
      <trkpt lat="48.70312" lon="5.69384">
        <ele>256</ele>
        <time>2014-06-05T11:40:19Z</time>
      </trkpt>
      <trkpt lat="48.70308" lon="5.69362">
        <ele>257</ele>
        <time>2014-06-05T11:40:24Z</time>
      </trkpt>
      <trkpt lat="48.70308" lon="5.69338">
        <ele>257</ele>
        <time>2014-06-05T11:40:29Z</time>
      </trkpt>
      <trkpt lat="48.70309" lon="5.69315">
        <ele>258</ele>
        <time>2014-06-05T11:40:34Z</time>
      </trkpt>
      <trkpt lat="48.70308" lon="5.69292">
        <ele>259</ele>
        <time>2014-06-05T11:40:39Z</time>
      </trkpt>
      <trkpt lat="48.70309" lon="5.69268">
        <ele>260</ele>
        <time>2014-06-05T11:40:44Z</time>
      </trkpt>
      <trkpt lat="48.70312" lon="5.69244">
        <ele>260</ele>
        <time>2014-06-05T11:40:49Z</time>
      </trkpt>
      <trkpt lat="48.70315" lon="5.69218">
        <ele>261</ele>
        <time>2014-06-05T11:40:54Z</time>
      </trkpt>
      <trkpt lat="48.70314" lon="5.69195">
        <ele>261</ele>
        <time>2014-06-05T11:40:59Z</time>
      </trkpt>
      <trkpt lat="48.70304" lon="5.6918">
        <ele>261</ele>
        <time>2014-06-05T11:41:04Z</time>
      </trkpt>
      <trkpt lat="48.70291" lon="5.69168">
        <ele>262</ele>
        <time>2014-06-05T11:41:09Z</time>
      </trkpt>
      <trkpt lat="48.70278" lon="5.69156">
        <ele>262</ele>
        <time>2014-06-05T11:41:14Z</time>
      </trkpt>
      <trkpt lat="48.70264" lon="5.69141">
        <ele>263</ele>
        <time>2014-06-05T11:41:19Z</time>
      </trkpt>
      <trkpt lat="48.7025" lon="5.69125">
        <ele>264</ele>
        <time>2014-06-05T11:41:24Z</time>
      </trkpt>
      <trkpt lat="48.70236" lon="5.6911">
        <ele>265</ele>
        <time>2014-06-05T11:41:29Z</time>
      </trkpt>
      <trkpt lat="48.7022" lon="5.69092">
        <ele>266</ele>
        <time>2014-06-05T11:41:34Z</time>
      </trkpt>
      <trkpt lat="48.70203" lon="5.69073">
        <ele>266</ele>
        <time>2014-06-05T11:41:39Z</time>
      </trkpt>
      <trkpt lat="48.70187" lon="5.69055">
        <ele>267</ele>
        <time>2014-06-05T11:41:44Z</time>
      </trkpt>
      <trkpt lat="48.70169" lon="5.69035">
        <ele>268</ele>
        <time>2014-06-05T11:41:49Z</time>
      </trkpt>
      <trkpt lat="48.70151" lon="5.69016">
        <ele>268</ele>
        <time>2014-06-05T11:41:54Z</time>
      </trkpt>
      <trkpt lat="48.70135" lon="5.69">
        <ele>268</ele>
        <time>2014-06-05T11:41:59Z</time>
      </trkpt>
      <trkpt lat="48.70121" lon="5.68984">
        <ele>268</ele>
        <time>2014-06-05T11:42:04Z</time>
      </trkpt>
      <trkpt lat="48.70106" lon="5.68967">
        <ele>268</ele>
        <time>2014-06-05T11:42:09Z</time>
      </trkpt>
      <trkpt lat="48.70092" lon="5.68952">
        <ele>268</ele>
        <time>2014-06-05T11:42:14Z</time>
      </trkpt>
      <trkpt lat="48.70079" lon="5.68937">
        <ele>268</ele>
        <time>2014-06-05T11:42:19Z</time>
      </trkpt>
      <trkpt lat="48.70065" lon="5.68922">
        <ele>268</ele>
        <time>2014-06-05T11:42:24Z</time>
      </trkpt>
      <trkpt lat="48.70051" lon="5.68906">
        <ele>268</ele>
        <time>2014-06-05T11:42:29Z</time>
      </trkpt>
      <trkpt lat="48.70036" lon="5.68888">
        <ele>268</ele>
        <time>2014-06-05T11:42:34Z</time>
      </trkpt>
      <trkpt lat="48.70026" lon="5.68862">
        <ele>268</ele>
        <time>2014-06-05T11:42:39Z</time>
      </trkpt>
      <trkpt lat="48.70034" lon="5.68828">
        <ele>268</ele>
        <time>2014-06-05T11:42:44Z</time>
      </trkpt>
      <trkpt lat="48.7004" lon="5.6879">
        <ele>268</ele>
        <time>2014-06-05T11:42:49Z</time>
      </trkpt>
      <trkpt lat="48.70046" lon="5.68752">
        <ele>268</ele>
        <time>2014-06-05T11:42:54Z</time>
      </trkpt>
      <trkpt lat="48.7005" lon="5.68716">
        <ele>268</ele>
        <time>2014-06-05T11:42:59Z</time>
      </trkpt>
      <trkpt lat="48.70055" lon="5.6868">
        <ele>268</ele>
        <time>2014-06-05T11:43:04Z</time>
      </trkpt>
      <trkpt lat="48.70059" lon="5.68643">
        <ele>268</ele>
        <time>2014-06-05T11:43:09Z</time>
      </trkpt>
      <trkpt lat="48.70065" lon="5.68604">
        <ele>268</ele>
        <time>2014-06-05T11:43:14Z</time>
      </trkpt>
      <trkpt lat="48.7007" lon="5.68564">
        <ele>268</ele>
        <time>2014-06-05T11:43:19Z</time>
      </trkpt>
      <trkpt lat="48.70074" lon="5.68521">
        <ele>268</ele>
        <time>2014-06-05T11:43:24Z</time>
      </trkpt>
      <trkpt lat="48.70079" lon="5.68479">
        <ele>268</ele>
        <time>2014-06-05T11:43:29Z</time>
      </trkpt>
      <trkpt lat="48.70085" lon="5.68437">
        <ele>268</ele>
        <time>2014-06-05T11:43:34Z</time>
      </trkpt>
      <trkpt lat="48.7009" lon="5.68395">
        <ele>268</ele>
        <time>2014-06-05T11:43:39Z</time>
      </trkpt>
      <trkpt lat="48.70095" lon="5.68354">
        <ele>268</ele>
        <time>2014-06-05T11:43:44Z</time>
      </trkpt>
      <trkpt lat="48.701" lon="5.6831">
        <ele>268</ele>
        <time>2014-06-05T11:43:49Z</time>
      </trkpt>
      <trkpt lat="48.70105" lon="5.68265">
        <ele>266</ele>
        <time>2014-06-05T11:43:54Z</time>
      </trkpt>
      <trkpt lat="48.70111" lon="5.68222">
        <ele>265</ele>
        <time>2014-06-05T11:43:59Z</time>
      </trkpt>
      <trkpt lat="48.70117" lon="5.68177">
        <ele>264</ele>
        <time>2014-06-05T11:44:04Z</time>
      </trkpt>
      <trkpt lat="48.70123" lon="5.68132">
        <ele>262</ele>
        <time>2014-06-05T11:44:09Z</time>
      </trkpt>
      <trkpt lat="48.70129" lon="5.68086">
        <ele>260</ele>
        <time>2014-06-05T11:44:14Z</time>
      </trkpt>
      <trkpt lat="48.70135" lon="5.68042">
        <ele>260</ele>
        <time>2014-06-05T11:44:19Z</time>
      </trkpt>
      <trkpt lat="48.70141" lon="5.67998">
        <ele>258</ele>
        <time>2014-06-05T11:44:24Z</time>
      </trkpt>
      <trkpt lat="48.70147" lon="5.67953">
        <ele>257</ele>
        <time>2014-06-05T11:44:29Z</time>
      </trkpt>
      <trkpt lat="48.70146" lon="5.67911">
        <ele>256</ele>
        <time>2014-06-05T11:44:34Z</time>
      </trkpt>
      <trkpt lat="48.70129" lon="5.67885">
        <ele>256</ele>
        <time>2014-06-05T11:44:39Z</time>
      </trkpt>
      <trkpt lat="48.70108" lon="5.67863">
        <ele>256</ele>
        <time>2014-06-05T11:44:44Z</time>
      </trkpt>
      <trkpt lat="48.70088" lon="5.67839">
        <ele>256</ele>
        <time>2014-06-05T11:44:49Z</time>
      </trkpt>
      <trkpt lat="48.70068" lon="5.67816">
        <ele>256</ele>
        <time>2014-06-05T11:44:54Z</time>
      </trkpt>
      <trkpt lat="48.70049" lon="5.67793">
        <ele>256</ele>
        <time>2014-06-05T11:44:59Z</time>
      </trkpt>
      <trkpt lat="48.7003" lon="5.67772">
        <ele>256</ele>
        <time>2014-06-05T11:45:04Z</time>
      </trkpt>
      <trkpt lat="48.70011" lon="5.67751">
        <ele>256</ele>
        <time>2014-06-05T11:45:09Z</time>
      </trkpt>
      <trkpt lat="48.69995" lon="5.67732">
        <ele>256</ele>
        <time>2014-06-05T11:45:14Z</time>
      </trkpt>
      <trkpt lat="48.69995" lon="5.67702">
        <ele>256</ele>
        <time>2014-06-05T11:45:19Z</time>
      </trkpt>
      <trkpt lat="48.7001" lon="5.67681">
        <ele>256</ele>
        <time>2014-06-05T11:45:24Z</time>
      </trkpt>
      <trkpt lat="48.70029" lon="5.67659">
        <ele>255</ele>
        <time>2014-06-05T11:45:29Z</time>
      </trkpt>
      <trkpt lat="48.70052" lon="5.67634">
        <ele>254</ele>
        <time>2014-06-05T11:45:34Z</time>
      </trkpt>
      <trkpt lat="48.70076" lon="5.67609">
        <ele>253</ele>
        <time>2014-06-05T11:45:39Z</time>
      </trkpt>
      <trkpt lat="48.70104" lon="5.67586">
        <ele>251</ele>
        <time>2014-06-05T11:45:44Z</time>
      </trkpt>
      <trkpt lat="48.70133" lon="5.67563">
        <ele>248</ele>
        <time>2014-06-05T11:45:49Z</time>
      </trkpt>
      <trkpt lat="48.70161" lon="5.6755">
        <ele>247</ele>
        <time>2014-06-05T11:45:54Z</time>
      </trkpt>
      <trkpt lat="48.70181" lon="5.67535">
        <ele>247</ele>
        <time>2014-06-05T11:45:59Z</time>
      </trkpt>
      <trkpt lat="48.7018" lon="5.67515">
        <ele>247</ele>
        <time>2014-06-05T11:46:04Z</time>
      </trkpt>
      <trkpt lat="48.70179" lon="5.67499">
        <ele>247</ele>
        <time>2014-06-05T11:46:09Z</time>
      </trkpt>
      <trkpt lat="48.7019" lon="5.67485">
        <ele>247</ele>
        <time>2014-06-05T11:46:14Z</time>
      </trkpt>
      <trkpt lat="48.70209" lon="5.67467">
        <ele>247</ele>
        <time>2014-06-05T11:46:19Z</time>
      </trkpt>
      <trkpt lat="48.7023" lon="5.67448">
        <ele>247</ele>
        <time>2014-06-05T11:46:24Z</time>
      </trkpt>
      <trkpt lat="48.70253" lon="5.67428">
        <ele>247</ele>
        <time>2014-06-05T11:46:29Z</time>
      </trkpt>
      <trkpt lat="48.70256" lon="5.67402">
        <ele>247</ele>
        <time>2014-06-05T11:46:34Z</time>
      </trkpt>
      <trkpt lat="48.70234" lon="5.67397">
        <ele>247</ele>
        <time>2014-06-05T11:46:39Z</time>
      </trkpt>
      <trkpt lat="48.70218" lon="5.67394">
        <ele>246</ele>
        <time>2014-06-05T11:46:44Z</time>
      </trkpt>
      <trkpt lat="48.70208" lon="5.67389">
        <ele>244</ele>
        <time>2014-06-05T11:46:49Z</time>
      </trkpt>
      <trkpt lat="48.70187" lon="5.67366">
        <ele>242</ele>
        <time>2014-06-05T11:46:54Z</time>
      </trkpt>
      <trkpt lat="48.70161" lon="5.67338">
        <ele>240</ele>
        <time>2014-06-05T11:46:59Z</time>
      </trkpt>
      <trkpt lat="48.70136" lon="5.67309">
        <ele>239</ele>
        <time>2014-06-05T11:47:04Z</time>
      </trkpt>
      <trkpt lat="48.70114" lon="5.67278">
        <ele>239</ele>
        <time>2014-06-05T11:47:09Z</time>
      </trkpt>
      <trkpt lat="48.70093" lon="5.67247">
        <ele>239</ele>
        <time>2014-06-05T11:47:14Z</time>
      </trkpt>
      <trkpt lat="48.70073" lon="5.67216">
        <ele>239</ele>
        <time>2014-06-05T11:47:19Z</time>
      </trkpt>
      <trkpt lat="48.70053" lon="5.67187">
        <ele>239</ele>
        <time>2014-06-05T11:47:24Z</time>
      </trkpt>
      <trkpt lat="48.7004" lon="5.67153">
        <ele>239</ele>
        <time>2014-06-05T11:47:29Z</time>
      </trkpt>
      <trkpt lat="48.7005" lon="5.67111">
        <ele>238</ele>
        <time>2014-06-05T11:47:34Z</time>
      </trkpt>
      <trkpt lat="48.70065" lon="5.67069">
        <ele>237</ele>
        <time>2014-06-05T11:47:39Z</time>
      </trkpt>
      <trkpt lat="48.70079" lon="5.67024">
        <ele>236</ele>
        <time>2014-06-05T11:47:44Z</time>
      </trkpt>
      <trkpt lat="48.70093" lon="5.66983">
        <ele>235</ele>
        <time>2014-06-05T11:47:49Z</time>
      </trkpt>
      <trkpt lat="48.70097" lon="5.66943">
        <ele>233</ele>
        <time>2014-06-05T11:47:54Z</time>
      </trkpt>
      <trkpt lat="48.70076" lon="5.66924">
        <ele>233</ele>
        <time>2014-06-05T11:47:59Z</time>
      </trkpt>
      <trkpt lat="48.70051" lon="5.6691">
        <ele>232</ele>
        <time>2014-06-05T11:48:04Z</time>
      </trkpt>
      <trkpt lat="48.70028" lon="5.6689">
        <ele>232</ele>
        <time>2014-06-05T11:48:09Z</time>
      </trkpt>
      <trkpt lat="48.70004" lon="5.6687">
        <ele>231</ele>
        <time>2014-06-05T11:48:14Z</time>
      </trkpt>
      <trkpt lat="48.69981" lon="5.6685">
        <ele>231</ele>
        <time>2014-06-05T11:48:19Z</time>
      </trkpt>
      <trkpt lat="48.69959" lon="5.66831">
        <ele>231</ele>
        <time>2014-06-05T11:48:24Z</time>
      </trkpt>
      <trkpt lat="48.69936" lon="5.66812">
        <ele>231</ele>
        <time>2014-06-05T11:48:29Z</time>
      </trkpt>
      <trkpt lat="48.69912" lon="5.66801">
        <ele>231</ele>
        <time>2014-06-05T11:48:34Z</time>
      </trkpt>
      <trkpt lat="48.69888" lon="5.66795">
        <ele>231</ele>
        <time>2014-06-05T11:48:39Z</time>
      </trkpt>
      <trkpt lat="48.69862" lon="5.66793">
        <ele>231</ele>
        <time>2014-06-05T11:48:44Z</time>
      </trkpt>
      <trkpt lat="48.69834" lon="5.66791">
        <ele>231</ele>
        <time>2014-06-05T11:48:49Z</time>
      </trkpt>
      <trkpt lat="48.69806" lon="5.66789">
        <ele>231</ele>
        <time>2014-06-05T11:48:54Z</time>
      </trkpt>
      <trkpt lat="48.69779" lon="5.66787">
        <ele>231</ele>
        <time>2014-06-05T11:48:59Z</time>
      </trkpt>
      <trkpt lat="48.69751" lon="5.66785">
        <ele>231</ele>
        <time>2014-06-05T11:49:04Z</time>
      </trkpt>
      <trkpt lat="48.69722" lon="5.66783">
        <ele>231</ele>
        <time>2014-06-05T11:49:09Z</time>
      </trkpt>
      <trkpt lat="48.69693" lon="5.66781">
        <ele>231</ele>
        <time>2014-06-05T11:49:14Z</time>
      </trkpt>
      <trkpt lat="48.69665" lon="5.66779">
        <ele>231</ele>
        <time>2014-06-05T11:49:19Z</time>
      </trkpt>
      <trkpt lat="48.69636" lon="5.66777">
        <ele>231</ele>
        <time>2014-06-05T11:49:24Z</time>
      </trkpt>
      <trkpt lat="48.69604" lon="5.66776">
        <ele>231</ele>
        <time>2014-06-05T11:49:29Z</time>
      </trkpt>
      <trkpt lat="48.69575" lon="5.66774">
        <ele>231</ele>
        <time>2014-06-05T11:49:34Z</time>
      </trkpt>
      <trkpt lat="48.69546" lon="5.66768">
        <ele>231</ele>
        <time>2014-06-05T11:49:39Z</time>
      </trkpt>
      <trkpt lat="48.69517" lon="5.66758">
        <ele>231</ele>
        <time>2014-06-05T11:49:44Z</time>
      </trkpt>
      <trkpt lat="48.69487" lon="5.66746">
        <ele>231</ele>
        <time>2014-06-05T11:49:49Z</time>
      </trkpt>
      <trkpt lat="48.69461" lon="5.66735">
        <ele>231</ele>
        <time>2014-06-05T11:49:54Z</time>
      </trkpt>
      <trkpt lat="48.69434" lon="5.66725">
        <ele>231</ele>
        <time>2014-06-05T11:49:59Z</time>
      </trkpt>
      <trkpt lat="48.69407" lon="5.66714">
        <ele>231</ele>
        <time>2014-06-05T11:50:04Z</time>
      </trkpt>
      <trkpt lat="48.69379" lon="5.66704">
        <ele>231</ele>
        <time>2014-06-05T11:50:09Z</time>
      </trkpt>
      <trkpt lat="48.69352" lon="5.66693">
        <ele>231</ele>
        <time>2014-06-05T11:50:14Z</time>
      </trkpt>
      <trkpt lat="48.69325" lon="5.66681">
        <ele>231</ele>
        <time>2014-06-05T11:50:19Z</time>
      </trkpt>
      <trkpt lat="48.693" lon="5.66671">
        <ele>231</ele>
        <time>2014-06-05T11:50:24Z</time>
      </trkpt>
      <trkpt lat="48.69279" lon="5.66663">
        <ele>231</ele>
        <time>2014-06-05T11:50:29Z</time>
      </trkpt>
      <trkpt lat="48.6926" lon="5.66655">
        <ele>231</ele>
        <time>2014-06-05T11:50:34Z</time>
      </trkpt>
      <trkpt lat="48.69239" lon="5.66651">
        <ele>231</ele>
        <time>2014-06-05T11:50:39Z</time>
      </trkpt>
      <trkpt lat="48.69221" lon="5.66667">
        <ele>231</ele>
        <time>2014-06-05T11:50:44Z</time>
      </trkpt>
      <trkpt lat="48.69207" lon="5.66687">
        <ele>231</ele>
        <time>2014-06-05T11:50:49Z</time>
      </trkpt>
      <trkpt lat="48.69193" lon="5.66709">
        <ele>231</ele>
        <time>2014-06-05T11:50:54Z</time>
      </trkpt>
      <trkpt lat="48.69177" lon="5.66729">
        <ele>232</ele>
        <time>2014-06-05T11:50:59Z</time>
      </trkpt>
      <trkpt lat="48.69162" lon="5.6675">
        <ele>233</ele>
        <time>2014-06-05T11:51:04Z</time>
      </trkpt>
      <trkpt lat="48.69145" lon="5.66758">
        <ele>235</ele>
        <time>2014-06-05T11:51:09Z</time>
      </trkpt>
      <trkpt lat="48.69131" lon="5.66741">
        <ele>237</ele>
        <time>2014-06-05T11:51:14Z</time>
      </trkpt>
      <trkpt lat="48.69114" lon="5.66716">
        <ele>238</ele>
        <time>2014-06-05T11:51:19Z</time>
      </trkpt>
      <trkpt lat="48.69096" lon="5.66689">
        <ele>239</ele>
        <time>2014-06-05T11:51:24Z</time>
      </trkpt>
      <trkpt lat="48.69075" lon="5.66661">
        <ele>239</ele>
        <time>2014-06-05T11:51:29Z</time>
      </trkpt>
      <trkpt lat="48.69055" lon="5.66635">
        <ele>239</ele>
        <time>2014-06-05T11:51:34Z</time>
      </trkpt>
      <trkpt lat="48.69034" lon="5.6661">
        <ele>239</ele>
        <time>2014-06-05T11:51:39Z</time>
      </trkpt>
      <trkpt lat="48.69014" lon="5.6658">
        <ele>239</ele>
        <time>2014-06-05T11:51:44Z</time>
      </trkpt>
      <trkpt lat="48.68997" lon="5.6655">
        <ele>239</ele>
        <time>2014-06-05T11:51:49Z</time>
      </trkpt>
      <trkpt lat="48.68981" lon="5.66521">
        <ele>239</ele>
        <time>2014-06-05T11:51:54Z</time>
      </trkpt>
      <trkpt lat="48.68964" lon="5.66492">
        <ele>239</ele>
        <time>2014-06-05T11:51:59Z</time>
      </trkpt>
      <trkpt lat="48.68948" lon="5.66463">
        <ele>239</ele>
        <time>2014-06-05T11:52:04Z</time>
      </trkpt>
      <trkpt lat="48.68932" lon="5.66432">
        <ele>239</ele>
        <time>2014-06-05T11:52:09Z</time>
      </trkpt>
      <trkpt lat="48.68916" lon="5.66402">
        <ele>239</ele>
        <time>2014-06-05T11:52:14Z</time>
      </trkpt>
      <trkpt lat="48.68899" lon="5.6637">
        <ele>239</ele>
        <time>2014-06-05T11:52:19Z</time>
      </trkpt>
      <trkpt lat="48.68883" lon="5.66341">
        <ele>239</ele>
        <time>2014-06-05T11:52:24Z</time>
      </trkpt>
      <trkpt lat="48.68869" lon="5.66308">
        <ele>239</ele>
        <time>2014-06-05T11:52:29Z</time>
      </trkpt>
      <trkpt lat="48.68856" lon="5.66272">
        <ele>239</ele>
        <time>2014-06-05T11:52:34Z</time>
      </trkpt>
      <trkpt lat="48.68845" lon="5.66234">
        <ele>239</ele>
        <time>2014-06-05T11:52:39Z</time>
      </trkpt>
      <trkpt lat="48.68835" lon="5.66195">
        <ele>239</ele>
        <time>2014-06-05T11:52:44Z</time>
      </trkpt>
      <trkpt lat="48.68822" lon="5.66155">
        <ele>239</ele>
        <time>2014-06-05T11:52:49Z</time>
      </trkpt>
      <trkpt lat="48.68812" lon="5.66117">
        <ele>238</ele>
        <time>2014-06-05T11:52:54Z</time>
      </trkpt>
      <trkpt lat="48.68798" lon="5.66084">
        <ele>238</ele>
        <time>2014-06-05T11:52:59Z</time>
      </trkpt>
      <trkpt lat="48.68779" lon="5.66058">
        <ele>238</ele>
        <time>2014-06-05T11:53:04Z</time>
      </trkpt>
      <trkpt lat="48.68757" lon="5.66036">
        <ele>237</ele>
        <time>2014-06-05T11:53:09Z</time>
      </trkpt>
      <trkpt lat="48.68735" lon="5.66018">
        <ele>237</ele>
        <time>2014-06-05T11:53:14Z</time>
      </trkpt>
      <trkpt lat="48.68713" lon="5.66003">
        <ele>237</ele>
        <time>2014-06-05T11:53:19Z</time>
      </trkpt>
      <trkpt lat="48.68693" lon="5.65986">
        <ele>237</ele>
        <time>2014-06-05T11:53:24Z</time>
      </trkpt>
      <trkpt lat="48.68678" lon="5.65964">
        <ele>237</ele>
        <time>2014-06-05T11:53:29Z</time>
      </trkpt>
      <trkpt lat="48.68669" lon="5.65939">
        <ele>237</ele>
        <time>2014-06-05T11:53:34Z</time>
      </trkpt>
      <trkpt lat="48.68662" lon="5.65907">
        <ele>237</ele>
        <time>2014-06-05T11:53:39Z</time>
      </trkpt>
      <trkpt lat="48.68655" lon="5.65872">
        <ele>237</ele>
        <time>2014-06-05T11:53:44Z</time>
      </trkpt>
      <trkpt lat="48.68645" lon="5.65833">
        <ele>237</ele>
        <time>2014-06-05T11:53:49Z</time>
      </trkpt>
      <trkpt lat="48.68636" lon="5.65796">
        <ele>237</ele>
        <time>2014-06-05T11:53:54Z</time>
      </trkpt>
      <trkpt lat="48.68625" lon="5.65758">
        <ele>237</ele>
        <time>2014-06-05T11:53:59Z</time>
      </trkpt>
      <trkpt lat="48.68614" lon="5.65719">
        <ele>237</ele>
        <time>2014-06-05T11:54:04Z</time>
      </trkpt>
      <trkpt lat="48.68604" lon="5.6568">
        <ele>237</ele>
        <time>2014-06-05T11:54:09Z</time>
      </trkpt>
      <trkpt lat="48.68595" lon="5.65642">
        <ele>237</ele>
        <time>2014-06-05T11:54:14Z</time>
      </trkpt>
      <trkpt lat="48.68587" lon="5.65603">
        <ele>237</ele>
        <time>2014-06-05T11:54:19Z</time>
      </trkpt>
      <trkpt lat="48.68581" lon="5.65563">
        <ele>237</ele>
        <time>2014-06-05T11:54:24Z</time>
      </trkpt>
      <trkpt lat="48.68574" lon="5.65523">
        <ele>237</ele>
        <time>2014-06-05T11:54:29Z</time>
      </trkpt>
      <trkpt lat="48.68569" lon="5.65482">
        <ele>237</ele>
        <time>2014-06-05T11:54:34Z</time>
      </trkpt>
      <trkpt lat="48.68563" lon="5.65441">
        <ele>235</ele>
        <time>2014-06-05T11:54:39Z</time>
      </trkpt>
      <trkpt lat="48.68559" lon="5.65399">
        <ele>234</ele>
        <time>2014-06-05T11:54:44Z</time>
      </trkpt>
      <trkpt lat="48.68556" lon="5.65357">
        <ele>234</ele>
        <time>2014-06-05T11:54:49Z</time>
      </trkpt>
      <trkpt lat="48.68552" lon="5.65317">
        <ele>234</ele>
        <time>2014-06-05T11:54:54Z</time>
      </trkpt>
      <trkpt lat="48.68548" lon="5.65277">
        <ele>234</ele>
        <time>2014-06-05T11:54:59Z</time>
      </trkpt>
      <trkpt lat="48.68544" lon="5.65237">
        <ele>234</ele>
        <time>2014-06-05T11:55:04Z</time>
      </trkpt>
      <trkpt lat="48.6854" lon="5.65197">
        <ele>234</ele>
        <time>2014-06-05T11:55:09Z</time>
      </trkpt>
      <trkpt lat="48.68536" lon="5.65158">
        <ele>234</ele>
        <time>2014-06-05T11:55:14Z</time>
      </trkpt>
      <trkpt lat="48.68532" lon="5.65119">
        <ele>234</ele>
        <time>2014-06-05T11:55:19Z</time>
      </trkpt>
      <trkpt lat="48.68528" lon="5.65079">
        <ele>234</ele>
        <time>2014-06-05T11:55:24Z</time>
      </trkpt>
      <trkpt lat="48.68525" lon="5.65039">
        <ele>234</ele>
        <time>2014-06-05T11:55:29Z</time>
      </trkpt>
      <trkpt lat="48.68522" lon="5.64997">
        <ele>234</ele>
        <time>2014-06-05T11:55:34Z</time>
      </trkpt>
      <trkpt lat="48.68519" lon="5.64956">
        <ele>234</ele>
        <time>2014-06-05T11:55:39Z</time>
      </trkpt>
      <trkpt lat="48.68515" lon="5.64913">
        <ele>234</ele>
        <time>2014-06-05T11:55:44Z</time>
      </trkpt>
      <trkpt lat="48.68513" lon="5.6487">
        <ele>232</ele>
        <time>2014-06-05T11:55:49Z</time>
      </trkpt>
      <trkpt lat="48.68512" lon="5.64828">
        <ele>231</ele>
        <time>2014-06-05T11:55:54Z</time>
      </trkpt>
      <trkpt lat="48.68511" lon="5.64786">
        <ele>231</ele>
        <time>2014-06-05T11:55:59Z</time>
      </trkpt>
      <trkpt lat="48.68512" lon="5.64742">
        <ele>231</ele>
        <time>2014-06-05T11:56:04Z</time>
      </trkpt>
      <trkpt lat="48.68513" lon="5.64696">
        <ele>231</ele>
        <time>2014-06-05T11:56:09Z</time>
      </trkpt>
      <trkpt lat="48.68515" lon="5.64649">
        <ele>231</ele>
        <time>2014-06-05T11:56:14Z</time>
      </trkpt>
      <trkpt lat="48.68518" lon="5.64603">
        <ele>230</ele>
        <time>2014-06-05T11:56:19Z</time>
      </trkpt>
      <trkpt lat="48.68522" lon="5.64558">
        <ele>230</ele>
        <time>2014-06-05T11:56:24Z</time>
      </trkpt>
      <trkpt lat="48.68526" lon="5.64514">
        <ele>230</ele>
        <time>2014-06-05T11:56:29Z</time>
      </trkpt>
      <trkpt lat="48.68532" lon="5.6447">
        <ele>230</ele>
        <time>2014-06-05T11:56:34Z</time>
      </trkpt>
      <trkpt lat="48.68537" lon="5.64425">
        <ele>230</ele>
        <time>2014-06-05T11:56:39Z</time>
      </trkpt>
      <trkpt lat="48.68544" lon="5.6438">
        <ele>229</ele>
        <time>2014-06-05T11:56:44Z</time>
      </trkpt>
      <trkpt lat="48.6855" lon="5.64335">
        <ele>228</ele>
        <time>2014-06-05T11:56:49Z</time>
      </trkpt>
      <trkpt lat="48.68557" lon="5.64291">
        <ele>228</ele>
        <time>2014-06-05T11:56:54Z</time>
      </trkpt>
      <trkpt lat="48.68563" lon="5.64247">
        <ele>227</ele>
        <time>2014-06-05T11:56:59Z</time>
      </trkpt>
      <trkpt lat="48.68569" lon="5.64204">
        <ele>227</ele>
        <time>2014-06-05T11:57:04Z</time>
      </trkpt>
      <trkpt lat="48.68575" lon="5.64163">
        <ele>227</ele>
        <time>2014-06-05T11:57:09Z</time>
      </trkpt>
      <trkpt lat="48.68581" lon="5.6412">
        <ele>227</ele>
        <time>2014-06-05T11:57:14Z</time>
      </trkpt>
      <trkpt lat="48.68587" lon="5.64078">
        <ele>227</ele>
        <time>2014-06-05T11:57:19Z</time>
      </trkpt>
      <trkpt lat="48.68592" lon="5.64037">
        <ele>227</ele>
        <time>2014-06-05T11:57:24Z</time>
      </trkpt>
      <trkpt lat="48.68598" lon="5.63997">
        <ele>227</ele>
        <time>2014-06-05T11:57:29Z</time>
      </trkpt>
      <trkpt lat="48.68604" lon="5.63957">
        <ele>227</ele>
        <time>2014-06-05T11:57:34Z</time>
      </trkpt>
      <trkpt lat="48.68609" lon="5.63916">
        <ele>227</ele>
        <time>2014-06-05T11:57:39Z</time>
      </trkpt>
      <trkpt lat="48.68615" lon="5.63876">
        <ele>227</ele>
        <time>2014-06-05T11:57:44Z</time>
      </trkpt>
      <trkpt lat="48.68621" lon="5.63835">
        <ele>227</ele>
        <time>2014-06-05T11:57:49Z</time>
      </trkpt>
      <trkpt lat="48.68627" lon="5.63795">
        <ele>227</ele>
        <time>2014-06-05T11:57:54Z</time>
      </trkpt>
      <trkpt lat="48.68633" lon="5.63754">
        <ele>227</ele>
        <time>2014-06-05T11:57:59Z</time>
      </trkpt>
      <trkpt lat="48.68639" lon="5.63714">
        <ele>227</ele>
        <time>2014-06-05T11:58:04Z</time>
      </trkpt>
      <trkpt lat="48.68644" lon="5.6367">
        <ele>227</ele>
        <time>2014-06-05T11:58:09Z</time>
      </trkpt>
      <trkpt lat="48.6865" lon="5.63629">
        <ele>227</ele>
        <time>2014-06-05T11:58:14Z</time>
      </trkpt>
      <trkpt lat="48.68656" lon="5.63587">
        <ele>227</ele>
        <time>2014-06-05T11:58:19Z</time>
      </trkpt>
      <trkpt lat="48.68662" lon="5.63546">
        <ele>227</ele>
        <time>2014-06-05T11:58:24Z</time>
      </trkpt>
      <trkpt lat="48.68669" lon="5.63504">
        <ele>227</ele>
        <time>2014-06-05T11:58:29Z</time>
      </trkpt>
      <trkpt lat="48.68676" lon="5.63463">
        <ele>227</ele>
        <time>2014-06-05T11:58:34Z</time>
      </trkpt>
      <trkpt lat="48.68685" lon="5.63418">
        <ele>227</ele>
        <time>2014-06-05T11:58:39Z</time>
      </trkpt>
      <trkpt lat="48.68695" lon="5.63376">
        <ele>227</ele>
        <time>2014-06-05T11:58:44Z</time>
      </trkpt>
      <trkpt lat="48.68706" lon="5.63332">
        <ele>227</ele>
        <time>2014-06-05T11:58:49Z</time>
      </trkpt>
      <trkpt lat="48.68719" lon="5.63289">
        <ele>227</ele>
        <time>2014-06-05T11:58:54Z</time>
      </trkpt>
      <trkpt lat="48.68732" lon="5.63246">
        <ele>227</ele>
        <time>2014-06-05T11:58:59Z</time>
      </trkpt>
      <trkpt lat="48.68747" lon="5.63205">
        <ele>227</ele>
        <time>2014-06-05T11:59:04Z</time>
      </trkpt>
      <trkpt lat="48.68763" lon="5.63165">
        <ele>227</ele>
        <time>2014-06-05T11:59:09Z</time>
      </trkpt>
      <trkpt lat="48.68779" lon="5.63125">
        <ele>227</ele>
        <time>2014-06-05T11:59:14Z</time>
      </trkpt>
      <trkpt lat="48.68795" lon="5.63087">
        <ele>228</ele>
        <time>2014-06-05T11:59:19Z</time>
      </trkpt>
      <trkpt lat="48.68812" lon="5.6305">
        <ele>228</ele>
        <time>2014-06-05T11:59:24Z</time>
      </trkpt>
      <trkpt lat="48.68829" lon="5.63015">
        <ele>229</ele>
        <time>2014-06-05T11:59:29Z</time>
      </trkpt>
      <trkpt lat="48.68847" lon="5.62981">
        <ele>229</ele>
        <time>2014-06-05T11:59:34Z</time>
      </trkpt>
      <trkpt lat="48.68864" lon="5.62951">
        <ele>229</ele>
        <time>2014-06-05T11:59:39Z</time>
      </trkpt>
      <trkpt lat="48.68881" lon="5.62919">
        <ele>229</ele>
        <time>2014-06-05T11:59:44Z</time>
      </trkpt>
      <trkpt lat="48.68898" lon="5.6289">
        <ele>229</ele>
        <time>2014-06-05T11:59:49Z</time>
      </trkpt>
      <trkpt lat="48.68914" lon="5.62865">
        <ele>228</ele>
        <time>2014-06-05T11:59:54Z</time>
      </trkpt>
      <trkpt lat="48.68922" lon="5.62853">
        <ele>228</ele>
        <time>2014-06-05T11:59:59Z</time>
      </trkpt>
      <trkpt lat="48.68924" lon="5.62846">
        <ele>228</ele>
        <time>2014-06-05T12:00:04Z</time>
      </trkpt>
      <trkpt lat="48.68917" lon="5.62858">
        <ele>228</ele>
        <time>2014-06-05T12:00:09Z</time>
      </trkpt>
      <trkpt lat="48.689" lon="5.6283">
        <ele>227</ele>
        <time>2014-06-05T12:00:17Z</time>
      </trkpt>
      <trkpt lat="48.68892" lon="5.62812">
        <ele>227</ele>
        <time>2014-06-05T12:00:22Z</time>
      </trkpt>
      <trkpt lat="48.68898" lon="5.62802">
        <ele>227</ele>
        <time>2014-06-05T12:00:27Z</time>
      </trkpt>
      <trkpt lat="48.68903" lon="5.62794">
        <ele>227</ele>
        <time>2014-06-05T12:00:32Z</time>
      </trkpt>
      <trkpt lat="48.68911" lon="5.62783">
        <ele>228</ele>
        <time>2014-06-05T12:00:37Z</time>
      </trkpt>
      <trkpt lat="48.68923" lon="5.62763">
        <ele>228</ele>
        <time>2014-06-05T12:00:42Z</time>
      </trkpt>
      <trkpt lat="48.68937" lon="5.62737">
        <ele>228</ele>
        <time>2014-06-05T12:00:47Z</time>
      </trkpt>
      <trkpt lat="48.68953" lon="5.62706">
        <ele>228</ele>
        <time>2014-06-05T12:00:52Z</time>
      </trkpt>
      <trkpt lat="48.68969" lon="5.62673">
        <ele>228</ele>
        <time>2014-06-05T12:00:57Z</time>
      </trkpt>
      <trkpt lat="48.68982" lon="5.62644">
        <ele>229</ele>
        <time>2014-06-05T12:01:02Z</time>
      </trkpt>
      <trkpt lat="48.68992" lon="5.62621">
        <ele>230</ele>
        <time>2014-06-05T12:01:07Z</time>
      </trkpt>
      <trkpt lat="48.69001" lon="5.62602">
        <ele>231</ele>
        <time>2014-06-05T12:01:12Z</time>
      </trkpt>
      <trkpt lat="48.69013" lon="5.62572">
        <ele>231</ele>
        <time>2014-06-05T12:01:17Z</time>
      </trkpt>
      <trkpt lat="48.69027" lon="5.62535">
        <ele>231</ele>
        <time>2014-06-05T12:01:22Z</time>
      </trkpt>
      <trkpt lat="48.69041" lon="5.62498">
        <ele>231</ele>
        <time>2014-06-05T12:01:27Z</time>
      </trkpt>
      <trkpt lat="48.69053" lon="5.62462">
        <ele>231</ele>
        <time>2014-06-05T12:01:32Z</time>
      </trkpt>
      <trkpt lat="48.69061" lon="5.62423">
        <ele>231</ele>
        <time>2014-06-05T12:01:37Z</time>
      </trkpt>
      <trkpt lat="48.69065" lon="5.62386">
        <ele>231</ele>
        <time>2014-06-05T12:01:42Z</time>
      </trkpt>
      <trkpt lat="48.69068" lon="5.62355">
        <ele>231</ele>
        <time>2014-06-05T12:01:47Z</time>
      </trkpt>
      <trkpt lat="48.6907" lon="5.62326">
        <ele>231</ele>
        <time>2014-06-05T12:01:52Z</time>
      </trkpt>
      <trkpt lat="48.69069" lon="5.62303">
        <ele>231</ele>
        <time>2014-06-05T12:01:57Z</time>
      </trkpt>
      <trkpt lat="48.69075" lon="5.62286">
        <ele>231</ele>
        <time>2014-06-05T12:02:03Z</time>
      </trkpt>
      <trkpt lat="48.69095" lon="5.62278">
        <ele>231</ele>
        <time>2014-06-05T12:02:08Z</time>
      </trkpt>
      <trkpt lat="48.691" lon="5.62242">
        <ele>231</ele>
        <time>2014-06-05T12:02:13Z</time>
      </trkpt>
      <trkpt lat="48.69079" lon="5.62213">
        <ele>231</ele>
        <time>2014-06-05T12:02:18Z</time>
      </trkpt>
      <trkpt lat="48.69065" lon="5.62178">
        <ele>231</ele>
        <time>2014-06-05T12:02:23Z</time>
      </trkpt>
      <trkpt lat="48.69045" lon="5.62151">
        <ele>231</ele>
        <time>2014-06-05T12:02:28Z</time>
      </trkpt>
      <trkpt lat="48.6902" lon="5.62134">
        <ele>231</ele>
        <time>2014-06-05T12:02:33Z</time>
      </trkpt>
      <trkpt lat="48.68997" lon="5.62113">
        <ele>232</ele>
        <time>2014-06-05T12:02:38Z</time>
      </trkpt>
      <trkpt lat="48.68974" lon="5.62089">
        <ele>235</ele>
        <time>2014-06-05T12:02:43Z</time>
      </trkpt>
      <trkpt lat="48.68951" lon="5.62065">
        <ele>238</ele>
        <time>2014-06-05T12:02:48Z</time>
      </trkpt>
      <trkpt lat="48.68932" lon="5.62052">
        <ele>238</ele>
        <time>2014-06-05T12:02:53Z</time>
      </trkpt>
      <trkpt lat="48.68913" lon="5.6204">
        <ele>238</ele>
        <time>2014-06-05T12:02:58Z</time>
      </trkpt>
      <trkpt lat="48.6889" lon="5.62027">
        <ele>238</ele>
        <time>2014-06-05T12:03:03Z</time>
      </trkpt>
      <trkpt lat="48.68867" lon="5.62007">
        <ele>238</ele>
        <time>2014-06-05T12:03:08Z</time>
      </trkpt>
      <trkpt lat="48.68854" lon="5.61988">
        <ele>238</ele>
        <time>2014-06-05T12:03:13Z</time>
      </trkpt>
      <trkpt lat="48.68842" lon="5.61975">
        <ele>238</ele>
        <time>2014-06-05T12:03:18Z</time>
      </trkpt>
      <trkpt lat="48.68826" lon="5.61959">
        <ele>238</ele>
        <time>2014-06-05T12:03:23Z</time>
      </trkpt>
      <trkpt lat="48.68808" lon="5.61943">
        <ele>238</ele>
        <time>2014-06-05T12:03:28Z</time>
      </trkpt>
      <trkpt lat="48.68791" lon="5.61928">
        <ele>238</ele>
        <time>2014-06-05T12:03:33Z</time>
      </trkpt>
      <trkpt lat="48.68775" lon="5.61918">
        <ele>240</ele>
        <time>2014-06-05T12:03:38Z</time>
      </trkpt>
      <trkpt lat="48.68763" lon="5.61908">
        <ele>243</ele>
        <time>2014-06-05T12:03:43Z</time>
      </trkpt>
      <trkpt lat="48.68747" lon="5.61894">
        <ele>243</ele>
        <time>2014-06-05T12:03:48Z</time>
      </trkpt>
      <trkpt lat="48.68732" lon="5.61874">
        <ele>243</ele>
        <time>2014-06-05T12:03:53Z</time>
      </trkpt>
      <trkpt lat="48.68719" lon="5.61858">
        <ele>243</ele>
        <time>2014-06-05T12:03:58Z</time>
      </trkpt>
      <trkpt lat="48.68712" lon="5.61845">
        <ele>243</ele>
        <time>2014-06-05T12:04:03Z</time>
      </trkpt>
      <trkpt lat="48.68714" lon="5.61844">
        <ele>249</ele>
        <time>2014-06-05T12:04:08Z</time>
      </trkpt>
      <trkpt lat="48.68718" lon="5.61842">
        <ele>249</ele>
        <time>2014-06-05T12:04:15Z</time>
      </trkpt>
      <trkpt lat="48.68717" lon="5.61838">
        <ele>247</ele>
        <time>2014-06-05T12:04:22Z</time>
      </trkpt>
      <trkpt lat="48.68724" lon="5.61835">
        <ele>243</ele>
        <time>2014-06-05T12:04:31Z</time>
      </trkpt>
      <trkpt lat="48.68721" lon="5.61836">
        <ele>244</ele>
        <time>2014-06-05T12:04:37Z</time>
      </trkpt>
      <trkpt lat="48.68726" lon="5.61832">
        <ele>244</ele>
        <time>2014-06-05T12:04:42Z</time>
      </trkpt>
      <trkpt lat="48.68729" lon="5.6183">
        <ele>244</ele>
        <time>2014-06-05T12:04:48Z</time>
      </trkpt>
      <trkpt lat="48.68727" lon="5.61832">
        <ele>242</ele>
        <time>2014-06-05T12:04:54Z</time>
      </trkpt>
      <trkpt lat="48.68724" lon="5.61837">
        <ele>246</ele>
        <time>2014-06-05T12:05:02Z</time>
      </trkpt>
      <trkpt lat="48.6872" lon="5.61839">
        <ele>251</ele>
        <time>2014-06-05T12:05:15Z</time>
      </trkpt>
      <trkpt lat="48.68724" lon="5.61833">
        <ele>243</ele>
        <time>2014-06-05T12:05:22Z</time>
      </trkpt>
      <trkpt lat="48.68724" lon="5.61834">
        <ele>247</ele>
        <time>2014-06-05T12:05:31Z</time>
      </trkpt>
      <trkpt lat="48.68721" lon="5.61835">
        <ele>249</ele>
        <time>2014-06-05T12:05:37Z</time>
      </trkpt>
      <trkpt lat="48.68718" lon="5.61838">
        <ele>254</ele>
        <time>2014-06-05T12:05:44Z</time>
      </trkpt>
      <trkpt lat="48.68716" lon="5.61842">
        <ele>257</ele>
        <time>2014-06-05T12:05:51Z</time>
      </trkpt>
      <trkpt lat="48.68722" lon="5.61839">
        <ele>257</ele>
        <time>2014-06-05T12:05:57Z</time>
      </trkpt>
      <trkpt lat="48.68726" lon="5.61837">
        <ele>252</ele>
        <time>2014-06-05T12:06:04Z</time>
      </trkpt>
      <trkpt lat="48.68729" lon="5.61835">
        <ele>249</ele>
        <time>2014-06-05T12:06:09Z</time>
      </trkpt>
      <trkpt lat="48.68734" lon="5.61831">
        <ele>246</ele>
        <time>2014-06-05T12:06:16Z</time>
      </trkpt>
      <trkpt lat="48.68736" lon="5.6183">
        <ele>244</ele>
        <time>2014-06-05T12:06:22Z</time>
      </trkpt>
      <trkpt lat="48.68734" lon="5.61832">
        <ele>242</ele>
        <time>2014-06-05T12:06:28Z</time>
      </trkpt>
      <trkpt lat="48.68729" lon="5.61827">
        <ele>242</ele>
        <time>2014-06-05T12:06:34Z</time>
      </trkpt>
      <trkpt lat="48.68719" lon="5.61827">
        <ele>245</ele>
        <time>2014-06-05T12:06:43Z</time>
      </trkpt>
      <trkpt lat="48.68707" lon="5.6182">
        <ele>246</ele>
        <time>2014-06-05T12:06:48Z</time>
      </trkpt>
      <trkpt lat="48.68695" lon="5.61807">
        <ele>248</ele>
        <time>2014-06-05T12:06:53Z</time>
      </trkpt>
      <trkpt lat="48.68686" lon="5.61792">
        <ele>249</ele>
        <time>2014-06-05T12:06:58Z</time>
      </trkpt>
      <trkpt lat="48.68678" lon="5.61776">
        <ele>249</ele>
        <time>2014-06-05T12:07:03Z</time>
      </trkpt>
      <trkpt lat="48.68666" lon="5.61761">
        <ele>249</ele>
        <time>2014-06-05T12:07:08Z</time>
      </trkpt>
      <trkpt lat="48.68654" lon="5.61741">
        <ele>249</ele>
        <time>2014-06-05T12:07:13Z</time>
      </trkpt>
      <trkpt lat="48.68644" lon="5.61718">
        <ele>249</ele>
        <time>2014-06-05T12:07:18Z</time>
      </trkpt>
      <trkpt lat="48.68632" lon="5.617">
        <ele>246</ele>
        <time>2014-06-05T12:07:23Z</time>
      </trkpt>
      <trkpt lat="48.6862" lon="5.61687">
        <ele>246</ele>
        <time>2014-06-05T12:07:28Z</time>
      </trkpt>
      <trkpt lat="48.68603" lon="5.6167">
        <ele>246</ele>
        <time>2014-06-05T12:07:33Z</time>
      </trkpt>
      <trkpt lat="48.68583" lon="5.61652">
        <ele>246</ele>
        <time>2014-06-05T12:07:38Z</time>
      </trkpt>
      <trkpt lat="48.68564" lon="5.61634">
        <ele>246</ele>
        <time>2014-06-05T12:07:43Z</time>
      </trkpt>
      <trkpt lat="48.68549" lon="5.6161">
        <ele>246</ele>
        <time>2014-06-05T12:07:48Z</time>
      </trkpt>
      <trkpt lat="48.68533" lon="5.61588">
        <ele>246</ele>
        <time>2014-06-05T12:07:53Z</time>
      </trkpt>
      <trkpt lat="48.68514" lon="5.61562">
        <ele>246</ele>
        <time>2014-06-05T12:07:58Z</time>
      </trkpt>
      <trkpt lat="48.68494" lon="5.61536">
        <ele>244</ele>
        <time>2014-06-05T12:08:03Z</time>
      </trkpt>
      <trkpt lat="48.68473" lon="5.6151">
        <ele>242</ele>
        <time>2014-06-05T12:08:08Z</time>
      </trkpt>
      <trkpt lat="48.68454" lon="5.61485">
        <ele>241</ele>
        <time>2014-06-05T12:08:13Z</time>
      </trkpt>
      <trkpt lat="48.68435" lon="5.6146">
        <ele>240</ele>
        <time>2014-06-05T12:08:18Z</time>
      </trkpt>
      <trkpt lat="48.68417" lon="5.61436">
        <ele>239</ele>
        <time>2014-06-05T12:08:23Z</time>
      </trkpt>
      <trkpt lat="48.684" lon="5.61414">
        <ele>239</ele>
        <time>2014-06-05T12:08:28Z</time>
      </trkpt>
      <trkpt lat="48.6838" lon="5.6139">
        <ele>239</ele>
        <time>2014-06-05T12:08:33Z</time>
      </trkpt>
      <trkpt lat="48.68362" lon="5.61367">
        <ele>239</ele>
        <time>2014-06-05T12:08:38Z</time>
      </trkpt>
      <trkpt lat="48.68341" lon="5.61342">
        <ele>239</ele>
        <time>2014-06-05T12:08:43Z</time>
      </trkpt>
      <trkpt lat="48.6832" lon="5.61316">
        <ele>238</ele>
        <time>2014-06-05T12:08:48Z</time>
      </trkpt>
      <trkpt lat="48.683" lon="5.61296">
        <ele>238</ele>
        <time>2014-06-05T12:08:53Z</time>
      </trkpt>
      <trkpt lat="48.68278" lon="5.61277">
        <ele>238</ele>
        <time>2014-06-05T12:08:58Z</time>
      </trkpt>
      <trkpt lat="48.68253" lon="5.6126">
        <ele>238</ele>
        <time>2014-06-05T12:09:03Z</time>
      </trkpt>
      <trkpt lat="48.6823" lon="5.61244">
        <ele>238</ele>
        <time>2014-06-05T12:09:08Z</time>
      </trkpt>
      <trkpt lat="48.68207" lon="5.61229">
        <ele>238</ele>
        <time>2014-06-05T12:09:13Z</time>
      </trkpt>
      <trkpt lat="48.68184" lon="5.61214">
        <ele>238</ele>
        <time>2014-06-05T12:09:18Z</time>
      </trkpt>
      <trkpt lat="48.68161" lon="5.61198">
        <ele>238</ele>
        <time>2014-06-05T12:09:23Z</time>
      </trkpt>
      <trkpt lat="48.68137" lon="5.61181">
        <ele>238</ele>
        <time>2014-06-05T12:09:28Z</time>
      </trkpt>
      <trkpt lat="48.68113" lon="5.61165">
        <ele>238</ele>
        <time>2014-06-05T12:09:33Z</time>
      </trkpt>
      <trkpt lat="48.68088" lon="5.61149">
        <ele>238</ele>
        <time>2014-06-05T12:09:38Z</time>
      </trkpt>
      <trkpt lat="48.68065" lon="5.61132">
        <ele>238</ele>
        <time>2014-06-05T12:09:43Z</time>
      </trkpt>
      <trkpt lat="48.68038" lon="5.61116">
        <ele>238</ele>
        <time>2014-06-05T12:09:48Z</time>
      </trkpt>
      <trkpt lat="48.68014" lon="5.61099">
        <ele>238</ele>
        <time>2014-06-05T12:09:53Z</time>
      </trkpt>
      <trkpt lat="48.67991" lon="5.61082">
        <ele>238</ele>
        <time>2014-06-05T12:09:58Z</time>
      </trkpt>
      <trkpt lat="48.67966" lon="5.61067">
        <ele>238</ele>
        <time>2014-06-05T12:10:03Z</time>
      </trkpt>
      <trkpt lat="48.67938" lon="5.61056">
        <ele>238</ele>
        <time>2014-06-05T12:10:08Z</time>
      </trkpt>
      <trkpt lat="48.67913" lon="5.61048">
        <ele>238</ele>
        <time>2014-06-05T12:10:13Z</time>
      </trkpt>
      <trkpt lat="48.67886" lon="5.6104">
        <ele>238</ele>
        <time>2014-06-05T12:10:18Z</time>
      </trkpt>
      <trkpt lat="48.67859" lon="5.61032">
        <ele>238</ele>
        <time>2014-06-05T12:10:23Z</time>
      </trkpt>
      <trkpt lat="48.67831" lon="5.61024">
        <ele>238</ele>
        <time>2014-06-05T12:10:28Z</time>
      </trkpt>
      <trkpt lat="48.67804" lon="5.61016">
        <ele>238</ele>
        <time>2014-06-05T12:10:33Z</time>
      </trkpt>
      <trkpt lat="48.67778" lon="5.61008">
        <ele>238</ele>
        <time>2014-06-05T12:10:38Z</time>
      </trkpt>
      <trkpt lat="48.67755" lon="5.61002">
        <ele>239</ele>
        <time>2014-06-05T12:10:43Z</time>
      </trkpt>
      <trkpt lat="48.67731" lon="5.60994">
        <ele>240</ele>
        <time>2014-06-05T12:10:48Z</time>
      </trkpt>
      <trkpt lat="48.67707" lon="5.60981">
        <ele>240</ele>
        <time>2014-06-05T12:10:53Z</time>
      </trkpt>
      <trkpt lat="48.67679" lon="5.60972">
        <ele>240</ele>
        <time>2014-06-05T12:10:58Z</time>
      </trkpt>
      <trkpt lat="48.67651" lon="5.60964">
        <ele>240</ele>
        <time>2014-06-05T12:11:03Z</time>
      </trkpt>
      <trkpt lat="48.67625" lon="5.60957">
        <ele>241</ele>
        <time>2014-06-05T12:11:08Z</time>
      </trkpt>
      <trkpt lat="48.67598" lon="5.6095">
        <ele>242</ele>
        <time>2014-06-05T12:11:13Z</time>
      </trkpt>
      <trkpt lat="48.67571" lon="5.60947">
        <ele>243</ele>
        <time>2014-06-05T12:11:18Z</time>
      </trkpt>
      <trkpt lat="48.67542" lon="5.6095">
        <ele>243</ele>
        <time>2014-06-05T12:11:23Z</time>
      </trkpt>
      <trkpt lat="48.67514" lon="5.60955">
        <ele>243</ele>
        <time>2014-06-05T12:11:28Z</time>
      </trkpt>
      <trkpt lat="48.67482" lon="5.60961">
        <ele>244</ele>
        <time>2014-06-05T12:11:33Z</time>
      </trkpt>
      <trkpt lat="48.67452" lon="5.60967">
        <ele>246</ele>
        <time>2014-06-05T12:11:38Z</time>
      </trkpt>
      <trkpt lat="48.67422" lon="5.60971">
        <ele>247</ele>
        <time>2014-06-05T12:11:43Z</time>
      </trkpt>
      <trkpt lat="48.67392" lon="5.6098">
        <ele>249</ele>
        <time>2014-06-05T12:11:48Z</time>
      </trkpt>
      <trkpt lat="48.67364" lon="5.60984">
        <ele>252</ele>
        <time>2014-06-05T12:11:53Z</time>
      </trkpt>
      <trkpt lat="48.67334" lon="5.6099">
        <ele>253</ele>
        <time>2014-06-05T12:11:58Z</time>
      </trkpt>
      <trkpt lat="48.67303" lon="5.60995">
        <ele>255</ele>
        <time>2014-06-05T12:12:03Z</time>
      </trkpt>
      <trkpt lat="48.67272" lon="5.60996">
        <ele>257</ele>
        <time>2014-06-05T12:12:08Z</time>
      </trkpt>
      <trkpt lat="48.67245" lon="5.60992">
        <ele>258</ele>
        <time>2014-06-05T12:12:13Z</time>
      </trkpt>
      <trkpt lat="48.67218" lon="5.6099">
        <ele>258</ele>
        <time>2014-06-05T12:12:18Z</time>
      </trkpt>
      <trkpt lat="48.67188" lon="5.60981">
        <ele>258</ele>
        <time>2014-06-05T12:12:23Z</time>
      </trkpt>
      <trkpt lat="48.67159" lon="5.60972">
        <ele>258</ele>
        <time>2014-06-05T12:12:28Z</time>
      </trkpt>
      <trkpt lat="48.67133" lon="5.60962">
        <ele>258</ele>
        <time>2014-06-05T12:12:33Z</time>
      </trkpt>
      <trkpt lat="48.67106" lon="5.6095">
        <ele>258</ele>
        <time>2014-06-05T12:12:38Z</time>
      </trkpt>
      <trkpt lat="48.67081" lon="5.60934">
        <ele>258</ele>
        <time>2014-06-05T12:12:43Z</time>
      </trkpt>
      <trkpt lat="48.67056" lon="5.60917">
        <ele>258</ele>
        <time>2014-06-05T12:12:48Z</time>
      </trkpt>
      <trkpt lat="48.6703" lon="5.60897">
        <ele>258</ele>
        <time>2014-06-05T12:12:53Z</time>
      </trkpt>
      <trkpt lat="48.67005" lon="5.60877">
        <ele>258</ele>
        <time>2014-06-05T12:12:58Z</time>
      </trkpt>
      <trkpt lat="48.66981" lon="5.60855">
        <ele>258</ele>
        <time>2014-06-05T12:13:03Z</time>
      </trkpt>
      <trkpt lat="48.66957" lon="5.60829">
        <ele>257</ele>
        <time>2014-06-05T12:13:08Z</time>
      </trkpt>
      <trkpt lat="48.66936" lon="5.60803">
        <ele>257</ele>
        <time>2014-06-05T12:13:13Z</time>
      </trkpt>
      <trkpt lat="48.66916" lon="5.60774">
        <ele>257</ele>
        <time>2014-06-05T12:13:18Z</time>
      </trkpt>
      <trkpt lat="48.66897" lon="5.60742">
        <ele>257</ele>
        <time>2014-06-05T12:13:23Z</time>
      </trkpt>
      <trkpt lat="48.66879" lon="5.60707">
        <ele>256</ele>
        <time>2014-06-05T12:13:28Z</time>
      </trkpt>
      <trkpt lat="48.66863" lon="5.6067">
        <ele>255</ele>
        <time>2014-06-05T12:13:33Z</time>
      </trkpt>
      <trkpt lat="48.66849" lon="5.60633">
        <ele>254</ele>
        <time>2014-06-05T12:13:38Z</time>
      </trkpt>
      <trkpt lat="48.66836" lon="5.60596">
        <ele>252</ele>
        <time>2014-06-05T12:13:43Z</time>
      </trkpt>
      <trkpt lat="48.66827" lon="5.60566">
        <ele>252</ele>
        <time>2014-06-05T12:13:48Z</time>
      </trkpt>
      <trkpt lat="48.66813" lon="5.60539">
        <ele>251</ele>
        <time>2014-06-05T12:13:53Z</time>
      </trkpt>
      <trkpt lat="48.668" lon="5.605">
        <ele>251</ele>
        <time>2014-06-05T12:13:58Z</time>
      </trkpt>
      <trkpt lat="48.66788" lon="5.60457">
        <ele>250</ele>
        <time>2014-06-05T12:14:03Z</time>
      </trkpt>
      <trkpt lat="48.66777" lon="5.60415">
        <ele>250</ele>
        <time>2014-06-05T12:14:08Z</time>
      </trkpt>
      <trkpt lat="48.66768" lon="5.60376">
        <ele>250</ele>
        <time>2014-06-05T12:14:13Z</time>
      </trkpt>
      <trkpt lat="48.66766" lon="5.60337">
        <ele>250</ele>
        <time>2014-06-05T12:14:18Z</time>
      </trkpt>
      <trkpt lat="48.66765" lon="5.60295">
        <ele>249</ele>
        <time>2014-06-05T12:14:23Z</time>
      </trkpt>
      <trkpt lat="48.66771" lon="5.60257">
        <ele>249</ele>
        <time>2014-06-05T12:14:28Z</time>
      </trkpt>
      <trkpt lat="48.66784" lon="5.60216">
        <ele>249</ele>
        <time>2014-06-05T12:14:33Z</time>
      </trkpt>
      <trkpt lat="48.668" lon="5.60181">
        <ele>249</ele>
        <time>2014-06-05T12:14:38Z</time>
      </trkpt>
      <trkpt lat="48.66819" lon="5.6015">
        <ele>249</ele>
        <time>2014-06-05T12:14:43Z</time>
      </trkpt>
      <trkpt lat="48.66838" lon="5.6012">
        <ele>249</ele>
        <time>2014-06-05T12:14:48Z</time>
      </trkpt>
      <trkpt lat="48.66856" lon="5.60092">
        <ele>249</ele>
        <time>2014-06-05T12:14:53Z</time>
      </trkpt>
      <trkpt lat="48.66876" lon="5.60062">
        <ele>249</ele>
        <time>2014-06-05T12:14:58Z</time>
      </trkpt>
      <trkpt lat="48.66896" lon="5.60031">
        <ele>249</ele>
        <time>2014-06-05T12:15:03Z</time>
      </trkpt>
      <trkpt lat="48.66914" lon="5.60002">
        <ele>249</ele>
        <time>2014-06-05T12:15:08Z</time>
      </trkpt>
      <trkpt lat="48.66934" lon="5.59973">
        <ele>249</ele>
        <time>2014-06-05T12:15:13Z</time>
      </trkpt>
      <trkpt lat="48.66956" lon="5.59945">
        <ele>249</ele>
        <time>2014-06-05T12:15:18Z</time>
      </trkpt>
      <trkpt lat="48.66979" lon="5.5992">
        <ele>249</ele>
        <time>2014-06-05T12:15:23Z</time>
      </trkpt>
      <trkpt lat="48.67003" lon="5.59897">
        <ele>249</ele>
        <time>2014-06-05T12:15:28Z</time>
      </trkpt>
      <trkpt lat="48.67028" lon="5.59874">
        <ele>249</ele>
        <time>2014-06-05T12:15:33Z</time>
      </trkpt>
      <trkpt lat="48.67053" lon="5.5985">
        <ele>249</ele>
        <time>2014-06-05T12:15:38Z</time>
      </trkpt>
      <trkpt lat="48.67076" lon="5.59827">
        <ele>249</ele>
        <time>2014-06-05T12:15:43Z</time>
      </trkpt>
      <trkpt lat="48.67099" lon="5.59802">
        <ele>249</ele>
        <time>2014-06-05T12:15:48Z</time>
      </trkpt>
      <trkpt lat="48.67121" lon="5.59775">
        <ele>249</ele>
        <time>2014-06-05T12:15:53Z</time>
      </trkpt>
      <trkpt lat="48.6714" lon="5.59744">
        <ele>249</ele>
        <time>2014-06-05T12:15:58Z</time>
      </trkpt>
      <trkpt lat="48.67158" lon="5.59711">
        <ele>249</ele>
        <time>2014-06-05T12:16:03Z</time>
      </trkpt>
      <trkpt lat="48.67174" lon="5.59676">
        <ele>249</ele>
        <time>2014-06-05T12:16:08Z</time>
      </trkpt>
      <trkpt lat="48.6719" lon="5.59641">
        <ele>249</ele>
        <time>2014-06-05T12:16:13Z</time>
      </trkpt>
      <trkpt lat="48.67204" lon="5.59604">
        <ele>250</ele>
        <time>2014-06-05T12:16:18Z</time>
      </trkpt>
      <trkpt lat="48.67216" lon="5.59566">
        <ele>250</ele>
        <time>2014-06-05T12:16:23Z</time>
      </trkpt>
      <trkpt lat="48.67226" lon="5.59528">
        <ele>250</ele>
        <time>2014-06-05T12:16:28Z</time>
      </trkpt>
      <trkpt lat="48.67234" lon="5.59488">
        <ele>250</ele>
        <time>2014-06-05T12:16:33Z</time>
      </trkpt>
      <trkpt lat="48.67241" lon="5.59449">
        <ele>251</ele>
        <time>2014-06-05T12:16:38Z</time>
      </trkpt>
      <trkpt lat="48.67248" lon="5.59409">
        <ele>252</ele>
        <time>2014-06-05T12:16:43Z</time>
      </trkpt>
      <trkpt lat="48.67254" lon="5.59369">
        <ele>253</ele>
        <time>2014-06-05T12:16:48Z</time>
      </trkpt>
      <trkpt lat="48.6726" lon="5.59329">
        <ele>253</ele>
        <time>2014-06-05T12:16:53Z</time>
      </trkpt>
      <trkpt lat="48.67266" lon="5.59289">
        <ele>254</ele>
        <time>2014-06-05T12:16:58Z</time>
      </trkpt>
      <trkpt lat="48.67272" lon="5.5925">
        <ele>254</ele>
        <time>2014-06-05T12:17:03Z</time>
      </trkpt>
      <trkpt lat="48.67279" lon="5.59211">
        <ele>254</ele>
        <time>2014-06-05T12:17:08Z</time>
      </trkpt>
      <trkpt lat="48.67287" lon="5.59169">
        <ele>254</ele>
        <time>2014-06-05T12:17:13Z</time>
      </trkpt>
      <trkpt lat="48.67295" lon="5.59126">
        <ele>254</ele>
        <time>2014-06-05T12:17:18Z</time>
      </trkpt>
      <trkpt lat="48.67302" lon="5.59086">
        <ele>254</ele>
        <time>2014-06-05T12:17:23Z</time>
      </trkpt>
      <trkpt lat="48.6731" lon="5.59043">
        <ele>254</ele>
        <time>2014-06-05T12:17:28Z</time>
      </trkpt>
      <trkpt lat="48.67315" lon="5.59002">
        <ele>254</ele>
        <time>2014-06-05T12:17:33Z</time>
      </trkpt>
      <trkpt lat="48.67315" lon="5.58962">
        <ele>254</ele>
        <time>2014-06-05T12:17:38Z</time>
      </trkpt>
      <trkpt lat="48.67314" lon="5.58922">
        <ele>254</ele>
        <time>2014-06-05T12:17:43Z</time>
      </trkpt>
      <trkpt lat="48.67308" lon="5.58883">
        <ele>257</ele>
        <time>2014-06-05T12:17:48Z</time>
      </trkpt>
      <trkpt lat="48.67302" lon="5.58842">
        <ele>259</ele>
        <time>2014-06-05T12:17:53Z</time>
      </trkpt>
      <trkpt lat="48.67295" lon="5.58799">
        <ele>259</ele>
        <time>2014-06-05T12:17:58Z</time>
      </trkpt>
      <trkpt lat="48.67289" lon="5.58757">
        <ele>259</ele>
        <time>2014-06-05T12:18:03Z</time>
      </trkpt>
      <trkpt lat="48.67283" lon="5.58716">
        <ele>259</ele>
        <time>2014-06-05T12:18:08Z</time>
      </trkpt>
      <trkpt lat="48.67276" lon="5.58676">
        <ele>258</ele>
        <time>2014-06-05T12:18:13Z</time>
      </trkpt>
      <trkpt lat="48.67271" lon="5.58636">
        <ele>258</ele>
        <time>2014-06-05T12:18:18Z</time>
      </trkpt>
      <trkpt lat="48.67267" lon="5.58597">
        <ele>258</ele>
        <time>2014-06-05T12:18:23Z</time>
      </trkpt>
      <trkpt lat="48.67262" lon="5.58559">
        <ele>258</ele>
        <time>2014-06-05T12:18:28Z</time>
      </trkpt>
      <trkpt lat="48.67256" lon="5.58523">
        <ele>258</ele>
        <time>2014-06-05T12:18:33Z</time>
      </trkpt>
      <trkpt lat="48.67255" lon="5.58484">
        <ele>258</ele>
        <time>2014-06-05T12:18:38Z</time>
      </trkpt>
      <trkpt lat="48.67254" lon="5.58446">
        <ele>258</ele>
        <time>2014-06-05T12:18:43Z</time>
      </trkpt>
      <trkpt lat="48.67255" lon="5.58406">
        <ele>258</ele>
        <time>2014-06-05T12:18:48Z</time>
      </trkpt>
      <trkpt lat="48.67254" lon="5.58365">
        <ele>258</ele>
        <time>2014-06-05T12:18:53Z</time>
      </trkpt>
      <trkpt lat="48.67254" lon="5.58324">
        <ele>260</ele>
        <time>2014-06-05T12:18:58Z</time>
      </trkpt>
      <trkpt lat="48.67255" lon="5.58283">
        <ele>261</ele>
        <time>2014-06-05T12:19:03Z</time>
      </trkpt>
      <trkpt lat="48.67255" lon="5.58242">
        <ele>262</ele>
        <time>2014-06-05T12:19:08Z</time>
      </trkpt>
      <trkpt lat="48.67257" lon="5.58199">
        <ele>262</ele>
        <time>2014-06-05T12:19:13Z</time>
      </trkpt>
      <trkpt lat="48.67257" lon="5.58156">
        <ele>262</ele>
        <time>2014-06-05T12:19:18Z</time>
      </trkpt>
      <trkpt lat="48.67258" lon="5.58114">
        <ele>262</ele>
        <time>2014-06-05T12:19:23Z</time>
      </trkpt>
      <trkpt lat="48.67259" lon="5.58072">
        <ele>262</ele>
        <time>2014-06-05T12:19:28Z</time>
      </trkpt>
      <trkpt lat="48.67262" lon="5.58028">
        <ele>262</ele>
        <time>2014-06-05T12:19:33Z</time>
      </trkpt>
      <trkpt lat="48.67262" lon="5.57988">
        <ele>262</ele>
        <time>2014-06-05T12:19:38Z</time>
      </trkpt>
      <trkpt lat="48.67262" lon="5.57947">
        <ele>262</ele>
        <time>2014-06-05T12:19:43Z</time>
      </trkpt>
      <trkpt lat="48.67263" lon="5.57904">
        <ele>262</ele>
        <time>2014-06-05T12:19:48Z</time>
      </trkpt>
      <trkpt lat="48.67263" lon="5.57863">
        <ele>262</ele>
        <time>2014-06-05T12:19:53Z</time>
      </trkpt>
      <trkpt lat="48.6726" lon="5.57822">
        <ele>262</ele>
        <time>2014-06-05T12:19:58Z</time>
      </trkpt>
      <trkpt lat="48.67256" lon="5.57784">
        <ele>262</ele>
        <time>2014-06-05T12:20:03Z</time>
      </trkpt>
      <trkpt lat="48.67251" lon="5.57744">
        <ele>262</ele>
        <time>2014-06-05T12:20:08Z</time>
      </trkpt>
      <trkpt lat="48.67245" lon="5.57702">
        <ele>262</ele>
        <time>2014-06-05T12:20:13Z</time>
      </trkpt>
      <trkpt lat="48.67242" lon="5.5766">
        <ele>262</ele>
        <time>2014-06-05T12:20:18Z</time>
      </trkpt>
      <trkpt lat="48.67239" lon="5.57618">
        <ele>260</ele>
        <time>2014-06-05T12:20:23Z</time>
      </trkpt>
      <trkpt lat="48.6723" lon="5.57578">
        <ele>259</ele>
        <time>2014-06-05T12:20:28Z</time>
      </trkpt>
      <trkpt lat="48.67224" lon="5.57538">
        <ele>259</ele>
        <time>2014-06-05T12:20:33Z</time>
      </trkpt>
      <trkpt lat="48.6722" lon="5.575">
        <ele>259</ele>
        <time>2014-06-05T12:20:38Z</time>
      </trkpt>
      <trkpt lat="48.67214" lon="5.57461">
        <ele>259</ele>
        <time>2014-06-05T12:20:43Z</time>
      </trkpt>
      <trkpt lat="48.67207" lon="5.57421">
        <ele>259</ele>
        <time>2014-06-05T12:20:48Z</time>
      </trkpt>
      <trkpt lat="48.67202" lon="5.5738">
        <ele>259</ele>
        <time>2014-06-05T12:20:53Z</time>
      </trkpt>
      <trkpt lat="48.67197" lon="5.5734">
        <ele>259</ele>
        <time>2014-06-05T12:20:58Z</time>
      </trkpt>
      <trkpt lat="48.67191" lon="5.57304">
        <ele>259</ele>
        <time>2014-06-05T12:21:03Z</time>
      </trkpt>
      <trkpt lat="48.67185" lon="5.57263">
        <ele>259</ele>
        <time>2014-06-05T12:21:08Z</time>
      </trkpt>
      <trkpt lat="48.6718" lon="5.57224">
        <ele>259</ele>
        <time>2014-06-05T12:21:13Z</time>
      </trkpt>
      <trkpt lat="48.67175" lon="5.57183">
        <ele>259</ele>
        <time>2014-06-05T12:21:18Z</time>
      </trkpt>
      <trkpt lat="48.6717" lon="5.57143">
        <ele>259</ele>
        <time>2014-06-05T12:21:23Z</time>
      </trkpt>
      <trkpt lat="48.67163" lon="5.57106">
        <ele>259</ele>
        <time>2014-06-05T12:21:28Z</time>
      </trkpt>
      <trkpt lat="48.67159" lon="5.57069">
        <ele>259</ele>
        <time>2014-06-05T12:21:33Z</time>
      </trkpt>
      <trkpt lat="48.67153" lon="5.57033">
        <ele>258</ele>
        <time>2014-06-05T12:21:38Z</time>
      </trkpt>
      <trkpt lat="48.67147" lon="5.56996">
        <ele>257</ele>
        <time>2014-06-05T12:21:43Z</time>
      </trkpt>
      <trkpt lat="48.67141" lon="5.56956">
        <ele>256</ele>
        <time>2014-06-05T12:21:48Z</time>
      </trkpt>
      <trkpt lat="48.67135" lon="5.56915">
        <ele>256</ele>
        <time>2014-06-05T12:21:53Z</time>
      </trkpt>
      <trkpt lat="48.67129" lon="5.56873">
        <ele>256</ele>
        <time>2014-06-05T12:21:58Z</time>
      </trkpt>
      <trkpt lat="48.67121" lon="5.56835">
        <ele>256</ele>
        <time>2014-06-05T12:22:03Z</time>
      </trkpt>
      <trkpt lat="48.67116" lon="5.56795">
        <ele>256</ele>
        <time>2014-06-05T12:22:08Z</time>
      </trkpt>
      <trkpt lat="48.6711" lon="5.56753">
        <ele>257</ele>
        <time>2014-06-05T12:22:13Z</time>
      </trkpt>
      <trkpt lat="48.67106" lon="5.56709">
        <ele>258</ele>
        <time>2014-06-05T12:22:18Z</time>
      </trkpt>
      <trkpt lat="48.67102" lon="5.56668">
        <ele>260</ele>
        <time>2014-06-05T12:22:23Z</time>
      </trkpt>
      <trkpt lat="48.67099" lon="5.56625">
        <ele>260</ele>
        <time>2014-06-05T12:22:28Z</time>
      </trkpt>
      <trkpt lat="48.67095" lon="5.56581">
        <ele>260</ele>
        <time>2014-06-05T12:22:33Z</time>
      </trkpt>
      <trkpt lat="48.67093" lon="5.56536">
        <ele>260</ele>
        <time>2014-06-05T12:22:38Z</time>
      </trkpt>
      <trkpt lat="48.67089" lon="5.56492">
        <ele>260</ele>
        <time>2014-06-05T12:22:43Z</time>
      </trkpt>
      <trkpt lat="48.6709" lon="5.56447">
        <ele>260</ele>
        <time>2014-06-05T12:22:48Z</time>
      </trkpt>
      <trkpt lat="48.67088" lon="5.56406">
        <ele>259</ele>
        <time>2014-06-05T12:22:53Z</time>
      </trkpt>
      <trkpt lat="48.67087" lon="5.56361">
        <ele>258</ele>
        <time>2014-06-05T12:22:58Z</time>
      </trkpt>
      <trkpt lat="48.67086" lon="5.56318">
        <ele>257</ele>
        <time>2014-06-05T12:23:03Z</time>
      </trkpt>
      <trkpt lat="48.67087" lon="5.56279">
        <ele>257</ele>
        <time>2014-06-05T12:23:08Z</time>
      </trkpt>
      <trkpt lat="48.67089" lon="5.56237">
        <ele>257</ele>
        <time>2014-06-05T12:23:13Z</time>
      </trkpt>
      <trkpt lat="48.67086" lon="5.56196">
        <ele>260</ele>
        <time>2014-06-05T12:23:18Z</time>
      </trkpt>
      <trkpt lat="48.67085" lon="5.56155">
        <ele>265</ele>
        <time>2014-06-05T12:23:23Z</time>
      </trkpt>
      <trkpt lat="48.67085" lon="5.56111">
        <ele>270</ele>
        <time>2014-06-05T12:23:28Z</time>
      </trkpt>
      <trkpt lat="48.67084" lon="5.56067">
        <ele>270</ele>
        <time>2014-06-05T12:23:33Z</time>
      </trkpt>
      <trkpt lat="48.6708" lon="5.56027">
        <ele>270</ele>
        <time>2014-06-05T12:23:38Z</time>
      </trkpt>
      <trkpt lat="48.6708" lon="5.55982">
        <ele>271</ele>
        <time>2014-06-05T12:23:43Z</time>
      </trkpt>
      <trkpt lat="48.67078" lon="5.55939">
        <ele>272</ele>
        <time>2014-06-05T12:23:48Z</time>
      </trkpt>
      <trkpt lat="48.67074" lon="5.55897">
        <ele>275</ele>
        <time>2014-06-05T12:23:53Z</time>
      </trkpt>
      <trkpt lat="48.67064" lon="5.55856">
        <ele>278</ele>
        <time>2014-06-05T12:23:58Z</time>
      </trkpt>
      <trkpt lat="48.67049" lon="5.55818">
        <ele>279</ele>
        <time>2014-06-05T12:24:03Z</time>
      </trkpt>
      <trkpt lat="48.67028" lon="5.55787">
        <ele>279</ele>
        <time>2014-06-05T12:24:08Z</time>
      </trkpt>
      <trkpt lat="48.67005" lon="5.55764">
        <ele>279</ele>
        <time>2014-06-05T12:24:13Z</time>
      </trkpt>
      <trkpt lat="48.66982" lon="5.55742">
        <ele>279</ele>
        <time>2014-06-05T12:24:18Z</time>
      </trkpt>
      <trkpt lat="48.66957" lon="5.55719">
        <ele>280</ele>
        <time>2014-06-05T12:24:23Z</time>
      </trkpt>
      <trkpt lat="48.66933" lon="5.55698">
        <ele>281</ele>
        <time>2014-06-05T12:24:28Z</time>
      </trkpt>
      <trkpt lat="48.66909" lon="5.55677">
        <ele>281</ele>
        <time>2014-06-05T12:24:33Z</time>
      </trkpt>
      <trkpt lat="48.66885" lon="5.55654">
        <ele>282</ele>
        <time>2014-06-05T12:24:38Z</time>
      </trkpt>
      <trkpt lat="48.6686" lon="5.55633">
        <ele>282</ele>
        <time>2014-06-05T12:24:43Z</time>
      </trkpt>
      <trkpt lat="48.66835" lon="5.55611">
        <ele>283</ele>
        <time>2014-06-05T12:24:48Z</time>
      </trkpt>
      <trkpt lat="48.66811" lon="5.55588">
        <ele>284</ele>
        <time>2014-06-05T12:24:53Z</time>
      </trkpt>
      <trkpt lat="48.66787" lon="5.55564">
        <ele>284</ele>
        <time>2014-06-05T12:24:58Z</time>
      </trkpt>
      <trkpt lat="48.66763" lon="5.5554">
        <ele>285</ele>
        <time>2014-06-05T12:25:03Z</time>
      </trkpt>
      <trkpt lat="48.66739" lon="5.55515">
        <ele>285</ele>
        <time>2014-06-05T12:25:08Z</time>
      </trkpt>
      <trkpt lat="48.66717" lon="5.5549">
        <ele>286</ele>
        <time>2014-06-05T12:25:13Z</time>
      </trkpt>
      <trkpt lat="48.66696" lon="5.55464">
        <ele>287</ele>
        <time>2014-06-05T12:25:18Z</time>
      </trkpt>
      <trkpt lat="48.66675" lon="5.55437">
        <ele>287</ele>
        <time>2014-06-05T12:25:23Z</time>
      </trkpt>
      <trkpt lat="48.66654" lon="5.55408">
        <ele>287</ele>
        <time>2014-06-05T12:25:28Z</time>
      </trkpt>
      <trkpt lat="48.66633" lon="5.55379">
        <ele>288</ele>
        <time>2014-06-05T12:25:33Z</time>
      </trkpt>
      <trkpt lat="48.66613" lon="5.55349">
        <ele>288</ele>
        <time>2014-06-05T12:25:38Z</time>
      </trkpt>
      <trkpt lat="48.66592" lon="5.55319">
        <ele>289</ele>
        <time>2014-06-05T12:25:43Z</time>
      </trkpt>
      <trkpt lat="48.66571" lon="5.55289">
        <ele>289</ele>
        <time>2014-06-05T12:25:48Z</time>
      </trkpt>
      <trkpt lat="48.66551" lon="5.55258">
        <ele>289</ele>
        <time>2014-06-05T12:25:53Z</time>
      </trkpt>
      <trkpt lat="48.66531" lon="5.55227">
        <ele>289</ele>
        <time>2014-06-05T12:25:58Z</time>
      </trkpt>
      <trkpt lat="48.66511" lon="5.55198">
        <ele>289</ele>
        <time>2014-06-05T12:26:03Z</time>
      </trkpt>
      <trkpt lat="48.6649" lon="5.55168">
        <ele>289</ele>
        <time>2014-06-05T12:26:08Z</time>
      </trkpt>
      <trkpt lat="48.6647" lon="5.55138">
        <ele>289</ele>
        <time>2014-06-05T12:26:13Z</time>
      </trkpt>
      <trkpt lat="48.6645" lon="5.55108">
        <ele>289</ele>
        <time>2014-06-05T12:26:18Z</time>
      </trkpt>
      <trkpt lat="48.66429" lon="5.55078">
        <ele>289</ele>
        <time>2014-06-05T12:26:23Z</time>
      </trkpt>
      <trkpt lat="48.6641" lon="5.55048">
        <ele>289</ele>
        <time>2014-06-05T12:26:28Z</time>
      </trkpt>
      <trkpt lat="48.6639" lon="5.55019">
        <ele>289</ele>
        <time>2014-06-05T12:26:33Z</time>
      </trkpt>
      <trkpt lat="48.6637" lon="5.5499">
        <ele>290</ele>
        <time>2014-06-05T12:26:38Z</time>
      </trkpt>
      <trkpt lat="48.66351" lon="5.54961">
        <ele>291</ele>
        <time>2014-06-05T12:26:43Z</time>
      </trkpt>
      <trkpt lat="48.66331" lon="5.54933">
        <ele>291</ele>
        <time>2014-06-05T12:26:48Z</time>
      </trkpt>
      <trkpt lat="48.66311" lon="5.54903">
        <ele>291</ele>
        <time>2014-06-05T12:26:53Z</time>
      </trkpt>
      <trkpt lat="48.6629" lon="5.54872">
        <ele>291</ele>
        <time>2014-06-05T12:26:58Z</time>
      </trkpt>
      <trkpt lat="48.6627" lon="5.5484">
        <ele>291</ele>
        <time>2014-06-05T12:27:03Z</time>
      </trkpt>
      <trkpt lat="48.66249" lon="5.54809">
        <ele>291</ele>
        <time>2014-06-05T12:27:08Z</time>
      </trkpt>
      <trkpt lat="48.66229" lon="5.54779">
        <ele>291</ele>
        <time>2014-06-05T12:27:13Z</time>
      </trkpt>
      <trkpt lat="48.66212" lon="5.54752">
        <ele>291</ele>
        <time>2014-06-05T12:27:18Z</time>
      </trkpt>
      <trkpt lat="48.66196" lon="5.54725">
        <ele>291</ele>
        <time>2014-06-05T12:27:23Z</time>
      </trkpt>
      <trkpt lat="48.66179" lon="5.54699">
        <ele>292</ele>
        <time>2014-06-05T12:27:28Z</time>
      </trkpt>
      <trkpt lat="48.66163" lon="5.54679">
        <ele>292</ele>
        <time>2014-06-05T12:27:33Z</time>
      </trkpt>
      <trkpt lat="48.66151" lon="5.54668">
        <ele>294</ele>
        <time>2014-06-05T12:27:38Z</time>
      </trkpt>
      <trkpt lat="48.66145" lon="5.54673">
        <ele>297</ele>
        <time>2014-06-05T12:27:44Z</time>
      </trkpt>
      <trkpt lat="48.66145" lon="5.54679">
        <ele>303</ele>
        <time>2014-06-05T12:27:51Z</time>
      </trkpt>
      <trkpt lat="48.66145" lon="5.5467">
        <ele>306</ele>
        <time>2014-06-05T12:28:01Z</time>
      </trkpt>
      <trkpt lat="48.66149" lon="5.54667">
        <ele>306</ele>
        <time>2014-06-05T12:28:07Z</time>
      </trkpt>
      <trkpt lat="48.66145" lon="5.54679">
        <ele>306</ele>
        <time>2014-06-05T12:28:13Z</time>
      </trkpt>
      <trkpt lat="48.6614" lon="5.54677">
        <ele>306</ele>
        <time>2014-06-05T12:28:20Z</time>
      </trkpt>
      <trkpt lat="48.66138" lon="5.54677">
        <ele>305</ele>
        <time>2014-06-05T12:28:25Z</time>
      </trkpt>
      <trkpt lat="48.66133" lon="5.54687">
        <ele>305</ele>
        <time>2014-06-05T12:28:30Z</time>
      </trkpt>
      <trkpt lat="48.66124" lon="5.54697">
        <ele>304</ele>
        <time>2014-06-05T12:28:35Z</time>
      </trkpt>
      <trkpt lat="48.66114" lon="5.5471">
        <ele>304</ele>
        <time>2014-06-05T12:28:40Z</time>
      </trkpt>
      <trkpt lat="48.66103" lon="5.54721">
        <ele>304</ele>
        <time>2014-06-05T12:28:45Z</time>
      </trkpt>
      <trkpt lat="48.66092" lon="5.54729">
        <ele>304</ele>
        <time>2014-06-05T12:28:50Z</time>
      </trkpt>
      <trkpt lat="48.66081" lon="5.54735">
        <ele>304</ele>
        <time>2014-06-05T12:28:55Z</time>
      </trkpt>
      <trkpt lat="48.6607" lon="5.54735">
        <ele>304</ele>
        <time>2014-06-05T12:29:00Z</time>
      </trkpt>
      <trkpt lat="48.66059" lon="5.54731">
        <ele>304</ele>
        <time>2014-06-05T12:29:05Z</time>
      </trkpt>
      <trkpt lat="48.66051" lon="5.54725">
        <ele>304</ele>
        <time>2014-06-05T12:29:10Z</time>
      </trkpt>
      <trkpt lat="48.66043" lon="5.54718">
        <ele>304</ele>
        <time>2014-06-05T12:29:15Z</time>
      </trkpt>
      <trkpt lat="48.66035" lon="5.5471">
        <ele>304</ele>
        <time>2014-06-05T12:29:20Z</time>
      </trkpt>
      <trkpt lat="48.66027" lon="5.54702">
        <ele>304</ele>
        <time>2014-06-05T12:29:25Z</time>
      </trkpt>
      <trkpt lat="48.66018" lon="5.54692">
        <ele>304</ele>
        <time>2014-06-05T12:29:30Z</time>
      </trkpt>
      <trkpt lat="48.66011" lon="5.54682">
        <ele>304</ele>
        <time>2014-06-05T12:29:35Z</time>
      </trkpt>
      <trkpt lat="48.66005" lon="5.54674">
        <ele>304</ele>
        <time>2014-06-05T12:29:40Z</time>
      </trkpt>
      <trkpt lat="48.65996" lon="5.54663">
        <ele>304</ele>
        <time>2014-06-05T12:29:45Z</time>
      </trkpt>
      <trkpt lat="48.65984" lon="5.54645">
        <ele>304</ele>
        <time>2014-06-05T12:29:50Z</time>
      </trkpt>
      <trkpt lat="48.65973" lon="5.54624">
        <ele>304</ele>
        <time>2014-06-05T12:29:55Z</time>
      </trkpt>
      <trkpt lat="48.65961" lon="5.54601">
        <ele>304</ele>
        <time>2014-06-05T12:30:00Z</time>
      </trkpt>
      <trkpt lat="48.65951" lon="5.54579">
        <ele>304</ele>
        <time>2014-06-05T12:30:05Z</time>
      </trkpt>
      <trkpt lat="48.65938" lon="5.54554">
        <ele>304</ele>
        <time>2014-06-05T12:30:10Z</time>
      </trkpt>
      <trkpt lat="48.65926" lon="5.54529">
        <ele>304</ele>
        <time>2014-06-05T12:30:15Z</time>
      </trkpt>
      <trkpt lat="48.65916" lon="5.54506">
        <ele>304</ele>
        <time>2014-06-05T12:30:20Z</time>
      </trkpt>
      <trkpt lat="48.65905" lon="5.5448">
        <ele>304</ele>
        <time>2014-06-05T12:30:25Z</time>
      </trkpt>
      <trkpt lat="48.65895" lon="5.54455">
        <ele>304</ele>
        <time>2014-06-05T12:30:30Z</time>
      </trkpt>
      <trkpt lat="48.65886" lon="5.54432">
        <ele>304</ele>
        <time>2014-06-05T12:30:35Z</time>
      </trkpt>
      <trkpt lat="48.65877" lon="5.54408">
        <ele>304</ele>
        <time>2014-06-05T12:30:40Z</time>
      </trkpt>
      <trkpt lat="48.65866" lon="5.54384">
        <ele>305</ele>
        <time>2014-06-05T12:30:45Z</time>
      </trkpt>
      <trkpt lat="48.65856" lon="5.5436">
        <ele>307</ele>
        <time>2014-06-05T12:30:50Z</time>
      </trkpt>
      <trkpt lat="48.65846" lon="5.54336">
        <ele>309</ele>
        <time>2014-06-05T12:30:55Z</time>
      </trkpt>
      <trkpt lat="48.65835" lon="5.54312">
        <ele>311</ele>
        <time>2014-06-05T12:31:00Z</time>
      </trkpt>
      <trkpt lat="48.65824" lon="5.54288">
        <ele>313</ele>
        <time>2014-06-05T12:31:05Z</time>
      </trkpt>
      <trkpt lat="48.65814" lon="5.54264">
        <ele>315</ele>
        <time>2014-06-05T12:31:10Z</time>
      </trkpt>
      <trkpt lat="48.65804" lon="5.5424">
        <ele>317</ele>
        <time>2014-06-05T12:31:15Z</time>
      </trkpt>
      <trkpt lat="48.65793" lon="5.54217">
        <ele>318</ele>
        <time>2014-06-05T12:31:20Z</time>
      </trkpt>
      <trkpt lat="48.65783" lon="5.54193">
        <ele>319</ele>
        <time>2014-06-05T12:31:25Z</time>
      </trkpt>
      <trkpt lat="48.65773" lon="5.5417">
        <ele>320</ele>
        <time>2014-06-05T12:31:30Z</time>
      </trkpt>
      <trkpt lat="48.65762" lon="5.54145">
        <ele>321</ele>
        <time>2014-06-05T12:31:35Z</time>
      </trkpt>
      <trkpt lat="48.65752" lon="5.54121">
        <ele>323</ele>
        <time>2014-06-05T12:31:40Z</time>
      </trkpt>
      <trkpt lat="48.65742" lon="5.54097">
        <ele>324</ele>
        <time>2014-06-05T12:31:45Z</time>
      </trkpt>
      <trkpt lat="48.65732" lon="5.54073">
        <ele>325</ele>
        <time>2014-06-05T12:31:50Z</time>
      </trkpt>
      <trkpt lat="48.65722" lon="5.54048">
        <ele>326</ele>
        <time>2014-06-05T12:31:55Z</time>
      </trkpt>
      <trkpt lat="48.65711" lon="5.54024">
        <ele>327</ele>
        <time>2014-06-05T12:32:00Z</time>
      </trkpt>
      <trkpt lat="48.657" lon="5.53999">
        <ele>328</ele>
        <time>2014-06-05T12:32:05Z</time>
      </trkpt>
      <trkpt lat="48.65689" lon="5.53974">
        <ele>329</ele>
        <time>2014-06-05T12:32:10Z</time>
      </trkpt>
      <trkpt lat="48.65678" lon="5.53948">
        <ele>330</ele>
        <time>2014-06-05T12:32:15Z</time>
      </trkpt>
      <trkpt lat="48.65666" lon="5.53922">
        <ele>330</ele>
        <time>2014-06-05T12:32:20Z</time>
      </trkpt>
      <trkpt lat="48.65655" lon="5.53895">
        <ele>331</ele>
        <time>2014-06-05T12:32:25Z</time>
      </trkpt>
      <trkpt lat="48.65643" lon="5.53867">
        <ele>332</ele>
        <time>2014-06-05T12:32:30Z</time>
      </trkpt>
      <trkpt lat="48.65631" lon="5.53839">
        <ele>333</ele>
        <time>2014-06-05T12:32:35Z</time>
      </trkpt>
      <trkpt lat="48.65619" lon="5.53811">
        <ele>333</ele>
        <time>2014-06-05T12:32:40Z</time>
      </trkpt>
      <trkpt lat="48.65606" lon="5.53783">
        <ele>333</ele>
        <time>2014-06-05T12:32:45Z</time>
      </trkpt>
      <trkpt lat="48.65593" lon="5.53753">
        <ele>333</ele>
        <time>2014-06-05T12:32:50Z</time>
      </trkpt>
      <trkpt lat="48.65579" lon="5.53722">
        <ele>333</ele>
        <time>2014-06-05T12:32:55Z</time>
      </trkpt>
      <trkpt lat="48.65567" lon="5.53693">
        <ele>333</ele>
        <time>2014-06-05T12:33:00Z</time>
      </trkpt>
      <trkpt lat="48.65554" lon="5.53661">
        <ele>333</ele>
        <time>2014-06-05T12:33:05Z</time>
      </trkpt>
      <trkpt lat="48.6554" lon="5.53629">
        <ele>333</ele>
        <time>2014-06-05T12:33:10Z</time>
      </trkpt>
      <trkpt lat="48.65525" lon="5.53595">
        <ele>333</ele>
        <time>2014-06-05T12:33:15Z</time>
      </trkpt>
      <trkpt lat="48.65509" lon="5.53558">
        <ele>333</ele>
        <time>2014-06-05T12:33:20Z</time>
      </trkpt>
      <trkpt lat="48.65491" lon="5.5352">
        <ele>333</ele>
        <time>2014-06-05T12:33:25Z</time>
      </trkpt>
      <trkpt lat="48.65475" lon="5.53482">
        <ele>333</ele>
        <time>2014-06-05T12:33:30Z</time>
      </trkpt>
      <trkpt lat="48.65458" lon="5.53444">
        <ele>333</ele>
        <time>2014-06-05T12:33:35Z</time>
      </trkpt>
      <trkpt lat="48.65442" lon="5.53406">
        <ele>333</ele>
        <time>2014-06-05T12:33:40Z</time>
      </trkpt>
      <trkpt lat="48.65425" lon="5.53368">
        <ele>333</ele>
        <time>2014-06-05T12:33:45Z</time>
      </trkpt>
      <trkpt lat="48.65408" lon="5.5333">
        <ele>333</ele>
        <time>2014-06-05T12:33:50Z</time>
      </trkpt>
      <trkpt lat="48.65391" lon="5.53291">
        <ele>333</ele>
        <time>2014-06-05T12:33:55Z</time>
      </trkpt>
      <trkpt lat="48.65374" lon="5.53253">
        <ele>333</ele>
        <time>2014-06-05T12:34:00Z</time>
      </trkpt>
      <trkpt lat="48.65358" lon="5.53214">
        <ele>333</ele>
        <time>2014-06-05T12:34:05Z</time>
      </trkpt>
      <trkpt lat="48.65342" lon="5.53175">
        <ele>333</ele>
        <time>2014-06-05T12:34:10Z</time>
      </trkpt>
      <trkpt lat="48.65327" lon="5.53137">
        <ele>332</ele>
        <time>2014-06-05T12:34:15Z</time>
      </trkpt>
      <trkpt lat="48.6531" lon="5.53098">
        <ele>332</ele>
        <time>2014-06-05T12:34:20Z</time>
      </trkpt>
      <trkpt lat="48.65293" lon="5.53059">
        <ele>331</ele>
        <time>2014-06-05T12:34:25Z</time>
      </trkpt>
      <trkpt lat="48.65275" lon="5.53018">
        <ele>331</ele>
        <time>2014-06-05T12:34:30Z</time>
      </trkpt>
      <trkpt lat="48.65258" lon="5.52979">
        <ele>330</ele>
        <time>2014-06-05T12:34:35Z</time>
      </trkpt>
      <trkpt lat="48.65241" lon="5.5294">
        <ele>329</ele>
        <time>2014-06-05T12:34:40Z</time>
      </trkpt>
      <trkpt lat="48.65224" lon="5.52902">
        <ele>329</ele>
        <time>2014-06-05T12:34:45Z</time>
      </trkpt>
      <trkpt lat="48.65206" lon="5.52862">
        <ele>327</ele>
        <time>2014-06-05T12:34:50Z</time>
      </trkpt>
      <trkpt lat="48.65188" lon="5.52821">
        <ele>326</ele>
        <time>2014-06-05T12:34:55Z</time>
      </trkpt>
      <trkpt lat="48.6517" lon="5.52781">
        <ele>325</ele>
        <time>2014-06-05T12:35:00Z</time>
      </trkpt>
      <trkpt lat="48.65153" lon="5.52742">
        <ele>324</ele>
        <time>2014-06-05T12:35:05Z</time>
      </trkpt>
      <trkpt lat="48.65135" lon="5.52702">
        <ele>323</ele>
        <time>2014-06-05T12:35:10Z</time>
      </trkpt>
      <trkpt lat="48.65118" lon="5.52662">
        <ele>323</ele>
        <time>2014-06-05T12:35:15Z</time>
      </trkpt>
      <trkpt lat="48.65099" lon="5.52622">
        <ele>322</ele>
        <time>2014-06-05T12:35:20Z</time>
      </trkpt>
      <trkpt lat="48.65081" lon="5.52582">
        <ele>321</ele>
        <time>2014-06-05T12:35:25Z</time>
      </trkpt>
      <trkpt lat="48.65063" lon="5.52541">
        <ele>320</ele>
        <time>2014-06-05T12:35:30Z</time>
      </trkpt>
      <trkpt lat="48.65046" lon="5.525">
        <ele>319</ele>
        <time>2014-06-05T12:35:35Z</time>
      </trkpt>
      <trkpt lat="48.65028" lon="5.5246">
        <ele>317</ele>
        <time>2014-06-05T12:35:40Z</time>
      </trkpt>
      <trkpt lat="48.65013" lon="5.52421">
        <ele>317</ele>
        <time>2014-06-05T12:35:45Z</time>
      </trkpt>
      <trkpt lat="48.64996" lon="5.52381">
        <ele>316</ele>
        <time>2014-06-05T12:35:50Z</time>
      </trkpt>
      <trkpt lat="48.64979" lon="5.5234">
        <ele>316</ele>
        <time>2014-06-05T12:35:55Z</time>
      </trkpt>
      <trkpt lat="48.64961" lon="5.523">
        <ele>316</ele>
        <time>2014-06-05T12:36:00Z</time>
      </trkpt>
      <trkpt lat="48.64943" lon="5.52259">
        <ele>315</ele>
        <time>2014-06-05T12:36:05Z</time>
      </trkpt>
      <trkpt lat="48.64927" lon="5.52219">
        <ele>314</ele>
        <time>2014-06-05T12:36:10Z</time>
      </trkpt>
      <trkpt lat="48.64911" lon="5.52179">
        <ele>314</ele>
        <time>2014-06-05T12:36:15Z</time>
      </trkpt>
      <trkpt lat="48.64895" lon="5.52139">
        <ele>314</ele>
        <time>2014-06-05T12:36:20Z</time>
      </trkpt>
      <trkpt lat="48.64878" lon="5.52098">
        <ele>314</ele>
        <time>2014-06-05T12:36:25Z</time>
      </trkpt>
      <trkpt lat="48.64861" lon="5.52057">
        <ele>314</ele>
        <time>2014-06-05T12:36:30Z</time>
      </trkpt>
      <trkpt lat="48.64847" lon="5.52017">
        <ele>314</ele>
        <time>2014-06-05T12:36:35Z</time>
      </trkpt>
      <trkpt lat="48.64831" lon="5.51979">
        <ele>314</ele>
        <time>2014-06-05T12:36:40Z</time>
      </trkpt>
      <trkpt lat="48.64816" lon="5.51939">
        <ele>314</ele>
        <time>2014-06-05T12:36:45Z</time>
      </trkpt>
      <trkpt lat="48.64796" lon="5.51899">
        <ele>314</ele>
        <time>2014-06-05T12:36:50Z</time>
      </trkpt>
      <trkpt lat="48.64777" lon="5.5186">
        <ele>314</ele>
        <time>2014-06-05T12:36:55Z</time>
      </trkpt>
      <trkpt lat="48.64758" lon="5.51822">
        <ele>314</ele>
        <time>2014-06-05T12:37:00Z</time>
      </trkpt>
      <trkpt lat="48.64741" lon="5.51785">
        <ele>314</ele>
        <time>2014-06-05T12:37:05Z</time>
      </trkpt>
      <trkpt lat="48.64724" lon="5.51749">
        <ele>314</ele>
        <time>2014-06-05T12:37:10Z</time>
      </trkpt>
      <trkpt lat="48.64709" lon="5.51713">
        <ele>314</ele>
        <time>2014-06-05T12:37:15Z</time>
      </trkpt>
      <trkpt lat="48.64694" lon="5.51677">
        <ele>314</ele>
        <time>2014-06-05T12:37:20Z</time>
      </trkpt>
      <trkpt lat="48.64677" lon="5.51639">
        <ele>314</ele>
        <time>2014-06-05T12:37:25Z</time>
      </trkpt>
      <trkpt lat="48.64662" lon="5.51603">
        <ele>314</ele>
        <time>2014-06-05T12:37:30Z</time>
      </trkpt>
      <trkpt lat="48.64647" lon="5.51565">
        <ele>314</ele>
        <time>2014-06-05T12:37:35Z</time>
      </trkpt>
      <trkpt lat="48.64631" lon="5.5153">
        <ele>314</ele>
        <time>2014-06-05T12:37:40Z</time>
      </trkpt>
      <trkpt lat="48.64615" lon="5.51495">
        <ele>314</ele>
        <time>2014-06-05T12:37:45Z</time>
      </trkpt>
      <trkpt lat="48.64598" lon="5.51456">
        <ele>314</ele>
        <time>2014-06-05T12:37:50Z</time>
      </trkpt>
      <trkpt lat="48.64579" lon="5.51416">
        <ele>314</ele>
        <time>2014-06-05T12:37:55Z</time>
      </trkpt>
      <trkpt lat="48.6456" lon="5.51378">
        <ele>314</ele>
        <time>2014-06-05T12:38:00Z</time>
      </trkpt>
      <trkpt lat="48.64543" lon="5.51342">
        <ele>314</ele>
        <time>2014-06-05T12:38:05Z</time>
      </trkpt>
      <trkpt lat="48.64534" lon="5.51303">
        <ele>314</ele>
        <time>2014-06-05T12:38:10Z</time>
      </trkpt>
      <trkpt lat="48.64523" lon="5.5127">
        <ele>314</ele>
        <time>2014-06-05T12:38:15Z</time>
      </trkpt>
      <trkpt lat="48.6451" lon="5.51237">
        <ele>314</ele>
        <time>2014-06-05T12:38:20Z</time>
      </trkpt>
      <trkpt lat="48.645" lon="5.51205">
        <ele>314</ele>
        <time>2014-06-05T12:38:25Z</time>
      </trkpt>
      <trkpt lat="48.64489" lon="5.51175">
        <ele>314</ele>
        <time>2014-06-05T12:38:30Z</time>
      </trkpt>
      <trkpt lat="48.64477" lon="5.51144">
        <ele>314</ele>
        <time>2014-06-05T12:38:35Z</time>
      </trkpt>
      <trkpt lat="48.64464" lon="5.51111">
        <ele>314</ele>
        <time>2014-06-05T12:38:40Z</time>
      </trkpt>
      <trkpt lat="48.64449" lon="5.51079">
        <ele>314</ele>
        <time>2014-06-05T12:38:45Z</time>
      </trkpt>
      <trkpt lat="48.64429" lon="5.51053">
        <ele>314</ele>
        <time>2014-06-05T12:38:50Z</time>
      </trkpt>
      <trkpt lat="48.64405" lon="5.51033">
        <ele>314</ele>
        <time>2014-06-05T12:38:55Z</time>
      </trkpt>
      <trkpt lat="48.64384" lon="5.51016">
        <ele>314</ele>
        <time>2014-06-05T12:39:00Z</time>
      </trkpt>
      <trkpt lat="48.64361" lon="5.51006">
        <ele>314</ele>
        <time>2014-06-05T12:39:05Z</time>
      </trkpt>
      <trkpt lat="48.64333" lon="5.51022">
        <ele>313</ele>
        <time>2014-06-05T12:39:10Z</time>
      </trkpt>
      <trkpt lat="48.64306" lon="5.5105">
        <ele>311</ele>
        <time>2014-06-05T12:39:15Z</time>
      </trkpt>
      <trkpt lat="48.6428" lon="5.51068">
        <ele>310</ele>
        <time>2014-06-05T12:39:20Z</time>
      </trkpt>
      <trkpt lat="48.64253" lon="5.51053">
        <ele>310</ele>
        <time>2014-06-05T12:39:25Z</time>
      </trkpt>
      <trkpt lat="48.64227" lon="5.5103">
        <ele>310</ele>
        <time>2014-06-05T12:39:30Z</time>
      </trkpt>
      <trkpt lat="48.64199" lon="5.51008">
        <ele>310</ele>
        <time>2014-06-05T12:39:35Z</time>
      </trkpt>
      <trkpt lat="48.64169" lon="5.50986">
        <ele>312</ele>
        <time>2014-06-05T12:39:40Z</time>
      </trkpt>
      <trkpt lat="48.64141" lon="5.50965">
        <ele>312</ele>
        <time>2014-06-05T12:39:45Z</time>
      </trkpt>
      <trkpt lat="48.64114" lon="5.50944">
        <ele>312</ele>
        <time>2014-06-05T12:39:50Z</time>
      </trkpt>
      <trkpt lat="48.64089" lon="5.50926">
        <ele>312</ele>
        <time>2014-06-05T12:39:55Z</time>
      </trkpt>
      <trkpt lat="48.64065" lon="5.50907">
        <ele>312</ele>
        <time>2014-06-05T12:40:00Z</time>
      </trkpt>
      <trkpt lat="48.64042" lon="5.50889">
        <ele>312</ele>
        <time>2014-06-05T12:40:05Z</time>
      </trkpt>
      <trkpt lat="48.64018" lon="5.50871">
        <ele>312</ele>
        <time>2014-06-05T12:40:10Z</time>
      </trkpt>
      <trkpt lat="48.63995" lon="5.5085">
        <ele>312</ele>
        <time>2014-06-05T12:40:15Z</time>
      </trkpt>
      <trkpt lat="48.63972" lon="5.50823">
        <ele>312</ele>
        <time>2014-06-05T12:40:20Z</time>
      </trkpt>
      <trkpt lat="48.63954" lon="5.5079">
        <ele>312</ele>
        <time>2014-06-05T12:40:25Z</time>
      </trkpt>
      <trkpt lat="48.63939" lon="5.50753">
        <ele>312</ele>
        <time>2014-06-05T12:40:30Z</time>
      </trkpt>
      <trkpt lat="48.63926" lon="5.50715">
        <ele>312</ele>
        <time>2014-06-05T12:40:35Z</time>
      </trkpt>
      <trkpt lat="48.63909" lon="5.50674">
        <ele>312</ele>
        <time>2014-06-05T12:40:40Z</time>
      </trkpt>
      <trkpt lat="48.63893" lon="5.50635">
        <ele>312</ele>
        <time>2014-06-05T12:40:45Z</time>
      </trkpt>
      <trkpt lat="48.63878" lon="5.50595">
        <ele>312</ele>
        <time>2014-06-05T12:40:50Z</time>
      </trkpt>
      <trkpt lat="48.63861" lon="5.50554">
        <ele>313</ele>
        <time>2014-06-05T12:40:55Z</time>
      </trkpt>
      <trkpt lat="48.63846" lon="5.50513">
        <ele>315</ele>
        <time>2014-06-05T12:41:00Z</time>
      </trkpt>
      <trkpt lat="48.63832" lon="5.50472">
        <ele>315</ele>
        <time>2014-06-05T12:41:05Z</time>
      </trkpt>
      <trkpt lat="48.63817" lon="5.50429">
        <ele>316</ele>
        <time>2014-06-05T12:41:10Z</time>
      </trkpt>
      <trkpt lat="48.63804" lon="5.50386">
        <ele>316</ele>
        <time>2014-06-05T12:41:15Z</time>
      </trkpt>
      <trkpt lat="48.63789" lon="5.50343">
        <ele>316</ele>
        <time>2014-06-05T12:41:20Z</time>
      </trkpt>
      <trkpt lat="48.63772" lon="5.50296">
        <ele>316</ele>
        <time>2014-06-05T12:41:25Z</time>
      </trkpt>
      <trkpt lat="48.63756" lon="5.50252">
        <ele>316</ele>
        <time>2014-06-05T12:41:30Z</time>
      </trkpt>
      <trkpt lat="48.63742" lon="5.50209">
        <ele>319</ele>
        <time>2014-06-05T12:41:35Z</time>
      </trkpt>
      <trkpt lat="48.63727" lon="5.50167">
        <ele>321</ele>
        <time>2014-06-05T12:41:40Z</time>
      </trkpt>
      <trkpt lat="48.63712" lon="5.50124">
        <ele>322</ele>
        <time>2014-06-05T12:41:45Z</time>
      </trkpt>
      <trkpt lat="48.63696" lon="5.50083">
        <ele>324</ele>
        <time>2014-06-05T12:41:50Z</time>
      </trkpt>
      <trkpt lat="48.63684" lon="5.50044">
        <ele>325</ele>
        <time>2014-06-05T12:41:55Z</time>
      </trkpt>
      <trkpt lat="48.63671" lon="5.50004">
        <ele>326</ele>
        <time>2014-06-05T12:42:00Z</time>
      </trkpt>
      <trkpt lat="48.63658" lon="5.49963">
        <ele>326</ele>
        <time>2014-06-05T12:42:05Z</time>
      </trkpt>
      <trkpt lat="48.63645" lon="5.49924">
        <ele>326</ele>
        <time>2014-06-05T12:42:10Z</time>
      </trkpt>
      <trkpt lat="48.63628" lon="5.49884">
        <ele>326</ele>
        <time>2014-06-05T12:42:15Z</time>
      </trkpt>
      <trkpt lat="48.63615" lon="5.49847">
        <ele>326</ele>
        <time>2014-06-05T12:42:20Z</time>
      </trkpt>
      <trkpt lat="48.63604" lon="5.4981">
        <ele>326</ele>
        <time>2014-06-05T12:42:25Z</time>
      </trkpt>
      <trkpt lat="48.63594" lon="5.49773">
        <ele>326</ele>
        <time>2014-06-05T12:42:30Z</time>
      </trkpt>
      <trkpt lat="48.63582" lon="5.49734">
        <ele>326</ele>
        <time>2014-06-05T12:42:35Z</time>
      </trkpt>
      <trkpt lat="48.63566" lon="5.49694">
        <ele>326</ele>
        <time>2014-06-05T12:42:40Z</time>
      </trkpt>
      <trkpt lat="48.63552" lon="5.49655">
        <ele>326</ele>
        <time>2014-06-05T12:42:45Z</time>
      </trkpt>
      <trkpt lat="48.63537" lon="5.49615">
        <ele>326</ele>
        <time>2014-06-05T12:42:50Z</time>
      </trkpt>
      <trkpt lat="48.63522" lon="5.49576">
        <ele>326</ele>
        <time>2014-06-05T12:42:55Z</time>
      </trkpt>
      <trkpt lat="48.63506" lon="5.49538">
        <ele>326</ele>
        <time>2014-06-05T12:43:00Z</time>
      </trkpt>
      <trkpt lat="48.63489" lon="5.49491">
        <ele>326</ele>
        <time>2014-06-05T12:43:06Z</time>
      </trkpt>
      <trkpt lat="48.63474" lon="5.49451">
        <ele>326</ele>
        <time>2014-06-05T12:43:11Z</time>
      </trkpt>
      <trkpt lat="48.63461" lon="5.49411">
        <ele>323</ele>
        <time>2014-06-05T12:43:16Z</time>
      </trkpt>
      <trkpt lat="48.63447" lon="5.4937">
        <ele>322</ele>
        <time>2014-06-05T12:43:21Z</time>
      </trkpt>
      <trkpt lat="48.63433" lon="5.49329">
        <ele>321</ele>
        <time>2014-06-05T12:43:26Z</time>
      </trkpt>
      <trkpt lat="48.63418" lon="5.49281">
        <ele>320</ele>
        <time>2014-06-05T12:43:32Z</time>
      </trkpt>
      <trkpt lat="48.63404" lon="5.49243">
        <ele>319</ele>
        <time>2014-06-05T12:43:37Z</time>
      </trkpt>
      <trkpt lat="48.63392" lon="5.49201">
        <ele>318</ele>
        <time>2014-06-05T12:43:42Z</time>
      </trkpt>
      <trkpt lat="48.6338" lon="5.4916">
        <ele>316</ele>
        <time>2014-06-05T12:43:47Z</time>
      </trkpt>
      <trkpt lat="48.63367" lon="5.4912">
        <ele>316</ele>
        <time>2014-06-05T12:43:52Z</time>
      </trkpt>
      <trkpt lat="48.63351" lon="5.49072">
        <ele>316</ele>
        <time>2014-06-05T12:43:58Z</time>
      </trkpt>
      <trkpt lat="48.63336" lon="5.49033">
        <ele>316</ele>
        <time>2014-06-05T12:44:03Z</time>
      </trkpt>
      <trkpt lat="48.63325" lon="5.48997">
        <ele>316</ele>
        <time>2014-06-05T12:44:08Z</time>
      </trkpt>
      <trkpt lat="48.63313" lon="5.48956">
        <ele>316</ele>
        <time>2014-06-05T12:44:14Z</time>
      </trkpt>
      <trkpt lat="48.63301" lon="5.48922">
        <ele>316</ele>
        <time>2014-06-05T12:44:19Z</time>
      </trkpt>
      <trkpt lat="48.6329" lon="5.48888">
        <ele>316</ele>
        <time>2014-06-05T12:44:24Z</time>
      </trkpt>
      <trkpt lat="48.6328" lon="5.48849">
        <ele>316</ele>
        <time>2014-06-05T12:44:30Z</time>
      </trkpt>
      <trkpt lat="48.6327" lon="5.48817">
        <ele>316</ele>
        <time>2014-06-05T12:44:35Z</time>
      </trkpt>
      <trkpt lat="48.6326" lon="5.48784">
        <ele>316</ele>
        <time>2014-06-05T12:44:40Z</time>
      </trkpt>
      <trkpt lat="48.6325" lon="5.4875">
        <ele>316</ele>
        <time>2014-06-05T12:44:45Z</time>
      </trkpt>
      <trkpt lat="48.63237" lon="5.48713">
        <ele>316</ele>
        <time>2014-06-05T12:44:50Z</time>
      </trkpt>
      <trkpt lat="48.63227" lon="5.48676">
        <ele>316</ele>
        <time>2014-06-05T12:44:55Z</time>
      </trkpt>
      <trkpt lat="48.63218" lon="5.48642">
        <ele>316</ele>
        <time>2014-06-05T12:45:00Z</time>
      </trkpt>
      <trkpt lat="48.63208" lon="5.48606">
        <ele>316</ele>
        <time>2014-06-05T12:45:05Z</time>
      </trkpt>
      <trkpt lat="48.63197" lon="5.48568">
        <ele>316</ele>
        <time>2014-06-05T12:45:10Z</time>
      </trkpt>
      <trkpt lat="48.63186" lon="5.48529">
        <ele>316</ele>
        <time>2014-06-05T12:45:15Z</time>
      </trkpt>
      <trkpt lat="48.63174" lon="5.48489">
        <ele>316</ele>
        <time>2014-06-05T12:45:20Z</time>
      </trkpt>
      <trkpt lat="48.6316" lon="5.48448">
        <ele>315</ele>
        <time>2014-06-05T12:45:25Z</time>
      </trkpt>
      <trkpt lat="48.63149" lon="5.4841">
        <ele>313</ele>
        <time>2014-06-05T12:45:30Z</time>
      </trkpt>
      <trkpt lat="48.63139" lon="5.48374">
        <ele>310</ele>
        <time>2014-06-05T12:45:35Z</time>
      </trkpt>
      <trkpt lat="48.63129" lon="5.4834">
        <ele>310</ele>
        <time>2014-06-05T12:45:40Z</time>
      </trkpt>
      <trkpt lat="48.63117" lon="5.48304">
        <ele>310</ele>
        <time>2014-06-05T12:45:45Z</time>
      </trkpt>
      <trkpt lat="48.63109" lon="5.48271">
        <ele>310</ele>
        <time>2014-06-05T12:45:50Z</time>
      </trkpt>
      <trkpt lat="48.63102" lon="5.48236">
        <ele>314</ele>
        <time>2014-06-05T12:45:55Z</time>
      </trkpt>
      <trkpt lat="48.63097" lon="5.48196">
        <ele>315</ele>
        <time>2014-06-05T12:46:00Z</time>
      </trkpt>
      <trkpt lat="48.63093" lon="5.48153">
        <ele>315</ele>
        <time>2014-06-05T12:46:05Z</time>
      </trkpt>
      <trkpt lat="48.63087" lon="5.48111">
        <ele>315</ele>
        <time>2014-06-05T12:46:10Z</time>
      </trkpt>
      <trkpt lat="48.63084" lon="5.48068">
        <ele>315</ele>
        <time>2014-06-05T12:46:15Z</time>
      </trkpt>
      <trkpt lat="48.63075" lon="5.48023">
        <ele>315</ele>
        <time>2014-06-05T12:46:20Z</time>
      </trkpt>
      <trkpt lat="48.63069" lon="5.47976">
        <ele>316</ele>
        <time>2014-06-05T12:46:25Z</time>
      </trkpt>
      <trkpt lat="48.6306" lon="5.47935">
        <ele>316</ele>
        <time>2014-06-05T12:46:30Z</time>
      </trkpt>
      <trkpt lat="48.63053" lon="5.47892">
        <ele>316</ele>
        <time>2014-06-05T12:46:35Z</time>
      </trkpt>
      <trkpt lat="48.63041" lon="5.4785">
        <ele>316</ele>
        <time>2014-06-05T12:46:40Z</time>
      </trkpt>
      <trkpt lat="48.6303" lon="5.47807">
        <ele>318</ele>
        <time>2014-06-05T12:46:45Z</time>
      </trkpt>
      <trkpt lat="48.63022" lon="5.47762">
        <ele>318</ele>
        <time>2014-06-05T12:46:50Z</time>
      </trkpt>
      <trkpt lat="48.63014" lon="5.47714">
        <ele>318</ele>
        <time>2014-06-05T12:46:55Z</time>
      </trkpt>
      <trkpt lat="48.63003" lon="5.47656">
        <ele>318</ele>
        <time>2014-06-05T12:47:01Z</time>
      </trkpt>
      <trkpt lat="48.62994" lon="5.47606">
        <ele>318</ele>
        <time>2014-06-05T12:47:06Z</time>
      </trkpt>
      <trkpt lat="48.62985" lon="5.47553">
        <ele>314</ele>
        <time>2014-06-05T12:47:11Z</time>
      </trkpt>
      <trkpt lat="48.62975" lon="5.475">
        <ele>309</ele>
        <time>2014-06-05T12:47:16Z</time>
      </trkpt>
      <trkpt lat="48.62972" lon="5.47448">
        <ele>305</ele>
        <time>2014-06-05T12:47:21Z</time>
      </trkpt>
      <trkpt lat="48.62971" lon="5.47397">
        <ele>303</ele>
        <time>2014-06-05T12:47:26Z</time>
      </trkpt>
      <trkpt lat="48.62973" lon="5.47344">
        <ele>302</ele>
        <time>2014-06-05T12:47:31Z</time>
      </trkpt>
      <trkpt lat="48.62977" lon="5.47289">
        <ele>300</ele>
        <time>2014-06-05T12:47:36Z</time>
      </trkpt>
      <trkpt lat="48.6298" lon="5.47235">
        <ele>299</ele>
        <time>2014-06-05T12:47:41Z</time>
      </trkpt>
      <trkpt lat="48.62985" lon="5.47182">
        <ele>297</ele>
        <time>2014-06-05T12:47:46Z</time>
      </trkpt>
      <trkpt lat="48.62988" lon="5.47131">
        <ele>296</ele>
        <time>2014-06-05T12:47:51Z</time>
      </trkpt>
      <trkpt lat="48.6299" lon="5.47085">
        <ele>295</ele>
        <time>2014-06-05T12:47:56Z</time>
      </trkpt>
      <trkpt lat="48.62994" lon="5.47043">
        <ele>295</ele>
        <time>2014-06-05T12:48:01Z</time>
      </trkpt>
      <trkpt lat="48.62995" lon="5.47003">
        <ele>295</ele>
        <time>2014-06-05T12:48:06Z</time>
      </trkpt>
      <trkpt lat="48.62997" lon="5.46962">
        <ele>295</ele>
        <time>2014-06-05T12:48:11Z</time>
      </trkpt>
      <trkpt lat="48.63003" lon="5.46922">
        <ele>295</ele>
        <time>2014-06-05T12:48:16Z</time>
      </trkpt>
      <trkpt lat="48.63008" lon="5.46881">
        <ele>297</ele>
        <time>2014-06-05T12:48:21Z</time>
      </trkpt>
      <trkpt lat="48.63015" lon="5.46838">
        <ele>300</ele>
        <time>2014-06-05T12:48:26Z</time>
      </trkpt>
      <trkpt lat="48.63021" lon="5.46793">
        <ele>300</ele>
        <time>2014-06-05T12:48:31Z</time>
      </trkpt>
      <trkpt lat="48.63024" lon="5.46744">
        <ele>300</ele>
        <time>2014-06-05T12:48:36Z</time>
      </trkpt>
      <trkpt lat="48.63028" lon="5.46696">
        <ele>300</ele>
        <time>2014-06-05T12:48:41Z</time>
      </trkpt>
      <trkpt lat="48.63037" lon="5.4665">
        <ele>300</ele>
        <time>2014-06-05T12:48:46Z</time>
      </trkpt>
      <trkpt lat="48.63044" lon="5.46609">
        <ele>300</ele>
        <time>2014-06-05T12:48:51Z</time>
      </trkpt>
      <trkpt lat="48.63052" lon="5.46568">
        <ele>300</ele>
        <time>2014-06-05T12:48:56Z</time>
      </trkpt>
      <trkpt lat="48.6306" lon="5.46526">
        <ele>300</ele>
        <time>2014-06-05T12:49:01Z</time>
      </trkpt>
      <trkpt lat="48.63072" lon="5.46484">
        <ele>299</ele>
        <time>2014-06-05T12:49:06Z</time>
      </trkpt>
      <trkpt lat="48.63085" lon="5.46447">
        <ele>298</ele>
        <time>2014-06-05T12:49:11Z</time>
      </trkpt>
      <trkpt lat="48.63097" lon="5.46407">
        <ele>298</ele>
        <time>2014-06-05T12:49:16Z</time>
      </trkpt>
      <trkpt lat="48.63105" lon="5.46372">
        <ele>298</ele>
        <time>2014-06-05T12:49:21Z</time>
      </trkpt>
      <trkpt lat="48.63115" lon="5.46331">
        <ele>298</ele>
        <time>2014-06-05T12:49:26Z</time>
      </trkpt>
      <trkpt lat="48.63127" lon="5.46286">
        <ele>298</ele>
        <time>2014-06-05T12:49:31Z</time>
      </trkpt>
      <trkpt lat="48.63138" lon="5.46245">
        <ele>298</ele>
        <time>2014-06-05T12:49:36Z</time>
      </trkpt>
      <trkpt lat="48.6315" lon="5.46205">
        <ele>298</ele>
        <time>2014-06-05T12:49:41Z</time>
      </trkpt>
      <trkpt lat="48.63158" lon="5.46164">
        <ele>298</ele>
        <time>2014-06-05T12:49:46Z</time>
      </trkpt>
      <trkpt lat="48.63164" lon="5.4612">
        <ele>298</ele>
        <time>2014-06-05T12:49:51Z</time>
      </trkpt>
      <trkpt lat="48.63165" lon="5.46077">
        <ele>295</ele>
        <time>2014-06-05T12:49:56Z</time>
      </trkpt>
      <trkpt lat="48.63165" lon="5.46037">
        <ele>293</ele>
        <time>2014-06-05T12:50:01Z</time>
      </trkpt>
      <trkpt lat="48.63167" lon="5.45998">
        <ele>292</ele>
        <time>2014-06-05T12:50:06Z</time>
      </trkpt>
      <trkpt lat="48.63173" lon="5.4596">
        <ele>292</ele>
        <time>2014-06-05T12:50:11Z</time>
      </trkpt>
      <trkpt lat="48.63184" lon="5.45915">
        <ele>292</ele>
        <time>2014-06-05T12:50:16Z</time>
      </trkpt>
      <trkpt lat="48.63192" lon="5.45871">
        <ele>292</ele>
        <time>2014-06-05T12:50:21Z</time>
      </trkpt>
      <trkpt lat="48.63199" lon="5.45828">
        <ele>292</ele>
        <time>2014-06-05T12:50:26Z</time>
      </trkpt>
      <trkpt lat="48.63208" lon="5.45785">
        <ele>292</ele>
        <time>2014-06-05T12:50:31Z</time>
      </trkpt>
      <trkpt lat="48.63217" lon="5.45738">
        <ele>291</ele>
        <time>2014-06-05T12:50:36Z</time>
      </trkpt>
      <trkpt lat="48.63229" lon="5.45691">
        <ele>291</ele>
        <time>2014-06-05T12:50:41Z</time>
      </trkpt>
      <trkpt lat="48.63239" lon="5.45644">
        <ele>291</ele>
        <time>2014-06-05T12:50:46Z</time>
      </trkpt>
      <trkpt lat="48.63249" lon="5.45598">
        <ele>291</ele>
        <time>2014-06-05T12:50:51Z</time>
      </trkpt>
      <trkpt lat="48.63261" lon="5.4555">
        <ele>291</ele>
        <time>2014-06-05T12:50:56Z</time>
      </trkpt>
      <trkpt lat="48.63271" lon="5.45501">
        <ele>291</ele>
        <time>2014-06-05T12:51:01Z</time>
      </trkpt>
      <trkpt lat="48.63282" lon="5.45451">
        <ele>291</ele>
        <time>2014-06-05T12:51:06Z</time>
      </trkpt>
      <trkpt lat="48.63297" lon="5.45398">
        <ele>291</ele>
        <time>2014-06-05T12:51:11Z</time>
      </trkpt>
      <trkpt lat="48.63314" lon="5.45347">
        <ele>291</ele>
        <time>2014-06-05T12:51:16Z</time>
      </trkpt>
      <trkpt lat="48.63335" lon="5.45298">
        <ele>289</ele>
        <time>2014-06-05T12:51:21Z</time>
      </trkpt>
      <trkpt lat="48.63359" lon="5.45256">
        <ele>287</ele>
        <time>2014-06-05T12:51:26Z</time>
      </trkpt>
      <trkpt lat="48.63388" lon="5.45219">
        <ele>283</ele>
        <time>2014-06-05T12:51:31Z</time>
      </trkpt>
      <trkpt lat="48.63419" lon="5.45187">
        <ele>280</ele>
        <time>2014-06-05T12:51:36Z</time>
      </trkpt>
      <trkpt lat="48.63449" lon="5.45162">
        <ele>280</ele>
        <time>2014-06-05T12:51:41Z</time>
      </trkpt>
      <trkpt lat="48.63481" lon="5.45136">
        <ele>280</ele>
        <time>2014-06-05T12:51:46Z</time>
      </trkpt>
      <trkpt lat="48.63511" lon="5.45109">
        <ele>277</ele>
        <time>2014-06-05T12:51:51Z</time>
      </trkpt>
      <trkpt lat="48.63544" lon="5.45082">
        <ele>275</ele>
        <time>2014-06-05T12:51:56Z</time>
      </trkpt>
      <trkpt lat="48.63575" lon="5.45057">
        <ele>274</ele>
        <time>2014-06-05T12:52:01Z</time>
      </trkpt>
      <trkpt lat="48.63603" lon="5.45035">
        <ele>272</ele>
        <time>2014-06-05T12:52:06Z</time>
      </trkpt>
      <trkpt lat="48.6363" lon="5.45014">
        <ele>271</ele>
        <time>2014-06-05T12:52:11Z</time>
      </trkpt>
      <trkpt lat="48.63658" lon="5.44994">
        <ele>271</ele>
        <time>2014-06-05T12:52:16Z</time>
      </trkpt>
      <trkpt lat="48.63686" lon="5.44975">
        <ele>271</ele>
        <time>2014-06-05T12:52:21Z</time>
      </trkpt>
      <trkpt lat="48.63714" lon="5.44955">
        <ele>271</ele>
        <time>2014-06-05T12:52:26Z</time>
      </trkpt>
      <trkpt lat="48.63742" lon="5.44935">
        <ele>272</ele>
        <time>2014-06-05T12:52:31Z</time>
      </trkpt>
      <trkpt lat="48.63772" lon="5.44914">
        <ele>272</ele>
        <time>2014-06-05T12:52:36Z</time>
      </trkpt>
      <trkpt lat="48.63802" lon="5.44891">
        <ele>272</ele>
        <time>2014-06-05T12:52:41Z</time>
      </trkpt>
      <trkpt lat="48.63831" lon="5.44866">
        <ele>272</ele>
        <time>2014-06-05T12:52:46Z</time>
      </trkpt>
      <trkpt lat="48.6386" lon="5.44842">
        <ele>271</ele>
        <time>2014-06-05T12:52:51Z</time>
      </trkpt>
      <trkpt lat="48.63889" lon="5.44819">
        <ele>268</ele>
        <time>2014-06-05T12:52:56Z</time>
      </trkpt>
      <trkpt lat="48.63919" lon="5.44796">
        <ele>267</ele>
        <time>2014-06-05T12:53:01Z</time>
      </trkpt>
      <trkpt lat="48.63952" lon="5.44775">
        <ele>267</ele>
        <time>2014-06-05T12:53:06Z</time>
      </trkpt>
      <trkpt lat="48.63984" lon="5.44753">
        <ele>267</ele>
        <time>2014-06-05T12:53:11Z</time>
      </trkpt>
      <trkpt lat="48.64017" lon="5.4473">
        <ele>267</ele>
        <time>2014-06-05T12:53:16Z</time>
      </trkpt>
      <trkpt lat="48.64049" lon="5.44705">
        <ele>267</ele>
        <time>2014-06-05T12:53:21Z</time>
      </trkpt>
      <trkpt lat="48.64076" lon="5.44682">
        <ele>267</ele>
        <time>2014-06-05T12:53:26Z</time>
      </trkpt>
      <trkpt lat="48.64096" lon="5.44649">
        <ele>267</ele>
        <time>2014-06-05T12:53:31Z</time>
      </trkpt>
      <trkpt lat="48.6411" lon="5.44606">
        <ele>267</ele>
        <time>2014-06-05T12:53:36Z</time>
      </trkpt>
      <trkpt lat="48.64119" lon="5.44558">
        <ele>267</ele>
        <time>2014-06-05T12:53:41Z</time>
      </trkpt>
      <trkpt lat="48.64127" lon="5.44508">
        <ele>267</ele>
        <time>2014-06-05T12:53:46Z</time>
      </trkpt>
      <trkpt lat="48.64137" lon="5.44457">
        <ele>267</ele>
        <time>2014-06-05T12:53:51Z</time>
      </trkpt>
      <trkpt lat="48.64142" lon="5.44407">
        <ele>267</ele>
        <time>2014-06-05T12:53:56Z</time>
      </trkpt>
      <trkpt lat="48.6415" lon="5.4436">
        <ele>267</ele>
        <time>2014-06-05T12:54:01Z</time>
      </trkpt>
      <trkpt lat="48.64158" lon="5.4431">
        <ele>268</ele>
        <time>2014-06-05T12:54:06Z</time>
      </trkpt>
      <trkpt lat="48.64159" lon="5.44257">
        <ele>270</ele>
        <time>2014-06-05T12:54:11Z</time>
      </trkpt>
      <trkpt lat="48.64159" lon="5.44205">
        <ele>270</ele>
        <time>2014-06-05T12:54:16Z</time>
      </trkpt>
      <trkpt lat="48.64159" lon="5.44152">
        <ele>268</ele>
        <time>2014-06-05T12:54:21Z</time>
      </trkpt>
      <trkpt lat="48.64158" lon="5.44098">
        <ele>266</ele>
        <time>2014-06-05T12:54:26Z</time>
      </trkpt>
      <trkpt lat="48.64159" lon="5.44044">
        <ele>264</ele>
        <time>2014-06-05T12:54:31Z</time>
      </trkpt>
      <trkpt lat="48.64158" lon="5.43992">
        <ele>263</ele>
        <time>2014-06-05T12:54:36Z</time>
      </trkpt>
      <trkpt lat="48.64156" lon="5.43941">
        <ele>263</ele>
        <time>2014-06-05T12:54:41Z</time>
      </trkpt>
      <trkpt lat="48.64157" lon="5.43888">
        <ele>263</ele>
        <time>2014-06-05T12:54:46Z</time>
      </trkpt>
      <trkpt lat="48.64158" lon="5.43836">
        <ele>263</ele>
        <time>2014-06-05T12:54:51Z</time>
      </trkpt>
      <trkpt lat="48.64162" lon="5.43782">
        <ele>263</ele>
        <time>2014-06-05T12:54:56Z</time>
      </trkpt>
      <trkpt lat="48.64173" lon="5.43732">
        <ele>263</ele>
        <time>2014-06-05T12:55:01Z</time>
      </trkpt>
      <trkpt lat="48.64188" lon="5.43685">
        <ele>263</ele>
        <time>2014-06-05T12:55:06Z</time>
      </trkpt>
      <trkpt lat="48.64204" lon="5.4364">
        <ele>263</ele>
        <time>2014-06-05T12:55:11Z</time>
      </trkpt>
      <trkpt lat="48.6422" lon="5.43596">
        <ele>262</ele>
        <time>2014-06-05T12:55:16Z</time>
      </trkpt>
      <trkpt lat="48.64234" lon="5.43552">
        <ele>262</ele>
        <time>2014-06-05T12:55:21Z</time>
      </trkpt>
      <trkpt lat="48.64248" lon="5.4351">
        <ele>261</ele>
        <time>2014-06-05T12:55:26Z</time>
      </trkpt>
      <trkpt lat="48.64262" lon="5.43466">
        <ele>261</ele>
        <time>2014-06-05T12:55:31Z</time>
      </trkpt>
      <trkpt lat="48.64277" lon="5.43423">
        <ele>260</ele>
        <time>2014-06-05T12:55:36Z</time>
      </trkpt>
      <trkpt lat="48.64291" lon="5.43379">
        <ele>260</ele>
        <time>2014-06-05T12:55:41Z</time>
      </trkpt>
      <trkpt lat="48.64305" lon="5.43335">
        <ele>259</ele>
        <time>2014-06-05T12:55:46Z</time>
      </trkpt>
      <trkpt lat="48.64322" lon="5.43289">
        <ele>259</ele>
        <time>2014-06-05T12:55:51Z</time>
      </trkpt>
      <trkpt lat="48.64338" lon="5.43245">
        <ele>259</ele>
        <time>2014-06-05T12:55:56Z</time>
      </trkpt>
      <trkpt lat="48.64353" lon="5.43201">
        <ele>259</ele>
        <time>2014-06-05T12:56:01Z</time>
      </trkpt>
      <trkpt lat="48.64366" lon="5.43159">
        <ele>259</ele>
        <time>2014-06-05T12:56:06Z</time>
      </trkpt>
      <trkpt lat="48.64379" lon="5.43119">
        <ele>259</ele>
        <time>2014-06-05T12:56:11Z</time>
      </trkpt>
      <trkpt lat="48.64392" lon="5.43079">
        <ele>259</ele>
        <time>2014-06-05T12:56:16Z</time>
      </trkpt>
      <trkpt lat="48.64405" lon="5.43041">
        <ele>259</ele>
        <time>2014-06-05T12:56:21Z</time>
      </trkpt>
      <trkpt lat="48.64418" lon="5.43003">
        <ele>259</ele>
        <time>2014-06-05T12:56:26Z</time>
      </trkpt>
      <trkpt lat="48.64433" lon="5.42963">
        <ele>259</ele>
        <time>2014-06-05T12:56:31Z</time>
      </trkpt>
      <trkpt lat="48.64448" lon="5.42926">
        <ele>259</ele>
        <time>2014-06-05T12:56:36Z</time>
      </trkpt>
      <trkpt lat="48.64468" lon="5.42888">
        <ele>259</ele>
        <time>2014-06-05T12:56:41Z</time>
      </trkpt>
      <trkpt lat="48.64493" lon="5.42852">
        <ele>259</ele>
        <time>2014-06-05T12:56:46Z</time>
      </trkpt>
      <trkpt lat="48.64521" lon="5.42817">
        <ele>259</ele>
        <time>2014-06-05T12:56:51Z</time>
      </trkpt>
      <trkpt lat="48.64541" lon="5.42788">
        <ele>259</ele>
        <time>2014-06-05T12:56:56Z</time>
      </trkpt>
      <trkpt lat="48.64563" lon="5.42758">
        <ele>259</ele>
        <time>2014-06-05T12:57:01Z</time>
      </trkpt>
      <trkpt lat="48.64584" lon="5.42728">
        <ele>259</ele>
        <time>2014-06-05T12:57:06Z</time>
      </trkpt>
      <trkpt lat="48.64607" lon="5.42698">
        <ele>259</ele>
        <time>2014-06-05T12:57:11Z</time>
      </trkpt>
      <trkpt lat="48.64628" lon="5.42669">
        <ele>259</ele>
        <time>2014-06-05T12:57:16Z</time>
      </trkpt>
      <trkpt lat="48.64649" lon="5.42641">
        <ele>259</ele>
        <time>2014-06-05T12:57:21Z</time>
      </trkpt>
      <trkpt lat="48.6467" lon="5.42613">
        <ele>259</ele>
        <time>2014-06-05T12:57:26Z</time>
      </trkpt>
      <trkpt lat="48.64691" lon="5.42579">
        <ele>259</ele>
        <time>2014-06-05T12:57:31Z</time>
      </trkpt>
      <trkpt lat="48.64708" lon="5.42536">
        <ele>259</ele>
        <time>2014-06-05T12:57:36Z</time>
      </trkpt>
      <trkpt lat="48.64715" lon="5.4249">
        <ele>259</ele>
        <time>2014-06-05T12:57:41Z</time>
      </trkpt>
      <trkpt lat="48.64714" lon="5.42443">
        <ele>259</ele>
        <time>2014-06-05T12:57:46Z</time>
      </trkpt>
      <trkpt lat="48.64714" lon="5.42396">
        <ele>259</ele>
        <time>2014-06-05T12:57:51Z</time>
      </trkpt>
      <trkpt lat="48.64714" lon="5.42347">
        <ele>259</ele>
        <time>2014-06-05T12:57:56Z</time>
      </trkpt>
      <trkpt lat="48.6472" lon="5.42299">
        <ele>259</ele>
        <time>2014-06-05T12:58:01Z</time>
      </trkpt>
      <trkpt lat="48.64726" lon="5.42252">
        <ele>259</ele>
        <time>2014-06-05T12:58:06Z</time>
      </trkpt>
      <trkpt lat="48.64731" lon="5.42208">
        <ele>259</ele>
        <time>2014-06-05T12:58:11Z</time>
      </trkpt>
      <trkpt lat="48.64736" lon="5.42167">
        <ele>259</ele>
        <time>2014-06-05T12:58:16Z</time>
      </trkpt>
      <trkpt lat="48.64741" lon="5.42123">
        <ele>259</ele>
        <time>2014-06-05T12:58:21Z</time>
      </trkpt>
      <trkpt lat="48.64744" lon="5.42085">
        <ele>259</ele>
        <time>2014-06-05T12:58:26Z</time>
      </trkpt>
      <trkpt lat="48.64747" lon="5.42046">
        <ele>259</ele>
        <time>2014-06-05T12:58:31Z</time>
      </trkpt>
      <trkpt lat="48.64751" lon="5.42006">
        <ele>259</ele>
        <time>2014-06-05T12:58:36Z</time>
      </trkpt>
      <trkpt lat="48.64756" lon="5.41967">
        <ele>259</ele>
        <time>2014-06-05T12:58:41Z</time>
      </trkpt>
      <trkpt lat="48.64764" lon="5.41926">
        <ele>259</ele>
        <time>2014-06-05T12:58:46Z</time>
      </trkpt>
      <trkpt lat="48.64772" lon="5.41885">
        <ele>259</ele>
        <time>2014-06-05T12:58:51Z</time>
      </trkpt>
      <trkpt lat="48.64782" lon="5.41846">
        <ele>259</ele>
        <time>2014-06-05T12:58:56Z</time>
      </trkpt>
      <trkpt lat="48.6479" lon="5.41806">
        <ele>259</ele>
        <time>2014-06-05T12:59:01Z</time>
      </trkpt>
      <trkpt lat="48.64796" lon="5.41767">
        <ele>261</ele>
        <time>2014-06-05T12:59:06Z</time>
      </trkpt>
      <trkpt lat="48.64803" lon="5.41727">
        <ele>261</ele>
        <time>2014-06-05T12:59:11Z</time>
      </trkpt>
      <trkpt lat="48.6481" lon="5.41689">
        <ele>262</ele>
        <time>2014-06-05T12:59:16Z</time>
      </trkpt>
      <trkpt lat="48.64815" lon="5.41647">
        <ele>263</ele>
        <time>2014-06-05T12:59:21Z</time>
      </trkpt>
      <trkpt lat="48.64818" lon="5.41604">
        <ele>263</ele>
        <time>2014-06-05T12:59:26Z</time>
      </trkpt>
      <trkpt lat="48.64817" lon="5.41561">
        <ele>263</ele>
        <time>2014-06-05T12:59:31Z</time>
      </trkpt>
      <trkpt lat="48.64811" lon="5.41517">
        <ele>263</ele>
        <time>2014-06-05T12:59:36Z</time>
      </trkpt>
      <trkpt lat="48.64806" lon="5.41467">
        <ele>263</ele>
        <time>2014-06-05T12:59:41Z</time>
      </trkpt>
      <trkpt lat="48.64799" lon="5.4142">
        <ele>263</ele>
        <time>2014-06-05T12:59:46Z</time>
      </trkpt>
      <trkpt lat="48.64793" lon="5.41368">
        <ele>263</ele>
        <time>2014-06-05T12:59:51Z</time>
      </trkpt>
      <trkpt lat="48.64785" lon="5.41317">
        <ele>263</ele>
        <time>2014-06-05T12:59:56Z</time>
      </trkpt>
      <trkpt lat="48.64779" lon="5.41268">
        <ele>262</ele>
        <time>2014-06-05T13:00:01Z</time>
      </trkpt>
      <trkpt lat="48.64773" lon="5.4122">
        <ele>262</ele>
        <time>2014-06-05T13:00:06Z</time>
      </trkpt>
      <trkpt lat="48.64766" lon="5.4117">
        <ele>262</ele>
        <time>2014-06-05T13:00:11Z</time>
      </trkpt>
      <trkpt lat="48.6476" lon="5.4112">
        <ele>262</ele>
        <time>2014-06-05T13:00:16Z</time>
      </trkpt>
      <trkpt lat="48.64753" lon="5.41071">
        <ele>262</ele>
        <time>2014-06-05T13:00:21Z</time>
      </trkpt>
      <trkpt lat="48.64746" lon="5.41022">
        <ele>262</ele>
        <time>2014-06-05T13:00:26Z</time>
      </trkpt>
      <trkpt lat="48.64742" lon="5.40973">
        <ele>262</ele>
        <time>2014-06-05T13:00:31Z</time>
      </trkpt>
      <trkpt lat="48.64739" lon="5.40925">
        <ele>262</ele>
        <time>2014-06-05T13:00:36Z</time>
      </trkpt>
      <trkpt lat="48.64736" lon="5.40879">
        <ele>262</ele>
        <time>2014-06-05T13:00:41Z</time>
      </trkpt>
      <trkpt lat="48.6473" lon="5.40836">
        <ele>262</ele>
        <time>2014-06-05T13:00:46Z</time>
      </trkpt>
      <trkpt lat="48.64724" lon="5.40794">
        <ele>262</ele>
        <time>2014-06-05T13:00:51Z</time>
      </trkpt>
      <trkpt lat="48.64718" lon="5.40751">
        <ele>262</ele>
        <time>2014-06-05T13:00:56Z</time>
      </trkpt>
      <trkpt lat="48.64713" lon="5.40706">
        <ele>262</ele>
        <time>2014-06-05T13:01:01Z</time>
      </trkpt>
      <trkpt lat="48.6471" lon="5.40659">
        <ele>262</ele>
        <time>2014-06-05T13:01:06Z</time>
      </trkpt>
      <trkpt lat="48.64709" lon="5.40611">
        <ele>262</ele>
        <time>2014-06-05T13:01:11Z</time>
      </trkpt>
      <trkpt lat="48.6471" lon="5.40561">
        <ele>262</ele>
        <time>2014-06-05T13:01:16Z</time>
      </trkpt>
      <trkpt lat="48.64711" lon="5.40512">
        <ele>262</ele>
        <time>2014-06-05T13:01:21Z</time>
      </trkpt>
      <trkpt lat="48.64711" lon="5.40462">
        <ele>262</ele>
        <time>2014-06-05T13:01:26Z</time>
      </trkpt>
      <trkpt lat="48.64707" lon="5.40414">
        <ele>262</ele>
        <time>2014-06-05T13:01:31Z</time>
      </trkpt>
      <trkpt lat="48.64701" lon="5.40364">
        <ele>262</ele>
        <time>2014-06-05T13:01:36Z</time>
      </trkpt>
      <trkpt lat="48.64693" lon="5.40315">
        <ele>261</ele>
        <time>2014-06-05T13:01:41Z</time>
      </trkpt>
      <trkpt lat="48.64682" lon="5.40267">
        <ele>261</ele>
        <time>2014-06-05T13:01:46Z</time>
      </trkpt>
      <trkpt lat="48.64668" lon="5.4022">
        <ele>261</ele>
        <time>2014-06-05T13:01:51Z</time>
      </trkpt>
      <trkpt lat="48.64653" lon="5.40175">
        <ele>260</ele>
        <time>2014-06-05T13:01:56Z</time>
      </trkpt>
      <trkpt lat="48.64636" lon="5.40131">
        <ele>260</ele>
        <time>2014-06-05T13:02:01Z</time>
      </trkpt>
      <trkpt lat="48.64619" lon="5.40085">
        <ele>260</ele>
        <time>2014-06-05T13:02:06Z</time>
      </trkpt>
      <trkpt lat="48.646" lon="5.40039">
        <ele>260</ele>
        <time>2014-06-05T13:02:11Z</time>
      </trkpt>
      <trkpt lat="48.64581" lon="5.39995">
        <ele>260</ele>
        <time>2014-06-05T13:02:16Z</time>
      </trkpt>
      <trkpt lat="48.64563" lon="5.3995">
        <ele>260</ele>
        <time>2014-06-05T13:02:21Z</time>
      </trkpt>
      <trkpt lat="48.64545" lon="5.39905">
        <ele>260</ele>
        <time>2014-06-05T13:02:26Z</time>
      </trkpt>
      <trkpt lat="48.64527" lon="5.39859">
        <ele>260</ele>
        <time>2014-06-05T13:02:31Z</time>
      </trkpt>
      <trkpt lat="48.6451" lon="5.39812">
        <ele>260</ele>
        <time>2014-06-05T13:02:36Z</time>
      </trkpt>
      <trkpt lat="48.64491" lon="5.39764">
        <ele>260</ele>
        <time>2014-06-05T13:02:41Z</time>
      </trkpt>
      <trkpt lat="48.64474" lon="5.39717">
        <ele>260</ele>
        <time>2014-06-05T13:02:46Z</time>
      </trkpt>
      <trkpt lat="48.64456" lon="5.3967">
        <ele>259</ele>
        <time>2014-06-05T13:02:51Z</time>
      </trkpt>
      <trkpt lat="48.64438" lon="5.39622">
        <ele>259</ele>
        <time>2014-06-05T13:02:56Z</time>
      </trkpt>
      <trkpt lat="48.64421" lon="5.39577">
        <ele>259</ele>
        <time>2014-06-05T13:03:01Z</time>
      </trkpt>
      <trkpt lat="48.64405" lon="5.39534">
        <ele>258</ele>
        <time>2014-06-05T13:03:06Z</time>
      </trkpt>
      <trkpt lat="48.6439" lon="5.39496">
        <ele>258</ele>
        <time>2014-06-05T13:03:11Z</time>
      </trkpt>
      <trkpt lat="48.64374" lon="5.39455">
        <ele>258</ele>
        <time>2014-06-05T13:03:16Z</time>
      </trkpt>
      <trkpt lat="48.64359" lon="5.39415">
        <ele>258</ele>
        <time>2014-06-05T13:03:21Z</time>
      </trkpt>
      <trkpt lat="48.64345" lon="5.39375">
        <ele>257</ele>
        <time>2014-06-05T13:03:26Z</time>
      </trkpt>
      <trkpt lat="48.64328" lon="5.39336">
        <ele>257</ele>
        <time>2014-06-05T13:03:31Z</time>
      </trkpt>
      <trkpt lat="48.64311" lon="5.39297">
        <ele>257</ele>
        <time>2014-06-05T13:03:36Z</time>
      </trkpt>
      <trkpt lat="48.64296" lon="5.39257">
        <ele>257</ele>
        <time>2014-06-05T13:03:41Z</time>
      </trkpt>
      <trkpt lat="48.64281" lon="5.39217">
        <ele>257</ele>
        <time>2014-06-05T13:03:46Z</time>
      </trkpt>
      <trkpt lat="48.64266" lon="5.39178">
        <ele>257</ele>
        <time>2014-06-05T13:03:51Z</time>
      </trkpt>
      <trkpt lat="48.64251" lon="5.3914">
        <ele>257</ele>
        <time>2014-06-05T13:03:56Z</time>
      </trkpt>
      <trkpt lat="48.64236" lon="5.39102">
        <ele>257</ele>
        <time>2014-06-05T13:04:01Z</time>
      </trkpt>
      <trkpt lat="48.6422" lon="5.39064">
        <ele>257</ele>
        <time>2014-06-05T13:04:06Z</time>
      </trkpt>
      <trkpt lat="48.64207" lon="5.39026">
        <ele>257</ele>
        <time>2014-06-05T13:04:11Z</time>
      </trkpt>
      <trkpt lat="48.64191" lon="5.38989">
        <ele>257</ele>
        <time>2014-06-05T13:04:16Z</time>
      </trkpt>
      <trkpt lat="48.64177" lon="5.38951">
        <ele>257</ele>
        <time>2014-06-05T13:04:21Z</time>
      </trkpt>
      <trkpt lat="48.64162" lon="5.38913">
        <ele>257</ele>
        <time>2014-06-05T13:04:26Z</time>
      </trkpt>
      <trkpt lat="48.64145" lon="5.38876">
        <ele>257</ele>
        <time>2014-06-05T13:04:31Z</time>
      </trkpt>
      <trkpt lat="48.64132" lon="5.38838">
        <ele>257</ele>
        <time>2014-06-05T13:04:36Z</time>
      </trkpt>
      <trkpt lat="48.64117" lon="5.38799">
        <ele>257</ele>
        <time>2014-06-05T13:04:41Z</time>
      </trkpt>
      <trkpt lat="48.64102" lon="5.38761">
        <ele>257</ele>
        <time>2014-06-05T13:04:46Z</time>
      </trkpt>
      <trkpt lat="48.64084" lon="5.38724">
        <ele>257</ele>
        <time>2014-06-05T13:04:51Z</time>
      </trkpt>
      <trkpt lat="48.64072" lon="5.38686">
        <ele>257</ele>
        <time>2014-06-05T13:04:56Z</time>
      </trkpt>
      <trkpt lat="48.6406" lon="5.38641">
        <ele>257</ele>
        <time>2014-06-05T13:05:01Z</time>
      </trkpt>
      <trkpt lat="48.64052" lon="5.3859">
        <ele>257</ele>
        <time>2014-06-05T13:05:06Z</time>
      </trkpt>
      <trkpt lat="48.64049" lon="5.38537">
        <ele>256</ele>
        <time>2014-06-05T13:05:11Z</time>
      </trkpt>
      <trkpt lat="48.64051" lon="5.38479">
        <ele>253</ele>
        <time>2014-06-05T13:05:16Z</time>
      </trkpt>
      <trkpt lat="48.64052" lon="5.38419">
        <ele>250</ele>
        <time>2014-06-05T13:05:21Z</time>
      </trkpt>
      <trkpt lat="48.6405" lon="5.38362">
        <ele>249</ele>
        <time>2014-06-05T13:05:26Z</time>
      </trkpt>
      <trkpt lat="48.64048" lon="5.38307">
        <ele>248</ele>
        <time>2014-06-05T13:05:31Z</time>
      </trkpt>
      <trkpt lat="48.64047" lon="5.38257">
        <ele>248</ele>
        <time>2014-06-05T13:05:36Z</time>
      </trkpt>
      <trkpt lat="48.64046" lon="5.38206">
        <ele>248</ele>
        <time>2014-06-05T13:05:41Z</time>
      </trkpt>
      <trkpt lat="48.64045" lon="5.38158">
        <ele>248</ele>
        <time>2014-06-05T13:05:46Z</time>
      </trkpt>
      <trkpt lat="48.64046" lon="5.3811">
        <ele>248</ele>
        <time>2014-06-05T13:05:51Z</time>
      </trkpt>
      <trkpt lat="48.64045" lon="5.38061">
        <ele>248</ele>
        <time>2014-06-05T13:05:56Z</time>
      </trkpt>
      <trkpt lat="48.64046" lon="5.38019">
        <ele>248</ele>
        <time>2014-06-05T13:06:01Z</time>
      </trkpt>
      <trkpt lat="48.64048" lon="5.37984">
        <ele>248</ele>
        <time>2014-06-05T13:06:06Z</time>
      </trkpt>
      <trkpt lat="48.64048" lon="5.37945">
        <ele>248</ele>
        <time>2014-06-05T13:06:11Z</time>
      </trkpt>
      <trkpt lat="48.64048" lon="5.3791">
        <ele>248</ele>
        <time>2014-06-05T13:06:16Z</time>
      </trkpt>
      <trkpt lat="48.64045" lon="5.37875">
        <ele>248</ele>
        <time>2014-06-05T13:06:21Z</time>
      </trkpt>
      <trkpt lat="48.64043" lon="5.37839">
        <ele>248</ele>
        <time>2014-06-05T13:06:26Z</time>
      </trkpt>
      <trkpt lat="48.64042" lon="5.37804">
        <ele>248</ele>
        <time>2014-06-05T13:06:31Z</time>
      </trkpt>
      <trkpt lat="48.64044" lon="5.3777">
        <ele>248</ele>
        <time>2014-06-05T13:06:36Z</time>
      </trkpt>
      <trkpt lat="48.64038" lon="5.37741">
        <ele>248</ele>
        <time>2014-06-05T13:06:41Z</time>
      </trkpt>
      <trkpt lat="48.64022" lon="5.37729">
        <ele>248</ele>
        <time>2014-06-05T13:06:46Z</time>
      </trkpt>
      <trkpt lat="48.64006" lon="5.37731">
        <ele>248</ele>
        <time>2014-06-05T13:06:51Z</time>
      </trkpt>
      <trkpt lat="48.63998" lon="5.37724">
        <ele>248</ele>
        <time>2014-06-05T13:06:56Z</time>
      </trkpt>
      <trkpt lat="48.64" lon="5.37683">
        <ele>248</ele>
        <time>2014-06-05T13:07:01Z</time>
      </trkpt>
      <trkpt lat="48.64003" lon="5.37636">
        <ele>248</ele>
        <time>2014-06-05T13:07:06Z</time>
      </trkpt>
      <trkpt lat="48.64008" lon="5.3759">
        <ele>248</ele>
        <time>2014-06-05T13:07:11Z</time>
      </trkpt>
      <trkpt lat="48.64011" lon="5.37549">
        <ele>248</ele>
        <time>2014-06-05T13:07:16Z</time>
      </trkpt>
      <trkpt lat="48.64015" lon="5.37508">
        <ele>248</ele>
        <time>2014-06-05T13:07:21Z</time>
      </trkpt>
      <trkpt lat="48.6402" lon="5.37467">
        <ele>248</ele>
        <time>2014-06-05T13:07:26Z</time>
      </trkpt>
      <trkpt lat="48.64023" lon="5.37426">
        <ele>248</ele>
        <time>2014-06-05T13:07:31Z</time>
      </trkpt>
      <trkpt lat="48.64027" lon="5.37385">
        <ele>248</ele>
        <time>2014-06-05T13:07:36Z</time>
      </trkpt>
      <trkpt lat="48.64031" lon="5.37342">
        <ele>248</ele>
        <time>2014-06-05T13:07:41Z</time>
      </trkpt>
      <trkpt lat="48.64038" lon="5.37297">
        <ele>248</ele>
        <time>2014-06-05T13:07:46Z</time>
      </trkpt>
      <trkpt lat="48.64048" lon="5.37255">
        <ele>248</ele>
        <time>2014-06-05T13:07:51Z</time>
      </trkpt>
      <trkpt lat="48.64059" lon="5.37216">
        <ele>247</ele>
        <time>2014-06-05T13:07:56Z</time>
      </trkpt>
      <trkpt lat="48.64072" lon="5.37178">
        <ele>247</ele>
        <time>2014-06-05T13:08:01Z</time>
      </trkpt>
      <trkpt lat="48.64083" lon="5.3714">
        <ele>246</ele>
        <time>2014-06-05T13:08:06Z</time>
      </trkpt>
      <trkpt lat="48.64098" lon="5.37099">
        <ele>246</ele>
        <time>2014-06-05T13:08:11Z</time>
      </trkpt>
      <trkpt lat="48.64111" lon="5.37059">
        <ele>246</ele>
        <time>2014-06-05T13:08:16Z</time>
      </trkpt>
      <trkpt lat="48.64122" lon="5.37022">
        <ele>244</ele>
        <time>2014-06-05T13:08:21Z</time>
      </trkpt>
      <trkpt lat="48.64135" lon="5.36984">
        <ele>243</ele>
        <time>2014-06-05T13:08:26Z</time>
      </trkpt>
      <trkpt lat="48.6415" lon="5.36944">
        <ele>243</ele>
        <time>2014-06-05T13:08:31Z</time>
      </trkpt>
      <trkpt lat="48.64164" lon="5.36906">
        <ele>243</ele>
        <time>2014-06-05T13:08:36Z</time>
      </trkpt>
      <trkpt lat="48.64177" lon="5.36868">
        <ele>243</ele>
        <time>2014-06-05T13:08:41Z</time>
      </trkpt>
      <trkpt lat="48.64194" lon="5.3682">
        <ele>243</ele>
        <time>2014-06-05T13:08:47Z</time>
      </trkpt>
      <trkpt lat="48.64206" lon="5.36784">
        <ele>243</ele>
        <time>2014-06-05T13:08:52Z</time>
      </trkpt>
      <trkpt lat="48.64219" lon="5.36745">
        <ele>243</ele>
        <time>2014-06-05T13:08:57Z</time>
      </trkpt>
      <trkpt lat="48.64232" lon="5.36707">
        <ele>243</ele>
        <time>2014-06-05T13:09:02Z</time>
      </trkpt>
      <trkpt lat="48.64245" lon="5.36673">
        <ele>243</ele>
        <time>2014-06-05T13:09:07Z</time>
      </trkpt>
      <trkpt lat="48.64262" lon="5.3664">
        <ele>243</ele>
        <time>2014-06-05T13:09:12Z</time>
      </trkpt>
      <trkpt lat="48.64284" lon="5.36606">
        <ele>243</ele>
        <time>2014-06-05T13:09:17Z</time>
      </trkpt>
      <trkpt lat="48.64307" lon="5.36569">
        <ele>243</ele>
        <time>2014-06-05T13:09:22Z</time>
      </trkpt>
      <trkpt lat="48.64329" lon="5.36534">
        <ele>242</ele>
        <time>2014-06-05T13:09:27Z</time>
      </trkpt>
      <trkpt lat="48.64345" lon="5.36503">
        <ele>242</ele>
        <time>2014-06-05T13:09:32Z</time>
      </trkpt>
      <trkpt lat="48.64363" lon="5.36471">
        <ele>242</ele>
        <time>2014-06-05T13:09:37Z</time>
      </trkpt>
      <trkpt lat="48.64382" lon="5.36441">
        <ele>242</ele>
        <time>2014-06-05T13:09:42Z</time>
      </trkpt>
      <trkpt lat="48.64403" lon="5.36409">
        <ele>242</ele>
        <time>2014-06-05T13:09:47Z</time>
      </trkpt>
      <trkpt lat="48.64422" lon="5.36377">
        <ele>242</ele>
        <time>2014-06-05T13:09:52Z</time>
      </trkpt>
      <trkpt lat="48.64436" lon="5.36376">
        <ele>242</ele>
        <time>2014-06-05T13:09:57Z</time>
      </trkpt>
      <trkpt lat="48.64449" lon="5.36383">
        <ele>242</ele>
        <time>2014-06-05T13:10:02Z</time>
      </trkpt>
      <trkpt lat="48.64464" lon="5.36353">
        <ele>241</ele>
        <time>2014-06-05T13:10:07Z</time>
      </trkpt>
      <trkpt lat="48.64491" lon="5.36313">
        <ele>239</ele>
        <time>2014-06-05T13:10:12Z</time>
      </trkpt>
      <trkpt lat="48.64516" lon="5.36279">
        <ele>238</ele>
        <time>2014-06-05T13:10:17Z</time>
      </trkpt>
      <trkpt lat="48.6454" lon="5.36247">
        <ele>238</ele>
        <time>2014-06-05T13:10:22Z</time>
      </trkpt>
      <trkpt lat="48.64562" lon="5.36217">
        <ele>238</ele>
        <time>2014-06-05T13:10:27Z</time>
      </trkpt>
      <trkpt lat="48.64584" lon="5.36189">
        <ele>238</ele>
        <time>2014-06-05T13:10:32Z</time>
      </trkpt>
      <trkpt lat="48.64605" lon="5.36161">
        <ele>238</ele>
        <time>2014-06-05T13:10:37Z</time>
      </trkpt>
      <trkpt lat="48.64626" lon="5.36133">
        <ele>237</ele>
        <time>2014-06-05T13:10:42Z</time>
      </trkpt>
      <trkpt lat="48.64649" lon="5.36105">
        <ele>236</ele>
        <time>2014-06-05T13:10:47Z</time>
      </trkpt>
      <trkpt lat="48.6467" lon="5.36075">
        <ele>235</ele>
        <time>2014-06-05T13:10:52Z</time>
      </trkpt>
      <trkpt lat="48.64689" lon="5.36048">
        <ele>235</ele>
        <time>2014-06-05T13:10:57Z</time>
      </trkpt>
      <trkpt lat="48.64708" lon="5.3602">
        <ele>235</ele>
        <time>2014-06-05T13:11:02Z</time>
      </trkpt>
      <trkpt lat="48.64724" lon="5.35985">
        <ele>235</ele>
        <time>2014-06-05T13:11:07Z</time>
      </trkpt>
      <trkpt lat="48.64738" lon="5.35945">
        <ele>235</ele>
        <time>2014-06-05T13:11:12Z</time>
      </trkpt>
      <trkpt lat="48.64748" lon="5.35902">
        <ele>235</ele>
        <time>2014-06-05T13:11:17Z</time>
      </trkpt>
      <trkpt lat="48.64751" lon="5.35859">
        <ele>235</ele>
        <time>2014-06-05T13:11:22Z</time>
      </trkpt>
      <trkpt lat="48.6475" lon="5.35818">
        <ele>235</ele>
        <time>2014-06-05T13:11:27Z</time>
      </trkpt>
      <trkpt lat="48.64742" lon="5.35783">
        <ele>235</ele>
        <time>2014-06-05T13:11:32Z</time>
      </trkpt>
      <trkpt lat="48.64735" lon="5.35752">
        <ele>235</ele>
        <time>2014-06-05T13:11:37Z</time>
      </trkpt>
      <trkpt lat="48.64727" lon="5.35723">
        <ele>236</ele>
        <time>2014-06-05T13:11:42Z</time>
      </trkpt>
      <trkpt lat="48.64721" lon="5.35696">
        <ele>236</ele>
        <time>2014-06-05T13:11:47Z</time>
      </trkpt>
      <trkpt lat="48.64716" lon="5.35668">
        <ele>237</ele>
        <time>2014-06-05T13:11:52Z</time>
      </trkpt>
      <trkpt lat="48.64714" lon="5.35649">
        <ele>237</ele>
        <time>2014-06-05T13:11:57Z</time>
      </trkpt>
      <trkpt lat="48.64715" lon="5.35621">
        <ele>237</ele>
        <time>2014-06-05T13:12:02Z</time>
      </trkpt>
      <trkpt lat="48.64711" lon="5.35581">
        <ele>237</ele>
        <time>2014-06-05T13:12:07Z</time>
      </trkpt>
      <trkpt lat="48.64706" lon="5.35538">
        <ele>237</ele>
        <time>2014-06-05T13:12:12Z</time>
      </trkpt>
      <trkpt lat="48.64704" lon="5.35492">
        <ele>237</ele>
        <time>2014-06-05T13:12:17Z</time>
      </trkpt>
      <trkpt lat="48.64704" lon="5.3545">
        <ele>237</ele>
        <time>2014-06-05T13:12:22Z</time>
      </trkpt>
      <trkpt lat="48.64706" lon="5.35404">
        <ele>237</ele>
        <time>2014-06-05T13:12:27Z</time>
      </trkpt>
      <trkpt lat="48.64706" lon="5.3536">
        <ele>236</ele>
        <time>2014-06-05T13:12:32Z</time>
      </trkpt>
      <trkpt lat="48.64708" lon="5.35315">
        <ele>235</ele>
        <time>2014-06-05T13:12:37Z</time>
      </trkpt>
      <trkpt lat="48.64706" lon="5.35273">
        <ele>235</ele>
        <time>2014-06-05T13:12:42Z</time>
      </trkpt>
      <trkpt lat="48.64706" lon="5.35227">
        <ele>234</ele>
        <time>2014-06-05T13:12:47Z</time>
      </trkpt>
      <trkpt lat="48.64706" lon="5.35185">
        <ele>233</ele>
        <time>2014-06-05T13:12:52Z</time>
      </trkpt>
      <trkpt lat="48.64706" lon="5.35143">
        <ele>232</ele>
        <time>2014-06-05T13:12:57Z</time>
      </trkpt>
      <trkpt lat="48.6471" lon="5.35102">
        <ele>230</ele>
        <time>2014-06-05T13:13:02Z</time>
      </trkpt>
      <trkpt lat="48.6472" lon="5.35065">
        <ele>230</ele>
        <time>2014-06-05T13:13:07Z</time>
      </trkpt>
      <trkpt lat="48.64741" lon="5.35033">
        <ele>233</ele>
        <time>2014-06-05T13:13:12Z</time>
      </trkpt>
      <trkpt lat="48.64765" lon="5.35015">
        <ele>233</ele>
        <time>2014-06-05T13:13:17Z</time>
      </trkpt>
      <trkpt lat="48.64773" lon="5.34977">
        <ele>233</ele>
        <time>2014-06-05T13:13:22Z</time>
      </trkpt>
      <trkpt lat="48.64771" lon="5.34937">
        <ele>233</ele>
        <time>2014-06-05T13:13:27Z</time>
      </trkpt>
      <trkpt lat="48.64787" lon="5.34897">
        <ele>233</ele>
        <time>2014-06-05T13:13:32Z</time>
      </trkpt>
      <trkpt lat="48.64805" lon="5.34859">
        <ele>233</ele>
        <time>2014-06-05T13:13:37Z</time>
      </trkpt>
      <trkpt lat="48.64822" lon="5.3482">
        <ele>233</ele>
        <time>2014-06-05T13:13:42Z</time>
      </trkpt>
      <trkpt lat="48.64838" lon="5.34784">
        <ele>233</ele>
        <time>2014-06-05T13:13:47Z</time>
      </trkpt>
      <trkpt lat="48.64852" lon="5.34752">
        <ele>233</ele>
        <time>2014-06-05T13:13:52Z</time>
      </trkpt>
      <trkpt lat="48.64867" lon="5.3472">
        <ele>233</ele>
        <time>2014-06-05T13:13:57Z</time>
      </trkpt>
      <trkpt lat="48.64881" lon="5.3469">
        <ele>233</ele>
        <time>2014-06-05T13:14:02Z</time>
      </trkpt>
      <trkpt lat="48.64896" lon="5.34657">
        <ele>233</ele>
        <time>2014-06-05T13:14:07Z</time>
      </trkpt>
      <trkpt lat="48.64912" lon="5.34623">
        <ele>233</ele>
        <time>2014-06-05T13:14:12Z</time>
      </trkpt>
      <trkpt lat="48.64926" lon="5.3459">
        <ele>233</ele>
        <time>2014-06-05T13:14:17Z</time>
      </trkpt>
      <trkpt lat="48.6494" lon="5.34556">
        <ele>233</ele>
        <time>2014-06-05T13:14:22Z</time>
      </trkpt>
      <trkpt lat="48.64955" lon="5.34517">
        <ele>233</ele>
        <time>2014-06-05T13:14:27Z</time>
      </trkpt>
      <trkpt lat="48.64968" lon="5.34479">
        <ele>233</ele>
        <time>2014-06-05T13:14:32Z</time>
      </trkpt>
      <trkpt lat="48.64981" lon="5.3444">
        <ele>233</ele>
        <time>2014-06-05T13:14:37Z</time>
      </trkpt>
      <trkpt lat="48.64995" lon="5.34402">
        <ele>233</ele>
        <time>2014-06-05T13:14:42Z</time>
      </trkpt>
      <trkpt lat="48.6501" lon="5.34372">
        <ele>233</ele>
        <time>2014-06-05T13:14:47Z</time>
      </trkpt>
      <trkpt lat="48.65022" lon="5.34351">
        <ele>234</ele>
        <time>2014-06-05T13:14:52Z</time>
      </trkpt>
      <trkpt lat="48.65018" lon="5.3434">
        <ele>235</ele>
        <time>2014-06-05T13:15:01Z</time>
      </trkpt>
      <trkpt lat="48.65012" lon="5.34331">
        <ele>235</ele>
        <time>2014-06-05T13:15:06Z</time>
      </trkpt>
      <trkpt lat="48.65005" lon="5.34321">
        <ele>235</ele>
        <time>2014-06-05T13:15:11Z</time>
      </trkpt>
      <trkpt lat="48.65" lon="5.34312">
        <ele>236</ele>
        <time>2014-06-05T13:15:16Z</time>
      </trkpt>
      <trkpt lat="48.64997" lon="5.34327">
        <ele>239</ele>
        <time>2014-06-05T13:15:22Z</time>
      </trkpt>
      <trkpt lat="48.65005" lon="5.34337">
        <ele>239</ele>
        <time>2014-06-05T13:15:27Z</time>
      </trkpt>
      <trkpt lat="48.65013" lon="5.34347">
        <ele>239</ele>
        <time>2014-06-05T13:15:32Z</time>
      </trkpt>
      <trkpt lat="48.65015" lon="5.34338">
        <ele>241</ele>
        <time>2014-06-05T13:15:38Z</time>
      </trkpt>
      <trkpt lat="48.65006" lon="5.34326">
        <ele>241</ele>
        <time>2014-06-05T13:15:43Z</time>
      </trkpt>
      <trkpt lat="48.64997" lon="5.34311">
        <ele>241</ele>
        <time>2014-06-05T13:15:48Z</time>
      </trkpt>
      <trkpt lat="48.64999" lon="5.34299">
        <ele>241</ele>
        <time>2014-06-05T13:15:53Z</time>
      </trkpt>
      <trkpt lat="48.65017" lon="5.34268">
        <ele>240</ele>
        <time>2014-06-05T13:15:58Z</time>
      </trkpt>
      <trkpt lat="48.6503" lon="5.34226">
        <ele>240</ele>
        <time>2014-06-05T13:16:03Z</time>
      </trkpt>
      <trkpt lat="48.65043" lon="5.34188">
        <ele>240</ele>
        <time>2014-06-05T13:16:08Z</time>
      </trkpt>
      <trkpt lat="48.65056" lon="5.34148">
        <ele>240</ele>
        <time>2014-06-05T13:16:13Z</time>
      </trkpt>
      <trkpt lat="48.6507" lon="5.34108">
        <ele>239</ele>
        <time>2014-06-05T13:16:18Z</time>
      </trkpt>
      <trkpt lat="48.65082" lon="5.34069">
        <ele>239</ele>
        <time>2014-06-05T13:16:23Z</time>
      </trkpt>
      <trkpt lat="48.65094" lon="5.34029">
        <ele>239</ele>
        <time>2014-06-05T13:16:28Z</time>
      </trkpt>
      <trkpt lat="48.65107" lon="5.33992">
        <ele>239</ele>
        <time>2014-06-05T13:16:33Z</time>
      </trkpt>
      <trkpt lat="48.65119" lon="5.33954">
        <ele>239</ele>
        <time>2014-06-05T13:16:38Z</time>
      </trkpt>
      <trkpt lat="48.65132" lon="5.33915">
        <ele>239</ele>
        <time>2014-06-05T13:16:43Z</time>
      </trkpt>
      <trkpt lat="48.65144" lon="5.33876">
        <ele>239</ele>
        <time>2014-06-05T13:16:48Z</time>
      </trkpt>
      <trkpt lat="48.65157" lon="5.33837">
        <ele>239</ele>
        <time>2014-06-05T13:16:53Z</time>
      </trkpt>
      <trkpt lat="48.65169" lon="5.33798">
        <ele>239</ele>
        <time>2014-06-05T13:16:58Z</time>
      </trkpt>
      <trkpt lat="48.65182" lon="5.33759">
        <ele>239</ele>
        <time>2014-06-05T13:17:03Z</time>
      </trkpt>
      <trkpt lat="48.65194" lon="5.33721">
        <ele>239</ele>
        <time>2014-06-05T13:17:08Z</time>
      </trkpt>
      <trkpt lat="48.65208" lon="5.33675">
        <ele>239</ele>
        <time>2014-06-05T13:17:13Z</time>
      </trkpt>
      <trkpt lat="48.65221" lon="5.33631">
        <ele>237</ele>
        <time>2014-06-05T13:17:18Z</time>
      </trkpt>
      <trkpt lat="48.65232" lon="5.33595">
        <ele>237</ele>
        <time>2014-06-05T13:17:23Z</time>
      </trkpt>
      <trkpt lat="48.65243" lon="5.3356">
        <ele>237</ele>
        <time>2014-06-05T13:17:28Z</time>
      </trkpt>
      <trkpt lat="48.65255" lon="5.33523">
        <ele>237</ele>
        <time>2014-06-05T13:17:33Z</time>
      </trkpt>
      <trkpt lat="48.65266" lon="5.33487">
        <ele>237</ele>
        <time>2014-06-05T13:17:38Z</time>
      </trkpt>
      <trkpt lat="48.65278" lon="5.33452">
        <ele>237</ele>
        <time>2014-06-05T13:17:43Z</time>
      </trkpt>
      <trkpt lat="48.65289" lon="5.33418">
        <ele>237</ele>
        <time>2014-06-05T13:17:48Z</time>
      </trkpt>
      <trkpt lat="48.653" lon="5.33384">
        <ele>237</ele>
        <time>2014-06-05T13:17:53Z</time>
      </trkpt>
      <trkpt lat="48.65311" lon="5.3335">
        <ele>237</ele>
        <time>2014-06-05T13:17:58Z</time>
      </trkpt>
      <trkpt lat="48.65323" lon="5.33318">
        <ele>237</ele>
        <time>2014-06-05T13:18:03Z</time>
      </trkpt>
      <trkpt lat="48.65338" lon="5.33285">
        <ele>237</ele>
        <time>2014-06-05T13:18:08Z</time>
      </trkpt>
      <trkpt lat="48.65354" lon="5.33255">
        <ele>237</ele>
        <time>2014-06-05T13:18:13Z</time>
      </trkpt>
      <trkpt lat="48.65373" lon="5.33228">
        <ele>237</ele>
        <time>2014-06-05T13:18:18Z</time>
      </trkpt>
      <trkpt lat="48.65393" lon="5.33204">
        <ele>237</ele>
        <time>2014-06-05T13:18:23Z</time>
      </trkpt>
      <trkpt lat="48.65416" lon="5.33182">
        <ele>237</ele>
        <time>2014-06-05T13:18:28Z</time>
      </trkpt>
      <trkpt lat="48.65439" lon="5.33161">
        <ele>237</ele>
        <time>2014-06-05T13:18:33Z</time>
      </trkpt>
      <trkpt lat="48.65464" lon="5.33142">
        <ele>237</ele>
        <time>2014-06-05T13:18:38Z</time>
      </trkpt>
      <trkpt lat="48.6549" lon="5.33121">
        <ele>237</ele>
        <time>2014-06-05T13:18:43Z</time>
      </trkpt>
      <trkpt lat="48.65517" lon="5.33101">
        <ele>237</ele>
        <time>2014-06-05T13:18:48Z</time>
      </trkpt>
      <trkpt lat="48.65544" lon="5.33083">
        <ele>237</ele>
        <time>2014-06-05T13:18:53Z</time>
      </trkpt>
      <trkpt lat="48.65572" lon="5.33065">
        <ele>237</ele>
        <time>2014-06-05T13:18:58Z</time>
      </trkpt>
      <trkpt lat="48.65599" lon="5.33047">
        <ele>237</ele>
        <time>2014-06-05T13:19:03Z</time>
      </trkpt>
      <trkpt lat="48.65625" lon="5.33028">
        <ele>237</ele>
        <time>2014-06-05T13:19:08Z</time>
      </trkpt>
      <trkpt lat="48.65653" lon="5.33011">
        <ele>237</ele>
        <time>2014-06-05T13:19:13Z</time>
      </trkpt>
      <trkpt lat="48.65679" lon="5.32989">
        <ele>237</ele>
        <time>2014-06-05T13:19:18Z</time>
      </trkpt>
      <trkpt lat="48.65704" lon="5.32969">
        <ele>237</ele>
        <time>2014-06-05T13:19:23Z</time>
      </trkpt>
      <trkpt lat="48.65731" lon="5.32951">
        <ele>237</ele>
        <time>2014-06-05T13:19:28Z</time>
      </trkpt>
      <trkpt lat="48.65756" lon="5.32932">
        <ele>237</ele>
        <time>2014-06-05T13:19:33Z</time>
      </trkpt>
      <trkpt lat="48.65782" lon="5.32915">
        <ele>237</ele>
        <time>2014-06-05T13:19:38Z</time>
      </trkpt>
      <trkpt lat="48.65808" lon="5.32896">
        <ele>237</ele>
        <time>2014-06-05T13:19:43Z</time>
      </trkpt>
      <trkpt lat="48.65834" lon="5.32878">
        <ele>237</ele>
        <time>2014-06-05T13:19:48Z</time>
      </trkpt>
      <trkpt lat="48.6586" lon="5.32861">
        <ele>237</ele>
        <time>2014-06-05T13:19:53Z</time>
      </trkpt>
      <trkpt lat="48.65888" lon="5.32847">
        <ele>237</ele>
        <time>2014-06-05T13:19:58Z</time>
      </trkpt>
      <trkpt lat="48.65916" lon="5.32837">
        <ele>237</ele>
        <time>2014-06-05T13:20:03Z</time>
      </trkpt>
      <trkpt lat="48.65945" lon="5.32827">
        <ele>237</ele>
        <time>2014-06-05T13:20:08Z</time>
      </trkpt>
      <trkpt lat="48.65973" lon="5.32818">
        <ele>237</ele>
        <time>2014-06-05T13:20:13Z</time>
      </trkpt>
      <trkpt lat="48.66001" lon="5.32809">
        <ele>237</ele>
        <time>2014-06-05T13:20:18Z</time>
      </trkpt>
      <trkpt lat="48.66029" lon="5.32797">
        <ele>237</ele>
        <time>2014-06-05T13:20:23Z</time>
      </trkpt>
      <trkpt lat="48.66057" lon="5.32789">
        <ele>237</ele>
        <time>2014-06-05T13:20:28Z</time>
      </trkpt>
      <trkpt lat="48.66085" lon="5.3278">
        <ele>237</ele>
        <time>2014-06-05T13:20:33Z</time>
      </trkpt>
      <trkpt lat="48.66112" lon="5.32771">
        <ele>237</ele>
        <time>2014-06-05T13:20:38Z</time>
      </trkpt>
      <trkpt lat="48.6614" lon="5.32761">
        <ele>237</ele>
        <time>2014-06-05T13:20:43Z</time>
      </trkpt>
      <trkpt lat="48.66164" lon="5.32748">
        <ele>237</ele>
        <time>2014-06-05T13:20:48Z</time>
      </trkpt>
      <trkpt lat="48.6619" lon="5.32734">
        <ele>237</ele>
        <time>2014-06-05T13:20:53Z</time>
      </trkpt>
      <trkpt lat="48.66213" lon="5.32713">
        <ele>237</ele>
        <time>2014-06-05T13:20:58Z</time>
      </trkpt>
      <trkpt lat="48.66227" lon="5.32709">
        <ele>237</ele>
        <time>2014-06-05T13:21:03Z</time>
      </trkpt>
      <trkpt lat="48.66237" lon="5.32724">
        <ele>237</ele>
        <time>2014-06-05T13:21:08Z</time>
      </trkpt>
      <trkpt lat="48.66256" lon="5.32715">
        <ele>237</ele>
        <time>2014-06-05T13:21:13Z</time>
      </trkpt>
      <trkpt lat="48.66289" lon="5.32691">
        <ele>235</ele>
        <time>2014-06-05T13:21:19Z</time>
      </trkpt>
      <trkpt lat="48.66317" lon="5.32673">
        <ele>233</ele>
        <time>2014-06-05T13:21:24Z</time>
      </trkpt>
      <trkpt lat="48.66343" lon="5.32655">
        <ele>233</ele>
        <time>2014-06-05T13:21:29Z</time>
      </trkpt>
      <trkpt lat="48.66368" lon="5.32639">
        <ele>233</ele>
        <time>2014-06-05T13:21:34Z</time>
      </trkpt>
      <trkpt lat="48.66393" lon="5.32621">
        <ele>233</ele>
        <time>2014-06-05T13:21:39Z</time>
      </trkpt>
      <trkpt lat="48.66419" lon="5.32604">
        <ele>233</ele>
        <time>2014-06-05T13:21:44Z</time>
      </trkpt>
      <trkpt lat="48.66447" lon="5.32585">
        <ele>233</ele>
        <time>2014-06-05T13:21:49Z</time>
      </trkpt>
      <trkpt lat="48.66474" lon="5.32566">
        <ele>232</ele>
        <time>2014-06-05T13:21:54Z</time>
      </trkpt>
      <trkpt lat="48.66502" lon="5.32547">
        <ele>232</ele>
        <time>2014-06-05T13:21:59Z</time>
      </trkpt>
      <trkpt lat="48.66533" lon="5.32525">
        <ele>232</ele>
        <time>2014-06-05T13:22:05Z</time>
      </trkpt>
      <trkpt lat="48.66559" lon="5.32509">
        <ele>232</ele>
        <time>2014-06-05T13:22:10Z</time>
      </trkpt>
      <trkpt lat="48.66585" lon="5.32492">
        <ele>232</ele>
        <time>2014-06-05T13:22:15Z</time>
      </trkpt>
      <trkpt lat="48.66611" lon="5.32475">
        <ele>232</ele>
        <time>2014-06-05T13:22:20Z</time>
      </trkpt>
      <trkpt lat="48.66639" lon="5.32459">
        <ele>232</ele>
        <time>2014-06-05T13:22:25Z</time>
      </trkpt>
      <trkpt lat="48.66668" lon="5.32449">
        <ele>231</ele>
        <time>2014-06-05T13:22:30Z</time>
      </trkpt>
      <trkpt lat="48.66697" lon="5.32446">
        <ele>230</ele>
        <time>2014-06-05T13:22:35Z</time>
      </trkpt>
      <trkpt lat="48.66726" lon="5.32445">
        <ele>230</ele>
        <time>2014-06-05T13:22:40Z</time>
      </trkpt>
      <trkpt lat="48.66755" lon="5.32443">
        <ele>229</ele>
        <time>2014-06-05T13:22:45Z</time>
      </trkpt>
      <trkpt lat="48.66787" lon="5.32441">
        <ele>229</ele>
        <time>2014-06-05T13:22:51Z</time>
      </trkpt>
      <trkpt lat="48.66819" lon="5.32437">
        <ele>229</ele>
        <time>2014-06-05T13:22:57Z</time>
      </trkpt>
      <trkpt lat="48.6685" lon="5.32439">
        <ele>228</ele>
        <time>2014-06-05T13:23:02Z</time>
      </trkpt>
      <trkpt lat="48.66879" lon="5.3244">
        <ele>228</ele>
        <time>2014-06-05T13:23:07Z</time>
      </trkpt>
      <trkpt lat="48.66908" lon="5.3244">
        <ele>227</ele>
        <time>2014-06-05T13:23:12Z</time>
      </trkpt>
      <trkpt lat="48.66937" lon="5.3244">
        <ele>227</ele>
        <time>2014-06-05T13:23:17Z</time>
      </trkpt>
      <trkpt lat="48.66973" lon="5.32441">
        <ele>226</ele>
        <time>2014-06-05T13:23:23Z</time>
      </trkpt>
      <trkpt lat="48.67006" lon="5.32441">
        <ele>226</ele>
        <time>2014-06-05T13:23:28Z</time>
      </trkpt>
      <trkpt lat="48.67037" lon="5.32442">
        <ele>226</ele>
        <time>2014-06-05T13:23:33Z</time>
      </trkpt>
      <trkpt lat="48.67074" lon="5.32442">
        <ele>226</ele>
        <time>2014-06-05T13:23:39Z</time>
      </trkpt>
      <trkpt lat="48.67104" lon="5.32443">
        <ele>226</ele>
        <time>2014-06-05T13:23:44Z</time>
      </trkpt>
      <trkpt lat="48.67131" lon="5.32442">
        <ele>226</ele>
        <time>2014-06-05T13:23:49Z</time>
      </trkpt>
      <trkpt lat="48.67159" lon="5.32441">
        <ele>226</ele>
        <time>2014-06-05T13:23:54Z</time>
      </trkpt>
      <trkpt lat="48.67188" lon="5.32441">
        <ele>226</ele>
        <time>2014-06-05T13:23:59Z</time>
      </trkpt>
      <trkpt lat="48.67222" lon="5.3244">
        <ele>226</ele>
        <time>2014-06-05T13:24:05Z</time>
      </trkpt>
      <trkpt lat="48.6725" lon="5.32439">
        <ele>226</ele>
        <time>2014-06-05T13:24:10Z</time>
      </trkpt>
      <trkpt lat="48.67283" lon="5.32438">
        <ele>224</ele>
        <time>2014-06-05T13:24:16Z</time>
      </trkpt>
      <trkpt lat="48.67314" lon="5.32436">
        <ele>223</ele>
        <time>2014-06-05T13:24:22Z</time>
      </trkpt>
      <trkpt lat="48.67344" lon="5.32436">
        <ele>222</ele>
        <time>2014-06-05T13:24:27Z</time>
      </trkpt>
      <trkpt lat="48.67372" lon="5.32434">
        <ele>222</ele>
        <time>2014-06-05T13:24:32Z</time>
      </trkpt>
      <trkpt lat="48.67408" lon="5.32434">
        <ele>222</ele>
        <time>2014-06-05T13:24:38Z</time>
      </trkpt>
      <trkpt lat="48.67436" lon="5.32429">
        <ele>222</ele>
        <time>2014-06-05T13:24:43Z</time>
      </trkpt>
      <trkpt lat="48.67466" lon="5.32431">
        <ele>222</ele>
        <time>2014-06-05T13:24:48Z</time>
      </trkpt>
      <trkpt lat="48.67498" lon="5.32434">
        <ele>222</ele>
        <time>2014-06-05T13:24:53Z</time>
      </trkpt>
      <trkpt lat="48.67528" lon="5.32432">
        <ele>222</ele>
        <time>2014-06-05T13:24:58Z</time>
      </trkpt>
      <trkpt lat="48.67556" lon="5.32424">
        <ele>222</ele>
        <time>2014-06-05T13:25:03Z</time>
      </trkpt>
      <trkpt lat="48.67584" lon="5.32414">
        <ele>222</ele>
        <time>2014-06-05T13:25:08Z</time>
      </trkpt>
      <trkpt lat="48.67612" lon="5.32404">
        <ele>222</ele>
        <time>2014-06-05T13:25:13Z</time>
      </trkpt>
      <trkpt lat="48.6764" lon="5.32392">
        <ele>222</ele>
        <time>2014-06-05T13:25:18Z</time>
      </trkpt>
      <trkpt lat="48.67667" lon="5.32381">
        <ele>222</ele>
        <time>2014-06-05T13:25:23Z</time>
      </trkpt>
      <trkpt lat="48.67696" lon="5.32371">
        <ele>222</ele>
        <time>2014-06-05T13:25:28Z</time>
      </trkpt>
      <trkpt lat="48.67726" lon="5.32362">
        <ele>222</ele>
        <time>2014-06-05T13:25:33Z</time>
      </trkpt>
      <trkpt lat="48.67754" lon="5.32351">
        <ele>222</ele>
        <time>2014-06-05T13:25:38Z</time>
      </trkpt>
      <trkpt lat="48.67783" lon="5.32341">
        <ele>222</ele>
        <time>2014-06-05T13:25:43Z</time>
      </trkpt>
      <trkpt lat="48.67815" lon="5.3233">
        <ele>222</ele>
        <time>2014-06-05T13:25:49Z</time>
      </trkpt>
      <trkpt lat="48.67849" lon="5.3232">
        <ele>222</ele>
        <time>2014-06-05T13:25:55Z</time>
      </trkpt>
      <trkpt lat="48.67876" lon="5.3231">
        <ele>222</ele>
        <time>2014-06-05T13:26:00Z</time>
      </trkpt>
      <trkpt lat="48.67903" lon="5.32301">
        <ele>222</ele>
        <time>2014-06-05T13:26:05Z</time>
      </trkpt>
      <trkpt lat="48.67936" lon="5.3229">
        <ele>222</ele>
        <time>2014-06-05T13:26:11Z</time>
      </trkpt>
      <trkpt lat="48.6797" lon="5.32277">
        <ele>222</ele>
        <time>2014-06-05T13:26:17Z</time>
      </trkpt>
      <trkpt lat="48.67996" lon="5.32268">
        <ele>222</ele>
        <time>2014-06-05T13:26:22Z</time>
      </trkpt>
      <trkpt lat="48.68025" lon="5.32258">
        <ele>222</ele>
        <time>2014-06-05T13:26:27Z</time>
      </trkpt>
      <trkpt lat="48.68055" lon="5.32248">
        <ele>222</ele>
        <time>2014-06-05T13:26:33Z</time>
      </trkpt>
      <trkpt lat="48.6808" lon="5.3224">
        <ele>222</ele>
        <time>2014-06-05T13:26:38Z</time>
      </trkpt>
      <trkpt lat="48.68105" lon="5.32234">
        <ele>223</ele>
        <time>2014-06-05T13:26:43Z</time>
      </trkpt>
      <trkpt lat="48.68124" lon="5.32235">
        <ele>224</ele>
        <time>2014-06-05T13:26:49Z</time>
      </trkpt>
      <trkpt lat="48.68127" lon="5.32247">
        <ele>225</ele>
        <time>2014-06-05T13:26:54Z</time>
      </trkpt>
      <trkpt lat="48.68135" lon="5.32286">
        <ele>225</ele>
        <time>2014-06-05T13:27:00Z</time>
      </trkpt>
      <trkpt lat="48.68146" lon="5.32334">
        <ele>225</ele>
        <time>2014-06-05T13:27:05Z</time>
      </trkpt>
      <trkpt lat="48.68159" lon="5.32387">
        <ele>225</ele>
        <time>2014-06-05T13:27:10Z</time>
      </trkpt>
      <trkpt lat="48.6817" lon="5.32428">
        <ele>225</ele>
        <time>2014-06-05T13:27:15Z</time>
      </trkpt>
      <trkpt lat="48.68175" lon="5.32453">
        <ele>225</ele>
        <time>2014-06-05T13:27:20Z</time>
      </trkpt>
      <trkpt lat="48.68182" lon="5.32479">
        <ele>225</ele>
        <time>2014-06-05T13:27:25Z</time>
      </trkpt>
      <trkpt lat="48.68186" lon="5.32507">
        <ele>225</ele>
        <time>2014-06-05T13:27:30Z</time>
      </trkpt>
      <trkpt lat="48.6819" lon="5.32521">
        <ele>225</ele>
        <time>2014-06-05T13:27:35Z</time>
      </trkpt>
      <trkpt lat="48.68191" lon="5.32525">
        <ele>225</ele>
        <time>2014-06-05T13:27:41Z</time>
      </trkpt>
      <trkpt lat="48.6819" lon="5.32525">
        <ele>225</ele>
        <time>2014-06-05T13:27:49Z</time>
      </trkpt>
      <trkpt lat="48.6819" lon="5.32521">
        <ele>226</ele>
        <time>2014-06-05T13:27:54Z</time>
      </trkpt>
      <trkpt lat="48.68191" lon="5.32525">
        <ele>226</ele>
        <time>2014-06-05T13:27:59Z</time>
      </trkpt>
      <trkpt lat="48.682" lon="5.32532">
        <ele>226</ele>
        <time>2014-06-05T13:28:05Z</time>
      </trkpt>
      <trkpt lat="48.68206" lon="5.32532">
        <ele>233</ele>
        <time>2014-06-05T13:28:11Z</time>
      </trkpt>
      <trkpt lat="48.68219" lon="5.32531">
        <ele>233</ele>
        <time>2014-06-05T13:28:16Z</time>
      </trkpt>
      <trkpt lat="48.68237" lon="5.32529">
        <ele>233</ele>
        <time>2014-06-05T13:28:21Z</time>
      </trkpt>
      <trkpt lat="48.68264" lon="5.32527">
        <ele>233</ele>
        <time>2014-06-05T13:28:27Z</time>
      </trkpt>
      <trkpt lat="48.68293" lon="5.32525">
        <ele>233</ele>
        <time>2014-06-05T13:28:33Z</time>
      </trkpt>
      <trkpt lat="48.68326" lon="5.32523">
        <ele>233</ele>
        <time>2014-06-05T13:28:39Z</time>
      </trkpt>
      <trkpt lat="48.68358" lon="5.32522">
        <ele>232</ele>
        <time>2014-06-05T13:28:45Z</time>
      </trkpt>
      <trkpt lat="48.68382" lon="5.32519">
        <ele>231</ele>
        <time>2014-06-05T13:28:50Z</time>
      </trkpt>
      <trkpt lat="48.68408" lon="5.32517">
        <ele>231</ele>
        <time>2014-06-05T13:28:55Z</time>
      </trkpt>
      <trkpt lat="48.68429" lon="5.32526">
        <ele>230</ele>
        <time>2014-06-05T13:29:00Z</time>
      </trkpt>
      <trkpt lat="48.68449" lon="5.3252">
        <ele>229</ele>
        <time>2014-06-05T13:29:05Z</time>
      </trkpt>
      <trkpt lat="48.68476" lon="5.32514">
        <ele>226</ele>
        <time>2014-06-05T13:29:11Z</time>
      </trkpt>
      <trkpt lat="48.68496" lon="5.32513">
        <ele>226</ele>
        <time>2014-06-05T13:29:16Z</time>
      </trkpt>
      <trkpt lat="48.68515" lon="5.32512">
        <ele>226</ele>
        <time>2014-06-05T13:29:21Z</time>
      </trkpt>
      <trkpt lat="48.68536" lon="5.32508">
        <ele>226</ele>
        <time>2014-06-05T13:29:27Z</time>
      </trkpt>
      <trkpt lat="48.68558" lon="5.32506">
        <ele>226</ele>
        <time>2014-06-05T13:29:32Z</time>
      </trkpt>
      <trkpt lat="48.6858" lon="5.32502">
        <ele>225</ele>
        <time>2014-06-05T13:29:37Z</time>
      </trkpt>
      <trkpt lat="48.68602" lon="5.32493">
        <ele>224</ele>
        <time>2014-06-05T13:29:42Z</time>
      </trkpt>
      <trkpt lat="48.68626" lon="5.32477">
        <ele>224</ele>
        <time>2014-06-05T13:29:47Z</time>
      </trkpt>
      <trkpt lat="48.68644" lon="5.32455">
        <ele>224</ele>
        <time>2014-06-05T13:29:52Z</time>
      </trkpt>
      <trkpt lat="48.68663" lon="5.32438">
        <ele>224</ele>
        <time>2014-06-05T13:29:57Z</time>
      </trkpt>
      <trkpt lat="48.68684" lon="5.32418">
        <ele>224</ele>
        <time>2014-06-05T13:30:02Z</time>
      </trkpt>
      <trkpt lat="48.68708" lon="5.32398">
        <ele>224</ele>
        <time>2014-06-05T13:30:07Z</time>
      </trkpt>
      <trkpt lat="48.68732" lon="5.32377">
        <ele>224</ele>
        <time>2014-06-05T13:30:12Z</time>
      </trkpt>
      <trkpt lat="48.68752" lon="5.32357">
        <ele>224</ele>
        <time>2014-06-05T13:30:17Z</time>
      </trkpt>
      <trkpt lat="48.68768" lon="5.32337">
        <ele>224</ele>
        <time>2014-06-05T13:30:22Z</time>
      </trkpt>
      <trkpt lat="48.68781" lon="5.32323">
        <ele>228</ele>
        <time>2014-06-05T13:30:27Z</time>
      </trkpt>
      <trkpt lat="48.68787" lon="5.3232">
        <ele>231</ele>
        <time>2014-06-05T13:30:33Z</time>
      </trkpt>
      <trkpt lat="48.68778" lon="5.32327">
        <ele>231</ele>
        <time>2014-06-05T13:30:38Z</time>
      </trkpt>
      <trkpt lat="48.68771" lon="5.32317">
        <ele>234</ele>
        <time>2014-06-05T13:30:43Z</time>
      </trkpt>
      <trkpt lat="48.68768" lon="5.32302">
        <ele>235</ele>
        <time>2014-06-05T13:30:48Z</time>
      </trkpt>
      <trkpt lat="48.68764" lon="5.32268">
        <ele>235</ele>
        <time>2014-06-05T13:30:54Z</time>
      </trkpt>
      <trkpt lat="48.68758" lon="5.32245">
        <ele>235</ele>
        <time>2014-06-05T13:30:59Z</time>
      </trkpt>
      <trkpt lat="48.68747" lon="5.32228">
        <ele>235</ele>
        <time>2014-06-05T13:31:04Z</time>
      </trkpt>
      <trkpt lat="48.68735" lon="5.32223">
        <ele>235</ele>
        <time>2014-06-05T13:31:10Z</time>
      </trkpt>
      <trkpt lat="48.68732" lon="5.32219">
        <ele>235</ele>
        <time>2014-06-05T13:31:16Z</time>
      </trkpt>
      <trkpt lat="48.6873" lon="5.32214">
        <ele>233</ele>
        <time>2014-06-05T13:31:24Z</time>
      </trkpt>
      <trkpt lat="48.68731" lon="5.32212">
        <ele>233</ele>
        <time>2014-06-05T13:31:33Z</time>
      </trkpt>
      <trkpt lat="48.68733" lon="5.3221">
        <ele>236</ele>
        <time>2014-06-05T13:31:38Z</time>
      </trkpt>
      <trkpt lat="48.68736" lon="5.32207">
        <ele>237</ele>
        <time>2014-06-05T13:31:44Z</time>
      </trkpt>
      <trkpt lat="48.6874" lon="5.32207">
        <ele>237</ele>
        <time>2014-06-05T13:31:51Z</time>
      </trkpt>
      <trkpt lat="48.68746" lon="5.32208">
        <ele>237</ele>
        <time>2014-06-05T13:32:00Z</time>
      </trkpt>
      <trkpt lat="48.68756" lon="5.32209">
        <ele>237</ele>
        <time>2014-06-05T13:32:06Z</time>
      </trkpt>
      <trkpt lat="48.6876" lon="5.3221">
        <ele>238</ele>
        <time>2014-06-05T13:32:12Z</time>
      </trkpt>
      <trkpt lat="48.68763" lon="5.32211">
        <ele>239</ele>
        <time>2014-06-05T13:32:18Z</time>
      </trkpt>
      <trkpt lat="48.68765" lon="5.32211">
        <ele>242</ele>
        <time>2014-06-05T13:32:23Z</time>
      </trkpt>
      <trkpt lat="48.68763" lon="5.32212">
        <ele>248</ele>
        <time>2014-06-05T13:32:30Z</time>
      </trkpt>
      <trkpt lat="48.68761" lon="5.32212">
        <ele>246</ele>
        <time>2014-06-05T13:32:36Z</time>
      </trkpt>
      <trkpt lat="48.6876" lon="5.32209">
        <ele>248</ele>
        <time>2014-06-05T13:32:50Z</time>
      </trkpt>
      <trkpt lat="48.68754" lon="5.3221">
        <ele>246</ele>
        <time>2014-06-05T13:32:56Z</time>
      </trkpt>
      <trkpt lat="48.68749" lon="5.3221">
        <ele>241</ele>
        <time>2014-06-05T13:33:01Z</time>
      </trkpt>
      <trkpt lat="48.68751" lon="5.32211">
        <ele>236</ele>
        <time>2014-06-05T13:33:09Z</time>
      </trkpt>
      <trkpt lat="48.68747" lon="5.3221">
        <ele>237</ele>
        <time>2014-06-05T13:33:14Z</time>
      </trkpt>
    </trkseg>
  </trk>
</gpx>